﻿<?xml version="1.0" encoding="utf-8"?><gpx creator="Garmin Desktop App" version="1.1" xsi:schemaLocation="http://www.topografix.com/GPX/1/1 http://www.topografix.com/GPX/1/1/gpx.xsd http://www.garmin.com/xmlschemas/WaypointExtension/v1 http://www8.garmin.com/xmlschemas/WaypointExtensionv1.xsd http://www.garmin.com/xmlschemas/TrackPointExtension/v1 http://www.garmin.com/xmlschemas/TrackPointExtensionv1.xsd http://www.garmin.com/xmlschemas/GpxExtensions/v3 http://www8.garmin.com/xmlschemas/GpxExtensionsv3.xsd http://www.garmin.com/xmlschemas/ActivityExtension/v1 http://www8.garmin.com/xmlschemas/ActivityExtensionv1.xsd http://www.garmin.com/xmlschemas/AdventuresExtensions/v1 http://www8.garmin.com/xmlschemas/AdventuresExtensionv1.xsd http://www.garmin.com/xmlschemas/PressureExtension/v1 http://www.garmin.com/xmlschemas/PressureExtensionv1.xsd http://www.garmin.com/xmlschemas/TripExtensions/v1 http://www.garmin.com/xmlschemas/TripExtensionsv1.xsd http://www.garmin.com/xmlschemas/TripMetaDataExtensions/v1 http://www.garmin.com/xmlschemas/TripMetaDataExtensionsv1.xsd http://www.garmin.com/xmlschemas/ViaPointTransportationModeExtensions/v1 http://www.garmin.com/xmlschemas/ViaPointTransportationModeExtensionsv1.xsd http://www.garmin.com/xmlschemas/CreationTimeExtension/v1 http://www.garmin.com/xmlschemas/CreationTimeExtensionsv1.xsd http://www.garmin.com/xmlschemas/AccelerationExtension/v1 http://www.garmin.com/xmlschemas/AccelerationExtensionv1.xsd http://www.garmin.com/xmlschemas/PowerExtension/v1 http://www.garmin.com/xmlschemas/PowerExtensionv1.xsd http://www.garmin.com/xmlschemas/VideoExtension/v1 http://www.garmin.com/xmlschemas/VideoExtensionv1.xsd" xmlns="http://www.topografix.com/GPX/1/1" xmlns:xsi="http://www.w3.org/2001/XMLSchema-instance" xmlns:wptx1="http://www.garmin.com/xmlschemas/WaypointExtension/v1" xmlns:gpxtrx="http://www.garmin.com/xmlschemas/GpxExtensions/v3" xmlns:gpxtpx="http://www.garmin.com/xmlschemas/TrackPointExtension/v1" xmlns:gpxx="http://www.garmin.com/xmlschemas/GpxExtensions/v3" xmlns:trp="http://www.garmin.com/xmlschemas/TripExtensions/v1" xmlns:adv="http://www.garmin.com/xmlschemas/AdventuresExtensions/v1" xmlns:prs="http://www.garmin.com/xmlschemas/PressureExtension/v1" xmlns:tmd="http://www.garmin.com/xmlschemas/TripMetaDataExtensions/v1" xmlns:vptm="http://www.garmin.com/xmlschemas/ViaPointTransportationModeExtensions/v1" xmlns:ctx="http://www.garmin.com/xmlschemas/CreationTimeExtension/v1" xmlns:gpxacc="http://www.garmin.com/xmlschemas/AccelerationExtension/v1" xmlns:gpxpx="http://www.garmin.com/xmlschemas/PowerExtension/v1" xmlns:vidx1="http://www.garmin.com/xmlschemas/VideoExtension/v1">

  <metadata>
    <link href="http://www.garmin.com">
      <text>Garmin International</text>
    </link>
    <time>2021-09-13T12:24:52Z</time>
    <bounds maxlat="45.963133061304688" maxlon="9.539990080520511" minlat="45.932717984542251" minlon="9.501170217990875" />
  </metadata>

  <trk>
    <name>Valle dei Mughi Stradini anello</name>
    <extensions>
      <gpxx:TrackExtension>
        <gpxx:DisplayColor>Yellow</gpxx:DisplayColor>
      </gpxx:TrackExtension>
    </extensions>
    <trkseg>
      <trkpt lat="45.933244368061423" lon="9.524346934631467">
        <ele>1640.1900000000001</ele>
        <time>2021-08-29T07:08:50Z</time>
      </trkpt>
      <trkpt lat="45.9332334715873" lon="9.524332014843822">
        <ele>1640.77</ele>
        <time>2021-08-29T07:09:08Z</time>
      </trkpt>
      <trkpt lat="45.933260880410671" lon="9.524326482787728">
        <ele>1644.01</ele>
        <time>2021-08-29T07:09:18Z</time>
      </trkpt>
      <trkpt lat="45.933283008635044" lon="9.524348359555006">
        <ele>1645.6099999999999</ele>
        <time>2021-08-29T07:09:28Z</time>
      </trkpt>
      <trkpt lat="45.933261634781957" lon="9.524351712316275">
        <ele>1646.6500000000001</ele>
        <time>2021-08-29T07:09:38Z</time>
      </trkpt>
      <trkpt lat="45.933260712772608" lon="9.524335702881217">
        <ele>1648.3499999999999</ele>
        <time>2021-08-29T07:09:50Z</time>
      </trkpt>
      <trkpt lat="45.933299269527197" lon="9.52435003593564">
        <ele>1647.55</ele>
        <time>2021-08-29T07:10:00Z</time>
      </trkpt>
      <trkpt lat="45.933257527649403" lon="9.524450618773699">
        <ele>1645.9100000000001</ele>
        <time>2021-08-29T07:10:10Z</time>
      </trkpt>
      <trkpt lat="45.933255683630705" lon="9.524587914347649">
        <ele>1645.1199999999999</ele>
        <time>2021-08-29T07:10:20Z</time>
      </trkpt>
      <trkpt lat="45.933296168223023" lon="9.524729903787375">
        <ele>1650.3699999999999</ele>
        <time>2021-08-29T07:10:30Z</time>
      </trkpt>
      <trkpt lat="45.933334724977612" lon="9.524791007861495">
        <ele>1649.97</ele>
        <time>2021-08-29T07:10:39Z</time>
      </trkpt>
      <trkpt lat="45.93329843133688" lon="9.524961411952972">
        <ele>1644.71</ele>
        <time>2021-08-29T07:10:48Z</time>
      </trkpt>
      <trkpt lat="45.933348471298814" lon="9.525046907365322">
        <ele>1645.47</ele>
        <time>2021-08-29T07:10:58Z</time>
      </trkpt>
      <trkpt lat="45.933359786868095" lon="9.525183700025082">
        <ele>1644.0599999999999</ele>
        <time>2021-08-29T07:11:07Z</time>
      </trkpt>
      <trkpt lat="45.93344209715724" lon="9.525259723886848">
        <ele>1645.01</ele>
        <time>2021-08-29T07:11:16Z</time>
      </trkpt>
      <trkpt lat="45.933523317798972" lon="9.525385284796357">
        <ele>1645.5699999999999</ele>
        <time>2021-08-29T07:11:25Z</time>
      </trkpt>
      <trkpt lat="45.933551732450724" lon="9.525499613955617">
        <ele>1645.01</ele>
        <time>2021-08-29T07:11:35Z</time>
      </trkpt>
      <trkpt lat="45.933569502085447" lon="9.52564780600369">
        <ele>1642.8800000000001</ele>
        <time>2021-08-29T07:11:44Z</time>
      </trkpt>
      <trkpt lat="45.933628175407648" lon="9.525776719674468">
        <ele>1643.5899999999999</ele>
        <time>2021-08-29T07:11:54Z</time>
      </trkpt>
      <trkpt lat="45.933661703020334" lon="9.525827933102846">
        <ele>1647.9100000000001</ele>
        <time>2021-08-29T07:12:03Z</time>
      </trkpt>
      <trkpt lat="45.933673186227679" lon="9.525905381888151">
        <ele>1646.1500000000001</ele>
        <time>2021-08-29T07:12:13Z</time>
      </trkpt>
      <trkpt lat="45.933704199269414" lon="9.526007976382971">
        <ele>1649.75</ele>
        <time>2021-08-29T07:12:22Z</time>
      </trkpt>
      <trkpt lat="45.933689530938864" lon="9.526064721867442">
        <ele>1653.4200000000001</ele>
        <time>2021-08-29T07:12:32Z</time>
      </trkpt>
      <trkpt lat="45.933747533708811" lon="9.526157760992646">
        <ele>1656.03</ele>
        <time>2021-08-29T07:12:41Z</time>
      </trkpt>
      <trkpt lat="45.933766392990947" lon="9.526323471218348">
        <ele>1647.3399999999999</ele>
        <time>2021-08-29T07:12:50Z</time>
      </trkpt>
      <trkpt lat="45.933780893683434" lon="9.526389520615339">
        <ele>1647.4400000000001</ele>
        <time>2021-08-29T07:12:59Z</time>
      </trkpt>
      <trkpt lat="45.933770332485437" lon="9.526437716558576">
        <ele>1647.3800000000001</ele>
        <time>2021-08-29T07:13:09Z</time>
      </trkpt>
      <trkpt lat="45.93376949429512" lon="9.526536706835032">
        <ele>1645.95</ele>
        <time>2021-08-29T07:13:18Z</time>
      </trkpt>
      <trkpt lat="45.933778714388609" lon="9.526702668517828">
        <ele>1646.7</ele>
        <time>2021-08-29T07:13:28Z</time>
      </trkpt>
      <trkpt lat="45.933765303343534" lon="9.526948174461722">
        <ele>1646.71</ele>
        <time>2021-08-29T07:13:37Z</time>
      </trkpt>
      <trkpt lat="45.933738313615322" lon="9.527082117274404">
        <ele>1647.21</ele>
        <time>2021-08-29T07:13:47Z</time>
      </trkpt>
      <trkpt lat="45.933683076873422" lon="9.527176665142179">
        <ele>1647.0699999999999</ele>
        <time>2021-08-29T07:13:57Z</time>
      </trkpt>
      <trkpt lat="45.933638485148549" lon="9.527292167767882">
        <ele>1644.96</ele>
        <time>2021-08-29T07:14:06Z</time>
      </trkpt>
      <trkpt lat="45.933635635301471" lon="9.527444466948509">
        <ele>1644.9100000000001</ele>
        <time>2021-08-29T07:14:15Z</time>
      </trkpt>
      <trkpt lat="45.933638568967581" lon="9.527618223801255">
        <ele>1645.04</ele>
        <time>2021-08-29T07:14:25Z</time>
      </trkpt>
      <trkpt lat="45.933626415207982" lon="9.527749987319112">
        <ele>1645.1199999999999</ele>
        <time>2021-08-29T07:14:36Z</time>
      </trkpt>
      <trkpt lat="45.933627923950553" lon="9.527903292328119">
        <ele>1642.46</ele>
        <time>2021-08-29T07:14:45Z</time>
      </trkpt>
      <trkpt lat="45.933664469048381" lon="9.527960876002908">
        <ele>1641.6300000000001</ele>
        <time>2021-08-29T07:14:56Z</time>
      </trkpt>
      <trkpt lat="45.93363513238728" lon="9.528163466602564">
        <ele>1641.3299999999999</ele>
        <time>2021-08-29T07:15:05Z</time>
      </trkpt>
      <trkpt lat="45.93365466222167" lon="9.528169836848974">
        <ele>1641.4300000000001</ele>
        <time>2021-08-29T07:15:15Z</time>
      </trkpt>
      <trkpt lat="45.933577716350555" lon="9.52847988344729">
        <ele>1641.24</ele>
        <time>2021-08-29T07:15:24Z</time>
      </trkpt>
      <trkpt lat="45.933548295870423" lon="9.528607875108719">
        <ele>1641.1700000000001</ele>
        <time>2021-08-29T07:15:33Z</time>
      </trkpt>
      <trkpt lat="45.933488281443715" lon="9.528713906183839">
        <ele>1641.8399999999999</ele>
        <time>2021-08-29T07:15:43Z</time>
      </trkpt>
      <trkpt lat="45.933458609506488" lon="9.528734860941768">
        <ele>1642.04</ele>
        <time>2021-08-29T07:15:52Z</time>
      </trkpt>
      <trkpt lat="45.93343329615891" lon="9.528848687186837">
        <ele>1642.1199999999999</ele>
        <time>2021-08-29T07:16:01Z</time>
      </trkpt>
      <trkpt lat="45.93332433141768" lon="9.529047422111034">
        <ele>1642.0899999999999</ele>
        <time>2021-08-29T07:16:12Z</time>
      </trkpt>
      <trkpt lat="45.9332075715065" lon="9.529216568917036">
        <ele>1642.1099999999999</ele>
        <time>2021-08-29T07:16:21Z</time>
      </trkpt>
      <trkpt lat="45.933109670877457" lon="9.529346907511354">
        <ele>1642.1099999999999</ele>
        <time>2021-08-29T07:16:31Z</time>
      </trkpt>
      <trkpt lat="45.933041023090482" lon="9.529405413195491">
        <ele>1642.1600000000001</ele>
        <time>2021-08-29T07:16:40Z</time>
      </trkpt>
      <trkpt lat="45.932993330061436" lon="9.529507420957089">
        <ele>1642.04</ele>
        <time>2021-08-29T07:16:50Z</time>
      </trkpt>
      <trkpt lat="45.932924430817366" lon="9.529643123969436">
        <ele>1641.8499999999999</ele>
        <time>2021-08-29T07:16:59Z</time>
      </trkpt>
      <trkpt lat="45.932808928191662" lon="9.529811935499311">
        <ele>1641.0899999999999</ele>
        <time>2021-08-29T07:17:08Z</time>
      </trkpt>
      <trkpt lat="45.932749668136239" lon="9.530004216358066">
        <ele>1641.1600000000001</ele>
        <time>2021-08-29T07:17:18Z</time>
      </trkpt>
      <trkpt lat="45.932717984542251" lon="9.530205968767405">
        <ele>1641.2</ele>
        <time>2021-08-29T07:17:27Z</time>
      </trkpt>
      <trkpt lat="45.93273407779634" lon="9.530301773920655">
        <ele>1641.6900000000001</ele>
        <time>2021-08-29T07:17:36Z</time>
      </trkpt>
      <trkpt lat="45.932769868522882" lon="9.530460024252534">
        <ele>1642</ele>
        <time>2021-08-29T07:17:46Z</time>
      </trkpt>
      <trkpt lat="45.932809431105852" lon="9.530620705336332">
        <ele>1641.71</ele>
        <time>2021-08-29T07:17:55Z</time>
      </trkpt>
      <trkpt lat="45.932842623442411" lon="9.530559433624148">
        <ele>1642.0599999999999</ele>
        <time>2021-08-29T07:18:05Z</time>
      </trkpt>
      <trkpt lat="45.932807587087154" lon="9.530817931517959">
        <ele>1642.2</ele>
        <time>2021-08-29T07:18:14Z</time>
      </trkpt>
      <trkpt lat="45.932837007567286" lon="9.53104617074132">
        <ele>1642.0599999999999</ele>
        <time>2021-08-29T07:18:24Z</time>
      </trkpt>
      <trkpt lat="45.932924598455429" lon="9.531223280355334">
        <ele>1642.0899999999999</ele>
        <time>2021-08-29T07:18:33Z</time>
      </trkpt>
      <trkpt lat="45.932970782741904" lon="9.531272063031793">
        <ele>1642.21</ele>
        <time>2021-08-29T07:18:43Z</time>
      </trkpt>
      <trkpt lat="45.933049404993653" lon="9.531432241201401">
        <ele>1642.27</ele>
        <time>2021-08-29T07:18:52Z</time>
      </trkpt>
      <trkpt lat="45.93312056735158" lon="9.531578589230776">
        <ele>1642.1700000000001</ele>
        <time>2021-08-29T07:19:02Z</time>
      </trkpt>
      <trkpt lat="45.933190891519189" lon="9.531680764630437">
        <ele>1642.1600000000001</ele>
        <time>2021-08-29T07:19:11Z</time>
      </trkpt>
      <trkpt lat="45.933267585933208" lon="9.531765589490533">
        <ele>1642.0599999999999</ele>
        <time>2021-08-29T07:19:21Z</time>
      </trkpt>
      <trkpt lat="45.933346208184958" lon="9.531799620017409">
        <ele>1640.8599999999999</ele>
        <time>2021-08-29T07:19:30Z</time>
      </trkpt>
      <trkpt lat="45.933452658355236" lon="9.531826190650463">
        <ele>1641.8599999999999</ele>
        <time>2021-08-29T07:19:39Z</time>
      </trkpt>
      <trkpt lat="45.933554917573929" lon="9.531925264745951">
        <ele>1642.03</ele>
        <time>2021-08-29T07:19:49Z</time>
      </trkpt>
      <trkpt lat="45.933637814596295" lon="9.532013861462474">
        <ele>1641.98</ele>
        <time>2021-08-29T07:19:58Z</time>
      </trkpt>
      <trkpt lat="45.933706713840365" lon="9.532097093760967">
        <ele>1640.8800000000001</ele>
        <time>2021-08-29T07:20:08Z</time>
      </trkpt>
      <trkpt lat="45.933797489851713" lon="9.532163813710213">
        <ele>1641.8299999999999</ele>
        <time>2021-08-29T07:20:18Z</time>
      </trkpt>
      <trkpt lat="45.933841075748205" lon="9.532272024080157">
        <ele>1641.8499999999999</ele>
        <time>2021-08-29T07:20:27Z</time>
      </trkpt>
      <trkpt lat="45.933876531198621" lon="9.532389789819717">
        <ele>1642.04</ele>
        <time>2021-08-29T07:20:36Z</time>
      </trkpt>
      <trkpt lat="45.93386571854353" lon="9.532463885843754">
        <ele>1641.97</ele>
        <time>2021-08-29T07:20:46Z</time>
      </trkpt>
      <trkpt lat="45.933909136801958" lon="9.532546028494835">
        <ele>1641.99</ele>
        <time>2021-08-29T07:20:55Z</time>
      </trkpt>
      <trkpt lat="45.933929504826665" lon="9.532597996294498">
        <ele>1642.01</ele>
        <time>2021-08-29T07:21:05Z</time>
      </trkpt>
      <trkpt lat="45.933965295553207" lon="9.532691705971956">
        <ele>1641.25</ele>
        <time>2021-08-29T07:21:14Z</time>
      </trkpt>
      <trkpt lat="45.934008629992604" lon="9.532795306295157">
        <ele>1640.4300000000001</ele>
        <time>2021-08-29T07:21:23Z</time>
      </trkpt>
      <trkpt lat="45.934038972482085" lon="9.532861271873117">
        <ele>1640.1199999999999</ele>
        <time>2021-08-29T07:21:32Z</time>
      </trkpt>
      <trkpt lat="45.934111475944519" lon="9.532952634617686">
        <ele>1640.03</ele>
        <time>2021-08-29T07:21:42Z</time>
      </trkpt>
      <trkpt lat="45.934161767363548" lon="9.533034861087799">
        <ele>1640.0699999999999</ele>
        <time>2021-08-29T07:21:52Z</time>
      </trkpt>
      <trkpt lat="45.934192026033998" lon="9.533111723139882">
        <ele>1640.0699999999999</ele>
        <time>2021-08-29T07:22:01Z</time>
      </trkpt>
      <trkpt lat="45.934268217533827" lon="9.533194620162249">
        <ele>1640.28</ele>
        <time>2021-08-29T07:22:11Z</time>
      </trkpt>
      <trkpt lat="45.934302667155862" lon="9.533256478607655">
        <ele>1640.3299999999999</ele>
        <time>2021-08-29T07:22:20Z</time>
      </trkpt>
      <trkpt lat="45.934343487024307" lon="9.533275170251727">
        <ele>1640.21</ele>
        <time>2021-08-29T07:22:29Z</time>
      </trkpt>
      <trkpt lat="45.934351785108447" lon="9.533343901857734">
        <ele>1640.05</ele>
        <time>2021-08-29T07:22:39Z</time>
      </trkpt>
      <trkpt lat="45.934345331043005" lon="9.533332334831357">
        <ele>1640.4400000000001</ele>
        <time>2021-08-29T07:22:51Z</time>
      </trkpt>
      <trkpt lat="45.934313228353858" lon="9.533261507749558">
        <ele>1640.5699999999999</ele>
        <time>2021-08-29T07:23:01Z</time>
      </trkpt>
      <trkpt lat="45.934334769845009" lon="9.533261591568589">
        <ele>1640.23</ele>
        <time>2021-08-29T07:23:48Z</time>
      </trkpt>
      <trkpt lat="45.934344828128815" lon="9.533260082826018">
        <ele>1640.0699999999999</ele>
        <time>2021-08-29T07:24:07Z</time>
      </trkpt>
      <trkpt lat="45.934355976060033" lon="9.533270560204983">
        <ele>1640.25</ele>
        <time>2021-08-29T07:24:27Z</time>
      </trkpt>
      <trkpt lat="45.934427725151181" lon="9.533347506076098">
        <ele>1640.0799999999999</ele>
        <time>2021-08-29T07:24:37Z</time>
      </trkpt>
      <trkpt lat="45.934478435665369" lon="9.533428810536861">
        <ele>1640.01</ele>
        <time>2021-08-29T07:24:47Z</time>
      </trkpt>
      <trkpt lat="45.9345165733248" lon="9.533496703952551">
        <ele>1640.1700000000001</ele>
        <time>2021-08-29T07:24:57Z</time>
      </trkpt>
      <trkpt lat="45.934590501710773" lon="9.53351279720664">
        <ele>1640.1300000000001</ele>
        <time>2021-08-29T07:25:07Z</time>
      </trkpt>
      <trkpt lat="45.934625118970871" lon="9.533545235171914">
        <ele>1639.99</ele>
        <time>2021-08-29T07:25:17Z</time>
      </trkpt>
      <trkpt lat="45.93465487472713" lon="9.533547414466739">
        <ele>1639.98</ele>
        <time>2021-08-29T07:25:27Z</time>
      </trkpt>
      <trkpt lat="45.934725366532803" lon="9.533590162172914">
        <ele>1640.22</ele>
        <time>2021-08-29T07:25:37Z</time>
      </trkpt>
      <trkpt lat="45.934770880267024" lon="9.533612625673413">
        <ele>1640.1600000000001</ele>
        <time>2021-08-29T07:25:47Z</time>
      </trkpt>
      <trkpt lat="45.934808179736137" lon="9.533643973991275">
        <ele>1640.21</ele>
        <time>2021-08-29T07:25:57Z</time>
      </trkpt>
      <trkpt lat="45.934843886643648" lon="9.533704994246364">
        <ele>1640.27</ele>
        <time>2021-08-29T07:26:07Z</time>
      </trkpt>
      <trkpt lat="45.934892920777202" lon="9.533762829378247">
        <ele>1640.24</ele>
        <time>2021-08-29T07:26:17Z</time>
      </trkpt>
      <trkpt lat="45.934961065649986" lon="9.533812534064055">
        <ele>1640.1199999999999</ele>
        <time>2021-08-29T07:26:27Z</time>
      </trkpt>
      <trkpt lat="45.934987887740135" lon="9.533873470500112">
        <ele>1640.0899999999999</ele>
        <time>2021-08-29T07:26:37Z</time>
      </trkpt>
      <trkpt lat="45.93502233736217" lon="9.533954691141844">
        <ele>1640.04</ele>
        <time>2021-08-29T07:26:47Z</time>
      </trkpt>
      <trkpt lat="45.935048991814256" lon="9.534095339477062">
        <ele>1639.9200000000001</ele>
        <time>2021-08-29T07:26:57Z</time>
      </trkpt>
      <trkpt lat="45.935048740357161" lon="9.534155102446675">
        <ele>1675.03</ele>
        <time>2021-08-29T07:27:07Z</time>
      </trkpt>
      <trkpt lat="45.935100372880697" lon="9.534229785203934">
        <ele>1673.53</ele>
        <time>2021-08-29T07:27:17Z</time>
      </trkpt>
      <trkpt lat="45.935153933241963" lon="9.534298265352845">
        <ele>1673.02</ele>
        <time>2021-08-29T07:27:27Z</time>
      </trkpt>
      <trkpt lat="45.93519140034914" lon="9.534371607005596">
        <ele>1671.5999999999999</ele>
        <time>2021-08-29T07:27:37Z</time>
      </trkpt>
      <trkpt lat="45.935252169147134" lon="9.534422988072038">
        <ele>1673.1900000000001</ele>
        <time>2021-08-29T07:27:47Z</time>
      </trkpt>
      <trkpt lat="45.935273123905063" lon="9.534542178735137">
        <ele>1676.54</ele>
        <time>2021-08-29T07:27:57Z</time>
      </trkpt>
      <trkpt lat="45.935307573527098" lon="9.53462976962328">
        <ele>1676.6300000000001</ele>
        <time>2021-08-29T07:28:07Z</time>
      </trkpt>
      <trkpt lat="45.935312770307064" lon="9.534741835668683">
        <ele>1678.8399999999999</ele>
        <time>2021-08-29T07:28:17Z</time>
      </trkpt>
      <trkpt lat="45.935316793620586" lon="9.534886004403234">
        <ele>1683.75</ele>
        <time>2021-08-29T07:28:27Z</time>
      </trkpt>
      <trkpt lat="45.935313859954476" lon="9.534953813999891">
        <ele>1683.7</ele>
        <time>2021-08-29T07:28:37Z</time>
      </trkpt>
      <trkpt lat="45.935346968472004" lon="9.535088511183858">
        <ele>1685.0999999999999</ele>
        <time>2021-08-29T07:28:47Z</time>
      </trkpt>
      <trkpt lat="45.935410922393203" lon="9.535141317173839">
        <ele>1686.6700000000001</ele>
        <time>2021-08-29T07:28:57Z</time>
      </trkpt>
      <trkpt lat="45.935469763353467" lon="9.53521172516048">
        <ele>1687.1900000000001</ele>
        <time>2021-08-29T07:29:07Z</time>
      </trkpt>
      <trkpt lat="45.935537908226252" lon="9.535300908610225">
        <ele>1686.1600000000001</ele>
        <time>2021-08-29T07:29:16Z</time>
      </trkpt>
      <trkpt lat="45.935585014522076" lon="9.535337118431926">
        <ele>1687.54</ele>
        <time>2021-08-29T07:29:26Z</time>
      </trkpt>
      <trkpt lat="45.935632707551122" lon="9.535419009625912">
        <ele>1689.0699999999999</ele>
        <time>2021-08-29T07:29:35Z</time>
      </trkpt>
      <trkpt lat="45.935715604573488" lon="9.535451363772154">
        <ele>1691.96</ele>
        <time>2021-08-29T07:29:45Z</time>
      </trkpt>
      <trkpt lat="45.935763465240598" lon="9.535467121750116">
        <ele>1690.7</ele>
        <time>2021-08-29T07:29:55Z</time>
      </trkpt>
      <trkpt lat="45.93583538196981" lon="9.535499894991517">
        <ele>1690.25</ele>
        <time>2021-08-29T07:30:04Z</time>
      </trkpt>
      <trkpt lat="45.935892295092344" lon="9.535562926903367">
        <ele>1690.1099999999999</ele>
        <time>2021-08-29T07:30:14Z</time>
      </trkpt>
      <trkpt lat="45.935956165194511" lon="9.535611290484667">
        <ele>1689.8599999999999</ele>
        <time>2021-08-29T07:30:23Z</time>
      </trkpt>
      <trkpt lat="45.936042917892337" lon="9.53574338927865">
        <ele>1694.71</ele>
        <time>2021-08-29T07:30:33Z</time>
      </trkpt>
      <trkpt lat="45.936095807701349" lon="9.535818323493004">
        <ele>1694.1300000000001</ele>
        <time>2021-08-29T07:30:42Z</time>
      </trkpt>
      <trkpt lat="45.936161605641246" lon="9.535872889682651">
        <ele>1695.78</ele>
        <time>2021-08-29T07:30:51Z</time>
      </trkpt>
      <trkpt lat="45.936180716380477" lon="9.535956541076303">
        <ele>1694.3499999999999</ele>
        <time>2021-08-29T07:31:02Z</time>
      </trkpt>
      <trkpt lat="45.936221284791827" lon="9.536017561331391">
        <ele>1692.55</ele>
        <time>2021-08-29T07:31:11Z</time>
      </trkpt>
      <trkpt lat="45.936255482956767" lon="9.53603457659483">
        <ele>1690.1800000000001</ele>
        <time>2021-08-29T07:31:20Z</time>
      </trkpt>
      <trkpt lat="45.936293704435229" lon="9.536106828600168">
        <ele>1694.5999999999999</ele>
        <time>2021-08-29T07:31:29Z</time>
      </trkpt>
      <trkpt lat="45.936449524015188" lon="9.536261223256588">
        <ele>1695.6199999999999</ele>
        <time>2021-08-29T07:31:38Z</time>
      </trkpt>
      <trkpt lat="45.936468886211514" lon="9.536364572122693">
        <ele>1693.6800000000001</ele>
        <time>2021-08-29T07:31:49Z</time>
      </trkpt>
      <trkpt lat="45.936536528170109" lon="9.536475716158748">
        <ele>1692.6199999999999</ele>
        <time>2021-08-29T07:31:58Z</time>
      </trkpt>
      <trkpt lat="45.936604673042893" lon="9.536558697000146">
        <ele>1696.6900000000001</ele>
        <time>2021-08-29T07:32:08Z</time>
      </trkpt>
      <trkpt lat="45.936650102958083" lon="9.536665063351393">
        <ele>1698.0699999999999</ele>
        <time>2021-08-29T07:32:17Z</time>
      </trkpt>
      <trkpt lat="45.936697460711002" lon="9.53675240278244">
        <ele>1698.1199999999999</ele>
        <time>2021-08-29T07:32:26Z</time>
      </trkpt>
      <trkpt lat="45.936763929203153" lon="9.536836305633187">
        <ele>1698.01</ele>
        <time>2021-08-29T07:32:35Z</time>
      </trkpt>
      <trkpt lat="45.936823524534702" lon="9.536918699741364">
        <ele>1701.05</ele>
        <time>2021-08-29T07:32:44Z</time>
      </trkpt>
      <trkpt lat="45.936850178986788" lon="9.537081308662891">
        <ele>1706.1900000000001</ele>
        <time>2021-08-29T07:32:53Z</time>
      </trkpt>
      <trkpt lat="45.936915725469589" lon="9.537174180150032">
        <ele>1704.5599999999999</ele>
        <time>2021-08-29T07:33:03Z</time>
      </trkpt>
      <trkpt lat="45.936960065737367" lon="9.53725422732532">
        <ele>1708.9000000000001</ele>
        <time>2021-08-29T07:33:12Z</time>
      </trkpt>
      <trkpt lat="45.936974482610822" lon="9.537365874275565">
        <ele>1711.26</ele>
        <time>2021-08-29T07:33:21Z</time>
      </trkpt>
      <trkpt lat="45.937008680775762" lon="9.537456901744008">
        <ele>1713.3499999999999</ele>
        <time>2021-08-29T07:33:31Z</time>
      </trkpt>
      <trkpt lat="45.937048578634858" lon="9.53754642046988">
        <ele>1714.3800000000001</ele>
        <time>2021-08-29T07:33:40Z</time>
      </trkpt>
      <trkpt lat="45.937095433473587" lon="9.537662928923965">
        <ele>1711.6400000000001</ele>
        <time>2021-08-29T07:33:49Z</time>
      </trkpt>
      <trkpt lat="45.937120830640197" lon="9.537758398801088">
        <ele>1713.02</ele>
        <time>2021-08-29T07:33:58Z</time>
      </trkpt>
      <trkpt lat="45.937153771519661" lon="9.537842301651835">
        <ele>1709.5</ele>
        <time>2021-08-29T07:34:07Z</time>
      </trkpt>
      <trkpt lat="45.937161231413484" lon="9.537921510636807">
        <ele>1710.3900000000001</ele>
        <time>2021-08-29T07:34:17Z</time>
      </trkpt>
      <trkpt lat="45.937191322445869" lon="9.537978423759341">
        <ele>1708.74</ele>
        <time>2021-08-29T07:34:27Z</time>
      </trkpt>
      <trkpt lat="45.937243290245533" lon="9.538053190335631">
        <ele>1711.29</ele>
        <time>2021-08-29T07:34:36Z</time>
      </trkpt>
      <trkpt lat="45.937260305508971" lon="9.538137931376696">
        <ele>1713.3199999999999</ele>
        <time>2021-08-29T07:34:46Z</time>
      </trkpt>
      <trkpt lat="45.93728712759912" lon="9.5382344070822">
        <ele>1714.5999999999999</ele>
        <time>2021-08-29T07:34:55Z</time>
      </trkpt>
      <trkpt lat="45.937293162569404" lon="9.538312023505569">
        <ele>1717.5799999999999</ele>
        <time>2021-08-29T07:35:05Z</time>
      </trkpt>
      <trkpt lat="45.937303388491273" lon="9.538428112864494">
        <ele>1721.4400000000001</ele>
        <time>2021-08-29T07:35:14Z</time>
      </trkpt>
      <trkpt lat="45.937356613576412" lon="9.538513524457812">
        <ele>1719.8599999999999</ele>
        <time>2021-08-29T07:35:25Z</time>
      </trkpt>
      <trkpt lat="45.937401121482253" lon="9.538569683209062">
        <ele>1721</ele>
        <time>2021-08-29T07:35:35Z</time>
      </trkpt>
      <trkpt lat="45.937374969944358" lon="9.538571024313569">
        <ele>1720.5899999999999</ele>
        <time>2021-08-29T07:35:45Z</time>
      </trkpt>
      <trkpt lat="45.937333395704627" lon="9.538590386509895">
        <ele>1722.4100000000001</ele>
        <time>2021-08-29T07:35:55Z</time>
      </trkpt>
      <trkpt lat="45.937335072085261" lon="9.538606982678175">
        <ele>1720.5699999999999</ele>
        <time>2021-08-29T07:36:08Z</time>
      </trkpt>
      <trkpt lat="45.937365330755711" lon="9.538655178621411">
        <ele>1721.3099999999999</ele>
        <time>2021-08-29T07:36:18Z</time>
      </trkpt>
      <trkpt lat="45.937361726537347" lon="9.538640007376671">
        <ele>1722.24</ele>
        <time>2021-08-29T07:36:28Z</time>
      </trkpt>
      <trkpt lat="45.937360636889935" lon="9.538593403995037">
        <ele>1723.6099999999999</ele>
        <time>2021-08-29T07:36:42Z</time>
      </trkpt>
      <trkpt lat="45.937375808134675" lon="9.538596086204052">
        <ele>1723.54</ele>
        <time>2021-08-29T07:36:51Z</time>
      </trkpt>
      <trkpt lat="45.937403636053205" lon="9.538711002096534">
        <ele>1722.6400000000001</ele>
        <time>2021-08-29T07:37:01Z</time>
      </trkpt>
      <trkpt lat="45.937443114817142" lon="9.538810662925243">
        <ele>1723.45</ele>
        <time>2021-08-29T07:37:10Z</time>
      </trkpt>
      <trkpt lat="45.937459291890264" lon="9.538871683180332">
        <ele>1728.3499999999999</ele>
        <time>2021-08-29T07:37:20Z</time>
      </trkpt>
      <trkpt lat="45.937499525025487" lon="9.538963213562965">
        <ele>1730.4000000000001</ele>
        <time>2021-08-29T07:37:29Z</time>
      </trkpt>
      <trkpt lat="45.937518300488591" lon="9.539077877998352">
        <ele>1729.73</ele>
        <time>2021-08-29T07:37:38Z</time>
      </trkpt>
      <trkpt lat="45.937523078173399" lon="9.53916572034359">
        <ele>1728.6400000000001</ele>
        <time>2021-08-29T07:37:48Z</time>
      </trkpt>
      <trkpt lat="45.937560880556703" lon="9.539199080318213">
        <ele>1726.71</ele>
        <time>2021-08-29T07:37:57Z</time>
      </trkpt>
      <trkpt lat="45.937555599957705" lon="9.539313493296504">
        <ele>1727.96</ele>
        <time>2021-08-29T07:38:06Z</time>
      </trkpt>
      <trkpt lat="45.93755098991096" lon="9.539425894618034">
        <ele>1732.8900000000001</ele>
        <time>2021-08-29T07:38:15Z</time>
      </trkpt>
      <trkpt lat="45.937554175034165" lon="9.539518598467112">
        <ele>1730.9100000000001</ele>
        <time>2021-08-29T07:38:25Z</time>
      </trkpt>
      <trkpt lat="45.937593737617135" lon="9.539583306759596">
        <ele>1728.6300000000001</ele>
        <time>2021-08-29T07:38:34Z</time>
      </trkpt>
      <trkpt lat="45.937609998509288" lon="9.53969000838697">
        <ele>1729.8199999999999</ele>
        <time>2021-08-29T07:38:43Z</time>
      </trkpt>
      <trkpt lat="45.937630366533995" lon="9.539804086089134">
        <ele>1732.72</ele>
        <time>2021-08-29T07:38:53Z</time>
      </trkpt>
      <trkpt lat="45.937661714851856" lon="9.539868962019682">
        <ele>1733.4400000000001</ele>
        <time>2021-08-29T07:39:02Z</time>
      </trkpt>
      <trkpt lat="45.937665738165379" lon="9.53993727453053">
        <ele>1732.71</ele>
        <time>2021-08-29T07:39:12Z</time>
      </trkpt>
      <trkpt lat="45.937694991007447" lon="9.539990080520511">
        <ele>1733.6500000000001</ele>
        <time>2021-08-29T07:39:21Z</time>
      </trkpt>
      <trkpt lat="45.937735894694924" lon="9.539942806586623">
        <ele>1734.5599999999999</ele>
        <time>2021-08-29T07:39:30Z</time>
      </trkpt>
      <trkpt lat="45.937754167243838" lon="9.539837194606662">
        <ele>1738.28</ele>
        <time>2021-08-29T07:39:40Z</time>
      </trkpt>
      <trkpt lat="45.937792304903269" lon="9.539727224037051">
        <ele>1739.3800000000001</ele>
        <time>2021-08-29T07:39:49Z</time>
      </trkpt>
      <trkpt lat="45.937876207754016" lon="9.539670813828707">
        <ele>1739.5699999999999</ele>
        <time>2021-08-29T07:39:59Z</time>
      </trkpt>
      <trkpt lat="45.937946699559689" lon="9.539612391963601">
        <ele>1742.26</ele>
        <time>2021-08-29T07:40:09Z</time>
      </trkpt>
      <trkpt lat="45.938027836382389" lon="9.539553467184305">
        <ele>1742.6400000000001</ele>
        <time>2021-08-29T07:40:18Z</time>
      </trkpt>
      <trkpt lat="45.938049294054508" lon="9.539511976763606">
        <ele>1740.8499999999999</ele>
        <time>2021-08-29T07:40:27Z</time>
      </trkpt>
      <trkpt lat="45.938084414228797" lon="9.539529578760266">
        <ele>1739.47</ele>
        <time>2021-08-29T07:40:37Z</time>
      </trkpt>
      <trkpt lat="45.938114002346992" lon="9.53955321572721">
        <ele>1739.8699999999999</ele>
        <time>2021-08-29T07:40:46Z</time>
      </trkpt>
      <trkpt lat="45.938221793621778" lon="9.539668634533882">
        <ele>1746.3199999999999</ele>
        <time>2021-08-29T07:40:56Z</time>
      </trkpt>
      <trkpt lat="45.938329584896564" lon="9.539695624262095">
        <ele>1747.77</ele>
        <time>2021-08-29T07:41:06Z</time>
      </trkpt>
      <trkpt lat="45.938366632908583" lon="9.539605602622032">
        <ele>1750.3399999999999</ele>
        <time>2021-08-29T07:41:15Z</time>
      </trkpt>
      <trkpt lat="45.938404770568013" lon="9.539507618173957">
        <ele>1753.8299999999999</ele>
        <time>2021-08-29T07:41:24Z</time>
      </trkpt>
      <trkpt lat="45.938447769731283" lon="9.539531590417028">
        <ele>1752.4400000000001</ele>
        <time>2021-08-29T07:41:34Z</time>
      </trkpt>
      <trkpt lat="45.938513819128275" lon="9.539540223777294">
        <ele>1752.6700000000001</ele>
        <time>2021-08-29T07:41:44Z</time>
      </trkpt>
      <trkpt lat="45.938572492450476" lon="9.539545588195324">
        <ele>1752.78</ele>
        <time>2021-08-29T07:41:53Z</time>
      </trkpt>
      <trkpt lat="45.938614988699555" lon="9.539580792188644">
        <ele>1753.8</ele>
        <time>2021-08-29T07:42:03Z</time>
      </trkpt>
      <trkpt lat="45.938667878508568" lon="9.539631670340896">
        <ele>1755.6900000000001</ele>
        <time>2021-08-29T07:42:12Z</time>
      </trkpt>
      <trkpt lat="45.938745327293873" lon="9.539654301479459">
        <ele>1757.6500000000001</ele>
        <time>2021-08-29T07:42:22Z</time>
      </trkpt>
      <trkpt lat="45.938744405284524" lon="9.539641225710511">
        <ele>1759.05</ele>
        <time>2021-08-29T07:42:31Z</time>
      </trkpt>
      <trkpt lat="45.93882629647851" lon="9.539663605391979">
        <ele>1760.28</ele>
        <time>2021-08-29T07:42:40Z</time>
      </trkpt>
      <trkpt lat="45.93890592455864" lon="9.539631921797991">
        <ele>1761.1800000000001</ele>
        <time>2021-08-29T07:42:51Z</time>
      </trkpt>
      <trkpt lat="45.938962670043111" lon="9.539620103314519">
        <ele>1760.6600000000001</ele>
        <time>2021-08-29T07:43:00Z</time>
      </trkpt>
      <trkpt lat="45.939047830179334" lon="9.539627730846405">
        <ele>1765.1300000000001</ele>
        <time>2021-08-29T07:43:09Z</time>
      </trkpt>
      <trkpt lat="45.939137013629079" lon="9.539635609835386">
        <ele>1766.99</ele>
        <time>2021-08-29T07:43:18Z</time>
      </trkpt>
      <trkpt lat="45.939195016399026" lon="9.539594873785973">
        <ele>1769.1700000000001</ele>
        <time>2021-08-29T07:43:28Z</time>
      </trkpt>
      <trkpt lat="45.939237764105201" lon="9.539542486891151">
        <ele>1767.7</ele>
        <time>2021-08-29T07:43:38Z</time>
      </trkpt>
      <trkpt lat="45.939248576760292" lon="9.539482640102506">
        <ele>1772.4300000000001</ele>
        <time>2021-08-29T07:43:47Z</time>
      </trkpt>
      <trkpt lat="45.939296605065465" lon="9.539429834112525">
        <ele>1772.77</ele>
        <time>2021-08-29T07:43:57Z</time>
      </trkpt>
      <trkpt lat="45.939358463510871" lon="9.539397982880473">
        <ele>1772.05</ele>
        <time>2021-08-29T07:44:06Z</time>
      </trkpt>
      <trkpt lat="45.939419399946928" lon="9.53934408724308">
        <ele>1773.4000000000001</ele>
        <time>2021-08-29T07:44:15Z</time>
      </trkpt>
      <trkpt lat="45.939469439908862" lon="9.539258759468794">
        <ele>1773.73</ele>
        <time>2021-08-29T07:44:24Z</time>
      </trkpt>
      <trkpt lat="45.939519731327891" lon="9.539184328168631">
        <ele>1774.8499999999999</ele>
        <time>2021-08-29T07:44:34Z</time>
      </trkpt>
      <trkpt lat="45.939588630571961" lon="9.539102772250772">
        <ele>1772.46</ele>
        <time>2021-08-29T07:44:43Z</time>
      </trkpt>
      <trkpt lat="45.939659709110856" lon="9.539030520245433">
        <ele>1770.9000000000001</ele>
        <time>2021-08-29T07:44:53Z</time>
      </trkpt>
      <trkpt lat="45.93968971632421" lon="9.538934966549277">
        <ele>1774.3900000000001</ele>
        <time>2021-08-29T07:45:02Z</time>
      </trkpt>
      <trkpt lat="45.939752161502838" lon="9.538855338469148">
        <ele>1774.27</ele>
        <time>2021-08-29T07:45:12Z</time>
      </trkpt>
      <trkpt lat="45.93978988006711" lon="9.538787109777331">
        <ele>1772.5999999999999</ele>
        <time>2021-08-29T07:45:22Z</time>
      </trkpt>
      <trkpt lat="45.939824916422367" lon="9.538734722882509">
        <ele>1774.5999999999999</ele>
        <time>2021-08-29T07:45:31Z</time>
      </trkpt>
      <trkpt lat="45.939840339124203" lon="9.538680324330926">
        <ele>1774.76</ele>
        <time>2021-08-29T07:45:41Z</time>
      </trkpt>
      <trkpt lat="45.939865903928876" lon="9.538638833910227">
        <ele>1777.9400000000001</ele>
        <time>2021-08-29T07:45:50Z</time>
      </trkpt>
      <trkpt lat="45.939880236983299" lon="9.538569515570998">
        <ele>1779.5999999999999</ele>
        <time>2021-08-29T07:46:00Z</time>
      </trkpt>
      <trkpt lat="45.939894486218691" lon="9.538489803671837">
        <ele>1781.0999999999999</ele>
        <time>2021-08-29T07:46:10Z</time>
      </trkpt>
      <trkpt lat="45.939919715747237" lon="9.53842836432159">
        <ele>1782.8299999999999</ele>
        <time>2021-08-29T07:46:19Z</time>
      </trkpt>
      <trkpt lat="45.939941089600325" lon="9.53836876899004">
        <ele>1784.5</ele>
        <time>2021-08-29T07:46:29Z</time>
      </trkpt>
      <trkpt lat="45.939959278330207" lon="9.538322919979692">
        <ele>1787.75</ele>
        <time>2021-08-29T07:46:38Z</time>
      </trkpt>
      <trkpt lat="45.939998421818018" lon="9.538266258314252">
        <ele>1787.8800000000001</ele>
        <time>2021-08-29T07:46:47Z</time>
      </trkpt>
      <trkpt lat="45.940002361312509" lon="9.53821680508554">
        <ele>1790.6199999999999</ele>
        <time>2021-08-29T07:46:56Z</time>
      </trkpt>
      <trkpt lat="45.940019125118852" lon="9.538209261372685">
        <ele>1789.77</ele>
        <time>2021-08-29T07:47:05Z</time>
      </trkpt>
      <trkpt lat="45.940053910017014" lon="9.538128627464175">
        <ele>1791.5899999999999</ele>
        <time>2021-08-29T07:47:15Z</time>
      </trkpt>
      <trkpt lat="45.940061369910836" lon="9.538112282752991">
        <ele>1795.1500000000001</ele>
        <time>2021-08-29T07:47:24Z</time>
      </trkpt>
      <trkpt lat="45.940073607489467" lon="9.53803600743413">
        <ele>1797.6800000000001</ele>
        <time>2021-08-29T07:47:34Z</time>
      </trkpt>
      <trkpt lat="45.940132867544889" lon="9.537949170917273">
        <ele>1798.1800000000001</ele>
        <time>2021-08-29T07:47:44Z</time>
      </trkpt>
      <trkpt lat="45.94015340320766" lon="9.537888066843152">
        <ele>1799.6900000000001</ele>
        <time>2021-08-29T07:47:54Z</time>
      </trkpt>
      <trkpt lat="45.940167317166924" lon="9.537856383249164">
        <ele>1800.4400000000001</ele>
        <time>2021-08-29T07:48:03Z</time>
      </trkpt>
      <trkpt lat="45.940197072923183" lon="9.537826292216778">
        <ele>1799.8800000000001</ele>
        <time>2021-08-29T07:48:13Z</time>
      </trkpt>
      <trkpt lat="45.940207382664084" lon="9.537818999961019">
        <ele>1801.8299999999999</ele>
        <time>2021-08-29T07:48:23Z</time>
      </trkpt>
      <trkpt lat="45.940209310501814" lon="9.53784498386085">
        <ele>1805.55</ele>
        <time>2021-08-29T07:49:09Z</time>
      </trkpt>
      <trkpt lat="45.940241664648056" lon="9.537846660241485">
        <ele>1806.1800000000001</ele>
        <time>2021-08-29T07:49:19Z</time>
      </trkpt>
      <trkpt lat="45.940259099006653" lon="9.537789328023791">
        <ele>1804.6700000000001</ele>
        <time>2021-08-29T07:49:29Z</time>
      </trkpt>
      <trkpt lat="45.940170334652066" lon="9.537814892828465">
        <ele>1801.0599999999999</ele>
        <time>2021-08-29T07:49:39Z</time>
      </trkpt>
      <trkpt lat="45.940212411805987" lon="9.537819167599082">
        <ele>1799.8900000000001</ele>
        <time>2021-08-29T07:49:49Z</time>
      </trkpt>
      <trkpt lat="45.940184332430363" lon="9.537817826494575">
        <ele>1803.1099999999999</ele>
        <time>2021-08-29T07:50:01Z</time>
      </trkpt>
      <trkpt lat="45.940209561958909" lon="9.537806008011103">
        <ele>1803.52</ele>
        <time>2021-08-29T07:50:10Z</time>
      </trkpt>
      <trkpt lat="45.940245101228356" lon="9.537800224497914">
        <ele>1804.8699999999999</ele>
        <time>2021-08-29T07:50:20Z</time>
      </trkpt>
      <trkpt lat="45.940230097621679" lon="9.537785472348332">
        <ele>1802.5899999999999</ele>
        <time>2021-08-29T07:50:30Z</time>
      </trkpt>
      <trkpt lat="45.940213585272431" lon="9.537790082395077">
        <ele>1801.1199999999999</ele>
        <time>2021-08-29T07:51:01Z</time>
      </trkpt>
      <trkpt lat="45.940243676304817" lon="9.537755297496915">
        <ele>1799.9300000000001</ele>
        <time>2021-08-29T07:51:11Z</time>
      </trkpt>
      <trkpt lat="45.940274437889457" lon="9.537756135687232">
        <ele>1800.49</ele>
        <time>2021-08-29T07:51:20Z</time>
      </trkpt>
      <trkpt lat="45.940280221402645" lon="9.537771977484226">
        <ele>1801.22</ele>
        <time>2021-08-29T07:51:31Z</time>
      </trkpt>
      <trkpt lat="45.940288938581944" lon="9.537767618894577">
        <ele>1801.97</ele>
        <time>2021-08-29T07:51:50Z</time>
      </trkpt>
      <trkpt lat="45.940286088734865" lon="9.537751106545329">
        <ele>1805.9400000000001</ele>
        <time>2021-08-29T07:52:00Z</time>
      </trkpt>
      <trkpt lat="45.940293380990624" lon="9.537761835381389">
        <ele>1804.48</ele>
        <time>2021-08-29T07:52:15Z</time>
      </trkpt>
      <trkpt lat="45.940347863361239" lon="9.537786478176713">
        <ele>1804.8399999999999</ele>
        <time>2021-08-29T07:52:25Z</time>
      </trkpt>
      <trkpt lat="45.94036110676825" lon="9.537743395194411">
        <ele>1804.74</ele>
        <time>2021-08-29T07:52:35Z</time>
      </trkpt>
      <trkpt lat="45.940413158386946" lon="9.537760578095913">
        <ele>1806.3</ele>
        <time>2021-08-29T07:52:45Z</time>
      </trkpt>
      <trkpt lat="45.940331937745214" lon="9.537731828168035">
        <ele>1805.51</ele>
        <time>2021-08-29T07:52:55Z</time>
      </trkpt>
      <trkpt lat="45.940354987978935" lon="9.537765607237816">
        <ele>1804.29</ele>
        <time>2021-08-29T07:53:05Z</time>
      </trkpt>
      <trkpt lat="45.940336715430021" lon="9.537760661914945">
        <ele>1806.3699999999999</ele>
        <time>2021-08-29T07:53:17Z</time>
      </trkpt>
      <trkpt lat="45.940310396254063" lon="9.53774331137538">
        <ele>1805.48</ele>
        <time>2021-08-29T07:53:27Z</time>
      </trkpt>
      <trkpt lat="45.940332775935531" lon="9.537784801796079">
        <ele>1871.1099999999999</ele>
        <time>2021-08-29T07:53:57Z</time>
      </trkpt>
      <trkpt lat="45.940370829775929" lon="9.537768121808767">
        <ele>1875.45</ele>
        <time>2021-08-29T07:54:06Z</time>
      </trkpt>
      <trkpt lat="45.940393041819334" lon="9.537760578095913">
        <ele>1875.4200000000001</ele>
        <time>2021-08-29T07:54:17Z</time>
      </trkpt>
      <trkpt lat="45.940412990748882" lon="9.5377785153687">
        <ele>1875.27</ele>
        <time>2021-08-29T07:54:27Z</time>
      </trkpt>
      <trkpt lat="45.940434280782938" lon="9.537776671350002">
        <ele>1875.28</ele>
        <time>2021-08-29T07:54:36Z</time>
      </trkpt>
      <trkpt lat="45.940456409007311" lon="9.537795195356011">
        <ele>1875.23</ele>
        <time>2021-08-29T07:54:45Z</time>
      </trkpt>
      <trkpt lat="45.940543916076422" lon="9.537828220054507">
        <ele>1875.1800000000001</ele>
        <time>2021-08-29T07:54:55Z</time>
      </trkpt>
      <trkpt lat="45.940651623532176" lon="9.537902986630797">
        <ele>1826.25</ele>
        <time>2021-08-29T07:55:05Z</time>
      </trkpt>
      <trkpt lat="45.940699568018317" lon="9.537960989400744">
        <ele>1813.79</ele>
        <time>2021-08-29T07:55:14Z</time>
      </trkpt>
      <trkpt lat="45.940785063430667" lon="9.537934837862849">
        <ele>1812.24</ele>
        <time>2021-08-29T07:55:24Z</time>
      </trkpt>
      <trkpt lat="45.940770311281085" lon="9.537928802892566">
        <ele>1807.48</ele>
        <time>2021-08-29T07:55:34Z</time>
      </trkpt>
      <trkpt lat="45.940857985988259" lon="9.537959983572364">
        <ele>1809.27</ele>
        <time>2021-08-29T07:55:44Z</time>
      </trkpt>
      <trkpt lat="45.940952869132161" lon="9.537874571979046">
        <ele>1815.6199999999999</ele>
        <time>2021-08-29T07:55:54Z</time>
      </trkpt>
      <trkpt lat="45.941050183027983" lon="9.537854287773371">
        <ele>1819.2</ele>
        <time>2021-08-29T07:56:03Z</time>
      </trkpt>
      <trkpt lat="45.941064516082406" lon="9.537827130407095">
        <ele>1823.25</ele>
        <time>2021-08-29T07:56:12Z</time>
      </trkpt>
      <trkpt lat="45.941092930734158" lon="9.537875913083553">
        <ele>1818.8900000000001</ele>
        <time>2021-08-29T07:56:22Z</time>
      </trkpt>
      <trkpt lat="45.941187897697091" lon="9.53790944069624">
        <ele>1820.8399999999999</ele>
        <time>2021-08-29T07:56:31Z</time>
      </trkpt>
      <trkpt lat="45.941257635131478" lon="9.537987224757671">
        <ele>1823.2</ele>
        <time>2021-08-29T07:56:41Z</time>
      </trkpt>
      <trkpt lat="45.941244475543499" lon="9.537999713793397">
        <ele>1821.6700000000001</ele>
        <time>2021-08-29T07:56:50Z</time>
      </trkpt>
      <trkpt lat="45.941277164965868" lon="9.538009604439139">
        <ele>1821.5799999999999</ele>
        <time>2021-08-29T07:56:59Z</time>
      </trkpt>
      <trkpt lat="45.941343130543828" lon="9.538053274154663">
        <ele>1823.6300000000001</ele>
        <time>2021-08-29T07:57:09Z</time>
      </trkpt>
      <trkpt lat="45.941412700340152" lon="9.538044640794396">
        <ele>1824.28</ele>
        <time>2021-08-29T07:57:19Z</time>
      </trkpt>
      <trkpt lat="45.941420160233974" lon="9.538083197548986">
        <ele>1824.6199999999999</ele>
        <time>2021-08-29T07:57:28Z</time>
      </trkpt>
      <trkpt lat="45.941501799970865" lon="9.538073223084211">
        <ele>1826.6700000000001</ele>
        <time>2021-08-29T07:57:38Z</time>
      </trkpt>
      <trkpt lat="45.941561479121447" lon="9.538074899464846">
        <ele>1829.77</ele>
        <time>2021-08-29T07:57:48Z</time>
      </trkpt>
      <trkpt lat="45.941575560718775" lon="9.538077665492892">
        <ele>1829.28</ele>
        <time>2021-08-29T07:57:57Z</time>
      </trkpt>
      <trkpt lat="45.941607831045985" lon="9.538045227527618">
        <ele>1829.25</ele>
        <time>2021-08-29T07:58:06Z</time>
      </trkpt>
      <trkpt lat="45.941660385578871" lon="9.538023602217436">
        <ele>1831.4000000000001</ele>
        <time>2021-08-29T07:58:16Z</time>
      </trkpt>
      <trkpt lat="45.941707072779536" lon="9.538028631359339">
        <ele>1832.22</ele>
        <time>2021-08-29T07:58:25Z</time>
      </trkpt>
      <trkpt lat="45.941732218489051" lon="9.538003234192729">
        <ele>1833.76</ele>
        <time>2021-08-29T07:58:36Z</time>
      </trkpt>
      <trkpt lat="45.941769517958164" lon="9.537991667166352">
        <ele>1834.99</ele>
        <time>2021-08-29T07:58:45Z</time>
      </trkpt>
      <trkpt lat="45.941811930388212" lon="9.538000468164682">
        <ele>1837.55</ele>
        <time>2021-08-29T07:58:55Z</time>
      </trkpt>
      <trkpt lat="45.941822323948145" lon="9.538018992170692">
        <ele>1837.6900000000001</ele>
        <time>2021-08-29T07:59:04Z</time>
      </trkpt>
      <trkpt lat="45.94187923707068" lon="9.538036594167352">
        <ele>1837.6800000000001</ele>
        <time>2021-08-29T07:59:14Z</time>
      </trkpt>
      <trkpt lat="45.941997673362494" lon="9.538029469549656">
        <ele>1837.6600000000001</ele>
        <time>2021-08-29T07:59:24Z</time>
      </trkpt>
      <trkpt lat="45.94200630672276" lon="9.538034833967686">
        <ele>1837.77</ele>
        <time>2021-08-29T07:59:36Z</time>
      </trkpt>
      <trkpt lat="45.94206933863461" lon="9.538039024919272">
        <ele>1837.8</ele>
        <time>2021-08-29T07:59:46Z</time>
      </trkpt>
      <trkpt lat="45.942132286727428" lon="9.538060566410422">
        <ele>1837.8800000000001</ele>
        <time>2021-08-29T07:59:56Z</time>
      </trkpt>
      <trkpt lat="45.942189702764153" lon="9.538037599995732">
        <ele>1846.79</ele>
        <time>2021-08-29T08:00:05Z</time>
      </trkpt>
      <trkpt lat="45.942242089658976" lon="9.538036426529288">
        <ele>1846.6700000000001</ele>
        <time>2021-08-29T08:00:14Z</time>
      </trkpt>
      <trkpt lat="45.942302858456969" lon="9.53803701326251">
        <ele>1846.6400000000001</ele>
        <time>2021-08-29T08:00:24Z</time>
      </trkpt>
      <trkpt lat="45.942353317514062" lon="9.538038522005081">
        <ele>1846.6199999999999</ele>
        <time>2021-08-29T08:00:33Z</time>
      </trkpt>
      <trkpt lat="45.942392461001873" lon="9.538053693249822">
        <ele>1846.5899999999999</ele>
        <time>2021-08-29T08:00:43Z</time>
      </trkpt>
      <trkpt lat="45.942434370517731" lon="9.538072803989053">
        <ele>1846.5699999999999</ele>
        <time>2021-08-29T08:00:52Z</time>
      </trkpt>
      <trkpt lat="45.942527828738093" lon="9.538088478147984">
        <ele>1846.6300000000001</ele>
        <time>2021-08-29T08:01:01Z</time>
      </trkpt>
      <trkpt lat="45.942574013024569" lon="9.538135835900903">
        <ele>1846.6700000000001</ele>
        <time>2021-08-29T08:01:10Z</time>
      </trkpt>
      <trkpt lat="45.942587675526738" lon="9.538170117884874">
        <ele>1846.6400000000001</ele>
        <time>2021-08-29T08:01:20Z</time>
      </trkpt>
      <trkpt lat="45.942610139027238" lon="9.53821730799973">
        <ele>1846.72</ele>
        <time>2021-08-29T08:01:30Z</time>
      </trkpt>
      <trkpt lat="45.942616425454617" lon="9.538265084847808">
        <ele>1846.8299999999999</ele>
        <time>2021-08-29T08:01:39Z</time>
      </trkpt>
      <trkpt lat="45.942614329978824" lon="9.538291404023767">
        <ele>1846.8</ele>
        <time>2021-08-29T08:01:49Z</time>
      </trkpt>
      <trkpt lat="45.942604523152113" lon="9.538290901109576">
        <ele>1846.72</ele>
        <time>2021-08-29T08:01:59Z</time>
      </trkpt>
      <trkpt lat="45.942626735195518" lon="9.538280088454485">
        <ele>1846.5899999999999</ele>
        <time>2021-08-29T08:02:25Z</time>
      </trkpt>
      <trkpt lat="45.942651713266969" lon="9.538276735693216">
        <ele>1846.55</ele>
        <time>2021-08-29T08:02:35Z</time>
      </trkpt>
      <trkpt lat="45.942598069086671" lon="9.538329122588038">
        <ele>1875.3599999999999</ele>
        <time>2021-08-29T08:03:53Z</time>
      </trkpt>
      <trkpt lat="45.942581724375486" lon="9.538356699049473">
        <ele>1875.3800000000001</ele>
        <time>2021-08-29T08:04:03Z</time>
      </trkpt>
      <trkpt lat="45.942604104056954" lon="9.538358207792044">
        <ele>1875.28</ele>
        <time>2021-08-29T08:04:23Z</time>
      </trkpt>
      <trkpt lat="45.942643834277987" lon="9.538286626338959">
        <ele>1875.3299999999999</ele>
        <time>2021-08-29T08:04:33Z</time>
      </trkpt>
      <trkpt lat="45.942613407969475" lon="9.5382568705827">
        <ele>1875.4200000000001</ele>
        <time>2021-08-29T08:04:42Z</time>
      </trkpt>
      <trkpt lat="45.942606618627906" lon="9.538223007693887">
        <ele>1875.45</ele>
        <time>2021-08-29T08:04:51Z</time>
      </trkpt>
      <trkpt lat="45.942633105441928" lon="9.538109265267849">
        <ele>1875.4100000000001</ele>
        <time>2021-08-29T08:05:00Z</time>
      </trkpt>
      <trkpt lat="45.94268792308867" lon="9.537983788177371">
        <ele>1875.4300000000001</ele>
        <time>2021-08-29T08:05:10Z</time>
      </trkpt>
      <trkpt lat="45.942721115425229" lon="9.537877505645156">
        <ele>1875.3699999999999</ele>
        <time>2021-08-29T08:05:19Z</time>
      </trkpt>
      <trkpt lat="45.94277392141521" lon="9.537895610556006">
        <ele>1875.26</ele>
        <time>2021-08-29T08:05:29Z</time>
      </trkpt>
      <trkpt lat="45.942820021882653" lon="9.537909859791398">
        <ele>1875.3</ele>
        <time>2021-08-29T08:05:39Z</time>
      </trkpt>
      <trkpt lat="45.942844664677978" lon="9.537956211715937">
        <ele>1875.26</ele>
        <time>2021-08-29T08:05:48Z</time>
      </trkpt>
      <trkpt lat="45.942923370748758" lon="9.538017231971026">
        <ele>1875.29</ele>
        <time>2021-08-29T08:05:57Z</time>
      </trkpt>
      <trkpt lat="45.943025629967451" lon="9.538015136495233">
        <ele>1875.48</ele>
        <time>2021-08-29T08:06:08Z</time>
      </trkpt>
      <trkpt lat="45.943054463714361" lon="9.53799108043313">
        <ele>1866.0799999999999</ele>
        <time>2021-08-29T08:06:18Z</time>
      </trkpt>
      <trkpt lat="45.943085225299001" lon="9.537991583347321">
        <ele>1863.3499999999999</ele>
        <time>2021-08-29T08:06:27Z</time>
      </trkpt>
      <trkpt lat="45.943131912499666" lon="9.538012705743313">
        <ele>1859.49</ele>
        <time>2021-08-29T08:06:36Z</time>
      </trkpt>
      <trkpt lat="45.943214222788811" lon="9.538022177293897">
        <ele>1859.9100000000001</ele>
        <time>2021-08-29T08:06:46Z</time>
      </trkpt>
      <trkpt lat="45.943257473409176" lon="9.5380081795156">
        <ele>1860.48</ele>
        <time>2021-08-29T08:06:55Z</time>
      </trkpt>
      <trkpt lat="45.943379262462258" lon="9.537969790399075">
        <ele>1879.49</ele>
        <time>2021-08-29T08:07:05Z</time>
      </trkpt>
      <trkpt lat="45.94349417835474" lon="9.538009520620108">
        <ele>1879.4000000000001</ele>
        <time>2021-08-29T08:07:15Z</time>
      </trkpt>
      <trkpt lat="45.94353374093771" lon="9.537991667166352">
        <ele>1879.8399999999999</ele>
        <time>2021-08-29T08:07:25Z</time>
      </trkpt>
      <trkpt lat="45.943544721230865" lon="9.537985464558005">
        <ele>1879.78</ele>
        <time>2021-08-29T08:07:34Z</time>
      </trkpt>
      <trkpt lat="45.943614039570093" lon="9.537985883653164">
        <ele>1879.6199999999999</ele>
        <time>2021-08-29T08:07:44Z</time>
      </trkpt>
      <trkpt lat="45.94362560659647" lon="9.53800231218338">
        <ele>1879.5</ele>
        <time>2021-08-29T08:07:53Z</time>
      </trkpt>
      <trkpt lat="45.943661900237203" lon="9.537995690479875">
        <ele>1879.46</ele>
        <time>2021-08-29T08:08:03Z</time>
      </trkpt>
      <trkpt lat="45.943734906613827" lon="9.537975490093231">
        <ele>1879.5999999999999</ele>
        <time>2021-08-29T08:08:12Z</time>
      </trkpt>
      <trkpt lat="45.943816378712654" lon="9.537998791784048">
        <ele>1865.53</ele>
        <time>2021-08-29T08:08:21Z</time>
      </trkpt>
      <trkpt lat="45.943906735628843" lon="9.538014465942979">
        <ele>1879.6300000000001</ele>
        <time>2021-08-29T08:08:32Z</time>
      </trkpt>
      <trkpt lat="45.9439642354846" lon="9.538027960807085">
        <ele>1880.0599999999999</ele>
        <time>2021-08-29T08:08:41Z</time>
      </trkpt>
      <trkpt lat="45.944041935727" lon="9.538033660501242">
        <ele>1880.0599999999999</ele>
        <time>2021-08-29T08:08:51Z</time>
      </trkpt>
      <trkpt lat="45.944136399775743" lon="9.538005329668522">
        <ele>1880.1199999999999</ele>
        <time>2021-08-29T08:09:00Z</time>
      </trkpt>
      <trkpt lat="45.944207226857543" lon="9.538031732663512">
        <ele>1880.0999999999999</ele>
        <time>2021-08-29T08:09:09Z</time>
      </trkpt>
      <trkpt lat="45.944274198263884" lon="9.538020500913262">
        <ele>1880.22</ele>
        <time>2021-08-29T08:09:19Z</time>
      </trkpt>
      <trkpt lat="45.944292722269893" lon="9.538004659116268">
        <ele>1880.29</ele>
        <time>2021-08-29T08:09:29Z</time>
      </trkpt>
      <trkpt lat="45.944337313994765" lon="9.538038270547986">
        <ele>1869.05</ele>
        <time>2021-08-29T08:09:38Z</time>
      </trkpt>
      <trkpt lat="45.94438349828124" lon="9.538018321618438">
        <ele>1869.27</ele>
        <time>2021-08-29T08:09:48Z</time>
      </trkpt>
      <trkpt lat="45.944412415847182" lon="9.538009772077203">
        <ele>1871.48</ele>
        <time>2021-08-29T08:09:57Z</time>
      </trkpt>
      <trkpt lat="45.944468239322305" lon="9.538004491478205">
        <ele>1872.9200000000001</ele>
        <time>2021-08-29T08:10:07Z</time>
      </trkpt>
      <trkpt lat="45.944491792470217" lon="9.538017734885216">
        <ele>1878.78</ele>
        <time>2021-08-29T08:10:17Z</time>
      </trkpt>
      <trkpt lat="45.944538060575724" lon="9.537997618317604">
        <ele>1880.49</ele>
        <time>2021-08-29T08:10:27Z</time>
      </trkpt>
      <trkpt lat="45.944631602615118" lon="9.538100715726614">
        <ele>1880.54</ele>
        <time>2021-08-29T08:10:37Z</time>
      </trkpt>
      <trkpt lat="45.944702932611108" lon="9.538272125646472">
        <ele>1880.3800000000001</ele>
        <time>2021-08-29T08:10:46Z</time>
      </trkpt>
      <trkpt lat="45.944710308685899" lon="9.538348484784365">
        <ele>1880.3900000000001</ele>
        <time>2021-08-29T08:10:55Z</time>
      </trkpt>
      <trkpt lat="45.944733861833811" lon="9.53847723081708">
        <ele>1880.4300000000001</ele>
        <time>2021-08-29T08:11:05Z</time>
      </trkpt>
      <trkpt lat="45.944763533771038" lon="9.538555266335607">
        <ele>1880.3</ele>
        <time>2021-08-29T08:11:14Z</time>
      </trkpt>
      <trkpt lat="45.944707877933979" lon="9.538674959912896">
        <ele>1871.7</ele>
        <time>2021-08-29T08:11:24Z</time>
      </trkpt>
      <trkpt lat="45.944747691974044" lon="9.53882273286581">
        <ele>1870.3199999999999</ele>
        <time>2021-08-29T08:11:33Z</time>
      </trkpt>
      <trkpt lat="45.944776190444827" lon="9.538902696222067">
        <ele>1870.1700000000001</ele>
        <time>2021-08-29T08:11:44Z</time>
      </trkpt>
      <trkpt lat="45.944793960079551" lon="9.538934212177992">
        <ele>1869.03</ele>
        <time>2021-08-29T08:11:53Z</time>
      </trkpt>
      <trkpt lat="45.944844586774707" lon="9.538996824994683">
        <ele>1871.46</ele>
        <time>2021-08-29T08:12:02Z</time>
      </trkpt>
      <trkpt lat="45.944890771061182" lon="9.539109813049436">
        <ele>1873.3800000000001</ele>
        <time>2021-08-29T08:12:13Z</time>
      </trkpt>
      <trkpt lat="45.944887837395072" lon="9.539093635976315">
        <ele>1870.01</ele>
        <time>2021-08-29T08:12:25Z</time>
      </trkpt>
      <trkpt lat="45.944875432178378" lon="9.539079135283828">
        <ele>1870.3</ele>
        <time>2021-08-29T08:12:35Z</time>
      </trkpt>
      <trkpt lat="45.944871660321951" lon="9.539091037586331">
        <ele>1868.5999999999999</ele>
        <time>2021-08-29T08:13:10Z</time>
      </trkpt>
      <trkpt lat="45.944857411086559" lon="9.539106292650104">
        <ele>1868.4400000000001</ele>
        <time>2021-08-29T08:13:20Z</time>
      </trkpt>
      <trkpt lat="45.944863697513938" lon="9.539119368419051">
        <ele>1872.04</ele>
        <time>2021-08-29T08:13:50Z</time>
      </trkpt>
      <trkpt lat="45.94487358815968" lon="9.539163205772638">
        <ele>1870.0899999999999</ele>
        <time>2021-08-29T08:13:59Z</time>
      </trkpt>
      <trkpt lat="45.944873504340649" lon="9.539183573797345">
        <ele>1867.6700000000001</ele>
        <time>2021-08-29T08:14:01Z</time>
      </trkpt>
      <trkpt lat="45.944903427734971" lon="9.539273260161281">
        <ele>1872.5599999999999</ele>
        <time>2021-08-29T08:14:12Z</time>
      </trkpt>
      <trkpt lat="45.944911222904921" lon="9.539239229634404">
        <ele>1876.1300000000001</ele>
        <time>2021-08-29T08:14:21Z</time>
      </trkpt>
      <trkpt lat="45.945018259808421" lon="9.539206204935908">
        <ele>1872.4300000000001</ele>
        <time>2021-08-29T08:14:30Z</time>
      </trkpt>
      <trkpt lat="45.945085315033793" lon="9.5391979906708">
        <ele>1869.3800000000001</ele>
        <time>2021-08-29T08:14:40Z</time>
      </trkpt>
      <trkpt lat="45.945207439363003" lon="9.53914669342339">
        <ele>1870.3099999999999</ele>
        <time>2021-08-29T08:14:49Z</time>
      </trkpt>
      <trkpt lat="45.945296119898558" lon="9.539139233529568">
        <ele>1869.1500000000001</ele>
        <time>2021-08-29T08:14:59Z</time>
      </trkpt>
      <trkpt lat="45.945381531491876" lon="9.539183238521218">
        <ele>1864.8900000000001</ele>
        <time>2021-08-29T08:15:08Z</time>
      </trkpt>
      <trkpt lat="45.945467529818416" lon="9.539057007059455">
        <ele>1867.48</ele>
        <time>2021-08-29T08:15:17Z</time>
      </trkpt>
      <trkpt lat="45.945565095171332" lon="9.538890374824405">
        <ele>1868.3299999999999</ele>
        <time>2021-08-29T08:15:27Z</time>
      </trkpt>
      <trkpt lat="45.94565930776298" lon="9.538843184709549">
        <ele>1871.3499999999999</ele>
        <time>2021-08-29T08:15:36Z</time>
      </trkpt>
      <trkpt lat="45.945747569203377" lon="9.538803035393357">
        <ele>1868.3900000000001</ele>
        <time>2021-08-29T08:15:46Z</time>
      </trkpt>
      <trkpt lat="45.945816887542605" lon="9.538777973502874">
        <ele>1880.1500000000001</ele>
        <time>2021-08-29T08:15:56Z</time>
      </trkpt>
      <trkpt lat="45.945913782343268" lon="9.538707565516233">
        <ele>1880.51</ele>
        <time>2021-08-29T08:16:05Z</time>
      </trkpt>
      <trkpt lat="45.946065578609705" lon="9.53860329464078">
        <ele>1880.52</ele>
        <time>2021-08-29T08:16:14Z</time>
      </trkpt>
      <trkpt lat="45.946156941354275" lon="9.538585860282183">
        <ele>1880.48</ele>
        <time>2021-08-29T08:16:23Z</time>
      </trkpt>
      <trkpt lat="45.94624905847013" lon="9.538444541394711">
        <ele>1880.6700000000001</ele>
        <time>2021-08-29T08:16:33Z</time>
      </trkpt>
      <trkpt lat="45.946328267455101" lon="9.538355022668839">
        <ele>1880.72</ele>
        <time>2021-08-29T08:16:42Z</time>
      </trkpt>
      <trkpt lat="45.946405380964279" lon="9.53830573707819">
        <ele>1880.75</ele>
        <time>2021-08-29T08:16:51Z</time>
      </trkpt>
      <trkpt lat="45.946467909961939" lon="9.538209596648812">
        <ele>1863.1199999999999</ele>
        <time>2021-08-29T08:17:01Z</time>
      </trkpt>
      <trkpt lat="45.946532031521201" lon="9.538146061822772">
        <ele>1864.3</ele>
        <time>2021-08-29T08:17:10Z</time>
      </trkpt>
      <trkpt lat="45.946654072031379" lon="9.538078587502241">
        <ele>1859.5699999999999</ele>
        <time>2021-08-29T08:17:19Z</time>
      </trkpt>
      <trkpt lat="45.946793714538217" lon="9.537997366860509">
        <ele>1863.02</ele>
        <time>2021-08-29T08:17:28Z</time>
      </trkpt>
      <trkpt lat="45.946869906038046" lon="9.537952104583383">
        <ele>1863.8</ele>
        <time>2021-08-29T08:17:37Z</time>
      </trkpt>
      <trkpt lat="45.946883736178279" lon="9.537876667454839">
        <ele>1864.2</ele>
        <time>2021-08-29T08:17:47Z</time>
      </trkpt>
      <trkpt lat="45.946984738111496" lon="9.537857221439481">
        <ele>1862.4200000000001</ele>
        <time>2021-08-29T08:17:56Z</time>
      </trkpt>
      <trkpt lat="45.947080627083778" lon="9.537770804017782">
        <ele>1862.04</ele>
        <time>2021-08-29T08:18:05Z</time>
      </trkpt>
      <trkpt lat="45.947129912674427" lon="9.53772428445518">
        <ele>1862.79</ele>
        <time>2021-08-29T08:18:15Z</time>
      </trkpt>
      <trkpt lat="45.947221275418997" lon="9.537660581991077">
        <ele>1860.28</ele>
        <time>2021-08-29T08:18:24Z</time>
      </trkpt>
      <trkpt lat="45.947294700890779" lon="9.537558825686574">
        <ele>1865.6199999999999</ele>
        <time>2021-08-29T08:18:34Z</time>
      </trkpt>
      <trkpt lat="45.947365025058389" lon="9.537594616413117">
        <ele>1857.0999999999999</ele>
        <time>2021-08-29T08:18:44Z</time>
      </trkpt>
      <trkpt lat="45.947388913482428" lon="9.537440305575728">
        <ele>1860.73</ele>
        <time>2021-08-29T08:18:54Z</time>
      </trkpt>
      <trkpt lat="45.947373071685433" lon="9.537363527342677">
        <ele>1862.3299999999999</ele>
        <time>2021-08-29T08:19:03Z</time>
      </trkpt>
      <trkpt lat="45.947439875453711" lon="9.537244588136673">
        <ele>1862.5799999999999</ele>
        <time>2021-08-29T08:19:13Z</time>
      </trkpt>
      <trkpt lat="45.94744767062366" lon="9.53711106441915">
        <ele>1868.05</ele>
        <time>2021-08-29T08:19:22Z</time>
      </trkpt>
      <trkpt lat="45.947466110810637" lon="9.536988604813814">
        <ele>1868.3299999999999</ele>
        <time>2021-08-29T08:19:31Z</time>
      </trkpt>
      <trkpt lat="45.947529394179583" lon="9.536955831572413">
        <ele>1867.22</ele>
        <time>2021-08-29T08:19:41Z</time>
      </trkpt>
      <trkpt lat="45.947600640356541" lon="9.536809232085943">
        <ele>1871.77</ele>
        <time>2021-08-29T08:19:50Z</time>
      </trkpt>
      <trkpt lat="45.947595527395606" lon="9.536703620105982">
        <ele>1868.6099999999999</ele>
        <time>2021-08-29T08:20:00Z</time>
      </trkpt>
      <trkpt lat="45.947632826864719" lon="9.536579987034202">
        <ele>1864.96</ele>
        <time>2021-08-29T08:20:10Z</time>
      </trkpt>
      <trkpt lat="45.947720669209957" lon="9.53666053712368">
        <ele>1853.9200000000001</ele>
        <time>2021-08-29T08:20:19Z</time>
      </trkpt>
      <trkpt lat="45.947706000879407" lon="9.536565067246556">
        <ele>1857.6500000000001</ele>
        <time>2021-08-29T08:20:29Z</time>
      </trkpt>
      <trkpt lat="45.947715388610959" lon="9.536472614854574">
        <ele>1868.5599999999999</ele>
        <time>2021-08-29T08:20:39Z</time>
      </trkpt>
      <trkpt lat="45.94774229452014" lon="9.536369014531374">
        <ele>1872.3499999999999</ele>
        <time>2021-08-29T08:20:48Z</time>
      </trkpt>
      <trkpt lat="45.947747072204947" lon="9.53633020631969">
        <ele>1870.26</ele>
        <time>2021-08-29T08:20:57Z</time>
      </trkpt>
      <trkpt lat="45.947786886245012" lon="9.536207495257258">
        <ele>1866.6199999999999</ele>
        <time>2021-08-29T08:21:06Z</time>
      </trkpt>
      <trkpt lat="45.947824018076062" lon="9.536090735346079">
        <ele>1860.0699999999999</ele>
        <time>2021-08-29T08:21:16Z</time>
      </trkpt>
      <trkpt lat="45.947879170998931" lon="9.536002222448587">
        <ele>1866.4000000000001</ele>
        <time>2021-08-29T08:21:25Z</time>
      </trkpt>
      <trkpt lat="45.947943460196257" lon="9.535979423671961">
        <ele>1867.98</ele>
        <time>2021-08-29T08:21:34Z</time>
      </trkpt>
      <trkpt lat="45.947960140183568" lon="9.535977160558105">
        <ele>1866.96</ele>
        <time>2021-08-29T08:21:43Z</time>
      </trkpt>
      <trkpt lat="45.94799199141562" lon="9.535937095060945">
        <ele>1868.76</ele>
        <time>2021-08-29T08:21:53Z</time>
      </trkpt>
      <trkpt lat="45.947956033051014" lon="9.535867609083653">
        <ele>1875.6800000000001</ele>
        <time>2021-08-29T08:22:03Z</time>
      </trkpt>
      <trkpt lat="45.947920074686408" lon="9.53577071428299">
        <ele>1884.9200000000001</ele>
        <time>2021-08-29T08:22:13Z</time>
      </trkpt>
      <trkpt lat="45.947945639491081" lon="9.535770798102021">
        <ele>1879.71</ele>
        <time>2021-08-29T08:22:22Z</time>
      </trkpt>
      <trkpt lat="45.94799836166203" lon="9.535751938819885">
        <ele>1878.0999999999999</ele>
        <time>2021-08-29T08:22:32Z</time>
      </trkpt>
      <trkpt lat="45.948103135451674" lon="9.535735007375479">
        <ele>1870.3800000000001</ele>
        <time>2021-08-29T08:22:41Z</time>
      </trkpt>
      <trkpt lat="45.948152840137482" lon="9.535636687651277">
        <ele>1874.1900000000001</ele>
        <time>2021-08-29T08:22:50Z</time>
      </trkpt>
      <trkpt lat="45.948270605877042" lon="9.535472318530083">
        <ele>1878.75</ele>
        <time>2021-08-29T08:23:01Z</time>
      </trkpt>
      <trkpt lat="45.948304384946823" lon="9.535370897501707">
        <ele>1879.02</ele>
        <time>2021-08-29T08:23:10Z</time>
      </trkpt>
      <trkpt lat="45.948320981115103" lon="9.535395205020905">
        <ele>1871.1099999999999</ele>
        <time>2021-08-29T08:23:19Z</time>
      </trkpt>
      <trkpt lat="45.948373368009925" lon="9.535335190594196">
        <ele>1865.8099999999999</ele>
        <time>2021-08-29T08:23:28Z</time>
      </trkpt>
      <trkpt lat="45.948415780439973" lon="9.535157829523087">
        <ele>1879.4200000000001</ele>
        <time>2021-08-29T08:23:39Z</time>
      </trkpt>
      <trkpt lat="45.948400609195232" lon="9.53503436408937">
        <ele>1881.6400000000001</ele>
        <time>2021-08-29T08:23:48Z</time>
      </trkpt>
      <trkpt lat="45.948409074917436" lon="9.535027658566833">
        <ele>1879.5</ele>
        <time>2021-08-29T08:23:59Z</time>
      </trkpt>
      <trkpt lat="45.94843128696084" lon="9.53497183509171">
        <ele>1879.03</ele>
        <time>2021-08-29T08:24:08Z</time>
      </trkpt>
      <trkpt lat="45.948435477912426" lon="9.534860858693719">
        <ele>1883.29</ele>
        <time>2021-08-29T08:24:18Z</time>
      </trkpt>
      <trkpt lat="45.948427431285381" lon="9.534846106544137">
        <ele>1884.8800000000001</ele>
        <time>2021-08-29T08:24:28Z</time>
      </trkpt>
      <trkpt lat="45.948419719934464" lon="9.534805370494723">
        <ele>1886.0899999999999</ele>
        <time>2021-08-29T08:24:38Z</time>
      </trkpt>
      <trkpt lat="45.948422318324447" lon="9.534787265583873">
        <ele>1888.7</ele>
        <time>2021-08-29T08:24:51Z</time>
      </trkpt>
      <trkpt lat="45.94842592254281" lon="9.534755414351821">
        <ele>1889.6099999999999</ele>
        <time>2021-08-29T08:25:00Z</time>
      </trkpt>
      <trkpt lat="45.948425335809588" lon="9.53461610712111">
        <ele>1888.8900000000001</ele>
        <time>2021-08-29T08:25:10Z</time>
      </trkpt>
      <trkpt lat="45.948447296395898" lon="9.534589033573866">
        <ele>1887.3099999999999</ele>
        <time>2021-08-29T08:25:20Z</time>
      </trkpt>
      <trkpt lat="45.948471017181873" lon="9.534590123221278">
        <ele>1886.24</ele>
        <time>2021-08-29T08:25:29Z</time>
      </trkpt>
      <trkpt lat="45.948486523702741" lon="9.534494485706091">
        <ele>1881.4300000000001</ele>
        <time>2021-08-29T08:25:39Z</time>
      </trkpt>
      <trkpt lat="45.948477135971189" lon="9.534371439367533">
        <ele>1883.22</ele>
        <time>2021-08-29T08:25:48Z</time>
      </trkpt>
      <trkpt lat="45.948569923639297" lon="9.534342437982559">
        <ele>1872.02</ele>
        <time>2021-08-29T08:25:58Z</time>
      </trkpt>
      <trkpt lat="45.948697831481695" lon="9.534244872629643">
        <ele>1870.8</ele>
        <time>2021-08-29T08:26:07Z</time>
      </trkpt>
      <trkpt lat="45.948725072667003" lon="9.534228527918458">
        <ele>1877.23</ele>
        <time>2021-08-29T08:26:16Z</time>
      </trkpt>
      <trkpt lat="45.948750805109739" lon="9.534226013347507">
        <ele>1880.5799999999999</ele>
        <time>2021-08-29T08:26:26Z</time>
      </trkpt>
      <trkpt lat="45.948754493147135" lon="9.534207573160529">
        <ele>1881.02</ele>
        <time>2021-08-29T08:26:38Z</time>
      </trkpt>
      <trkpt lat="45.948764132335782" lon="9.534222073853016">
        <ele>1884.97</ele>
        <time>2021-08-29T08:26:53Z</time>
      </trkpt>
      <trkpt lat="45.948736472055316" lon="9.534275131300092">
        <ele>1884.01</ele>
        <time>2021-08-29T08:27:03Z</time>
      </trkpt>
      <trkpt lat="45.948744770139456" lon="9.534196509048343">
        <ele>1882.1800000000001</ele>
        <time>2021-08-29T08:27:13Z</time>
      </trkpt>
      <trkpt lat="45.948743764311075" lon="9.534240262582898">
        <ele>1875.0599999999999</ele>
        <time>2021-08-29T08:27:23Z</time>
      </trkpt>
      <trkpt lat="45.948707135394216" lon="9.534154431894422">
        <ele>1871.25</ele>
        <time>2021-08-29T08:27:33Z</time>
      </trkpt>
      <trkpt lat="45.948792714625597" lon="9.534185780212283">
        <ele>1870.46</ele>
        <time>2021-08-29T08:27:43Z</time>
      </trkpt>
      <trkpt lat="45.94878600910306" lon="9.534195587038994">
        <ele>1872.03</ele>
        <time>2021-08-29T08:27:54Z</time>
      </trkpt>
      <trkpt lat="45.94882951118052" lon="9.534199526533485">
        <ele>1875.9300000000001</ele>
        <time>2021-08-29T08:28:03Z</time>
      </trkpt>
      <trkpt lat="45.94888323917985" lon="9.534251829609275">
        <ele>1878.96</ele>
        <time>2021-08-29T08:28:12Z</time>
      </trkpt>
      <trkpt lat="45.948930094018579" lon="9.534228527918458">
        <ele>1880.77</ele>
        <time>2021-08-29T08:28:21Z</time>
      </trkpt>
      <trkpt lat="45.948987677693367" lon="9.534166837111116">
        <ele>1883.1800000000001</ele>
        <time>2021-08-29T08:28:31Z</time>
      </trkpt>
      <trkpt lat="45.949027659371495" lon="9.534129705280066">
        <ele>1884.9200000000001</ele>
        <time>2021-08-29T08:28:40Z</time>
      </trkpt>
      <trkpt lat="45.949103934690356" lon="9.534085365012288">
        <ele>1887.6900000000001</ele>
        <time>2021-08-29T08:28:50Z</time>
      </trkpt>
      <trkpt lat="45.949145425111055" lon="9.534033061936498">
        <ele>1886.6800000000001</ele>
        <time>2021-08-29T08:29:00Z</time>
      </trkpt>
      <trkpt lat="45.949120782315731" lon="9.53399458900094">
        <ele>1888.47</ele>
        <time>2021-08-29T08:29:10Z</time>
      </trkpt>
      <trkpt lat="45.949137713760138" lon="9.533957205712795">
        <ele>1890.1800000000001</ele>
        <time>2021-08-29T08:29:19Z</time>
      </trkpt>
      <trkpt lat="45.949148274958134" lon="9.533965168520808">
        <ele>1885.77</ele>
        <time>2021-08-29T08:29:29Z</time>
      </trkpt>
      <trkpt lat="45.949228405952454" lon="9.533932730555534">
        <ele>1887.49</ele>
        <time>2021-08-29T08:29:39Z</time>
      </trkpt>
      <trkpt lat="45.949264196678996" lon="9.533870201557875">
        <ele>1894.74</ele>
        <time>2021-08-29T08:29:49Z</time>
      </trkpt>
      <trkpt lat="45.949313482269645" lon="9.533905489370227">
        <ele>1899.05</ele>
        <time>2021-08-29T08:29:58Z</time>
      </trkpt>
      <trkpt lat="45.949375675991178" lon="9.533871961757541">
        <ele>1899.0999999999999</ele>
        <time>2021-08-29T08:30:08Z</time>
      </trkpt>
      <trkpt lat="45.949493274092674" lon="9.533862322568893">
        <ele>1902.55</ele>
        <time>2021-08-29T08:30:18Z</time>
      </trkpt>
      <trkpt lat="45.949583631008863" lon="9.533850336447358">
        <ele>1906.25</ele>
        <time>2021-08-29T08:30:27Z</time>
      </trkpt>
      <trkpt lat="45.949708269909024" lon="9.533855533227325">
        <ele>1906.78</ele>
        <time>2021-08-29T08:30:37Z</time>
      </trkpt>
      <trkpt lat="45.94981899484992" lon="9.533823514357209">
        <ele>1908.8499999999999</ele>
        <time>2021-08-29T08:30:46Z</time>
      </trkpt>
      <trkpt lat="45.949794100597501" lon="9.533743718639016">
        <ele>1906.9200000000001</ele>
        <time>2021-08-29T08:30:56Z</time>
      </trkpt>
      <trkpt lat="45.949821677058935" lon="9.533739611506462">
        <ele>1900.3299999999999</ele>
        <time>2021-08-29T08:31:06Z</time>
      </trkpt>
      <trkpt lat="45.949890911579132" lon="9.533647075295448">
        <ele>1898.4000000000001</ele>
        <time>2021-08-29T08:31:16Z</time>
      </trkpt>
      <trkpt lat="45.949913710355759" lon="9.533562585711479">
        <ele>1902.9000000000001</ele>
        <time>2021-08-29T08:31:25Z</time>
      </trkpt>
      <trkpt lat="45.949980597943068" lon="9.533454375341535">
        <ele>1909.46</ele>
        <time>2021-08-29T08:31:35Z</time>
      </trkpt>
      <trkpt lat="45.950023094192147" lon="9.53341162763536">
        <ele>1911.8800000000001</ele>
        <time>2021-08-29T08:31:44Z</time>
      </trkpt>
      <trkpt lat="45.950088473036885" lon="9.533339962363243">
        <ele>1912.8800000000001</ele>
        <time>2021-08-29T08:31:54Z</time>
      </trkpt>
      <trkpt lat="45.950116217136383" lon="9.533272990956903">
        <ele>1912.0599999999999</ele>
        <time>2021-08-29T08:32:04Z</time>
      </trkpt>
      <trkpt lat="45.950135411694646" lon="9.533277936279774">
        <ele>1911.04</ele>
        <time>2021-08-29T08:32:14Z</time>
      </trkpt>
      <trkpt lat="45.950145218521357" lon="9.533298471942544">
        <ele>1909.5</ele>
        <time>2021-08-29T08:32:23Z</time>
      </trkpt>
      <trkpt lat="45.950150666758418" lon="9.533284222707152">
        <ele>1911.72</ele>
        <time>2021-08-29T08:32:35Z</time>
      </trkpt>
      <trkpt lat="45.950202131643891" lon="9.533152962103486">
        <ele>1914.9400000000001</ele>
        <time>2021-08-29T08:32:45Z</time>
      </trkpt>
      <trkpt lat="45.950227696448565" lon="9.533092612400651">
        <ele>1917.5699999999999</ele>
        <time>2021-08-29T08:32:55Z</time>
      </trkpt>
      <trkpt lat="45.950254267081618" lon="9.533007200807333">
        <ele>1916.8099999999999</ele>
        <time>2021-08-29T08:33:05Z</time>
      </trkpt>
      <trkpt lat="45.950253009796143" lon="9.532975181937218">
        <ele>1916.95</ele>
        <time>2021-08-29T08:33:15Z</time>
      </trkpt>
      <trkpt lat="45.950261224061251" lon="9.532969482243061">
        <ele>1917.96</ele>
        <time>2021-08-29T08:33:30Z</time>
      </trkpt>
      <trkpt lat="45.95027388073504" lon="9.532966716215015">
        <ele>1920.0599999999999</ele>
        <time>2021-08-29T08:33:40Z</time>
      </trkpt>
      <trkpt lat="45.950267091393471" lon="9.532886585220695">
        <ele>1920.8499999999999</ele>
        <time>2021-08-29T08:33:50Z</time>
      </trkpt>
      <trkpt lat="45.950247561559081" lon="9.532886501401663">
        <ele>1920.4300000000001</ele>
        <time>2021-08-29T08:33:59Z</time>
      </trkpt>
      <trkpt lat="45.950220823287964" lon="9.532887171953917">
        <ele>1916.49</ele>
        <time>2021-08-29T08:34:09Z</time>
      </trkpt>
      <trkpt lat="45.95022358931601" lon="9.53287267126143">
        <ele>1918.4100000000001</ele>
        <time>2021-08-29T08:34:20Z</time>
      </trkpt>
      <trkpt lat="45.950244795531034" lon="9.532902678474784">
        <ele>1917.9400000000001</ele>
        <time>2021-08-29T08:34:30Z</time>
      </trkpt>
      <trkpt lat="45.950254686176777" lon="9.53294106759131">
        <ele>1915.97</ele>
        <time>2021-08-29T08:34:40Z</time>
      </trkpt>
      <trkpt lat="45.950264576822519" lon="9.532902678474784">
        <ele>1915.6300000000001</ele>
        <time>2021-08-29T08:34:50Z</time>
      </trkpt>
      <trkpt lat="45.950274299830198" lon="9.532904103398323">
        <ele>1914.51</ele>
        <time>2021-08-29T08:34:59Z</time>
      </trkpt>
      <trkpt lat="45.950310928747058" lon="9.532885076478124">
        <ele>1914.1600000000001</ele>
        <time>2021-08-29T08:35:09Z</time>
      </trkpt>
      <trkpt lat="45.950306318700314" lon="9.532902259379625">
        <ele>1916.1600000000001</ele>
        <time>2021-08-29T08:35:14Z</time>
      </trkpt>
      <trkpt lat="45.950293410569429" lon="9.532897565513849">
        <ele>1915.5999999999999</ele>
        <time>2021-08-29T08:35:24Z</time>
      </trkpt>
      <trkpt lat="45.950278574600816" lon="9.532898319885135">
        <ele>1917.6500000000001</ele>
        <time>2021-08-29T08:35:33Z</time>
      </trkpt>
      <trkpt lat="45.950265163555741" lon="9.532894967123866">
        <ele>1917.4000000000001</ele>
        <time>2021-08-29T08:35:43Z</time>
      </trkpt>
      <trkpt lat="45.950254015624523" lon="9.532888596877456">
        <ele>1917.8</ele>
        <time>2021-08-29T08:35:53Z</time>
      </trkpt>
      <trkpt lat="45.950244963169098" lon="9.532884741201997">
        <ele>1919.72</ele>
        <time>2021-08-29T08:36:13Z</time>
      </trkpt>
      <trkpt lat="45.950278826057911" lon="9.53290494158864">
        <ele>1918.6099999999999</ele>
        <time>2021-08-29T08:37:46Z</time>
      </trkpt>
      <trkpt lat="45.950296679511666" lon="9.532911730930209">
        <ele>1920.3499999999999</ele>
        <time>2021-08-29T08:37:56Z</time>
      </trkpt>
      <trkpt lat="45.950292320922017" lon="9.532898906618357">
        <ele>1919.46</ele>
        <time>2021-08-29T08:38:25Z</time>
      </trkpt>
      <trkpt lat="45.950283017009497" lon="9.532885327935219">
        <ele>1919.49</ele>
        <time>2021-08-29T08:38:35Z</time>
      </trkpt>
      <trkpt lat="45.950287710875273" lon="9.532936289906502">
        <ele>1920.9000000000001</ele>
        <time>2021-08-29T08:38:45Z</time>
      </trkpt>
      <trkpt lat="45.950279915705323" lon="9.532925477251411">
        <ele>1923.6500000000001</ele>
        <time>2021-08-29T08:39:26Z</time>
      </trkpt>
      <trkpt lat="45.95028318464756" lon="9.532912569120526">
        <ele>1922.52</ele>
        <time>2021-08-29T08:39:39Z</time>
      </trkpt>
      <trkpt lat="45.950288465246558" lon="9.532923800870776">
        <ele>1921.5</ele>
        <time>2021-08-29T08:39:55Z</time>
      </trkpt>
      <trkpt lat="45.950303301215172" lon="9.532920029014349">
        <ele>1920.6900000000001</ele>
        <time>2021-08-29T08:40:05Z</time>
      </trkpt>
      <trkpt lat="45.950306737795472" lon="9.532905360683799">
        <ele>1919.74</ele>
        <time>2021-08-29T08:40:15Z</time>
      </trkpt>
      <trkpt lat="45.950317131355405" lon="9.532928327098489">
        <ele>1918.3900000000001</ele>
        <time>2021-08-29T08:40:47Z</time>
      </trkpt>
      <trkpt lat="45.950320735573769" lon="9.532947773113847">
        <ele>1917.9400000000001</ele>
        <time>2021-08-29T08:40:57Z</time>
      </trkpt>
      <trkpt lat="45.950311683118343" lon="9.532941989600658">
        <ele>1919.45</ele>
        <time>2021-08-29T08:41:15Z</time>
      </trkpt>
      <trkpt lat="45.950299696996808" lon="9.532911311835051">
        <ele>1918.8099999999999</ele>
        <time>2021-08-29T08:41:25Z</time>
      </trkpt>
      <trkpt lat="45.950285028666258" lon="9.532869402319193">
        <ele>1917.21</ele>
        <time>2021-08-29T08:41:34Z</time>
      </trkpt>
      <trkpt lat="45.950292069464922" lon="9.532792875543237">
        <ele>1913.6900000000001</ele>
        <time>2021-08-29T08:41:44Z</time>
      </trkpt>
      <trkpt lat="45.950291734188795" lon="9.532777369022369">
        <ele>1915.4100000000001</ele>
        <time>2021-08-29T08:41:54Z</time>
      </trkpt>
      <trkpt lat="45.950288968160748" lon="9.532759264111519">
        <ele>1915.77</ele>
        <time>2021-08-29T08:42:07Z</time>
      </trkpt>
      <trkpt lat="45.950306402519345" lon="9.532642085105181">
        <ele>1914.1400000000001</ele>
        <time>2021-08-29T08:42:16Z</time>
      </trkpt>
      <trkpt lat="45.950322495773435" lon="9.532547704875469">
        <ele>1911.25</ele>
        <time>2021-08-29T08:42:26Z</time>
      </trkpt>
      <trkpt lat="45.950338505208492" lon="9.532457515597343">
        <ele>1913.3099999999999</ele>
        <time>2021-08-29T08:42:35Z</time>
      </trkpt>
      <trkpt lat="45.950339008122683" lon="9.532372690737248">
        <ele>1913.8699999999999</ele>
        <time>2021-08-29T08:42:44Z</time>
      </trkpt>
      <trkpt lat="45.950369602069259" lon="9.532327177003026">
        <ele>1915.9000000000001</ele>
        <time>2021-08-29T08:42:54Z</time>
      </trkpt>
      <trkpt lat="45.950386533513665" lon="9.53226188197732">
        <ele>1916.02</ele>
        <time>2021-08-29T08:43:04Z</time>
      </trkpt>
      <trkpt lat="45.950421318411827" lon="9.532223995774984">
        <ele>1915.8</ele>
        <time>2021-08-29T08:43:13Z</time>
      </trkpt>
      <trkpt lat="45.950483595952392" lon="9.53216171823442">
        <ele>1913.4000000000001</ele>
        <time>2021-08-29T08:43:22Z</time>
      </trkpt>
      <trkpt lat="45.950560290366411" lon="9.532064069062471">
        <ele>1913.5799999999999</ele>
        <time>2021-08-29T08:43:32Z</time>
      </trkpt>
      <trkpt lat="45.950652407482266" lon="9.532032469287515">
        <ele>1914.24</ele>
        <time>2021-08-29T08:43:42Z</time>
      </trkpt>
      <trkpt lat="45.950711080804467" lon="9.531983770430088">
        <ele>1911.05</ele>
        <time>2021-08-29T08:43:51Z</time>
      </trkpt>
      <trkpt lat="45.950765982270241" lon="9.531942028552294">
        <ele>1910.8199999999999</ele>
        <time>2021-08-29T08:44:00Z</time>
      </trkpt>
      <trkpt lat="45.9508250746876" lon="9.531894503161311">
        <ele>1910.6099999999999</ele>
        <time>2021-08-29T08:44:10Z</time>
      </trkpt>
      <trkpt lat="45.950906295329332" lon="9.531854689121246">
        <ele>1909.98</ele>
        <time>2021-08-29T08:44:19Z</time>
      </trkpt>
      <trkpt lat="45.950975110754371" lon="9.531790064647794">
        <ele>1909.0999999999999</ele>
        <time>2021-08-29T08:44:28Z</time>
      </trkpt>
      <trkpt lat="45.950971338897943" lon="9.531710017472506">
        <ele>1911.1099999999999</ele>
        <time>2021-08-29T08:44:38Z</time>
      </trkpt>
      <trkpt lat="45.95100243575871" lon="9.531676573678851">
        <ele>1911.3800000000001</ele>
        <time>2021-08-29T08:44:47Z</time>
      </trkpt>
      <trkpt lat="45.951060438528657" lon="9.531620079651475">
        <ele>1912.55</ele>
        <time>2021-08-29T08:44:57Z</time>
      </trkpt>
      <trkpt lat="45.95110896974802" lon="9.53149912878871">
        <ele>1909.79</ele>
        <time>2021-08-29T08:45:06Z</time>
      </trkpt>
      <trkpt lat="45.95115439966321" lon="9.531426960602403">
        <ele>1908.74</ele>
        <time>2021-08-29T08:45:15Z</time>
      </trkpt>
      <trkpt lat="45.951193878427148" lon="9.53135596588254">
        <ele>1908.52</ele>
        <time>2021-08-29T08:45:25Z</time>
      </trkpt>
      <trkpt lat="45.951215168461204" lon="9.531280864030123">
        <ele>1911.98</ele>
        <time>2021-08-29T08:45:34Z</time>
      </trkpt>
      <trkpt lat="45.951239308342338" lon="9.531203499063849">
        <ele>1913.3800000000001</ele>
        <time>2021-08-29T08:45:43Z</time>
      </trkpt>
      <trkpt lat="45.951294125989079" lon="9.531151615083218">
        <ele>1916.02</ele>
        <time>2021-08-29T08:45:52Z</time>
      </trkpt>
      <trkpt lat="45.951322205364704" lon="9.531118925660849">
        <ele>1916.0999999999999</ele>
        <time>2021-08-29T08:46:03Z</time>
      </trkpt>
      <trkpt lat="45.951347602531314" lon="9.531104173511267">
        <ele>1916.51</ele>
        <time>2021-08-29T08:46:12Z</time>
      </trkpt>
      <trkpt lat="45.951361181214452" lon="9.531044410541654">
        <ele>1916.75</ele>
        <time>2021-08-29T08:46:22Z</time>
      </trkpt>
      <trkpt lat="45.95136403106153" lon="9.530974505469203">
        <ele>1917.3399999999999</ele>
        <time>2021-08-29T08:46:32Z</time>
      </trkpt>
      <trkpt lat="45.951384902000427" lon="9.530952293425798">
        <ele>1918.49</ele>
        <time>2021-08-29T08:46:41Z</time>
      </trkpt>
      <trkpt lat="45.951395966112614" lon="9.530895715579391">
        <ele>1916.55</ele>
        <time>2021-08-29T08:46:51Z</time>
      </trkpt>
      <trkpt lat="45.951398564502597" lon="9.530877778306603">
        <ele>1917.5899999999999</ele>
        <time>2021-08-29T08:47:01Z</time>
      </trkpt>
      <trkpt lat="45.951403174549341" lon="9.530843663960695">
        <ele>1918.8399999999999</ele>
        <time>2021-08-29T08:47:14Z</time>
      </trkpt>
      <trkpt lat="45.951445084065199" lon="9.530681474134326">
        <ele>1919.4400000000001</ele>
        <time>2021-08-29T08:47:23Z</time>
      </trkpt>
      <trkpt lat="45.9515071939677" lon="9.530606120824814">
        <ele>1919.8699999999999</ele>
        <time>2021-08-29T08:47:32Z</time>
      </trkpt>
      <trkpt lat="45.95160249620676" lon="9.530588183552027">
        <ele>1919.51</ele>
        <time>2021-08-29T08:47:42Z</time>
      </trkpt>
      <trkpt lat="45.951644070446491" lon="9.530495814979076">
        <ele>1919.1300000000001</ele>
        <time>2021-08-29T08:47:51Z</time>
      </trkpt>
      <trkpt lat="45.951677681878209" lon="9.530394813045859">
        <ele>1918.6300000000001</ele>
        <time>2021-08-29T08:48:01Z</time>
      </trkpt>
      <trkpt lat="45.951678520068526" lon="9.530389197170734">
        <ele>1920.1500000000001</ele>
        <time>2021-08-29T08:48:04Z</time>
      </trkpt>
      <trkpt lat="45.951667372137308" lon="9.530403530225158">
        <ele>1915.55</ele>
        <time>2021-08-29T08:48:14Z</time>
      </trkpt>
      <trkpt lat="45.951710203662515" lon="9.530333373695612">
        <ele>1917.3</ele>
        <time>2021-08-29T08:48:24Z</time>
      </trkpt>
      <trkpt lat="45.951719926670194" lon="9.530296493321657">
        <ele>1918.6900000000001</ele>
        <time>2021-08-29T08:48:33Z</time>
      </trkpt>
      <trkpt lat="45.951719004660845" lon="9.530179565772414">
        <ele>1914.5</ele>
        <time>2021-08-29T08:48:43Z</time>
      </trkpt>
      <trkpt lat="45.951766110956669" lon="9.530044533312321">
        <ele>1913.74</ele>
        <time>2021-08-29T08:48:53Z</time>
      </trkpt>
      <trkpt lat="45.951853115111589" lon="9.529933892190456">
        <ele>1916.73</ele>
        <time>2021-08-29T08:49:02Z</time>
      </trkpt>
      <trkpt lat="45.951923690736294" lon="9.529830208048224">
        <ele>1917.72</ele>
        <time>2021-08-29T08:49:11Z</time>
      </trkpt>
      <trkpt lat="45.952050089836121" lon="9.529844205826521">
        <ele>1917.6900000000001</ele>
        <time>2021-08-29T08:49:20Z</time>
      </trkpt>
      <trkpt lat="45.952150588855147" lon="9.529786119237542">
        <ele>1915.3299999999999</ele>
        <time>2021-08-29T08:49:30Z</time>
      </trkpt>
      <trkpt lat="45.952218733727932" lon="9.529726188629866">
        <ele>1917.95</ele>
        <time>2021-08-29T08:49:40Z</time>
      </trkpt>
      <trkpt lat="45.952277574688196" lon="9.529648823663592">
        <ele>1916.6700000000001</ele>
        <time>2021-08-29T08:49:49Z</time>
      </trkpt>
      <trkpt lat="45.952399028465152" lon="9.529651086777449">
        <ele>1919.5599999999999</ele>
        <time>2021-08-29T08:49:59Z</time>
      </trkpt>
      <trkpt lat="45.952451499179006" lon="9.529685033485293">
        <ele>1920.7</ele>
        <time>2021-08-29T08:50:09Z</time>
      </trkpt>
      <trkpt lat="45.952512184157968" lon="9.529736917465925">
        <ele>1921.3699999999999</ele>
        <time>2021-08-29T08:50:19Z</time>
      </trkpt>
      <trkpt lat="45.952587705105543" lon="9.529728200286627">
        <ele>1921.0899999999999</ele>
        <time>2021-08-29T08:50:28Z</time>
      </trkpt>
      <trkpt lat="45.952641097828746" lon="9.529714034870267">
        <ele>1924.74</ele>
        <time>2021-08-29T08:50:38Z</time>
      </trkpt>
      <trkpt lat="45.952679738402367" lon="9.529697271063924">
        <ele>1923.79</ele>
        <time>2021-08-29T08:50:48Z</time>
      </trkpt>
      <trkpt lat="45.952731790021062" lon="9.529687464237213">
        <ele>1923.51</ele>
        <time>2021-08-29T08:50:57Z</time>
      </trkpt>
      <trkpt lat="45.952781494706869" lon="9.529668604955077">
        <ele>1925.02</ele>
        <time>2021-08-29T08:51:06Z</time>
      </trkpt>
      <trkpt lat="45.952861374244094" lon="9.52961940318346">
        <ele>1923.27</ele>
        <time>2021-08-29T08:51:16Z</time>
      </trkpt>
      <trkpt lat="45.952898925170302" lon="9.529579924419522">
        <ele>1921.49</ele>
        <time>2021-08-29T08:51:26Z</time>
      </trkpt>
      <trkpt lat="45.952967405319214" lon="9.529580762609839">
        <ele>1920.98</ele>
        <time>2021-08-29T08:51:35Z</time>
      </trkpt>
      <trkpt lat="45.953087098896503" lon="9.529547402635217">
        <ele>1921.76</ele>
        <time>2021-08-29T08:51:44Z</time>
      </trkpt>
      <trkpt lat="45.953159686177969" lon="9.529525274410844">
        <ele>1920.4000000000001</ele>
        <time>2021-08-29T08:51:55Z</time>
      </trkpt>
      <trkpt lat="45.953209307044744" lon="9.529482191428542">
        <ele>1920.3599999999999</ele>
        <time>2021-08-29T08:52:04Z</time>
      </trkpt>
      <trkpt lat="45.953304274007678" lon="9.529457129538059">
        <ele>1923.48</ele>
        <time>2021-08-29T08:52:14Z</time>
      </trkpt>
      <trkpt lat="45.95331123098731" lon="9.529357384890318">
        <ele>1919.8599999999999</ele>
        <time>2021-08-29T08:52:24Z</time>
      </trkpt>
      <trkpt lat="45.953330928459764" lon="9.529363671317697">
        <ele>1917.9100000000001</ele>
        <time>2021-08-29T08:52:34Z</time>
      </trkpt>
      <trkpt lat="45.953306034207344" lon="9.529293011873961">
        <ele>1913.8599999999999</ele>
        <time>2021-08-29T08:52:43Z</time>
      </trkpt>
      <trkpt lat="45.95330242998898" lon="9.529217574745417">
        <ele>1914.6400000000001</ele>
        <time>2021-08-29T08:52:53Z</time>
      </trkpt>
      <trkpt lat="45.953297400847077" lon="9.529147418215871">
        <ele>1916</ele>
        <time>2021-08-29T08:53:02Z</time>
      </trkpt>
      <trkpt lat="45.953249959275126" lon="9.529052535071969">
        <ele>1914.3599999999999</ele>
        <time>2021-08-29T08:53:12Z</time>
      </trkpt>
      <trkpt lat="45.953292958438396" lon="9.528981037437916">
        <ele>1911.6600000000001</ele>
        <time>2021-08-29T08:53:22Z</time>
      </trkpt>
      <trkpt lat="45.953408796340227" lon="9.52889671549201">
        <ele>1916.6600000000001</ele>
        <time>2021-08-29T08:53:31Z</time>
      </trkpt>
      <trkpt lat="45.953461602330208" lon="9.5288678817451">
        <ele>1918.23</ele>
        <time>2021-08-29T08:53:42Z</time>
      </trkpt>
      <trkpt lat="45.95344458706677" lon="9.5288160815835">
        <ele>1917.26</ele>
        <time>2021-08-29T08:53:52Z</time>
      </trkpt>
      <trkpt lat="45.953393206000328" lon="9.528793031349778">
        <ele>1917.1099999999999</ele>
        <time>2021-08-29T08:54:01Z</time>
      </trkpt>
      <trkpt lat="45.953401671722531" lon="9.528771741315723">
        <ele>1917.6300000000001</ele>
        <time>2021-08-29T08:54:12Z</time>
      </trkpt>
      <trkpt lat="45.953392116352916" lon="9.528755564242601">
        <ele>1916.3199999999999</ele>
        <time>2021-08-29T08:54:21Z</time>
      </trkpt>
      <trkpt lat="45.953399408608675" lon="9.528726227581501">
        <ele>1915.3599999999999</ele>
        <time>2021-08-29T08:54:31Z</time>
      </trkpt>
      <trkpt lat="45.953435283154249" lon="9.528688425198197">
        <ele>1918.0999999999999</ele>
        <time>2021-08-29T08:54:40Z</time>
      </trkpt>
      <trkpt lat="45.953448358923197" lon="9.52857468277216">
        <ele>1922.5899999999999</ele>
        <time>2021-08-29T08:54:50Z</time>
      </trkpt>
      <trkpt lat="45.953458668664098" lon="9.528491282835603">
        <ele>1926.3299999999999</ele>
        <time>2021-08-29T08:55:00Z</time>
      </trkpt>
      <trkpt lat="45.953459506854415" lon="9.528406206518412">
        <ele>1925.6600000000001</ele>
        <time>2021-08-29T08:55:09Z</time>
      </trkpt>
      <trkpt lat="45.953450286760926" lon="9.528322219848633">
        <ele>1923.46</ele>
        <time>2021-08-29T08:55:18Z</time>
      </trkpt>
      <trkpt lat="45.953491693362594" lon="9.528241585940123">
        <ele>1922.0899999999999</ele>
        <time>2021-08-29T08:55:28Z</time>
      </trkpt>
      <trkpt lat="45.953547935932875" lon="9.528153408318758">
        <ele>1921.3299999999999</ele>
        <time>2021-08-29T08:55:38Z</time>
      </trkpt>
      <trkpt lat="45.953609962016344" lon="9.528093980625272">
        <ele>1919.8</ele>
        <time>2021-08-29T08:55:47Z</time>
      </trkpt>
      <trkpt lat="45.953616835176945" lon="9.527987530454993">
        <ele>1916.78</ele>
        <time>2021-08-29T08:55:57Z</time>
      </trkpt>
      <trkpt lat="45.953670227900147" lon="9.527946459129453">
        <ele>1919.3299999999999</ele>
        <time>2021-08-29T08:56:06Z</time>
      </trkpt>
      <trkpt lat="45.953662181273103" lon="9.52793950214982">
        <ele>1920.24</ele>
        <time>2021-08-29T08:56:16Z</time>
      </trkpt>
      <trkpt lat="45.953689003363252" lon="9.527931874617934">
        <ele>1920.4100000000001</ele>
        <time>2021-08-29T08:56:26Z</time>
      </trkpt>
      <trkpt lat="45.953708365559578" lon="9.527943776920438">
        <ele>1919.3599999999999</ele>
        <time>2021-08-29T08:56:36Z</time>
      </trkpt>
      <trkpt lat="45.953690931200981" lon="9.527909494936466">
        <ele>1919.55</ele>
        <time>2021-08-29T08:56:45Z</time>
      </trkpt>
      <trkpt lat="45.953797129914165" lon="9.527836991474032">
        <ele>1923.1600000000001</ele>
        <time>2021-08-29T08:56:54Z</time>
      </trkpt>
      <trkpt lat="45.953820515424013" lon="9.527766415849328">
        <ele>1918.47</ele>
        <time>2021-08-29T08:57:04Z</time>
      </trkpt>
      <trkpt lat="45.953908441588283" lon="9.527685362845659">
        <ele>1921.45</ele>
        <time>2021-08-29T08:57:13Z</time>
      </trkpt>
      <trkpt lat="45.953998379409313" lon="9.527530884370208">
        <ele>1920.23</ele>
        <time>2021-08-29T08:57:23Z</time>
      </trkpt>
      <trkpt lat="45.954016484320164" lon="9.527452178299427">
        <ele>1921.1500000000001</ele>
        <time>2021-08-29T08:57:32Z</time>
      </trkpt>
      <trkpt lat="45.954048922285438" lon="9.527374561876059">
        <ele>1918.0699999999999</ele>
        <time>2021-08-29T08:57:42Z</time>
      </trkpt>
      <trkpt lat="45.954025369137526" lon="9.527335502207279">
        <ele>1914.4400000000001</ele>
        <time>2021-08-29T08:57:51Z</time>
      </trkpt>
      <trkpt lat="45.95398991368711" lon="9.527202732861042">
        <ele>1912.6400000000001</ele>
        <time>2021-08-29T08:58:01Z</time>
      </trkpt>
      <trkpt lat="45.953928977251053" lon="9.527040123939514">
        <ele>1912.46</ele>
        <time>2021-08-29T08:58:11Z</time>
      </trkpt>
      <trkpt lat="45.953957475721836" lon="9.526967201381922">
        <ele>1911.5899999999999</ele>
        <time>2021-08-29T08:58:21Z</time>
      </trkpt>
      <trkpt lat="45.954032326117158" lon="9.526892267167568">
        <ele>1909.8699999999999</ele>
        <time>2021-08-29T08:58:31Z</time>
      </trkpt>
      <trkpt lat="45.95407297834754" lon="9.526806687936187">
        <ele>1912.1500000000001</ele>
        <time>2021-08-29T08:58:40Z</time>
      </trkpt>
      <trkpt lat="45.954020926728845" lon="9.526692694053054">
        <ele>1908.6400000000001</ele>
        <time>2021-08-29T08:58:49Z</time>
      </trkpt>
      <trkpt lat="45.954064931720495" lon="9.526599571108818">
        <ele>1907.3599999999999</ele>
        <time>2021-08-29T08:58:59Z</time>
      </trkpt>
      <trkpt lat="45.954101392999291" lon="9.526507286354899">
        <ele>1909.8299999999999</ele>
        <time>2021-08-29T08:59:08Z</time>
      </trkpt>
      <trkpt lat="45.95415947958827" lon="9.526375187560916">
        <ele>1913.48</ele>
        <time>2021-08-29T08:59:17Z</time>
      </trkpt>
      <trkpt lat="45.954180266708136" lon="9.526265216991305">
        <ele>1912.79</ele>
        <time>2021-08-29T08:59:27Z</time>
      </trkpt>
      <trkpt lat="45.954177835956216" lon="9.52619799412787">
        <ele>1911.55</ele>
        <time>2021-08-29T08:59:37Z</time>
      </trkpt>
      <trkpt lat="45.954216392710805" lon="9.526164969429374">
        <ele>1911.52</ele>
        <time>2021-08-29T08:59:46Z</time>
      </trkpt>
      <trkpt lat="45.954228462651372" lon="9.526141081005335">
        <ele>1911.77</ele>
        <time>2021-08-29T08:59:55Z</time>
      </trkpt>
      <trkpt lat="45.954277664422989" lon="9.526109397411346">
        <ele>1910.8800000000001</ele>
        <time>2021-08-29T09:00:05Z</time>
      </trkpt>
      <trkpt lat="45.954287806525826" lon="9.526099171489477">
        <ele>1913.49</ele>
        <time>2021-08-29T09:00:14Z</time>
      </trkpt>
      <trkpt lat="45.954328877851367" lon="9.526070170104504">
        <ele>1911.3399999999999</ele>
        <time>2021-08-29T09:00:23Z</time>
      </trkpt>
      <trkpt lat="45.954337595030665" lon="9.525998001918197">
        <ele>1912.75</ele>
        <time>2021-08-29T09:00:32Z</time>
      </trkpt>
      <trkpt lat="45.954344468191266" lon="9.525957517325878">
        <ele>1915.72</ele>
        <time>2021-08-29T09:00:42Z</time>
      </trkpt>
      <trkpt lat="45.954414876177907" lon="9.525873530656099">
        <ele>1919.5699999999999</ele>
        <time>2021-08-29T09:00:52Z</time>
      </trkpt>
      <trkpt lat="45.954490816220641" lon="9.525747466832399">
        <ele>1921.1600000000001</ele>
        <time>2021-08-29T09:01:01Z</time>
      </trkpt>
      <trkpt lat="45.954502634704113" lon="9.525658199563623">
        <ele>1918.71</ele>
        <time>2021-08-29T09:01:11Z</time>
      </trkpt>
      <trkpt lat="45.954542364925146" lon="9.525620313361287">
        <ele>1920.8299999999999</ele>
        <time>2021-08-29T09:01:20Z</time>
      </trkpt>
      <trkpt lat="45.954575976356864" lon="9.525556694716215">
        <ele>1920.8699999999999</ele>
        <time>2021-08-29T09:01:29Z</time>
      </trkpt>
      <trkpt lat="45.954582178965211" lon="9.525477821007371">
        <ele>1923.3099999999999</ele>
        <time>2021-08-29T09:01:39Z</time>
      </trkpt>
      <trkpt lat="45.954592823982239" lon="9.52541328035295">
        <ele>1924.5899999999999</ele>
        <time>2021-08-29T09:01:48Z</time>
      </trkpt>
      <trkpt lat="45.954610677435994" lon="9.525371789932251">
        <ele>1924.6700000000001</ele>
        <time>2021-08-29T09:01:58Z</time>
      </trkpt>
      <trkpt lat="45.95459533855319" lon="9.525355277583003">
        <ele>1922.47</ele>
        <time>2021-08-29T09:02:07Z</time>
      </trkpt>
      <trkpt lat="45.95464370213449" lon="9.525260729715228">
        <ele>1924.55</ele>
        <time>2021-08-29T09:02:16Z</time>
      </trkpt>
      <trkpt lat="45.954782087355852" lon="9.525185460224748">
        <ele>1926.98</ele>
        <time>2021-08-29T09:02:26Z</time>
      </trkpt>
      <trkpt lat="45.954755181446671" lon="9.525126786902547">
        <ele>1929.29</ele>
        <time>2021-08-29T09:02:35Z</time>
      </trkpt>
      <trkpt lat="45.95471310429275" lon="9.525119829922915">
        <ele>1926.3900000000001</ele>
        <time>2021-08-29T09:02:45Z</time>
      </trkpt>
      <trkpt lat="45.95470966771245" lon="9.525135084986687">
        <ele>1922.5</ele>
        <time>2021-08-29T09:02:55Z</time>
      </trkpt>
      <trkpt lat="45.954708326607943" lon="9.525148160755634">
        <ele>1921.47</ele>
        <time>2021-08-29T09:03:05Z</time>
      </trkpt>
      <trkpt lat="45.954693406820297" lon="9.525145227089524">
        <ele>1919.95</ele>
        <time>2021-08-29T09:03:20Z</time>
      </trkpt>
      <trkpt lat="45.954676894471049" lon="9.525140197947621">
        <ele>1919.8599999999999</ele>
        <time>2021-08-29T09:03:30Z</time>
      </trkpt>
      <trkpt lat="45.95466616563499" lon="9.525122763589025">
        <ele>1920.1600000000001</ele>
        <time>2021-08-29T09:03:40Z</time>
      </trkpt>
      <trkpt lat="45.954672787338495" lon="9.52509418129921">
        <ele>1918.0599999999999</ele>
        <time>2021-08-29T09:03:50Z</time>
      </trkpt>
      <trkpt lat="45.954622915014625" lon="9.525090241804719">
        <ele>1919.8499999999999</ele>
        <time>2021-08-29T09:04:00Z</time>
      </trkpt>
      <trkpt lat="45.954623837023973" lon="9.525015559047461">
        <ele>1919.48</ele>
        <time>2021-08-29T09:04:09Z</time>
      </trkpt>
      <trkpt lat="45.954605480656028" lon="9.524895027279854">
        <ele>1918.8</ele>
        <time>2021-08-29T09:04:18Z</time>
      </trkpt>
      <trkpt lat="45.954609336331487" lon="9.524788074195385">
        <ele>1920.76</ele>
        <time>2021-08-29T09:04:28Z</time>
      </trkpt>
      <trkpt lat="45.9545982722193" lon="9.524729233235121">
        <ele>1921.24</ele>
        <time>2021-08-29T09:04:38Z</time>
      </trkpt>
      <trkpt lat="45.954580083489418" lon="9.524712720885873">
        <ele>1921.3399999999999</ele>
        <time>2021-08-29T09:04:48Z</time>
      </trkpt>
      <trkpt lat="45.954572539776564" lon="9.524684976786375">
        <ele>1921.3199999999999</ele>
        <time>2021-08-29T09:04:57Z</time>
      </trkpt>
      <trkpt lat="45.9545464720577" lon="9.52461532317102">
        <ele>1917.8099999999999</ele>
        <time>2021-08-29T09:05:07Z</time>
      </trkpt>
      <trkpt lat="45.954522080719471" lon="9.524540640413761">
        <ele>1914.47</ele>
        <time>2021-08-29T09:05:17Z</time>
      </trkpt>
      <trkpt lat="45.954517470672727" lon="9.524510214105249">
        <ele>1912.24</ele>
        <time>2021-08-29T09:05:26Z</time>
      </trkpt>
      <trkpt lat="45.95450883731246" lon="9.524402171373367">
        <ele>1912.73</ele>
        <time>2021-08-29T09:05:35Z</time>
      </trkpt>
      <trkpt lat="45.954464664682746" lon="9.524353388696909">
        <ele>1909.29</ele>
        <time>2021-08-29T09:05:44Z</time>
      </trkpt>
      <trkpt lat="45.954441362991929" lon="9.524304606020451">
        <ele>1908.1400000000001</ele>
        <time>2021-08-29T09:05:54Z</time>
      </trkpt>
      <trkpt lat="45.954513112083077" lon="9.524246100336313">
        <ele>1907.5799999999999</ele>
        <time>2021-08-29T09:06:04Z</time>
      </trkpt>
      <trkpt lat="45.954606402665377" lon="9.524183738976717">
        <ele>1912.95</ele>
        <time>2021-08-29T09:06:13Z</time>
      </trkpt>
      <trkpt lat="45.954568265005946" lon="9.524086592718959">
        <ele>1915.3699999999999</ele>
        <time>2021-08-29T09:06:23Z</time>
      </trkpt>
      <trkpt lat="45.954553429037333" lon="9.523981735110283">
        <ele>1910.2</ele>
        <time>2021-08-29T09:06:32Z</time>
      </trkpt>
      <trkpt lat="45.954568013548851" lon="9.523881236091256">
        <ele>1910.79</ele>
        <time>2021-08-29T09:06:42Z</time>
      </trkpt>
      <trkpt lat="45.954629788175225" lon="9.523824825882912">
        <ele>1912.0599999999999</ele>
        <time>2021-08-29T09:06:52Z</time>
      </trkpt>
      <trkpt lat="45.954685360193253" lon="9.523822395130992">
        <ele>1913.3800000000001</ele>
        <time>2021-08-29T09:07:01Z</time>
      </trkpt>
      <trkpt lat="45.954743195325136" lon="9.523799009621143">
        <ele>1912.5599999999999</ele>
        <time>2021-08-29T09:07:11Z</time>
      </trkpt>
      <trkpt lat="45.954773286357522" lon="9.52376414090395">
        <ele>1913.3800000000001</ele>
        <time>2021-08-29T09:07:20Z</time>
      </trkpt>
      <trkpt lat="45.954840425401926" lon="9.523754501715303">
        <ele>1913.5999999999999</ele>
        <time>2021-08-29T09:07:30Z</time>
      </trkpt>
      <trkpt lat="45.954913599416614" lon="9.523714268580079">
        <ele>1914.5899999999999</ele>
        <time>2021-08-29T09:07:39Z</time>
      </trkpt>
      <trkpt lat="45.95498819835484" lon="9.523711586371064">
        <ele>1913.78</ele>
        <time>2021-08-29T09:07:48Z</time>
      </trkpt>
      <trkpt lat="45.955042513087392" lon="9.523687195032835">
        <ele>1915.03</ele>
        <time>2021-08-29T09:07:58Z</time>
      </trkpt>
      <trkpt lat="45.955079980194569" lon="9.523695996031165">
        <ele>1917.8399999999999</ele>
        <time>2021-08-29T09:08:07Z</time>
      </trkpt>
      <trkpt lat="45.955137480050325" lon="9.523668084293604">
        <ele>1916.24</ele>
        <time>2021-08-29T09:08:17Z</time>
      </trkpt>
      <trkpt lat="45.955210737884045" lon="9.523691134527326">
        <ele>1914.76</ele>
        <time>2021-08-29T09:08:26Z</time>
      </trkpt>
      <trkpt lat="45.955281229689717" lon="9.523678980767727">
        <ele>1913.75</ele>
        <time>2021-08-29T09:08:35Z</time>
      </trkpt>
      <trkpt lat="45.955330682918429" lon="9.523634305223823">
        <ele>1908.4100000000001</ele>
        <time>2021-08-29T09:08:45Z</time>
      </trkpt>
      <trkpt lat="45.955407712608576" lon="9.523607231676579">
        <ele>1910.46</ele>
        <time>2021-08-29T09:08:54Z</time>
      </trkpt>
      <trkpt lat="45.955450376495719" lon="9.523623492568731">
        <ele>1911.79</ele>
        <time>2021-08-29T09:09:03Z</time>
      </trkpt>
      <trkpt lat="45.955440904945135" lon="9.52366691082716">
        <ele>1911.3</ele>
        <time>2021-08-29T09:09:13Z</time>
      </trkpt>
      <trkpt lat="45.955424392595887" lon="9.523669593036175">
        <ele>1906.8299999999999</ele>
        <time>2021-08-29T09:09:23Z</time>
      </trkpt>
      <trkpt lat="45.955435037612915" lon="9.523636819794774">
        <ele>1907.25</ele>
        <time>2021-08-29T09:09:33Z</time>
      </trkpt>
      <trkpt lat="45.955444676801562" lon="9.523641262203455">
        <ele>1908.73</ele>
        <time>2021-08-29T09:10:08Z</time>
      </trkpt>
      <trkpt lat="45.955500667914748" lon="9.523582588881254">
        <ele>1910.0999999999999</ele>
        <time>2021-08-29T09:10:18Z</time>
      </trkpt>
      <trkpt lat="45.955553725361824" lon="9.523528860881925">
        <ele>1912.04</ele>
        <time>2021-08-29T09:10:28Z</time>
      </trkpt>
      <trkpt lat="45.95561558380723" lon="9.523443281650543">
        <ele>1914.1099999999999</ele>
        <time>2021-08-29T09:10:37Z</time>
      </trkpt>
      <trkpt lat="45.955655314028263" lon="9.523383937776089">
        <ele>1911.97</ele>
        <time>2021-08-29T09:10:46Z</time>
      </trkpt>
      <trkpt lat="45.955719770863652" lon="9.523268938064575">
        <ele>1914.47</ele>
        <time>2021-08-29T09:10:55Z</time>
      </trkpt>
      <trkpt lat="45.95573921687901" lon="9.52303851954639">
        <ele>1913.21</ele>
        <time>2021-08-29T09:11:05Z</time>
      </trkpt>
      <trkpt lat="45.955836698412895" lon="9.522919664159417">
        <ele>1913.8499999999999</ele>
        <time>2021-08-29T09:11:14Z</time>
      </trkpt>
      <trkpt lat="45.955837201327085" lon="9.522806759923697">
        <ele>1914.04</ele>
        <time>2021-08-29T09:11:24Z</time>
      </trkpt>
      <trkpt lat="45.95582420937717" lon="9.522651862353087">
        <ele>1910.74</ele>
        <time>2021-08-29T09:11:33Z</time>
      </trkpt>
      <trkpt lat="45.955780372023582" lon="9.52257826924324">
        <ele>1910.28</ele>
        <time>2021-08-29T09:11:43Z</time>
      </trkpt>
      <trkpt lat="45.955807194113731" lon="9.522530408576131">
        <ele>1914.1900000000001</ele>
        <time>2021-08-29T09:11:52Z</time>
      </trkpt>
      <trkpt lat="45.955870980396867" lon="9.522452875971794">
        <ele>1915.8</ele>
        <time>2021-08-29T09:12:02Z</time>
      </trkpt>
      <trkpt lat="45.955891013145447" lon="9.522365285083652">
        <ele>1917.02</ele>
        <time>2021-08-29T09:12:12Z</time>
      </trkpt>
      <trkpt lat="45.955901239067316" lon="9.522293284535408">
        <ele>1918.5999999999999</ele>
        <time>2021-08-29T09:12:21Z</time>
      </trkpt>
      <trkpt lat="45.955922529101372" lon="9.522227235138416">
        <ele>1920.71</ele>
        <time>2021-08-29T09:12:31Z</time>
      </trkpt>
      <trkpt lat="45.955912135541439" lon="9.522214075550437">
        <ele>1919.76</ele>
        <time>2021-08-29T09:12:43Z</time>
      </trkpt>
      <trkpt lat="45.955891516059637" lon="9.522186666727066">
        <ele>1920.23</ele>
        <time>2021-08-29T09:12:52Z</time>
      </trkpt>
      <trkpt lat="45.955895707011223" lon="9.522161269560456">
        <ele>1921.74</ele>
        <time>2021-08-29T09:13:01Z</time>
      </trkpt>
      <trkpt lat="45.955898892134428" lon="9.522103015333414">
        <ele>1920.28</ele>
        <time>2021-08-29T09:13:11Z</time>
      </trkpt>
      <trkpt lat="45.95588237978518" lon="9.522080300375819">
        <ele>1923.97</ele>
        <time>2021-08-29T09:13:20Z</time>
      </trkpt>
      <trkpt lat="45.95586528070271" lon="9.52201777137816">
        <ele>1925.04</ele>
        <time>2021-08-29T09:13:30Z</time>
      </trkpt>
      <trkpt lat="45.955864693969488" lon="9.521964797750115">
        <ele>1927.95</ele>
        <time>2021-08-29T09:13:39Z</time>
      </trkpt>
      <trkpt lat="45.955843236297369" lon="9.521916015073657">
        <ele>1928.5899999999999</ele>
        <time>2021-08-29T09:13:49Z</time>
      </trkpt>
      <trkpt lat="45.955836530774832" lon="9.521849798038602">
        <ele>1930.29</ele>
        <time>2021-08-29T09:13:59Z</time>
      </trkpt>
      <trkpt lat="45.955863017588854" lon="9.52178861014545">
        <ele>1929.75</ele>
        <time>2021-08-29T09:14:08Z</time>
      </trkpt>
      <trkpt lat="45.955871567130089" lon="9.521799674257636">
        <ele>1931</ele>
        <time>2021-08-29T09:14:22Z</time>
      </trkpt>
      <trkpt lat="45.955894533544779" lon="9.521802691742778">
        <ele>1931.1900000000001</ele>
        <time>2021-08-29T09:14:31Z</time>
      </trkpt>
      <trkpt lat="45.955940969288349" lon="9.521721722558141">
        <ele>1933.05</ele>
        <time>2021-08-29T09:14:41Z</time>
      </trkpt>
      <trkpt lat="45.955942394211888" lon="9.521645111963153">
        <ele>1932.1199999999999</ele>
        <time>2021-08-29T09:14:50Z</time>
      </trkpt>
      <trkpt lat="45.955954631790519" lon="9.521628599613905">
        <ele>1933.8</ele>
        <time>2021-08-29T09:14:59Z</time>
      </trkpt>
      <trkpt lat="45.955957816913724" lon="9.52158828265965">
        <ele>1933.5899999999999</ele>
        <time>2021-08-29T09:15:09Z</time>
      </trkpt>
      <trkpt lat="45.95597181469202" lon="9.52157168649137">
        <ele>1935.49</ele>
        <time>2021-08-29T09:15:19Z</time>
      </trkpt>
      <trkpt lat="45.956023782491684" lon="9.521521059796214">
        <ele>1934.8499999999999</ele>
        <time>2021-08-29T09:15:28Z</time>
      </trkpt>
      <trkpt lat="45.956070888787508" lon="9.521460207179189">
        <ele>1934.45</ele>
        <time>2021-08-29T09:15:37Z</time>
      </trkpt>
      <trkpt lat="45.956135177984834" lon="9.521451070904732">
        <ele>1935.2</ele>
        <time>2021-08-29T09:15:46Z</time>
      </trkpt>
      <trkpt lat="45.956198293715715" lon="9.521419387310743">
        <ele>1935.3900000000001</ele>
        <time>2021-08-29T09:15:57Z</time>
      </trkpt>
      <trkpt lat="45.956242885440588" lon="9.521396672353149">
        <ele>1934.98</ele>
        <time>2021-08-29T09:16:06Z</time>
      </trkpt>
      <trkpt lat="45.95630063675344" lon="9.521326934918761">
        <ele>1935.47</ele>
        <time>2021-08-29T09:16:16Z</time>
      </trkpt>
      <trkpt lat="45.956356963142753" lon="9.521269099786878">
        <ele>1936.03</ele>
        <time>2021-08-29T09:16:26Z</time>
      </trkpt>
      <trkpt lat="45.956416307017207" lon="9.521238505840302">
        <ele>1934.72</ele>
        <time>2021-08-29T09:16:36Z</time>
      </trkpt>
      <trkpt lat="45.956461485475302" lon="9.52125359326601">
        <ele>1934.5</ele>
        <time>2021-08-29T09:16:46Z</time>
      </trkpt>
      <trkpt lat="45.95651663839817" lon="9.521261220797896">
        <ele>1932.77</ele>
        <time>2021-08-29T09:16:55Z</time>
      </trkpt>
      <trkpt lat="45.956580424681306" lon="9.521214030683041">
        <ele>1934.26</ele>
        <time>2021-08-29T09:17:05Z</time>
      </trkpt>
      <trkpt lat="45.956644881516695" lon="9.521198440343142">
        <ele>1933.6300000000001</ele>
        <time>2021-08-29T09:17:14Z</time>
      </trkpt>
      <trkpt lat="45.956697687506676" lon="9.521172121167183">
        <ele>1934.76</ele>
        <time>2021-08-29T09:17:24Z</time>
      </trkpt>
      <trkpt lat="45.9567706938833" lon="9.52111478894949">
        <ele>1933.4100000000001</ele>
        <time>2021-08-29T09:17:33Z</time>
      </trkpt>
      <trkpt lat="45.956826098263264" lon="9.521079836413264">
        <ele>1933.02</ele>
        <time>2021-08-29T09:17:43Z</time>
      </trkpt>
      <trkpt lat="45.956868762150407" lon="9.521023510023952">
        <ele>1929.77</ele>
        <time>2021-08-29T09:17:53Z</time>
      </trkpt>
      <trkpt lat="45.956913018599153" lon="9.520982690155506">
        <ele>1928.4300000000001</ele>
        <time>2021-08-29T09:18:02Z</time>
      </trkpt>
      <trkpt lat="45.956941600888968" lon="9.520924268290401">
        <ele>1927.51</ele>
        <time>2021-08-29T09:18:12Z</time>
      </trkpt>
      <trkpt lat="45.956976721063256" lon="9.520886885002255">
        <ele>1929.5699999999999</ele>
        <time>2021-08-29T09:18:21Z</time>
      </trkpt>
      <trkpt lat="45.957019468769431" lon="9.520845478400588">
        <ele>1926.1600000000001</ele>
        <time>2021-08-29T09:18:31Z</time>
      </trkpt>
      <trkpt lat="45.957048805430532" lon="9.520803485065699">
        <ele>1925.0599999999999</ele>
        <time>2021-08-29T09:18:40Z</time>
      </trkpt>
      <trkpt lat="45.957159362733364" lon="9.520761910825968">
        <ele>1927.1700000000001</ele>
        <time>2021-08-29T09:18:50Z</time>
      </trkpt>
      <trkpt lat="45.957216694951057" lon="9.520744727924466">
        <ele>1926.1199999999999</ele>
        <time>2021-08-29T09:18:59Z</time>
      </trkpt>
      <trkpt lat="45.95727302134037" lon="9.520736094564199">
        <ele>1927.21</ele>
        <time>2021-08-29T09:19:09Z</time>
      </trkpt>
      <trkpt lat="45.957349883392453" lon="9.520724024623632">
        <ele>1927.5599999999999</ele>
        <time>2021-08-29T09:19:18Z</time>
      </trkpt>
      <trkpt lat="45.957403359934688" lon="9.520680941641331">
        <ele>1924.72</ele>
        <time>2021-08-29T09:19:28Z</time>
      </trkpt>
      <trkpt lat="45.957421129569411" lon="9.52067113481462">
        <ele>1926.6500000000001</ele>
        <time>2021-08-29T09:19:38Z</time>
      </trkpt>
      <trkpt lat="45.95745918340981" lon="9.520645486190915">
        <ele>1924.3900000000001</ele>
        <time>2021-08-29T09:19:47Z</time>
      </trkpt>
      <trkpt lat="45.957548534497619" lon="9.520592428743839">
        <ele>1921.3499999999999</ele>
        <time>2021-08-29T09:19:57Z</time>
      </trkpt>
      <trkpt lat="45.957594970241189" lon="9.520583795383573">
        <ele>1918.77</ele>
        <time>2021-08-29T09:20:06Z</time>
      </trkpt>
      <trkpt lat="45.957637466490269" lon="9.520571222528815">
        <ele>1923.5</ele>
        <time>2021-08-29T09:20:16Z</time>
      </trkpt>
      <trkpt lat="45.957700414583087" lon="9.520554961636663">
        <ele>1923.3699999999999</ele>
        <time>2021-08-29T09:20:25Z</time>
      </trkpt>
      <trkpt lat="45.957768727093935" lon="9.520504167303443">
        <ele>1923.4100000000001</ele>
        <time>2021-08-29T09:20:34Z</time>
      </trkpt>
      <trkpt lat="45.957811223343015" lon="9.520476423203945">
        <ele>1921.6700000000001</ele>
        <time>2021-08-29T09:20:44Z</time>
      </trkpt>
      <trkpt lat="45.957851791754365" lon="9.520437531173229">
        <ele>1921.53</ele>
        <time>2021-08-29T09:20:53Z</time>
      </trkpt>
      <trkpt lat="45.957907279953361" lon="9.520433004945517">
        <ele>1922.6700000000001</ele>
        <time>2021-08-29T09:21:03Z</time>
      </trkpt>
      <trkpt lat="45.957918092608452" lon="9.520415486767888">
        <ele>1924.3499999999999</ele>
        <time>2021-08-29T09:21:13Z</time>
      </trkpt>
      <trkpt lat="45.957974921911955" lon="9.520388664677739">
        <ele>1926.01</ele>
        <time>2021-08-29T09:21:22Z</time>
      </trkpt>
      <trkpt lat="45.958028398454189" lon="9.520339714363217">
        <ele>1924.25</ele>
        <time>2021-08-29T09:21:31Z</time>
      </trkpt>
      <trkpt lat="45.958072487264872" lon="9.520237203687429">
        <ele>1923.3199999999999</ele>
        <time>2021-08-29T09:21:41Z</time>
      </trkpt>
      <trkpt lat="45.958171980455518" lon="9.520270898938179">
        <ele>1926.6099999999999</ele>
        <time>2021-08-29T09:21:50Z</time>
      </trkpt>
      <trkpt lat="45.958262337371707" lon="9.520377432927489">
        <ele>1928</ele>
        <time>2021-08-29T09:22:00Z</time>
      </trkpt>
      <trkpt lat="45.95835386775434" lon="9.520359328016639">
        <ele>1928.0699999999999</ele>
        <time>2021-08-29T09:22:10Z</time>
      </trkpt>
      <trkpt lat="45.958393765613437" lon="9.520363518968225">
        <ele>1928.9400000000001</ele>
        <time>2021-08-29T09:22:19Z</time>
      </trkpt>
      <trkpt lat="45.958430059254169" lon="9.520419677719474">
        <ele>1929.4300000000001</ele>
        <time>2021-08-29T09:22:28Z</time>
      </trkpt>
      <trkpt lat="45.95846576616168" lon="9.520404590293765">
        <ele>1926.75</ele>
        <time>2021-08-29T09:22:38Z</time>
      </trkpt>
      <trkpt lat="45.958486218005419" lon="9.520398890599608">
        <ele>1930</ele>
        <time>2021-08-29T09:22:48Z</time>
      </trkpt>
      <trkpt lat="45.958519158884883" lon="9.520406266674399">
        <ele>1928.74</ele>
        <time>2021-08-29T09:22:58Z</time>
      </trkpt>
      <trkpt lat="45.958545897156" lon="9.520482206717134">
        <ele>1931.95</ele>
        <time>2021-08-29T09:23:07Z</time>
      </trkpt>
      <trkpt lat="45.958589818328619" lon="9.520594105124474">
        <ele>1930.9300000000001</ele>
        <time>2021-08-29T09:23:17Z</time>
      </trkpt>
      <trkpt lat="45.958626614883542" lon="9.52065696939826">
        <ele>1932.0899999999999</ele>
        <time>2021-08-29T09:23:26Z</time>
      </trkpt>
      <trkpt lat="45.958646731451154" lon="9.520736513659358">
        <ele>1935.5899999999999</ele>
        <time>2021-08-29T09:23:36Z</time>
      </trkpt>
      <trkpt lat="45.958670368418097" lon="9.520800383761525">
        <ele>1934.04</ele>
        <time>2021-08-29T09:23:45Z</time>
      </trkpt>
      <trkpt lat="45.958712194114923" lon="9.52078496105969">
        <ele>1934.8599999999999</ele>
        <time>2021-08-29T09:23:55Z</time>
      </trkpt>
      <trkpt lat="45.958725269883871" lon="9.520796025171876">
        <ele>1936.3699999999999</ele>
        <time>2021-08-29T09:24:08Z</time>
      </trkpt>
      <trkpt lat="45.958769358694553" lon="9.520812705159187">
        <ele>1936.26</ele>
        <time>2021-08-29T09:24:17Z</time>
      </trkpt>
      <trkpt lat="45.95879852771759" lon="9.520799461752176">
        <ele>1935.6800000000001</ele>
        <time>2021-08-29T09:24:26Z</time>
      </trkpt>
      <trkpt lat="45.958864241838455" lon="9.520754283294082">
        <ele>1935.54</ele>
        <time>2021-08-29T09:24:36Z</time>
      </trkpt>
      <trkpt lat="45.958883939310908" lon="9.520710110664368">
        <ele>1934.02</ele>
        <time>2021-08-29T09:24:46Z</time>
      </trkpt>
      <trkpt lat="45.958922663703561" lon="9.520681696012616">
        <ele>1937.0699999999999</ele>
        <time>2021-08-29T09:24:56Z</time>
      </trkpt>
      <trkpt lat="45.958955688402057" lon="9.520647414028645">
        <ele>1936.3</ele>
        <time>2021-08-29T09:25:05Z</time>
      </trkpt>
      <trkpt lat="45.958977062255144" lon="9.520609108731151">
        <ele>1938.6800000000001</ele>
        <time>2021-08-29T09:25:15Z</time>
      </trkpt>
      <trkpt lat="45.959010506048799" lon="9.520502323284745">
        <ele>1939.5899999999999</ele>
        <time>2021-08-29T09:25:25Z</time>
      </trkpt>
      <trkpt lat="45.95905258320272" lon="9.520443566143513">
        <ele>1937.3599999999999</ele>
        <time>2021-08-29T09:25:34Z</time>
      </trkpt>
      <trkpt lat="45.959108239039779" lon="9.520331416279078">
        <ele>1935.6400000000001</ele>
        <time>2021-08-29T09:25:44Z</time>
      </trkpt>
      <trkpt lat="45.959082338958979" lon="9.520235527306795">
        <ele>1928.49</ele>
        <time>2021-08-29T09:25:54Z</time>
      </trkpt>
      <trkpt lat="45.959127014502883" lon="9.520189091563225">
        <ele>1927.3900000000001</ele>
        <time>2021-08-29T09:26:03Z</time>
      </trkpt>
      <trkpt lat="45.959091894328594" lon="9.520086077973247">
        <ele>1927.99</ele>
        <time>2021-08-29T09:26:13Z</time>
      </trkpt>
      <trkpt lat="45.959075298160315" lon="9.519964205101132">
        <ele>1926.03</ele>
        <time>2021-08-29T09:26:22Z</time>
      </trkpt>
      <trkpt lat="45.959120392799377" lon="9.519882397726178">
        <ele>1924.4100000000001</ele>
        <time>2021-08-29T09:26:32Z</time>
      </trkpt>
      <trkpt lat="45.959137994796038" lon="9.519741917029023">
        <ele>1924.3099999999999</ele>
        <time>2021-08-29T09:26:41Z</time>
      </trkpt>
      <trkpt lat="45.959155093878508" lon="9.519664468243718">
        <ele>1919.1700000000001</ele>
        <time>2021-08-29T09:26:52Z</time>
      </trkpt>
      <trkpt lat="45.959178479388356" lon="9.519535722211003">
        <ele>1916.5999999999999</ele>
        <time>2021-08-29T09:27:01Z</time>
      </trkpt>
      <trkpt lat="45.959212258458138" lon="9.519419381394982">
        <ele>1914.29</ele>
        <time>2021-08-29T09:27:10Z</time>
      </trkpt>
      <trkpt lat="45.959258275106549" lon="9.519342435523868">
        <ele>1915.78</ele>
        <time>2021-08-29T09:27:20Z</time>
      </trkpt>
      <trkpt lat="45.959275122731924" lon="9.519320726394653">
        <ele>1914.9200000000001</ele>
        <time>2021-08-29T09:27:30Z</time>
      </trkpt>
      <trkpt lat="45.959352739155293" lon="9.519260376691818">
        <ele>1918.03</ele>
        <time>2021-08-29T09:27:40Z</time>
      </trkpt>
      <trkpt lat="45.959407640621066" lon="9.5192198920995">
        <ele>1917.23</ele>
        <time>2021-08-29T09:27:49Z</time>
      </trkpt>
      <trkpt lat="45.959438821300864" lon="9.519204720854759">
        <ele>1916.74</ele>
        <time>2021-08-29T09:27:59Z</time>
      </trkpt>
      <trkpt lat="45.959450220689178" lon="9.51921159401536">
        <ele>1914.5899999999999</ele>
        <time>2021-08-29T09:28:10Z</time>
      </trkpt>
      <trkpt lat="45.959512498229742" lon="9.51919499784708">
        <ele>1915.2</ele>
        <time>2021-08-29T09:28:20Z</time>
      </trkpt>
      <trkpt lat="45.959588102996349" lon="9.519152836874127">
        <ele>1917.8299999999999</ele>
        <time>2021-08-29T09:28:29Z</time>
      </trkpt>
      <trkpt lat="45.959662618115544" lon="9.519119979813695">
        <ele>1920.3599999999999</ele>
        <time>2021-08-29T09:28:38Z</time>
      </trkpt>
      <trkpt lat="45.959704024717212" lon="9.519081925973296">
        <ele>1919.49</ele>
        <time>2021-08-29T09:28:48Z</time>
      </trkpt>
      <trkpt lat="45.959745598956943" lon="9.519009673967958">
        <ele>1923.6099999999999</ele>
        <time>2021-08-29T09:28:58Z</time>
      </trkpt>
      <trkpt lat="45.959759093821049" lon="9.519001124426723">
        <ele>1921.6700000000001</ele>
        <time>2021-08-29T09:29:08Z</time>
      </trkpt>
      <trkpt lat="45.959809133782983" lon="9.518974218517542">
        <ele>1921.0599999999999</ele>
        <time>2021-08-29T09:29:17Z</time>
      </trkpt>
      <trkpt lat="45.959802428260446" lon="9.51893012970686">
        <ele>1922.3599999999999</ele>
        <time>2021-08-29T09:29:27Z</time>
      </trkpt>
      <trkpt lat="45.959785161539912" lon="9.518886795267463">
        <ele>1922</ele>
        <time>2021-08-29T09:29:36Z</time>
      </trkpt>
      <trkpt lat="45.959815923124552" lon="9.518846478313208">
        <ele>1919.3199999999999</ele>
        <time>2021-08-29T09:29:46Z</time>
      </trkpt>
      <trkpt lat="45.95985347405076" lon="9.518820913508534">
        <ele>1919.5799999999999</ele>
        <time>2021-08-29T09:29:55Z</time>
      </trkpt>
      <trkpt lat="45.959904016926885" lon="9.518771879374981">
        <ele>1917.6400000000001</ele>
        <time>2021-08-29T09:30:05Z</time>
      </trkpt>
      <trkpt lat="45.959957577288151" lon="9.51873566955328">
        <ele>1921.3699999999999</ele>
        <time>2021-08-29T09:30:15Z</time>
      </trkpt>
      <trkpt lat="45.959953218698502" lon="9.518721839413047">
        <ele>1917.4300000000001</ele>
        <time>2021-08-29T09:30:24Z</time>
      </trkpt>
      <trkpt lat="45.959991104900837" lon="9.51868437230587">
        <ele>1918.8</ele>
        <time>2021-08-29T09:30:34Z</time>
      </trkpt>
      <trkpt lat="45.960042905062437" lon="9.518682360649109">
        <ele>1913.74</ele>
        <time>2021-08-29T09:30:44Z</time>
      </trkpt>
      <trkpt lat="45.960052628070116" lon="9.518657382577658">
        <ele>1913.01</ele>
        <time>2021-08-29T09:30:54Z</time>
      </trkpt>
      <trkpt lat="45.960073499009013" lon="9.518655622377992">
        <ele>1914.76</ele>
        <time>2021-08-29T09:31:03Z</time>
      </trkpt>
      <trkpt lat="45.960119515657425" lon="9.518643720075488">
        <ele>1912.77</ele>
        <time>2021-08-29T09:31:13Z</time>
      </trkpt>
      <trkpt lat="45.960137704387307" lon="9.518664171919227">
        <ele>1913.1800000000001</ele>
        <time>2021-08-29T09:31:23Z</time>
      </trkpt>
      <trkpt lat="45.960206519812346" lon="9.518645564094186">
        <ele>1915.9400000000001</ele>
        <time>2021-08-29T09:31:32Z</time>
      </trkpt>
      <trkpt lat="45.960274077951908" lon="9.518647994846106">
        <ele>1914.26</ele>
        <time>2021-08-29T09:31:43Z</time>
      </trkpt>
      <trkpt lat="45.960303163155913" lon="9.518650341778994">
        <ele>1913.3299999999999</ele>
        <time>2021-08-29T09:31:53Z</time>
      </trkpt>
      <trkpt lat="45.960347168147564" lon="9.51867314055562">
        <ele>1913.0999999999999</ele>
        <time>2021-08-29T09:32:02Z</time>
      </trkpt>
      <trkpt lat="45.960380611941218" lon="9.518650593236089">
        <ele>1909.72</ele>
        <time>2021-08-29T09:32:12Z</time>
      </trkpt>
      <trkpt lat="45.960394525900483" lon="9.518651682883501">
        <ele>1908.71</ele>
        <time>2021-08-29T09:32:21Z</time>
      </trkpt>
      <trkpt lat="45.960416570305824" lon="9.518651012331247">
        <ele>1908.3900000000001</ele>
        <time>2021-08-29T09:32:31Z</time>
      </trkpt>
      <trkpt lat="45.960438530892134" lon="9.518682025372982">
        <ele>1906.3499999999999</ele>
        <time>2021-08-29T09:32:40Z</time>
      </trkpt>
      <trkpt lat="45.960497120395303" lon="9.518688311800361">
        <ele>1903.49</ele>
        <time>2021-08-29T09:32:49Z</time>
      </trkpt>
      <trkpt lat="45.960531402379274" lon="9.518745392560959">
        <ele>1901.8399999999999</ele>
        <time>2021-08-29T09:32:58Z</time>
      </trkpt>
      <trkpt lat="45.960540622472763" lon="9.518825439736247">
        <ele>1905.6900000000001</ele>
        <time>2021-08-29T09:33:07Z</time>
      </trkpt>
      <trkpt lat="45.960572473704815" lon="9.518863158300519">
        <ele>1906.48</ele>
        <time>2021-08-29T09:33:17Z</time>
      </trkpt>
      <trkpt lat="45.960596110671759" lon="9.518886124715209">
        <ele>1908.3</ele>
        <time>2021-08-29T09:33:26Z</time>
      </trkpt>
      <trkpt lat="45.960619496181607" lon="9.518912695348263">
        <ele>1908.4400000000001</ele>
        <time>2021-08-29T09:33:36Z</time>
      </trkpt>
      <trkpt lat="45.960666015744209" lon="9.519005818292499">
        <ele>1911.3</ele>
        <time>2021-08-29T09:33:45Z</time>
      </trkpt>
      <trkpt lat="45.960696861147881" lon="9.519107406958938">
        <ele>1912.5699999999999</ele>
        <time>2021-08-29T09:33:55Z</time>
      </trkpt>
      <trkpt lat="45.960739273577929" lon="9.519186280667782">
        <ele>1912.73</ele>
        <time>2021-08-29T09:34:04Z</time>
      </trkpt>
      <trkpt lat="45.960777327418327" lon="9.519223077222705">
        <ele>1915.53</ele>
        <time>2021-08-29T09:34:14Z</time>
      </trkpt>
      <trkpt lat="45.960808005183935" lon="9.519236907362938">
        <ele>1916.99</ele>
        <time>2021-08-29T09:34:24Z</time>
      </trkpt>
      <trkpt lat="45.960824266076088" lon="9.519213438034058">
        <ele>1917.4400000000001</ele>
        <time>2021-08-29T09:34:33Z</time>
      </trkpt>
      <trkpt lat="45.960829798132181" lon="9.51920279301703">
        <ele>1917.51</ele>
        <time>2021-08-29T09:34:44Z</time>
      </trkpt>
      <trkpt lat="45.960884364321828" lon="9.519235733896494">
        <ele>1916.6700000000001</ele>
        <time>2021-08-29T09:34:54Z</time>
      </trkpt>
      <trkpt lat="45.960896769538522" lon="9.519269932061434">
        <ele>1921.3</ele>
        <time>2021-08-29T09:35:03Z</time>
      </trkpt>
      <trkpt lat="45.960904899984598" lon="9.519295077770948">
        <ele>1921.9000000000001</ele>
        <time>2021-08-29T09:35:14Z</time>
      </trkpt>
      <trkpt lat="45.960941025987267" lon="9.519406724721193">
        <ele>1925.6500000000001</ele>
        <time>2021-08-29T09:35:24Z</time>
      </trkpt>
      <trkpt lat="45.960944881662726" lon="9.519419716671109">
        <ele>1925.3900000000001</ele>
        <time>2021-08-29T09:35:33Z</time>
      </trkpt>
      <trkpt lat="45.960946306586266" lon="9.519432792440057">
        <ele>1926.6900000000001</ele>
        <time>2021-08-29T09:35:45Z</time>
      </trkpt>
      <trkpt lat="45.960970530286431" lon="9.519529268145561">
        <ele>1925.48</ele>
        <time>2021-08-29T09:35:54Z</time>
      </trkpt>
      <trkpt lat="45.961006991565228" lon="9.519589366391301">
        <ele>1927.8</ele>
        <time>2021-08-29T09:36:05Z</time>
      </trkpt>
      <trkpt lat="45.961013110354543" lon="9.519614009186626">
        <ele>1928.8199999999999</ele>
        <time>2021-08-29T09:36:15Z</time>
      </trkpt>
      <trkpt lat="45.961026102304459" lon="9.51964158564806">
        <ele>1926.4100000000001</ele>
        <time>2021-08-29T09:36:25Z</time>
      </trkpt>
      <trkpt lat="45.961041441187263" lon="9.519628509879112">
        <ele>1927.71</ele>
        <time>2021-08-29T09:36:35Z</time>
      </trkpt>
      <trkpt lat="45.96103691495955" lon="9.519640579819679">
        <ele>1927.52</ele>
        <time>2021-08-29T09:36:49Z</time>
      </trkpt>
      <trkpt lat="45.96104278229177" lon="9.519674526527524">
        <ele>1930.6500000000001</ele>
        <time>2021-08-29T09:36:59Z</time>
      </trkpt>
      <trkpt lat="45.961050409823656" lon="9.519682824611664">
        <ele>1927.3199999999999</ele>
        <time>2021-08-29T09:37:10Z</time>
      </trkpt>
      <trkpt lat="45.961060300469398" lon="9.519660277292132">
        <ele>1927.6199999999999</ele>
        <time>2021-08-29T09:37:20Z</time>
      </trkpt>
      <trkpt lat="45.961028784513474" lon="9.519651392474771">
        <ele>1930.3900000000001</ele>
        <time>2021-08-29T09:37:30Z</time>
      </trkpt>
      <trkpt lat="45.961040267720819" lon="9.51965088956058">
        <ele>1933.0899999999999</ele>
        <time>2021-08-29T09:37:40Z</time>
      </trkpt>
      <trkpt lat="45.961051667109132" lon="9.519671676680446">
        <ele>1930.6400000000001</ele>
        <time>2021-08-29T09:37:50Z</time>
      </trkpt>
      <trkpt lat="45.961039680987597" lon="9.519661031663418">
        <ele>1933</ele>
        <time>2021-08-29T09:38:02Z</time>
      </trkpt>
      <trkpt lat="45.961037082597613" lon="9.519715094938874">
        <ele>1933.3</ele>
        <time>2021-08-29T09:38:12Z</time>
      </trkpt>
      <trkpt lat="45.961047811433673" lon="9.519665725529194">
        <ele>1934.47</ele>
        <time>2021-08-29T09:38:22Z</time>
      </trkpt>
      <trkpt lat="45.961041441187263" lon="9.519649213179946">
        <ele>1921.54</ele>
        <time>2021-08-29T09:38:47Z</time>
      </trkpt>
      <trkpt lat="45.961057282984257" lon="9.519628928974271">
        <ele>1923.54</ele>
        <time>2021-08-29T09:38:56Z</time>
      </trkpt>
      <trkpt lat="45.96104227937758" lon="9.519639322534204">
        <ele>1928.6199999999999</ele>
        <time>2021-08-29T09:39:06Z</time>
      </trkpt>
      <trkpt lat="45.961055438965559" lon="9.519652230665088">
        <ele>1932.1300000000001</ele>
        <time>2021-08-29T09:39:43Z</time>
      </trkpt>
      <trkpt lat="45.961053427308798" lon="9.519665474072099">
        <ele>1934.6700000000001</ele>
        <time>2021-08-29T09:40:01Z</time>
      </trkpt>
      <trkpt lat="45.961070694029331" lon="9.519736804068089">
        <ele>1935.4200000000001</ele>
        <time>2021-08-29T09:40:11Z</time>
      </trkpt>
      <trkpt lat="45.96108527854085" lon="9.519737809896469">
        <ele>1934.95</ele>
        <time>2021-08-29T09:40:21Z</time>
      </trkpt>
      <trkpt lat="45.961095420643687" lon="9.51973638497293">
        <ele>1935.76</ele>
        <time>2021-08-29T09:40:39Z</time>
      </trkpt>
      <trkpt lat="45.961104808375239" lon="9.519733870401979">
        <ele>1933.77</ele>
        <time>2021-08-29T09:40:51Z</time>
      </trkpt>
      <trkpt lat="45.961147639900446" lon="9.519743425771594">
        <ele>1937.3499999999999</ele>
        <time>2021-08-29T09:41:01Z</time>
      </trkpt>
      <trkpt lat="45.961157530546188" lon="9.519747868180275">
        <ele>1938.78</ele>
        <time>2021-08-29T09:41:18Z</time>
      </trkpt>
      <trkpt lat="45.961180999875069" lon="9.519721129909158">
        <ele>1937.78</ele>
        <time>2021-08-29T09:41:27Z</time>
      </trkpt>
      <trkpt lat="45.961190722882748" lon="9.519725991412997">
        <ele>1937.0599999999999</ele>
        <time>2021-08-29T09:41:37Z</time>
      </trkpt>
      <trkpt lat="45.961260292679071" lon="9.519715178757906">
        <ele>1935.8299999999999</ele>
        <time>2021-08-29T09:41:47Z</time>
      </trkpt>
      <trkpt lat="45.961262807250023" lon="9.519731439650059">
        <ele>1936.54</ele>
        <time>2021-08-29T09:41:57Z</time>
      </trkpt>
      <trkpt lat="45.961255598813295" lon="9.519741414114833">
        <ele>1937.6600000000001</ele>
        <time>2021-08-29T09:42:07Z</time>
      </trkpt>
      <trkpt lat="45.961284013465047" lon="9.519743006676436">
        <ele>1937.03</ele>
        <time>2021-08-29T09:42:17Z</time>
      </trkpt>
      <trkpt lat="45.961351403966546" lon="9.519745437428355">
        <ele>1935.8699999999999</ele>
        <time>2021-08-29T09:42:26Z</time>
      </trkpt>
      <trkpt lat="45.961360288783908" lon="9.519751891493797">
        <ele>1936.3099999999999</ele>
        <time>2021-08-29T09:42:41Z</time>
      </trkpt>
      <trkpt lat="45.961441174149513" lon="9.519729427993298">
        <ele>1936.8399999999999</ele>
        <time>2021-08-29T09:42:51Z</time>
      </trkpt>
      <trkpt lat="45.9614781383425" lon="9.51972272247076">
        <ele>1936.1400000000001</ele>
        <time>2021-08-29T09:43:00Z</time>
      </trkpt>
      <trkpt lat="45.961486687883735" lon="9.519718028604984">
        <ele>1936.6500000000001</ele>
        <time>2021-08-29T09:43:11Z</time>
      </trkpt>
      <trkpt lat="45.961501523852348" lon="9.519715262576938">
        <ele>1936.46</ele>
        <time>2021-08-29T09:43:26Z</time>
      </trkpt>
      <trkpt lat="45.961569081991911" lon="9.519744515419006">
        <ele>1936.0899999999999</ele>
        <time>2021-08-29T09:43:36Z</time>
      </trkpt>
      <trkpt lat="45.961595987901092" lon="9.519766140729189">
        <ele>1936.54</ele>
        <time>2021-08-29T09:43:46Z</time>
      </trkpt>
      <trkpt lat="45.961616272106767" lon="9.519766559824348">
        <ele>1939.0699999999999</ele>
        <time>2021-08-29T09:43:56Z</time>
      </trkpt>
      <trkpt lat="45.961668659001589" lon="9.519789023324847">
        <ele>1939.6199999999999</ele>
        <time>2021-08-29T09:44:05Z</time>
      </trkpt>
      <trkpt lat="45.961705036461353" lon="9.519800171256065">
        <ele>1940.8699999999999</ele>
        <time>2021-08-29T09:44:15Z</time>
      </trkpt>
      <trkpt lat="45.961742587387562" lon="9.519838392734528">
        <ele>1941.5799999999999</ele>
        <time>2021-08-29T09:44:25Z</time>
      </trkpt>
      <trkpt lat="45.961759602651" lon="9.519838811829686">
        <ele>1941.8699999999999</ele>
        <time>2021-08-29T09:44:34Z</time>
      </trkpt>
      <trkpt lat="45.961768319830298" lon="9.519844679161906">
        <ele>1942.28</ele>
        <time>2021-08-29T09:44:46Z</time>
      </trkpt>
      <trkpt lat="45.961779216304421" lon="9.519840907305479">
        <ele>1942.96</ele>
        <time>2021-08-29T09:45:00Z</time>
      </trkpt>
      <trkpt lat="45.96187443472445" lon="9.519901340827346">
        <ele>1945.9000000000001</ele>
        <time>2021-08-29T09:45:10Z</time>
      </trkpt>
      <trkpt lat="45.961911482736468" lon="9.519948530942202">
        <ele>1944.6099999999999</ele>
        <time>2021-08-29T09:45:20Z</time>
      </trkpt>
      <trkpt lat="45.961948363110423" lon="9.519897988066077">
        <ele>1947.2</ele>
        <time>2021-08-29T09:45:30Z</time>
      </trkpt>
      <trkpt lat="45.961993625387549" lon="9.519969485700131">
        <ele>1947.26</ele>
        <time>2021-08-29T09:45:39Z</time>
      </trkpt>
      <trkpt lat="45.962032936513424" lon="9.520028494298458">
        <ele>1947.1500000000001</ele>
        <time>2021-08-29T09:45:48Z</time>
      </trkpt>
      <trkpt lat="45.962096471339464" lon="9.520021621137857">
        <ele>1945.98</ele>
        <time>2021-08-29T09:45:58Z</time>
      </trkpt>
      <trkpt lat="45.962140308693051" lon="9.519988093525171">
        <ele>1949.23</ele>
        <time>2021-08-29T09:46:08Z</time>
      </trkpt>
      <trkpt lat="45.962165873497725" lon="9.520003767684102">
        <ele>1947.28</ele>
        <time>2021-08-29T09:46:17Z</time>
      </trkpt>
      <trkpt lat="45.962193701416254" lon="9.519965127110481">
        <ele>1944.8099999999999</ele>
        <time>2021-08-29T09:46:27Z</time>
      </trkpt>
      <trkpt lat="45.962246926501393" lon="9.520001672208309">
        <ele>1948.6900000000001</ele>
        <time>2021-08-29T09:46:36Z</time>
      </trkpt>
      <trkpt lat="45.962311299517751" lon="9.519987422972918">
        <ele>1950.22</ele>
        <time>2021-08-29T09:46:46Z</time>
      </trkpt>
      <trkpt lat="45.962340300902724" lon="9.519944926723838">
        <ele>1949.26</ele>
        <time>2021-08-29T09:46:55Z</time>
      </trkpt>
      <trkpt lat="45.962383635342121" lon="9.519926318898797">
        <ele>1951.95</ele>
        <time>2021-08-29T09:47:05Z</time>
      </trkpt>
      <trkpt lat="45.96240459010005" lon="9.519910141825676">
        <ele>1951.51</ele>
        <time>2021-08-29T09:47:15Z</time>
      </trkpt>
      <trkpt lat="45.962448259815574" lon="9.519887091591954">
        <ele>1950.8</ele>
        <time>2021-08-29T09:47:24Z</time>
      </trkpt>
      <trkpt lat="45.962481619790196" lon="9.519849037751555">
        <ele>1949.53</ele>
        <time>2021-08-29T09:47:34Z</time>
      </trkpt>
      <trkpt lat="45.962516572326422" lon="9.519739402458072">
        <ele>1950.6900000000001</ele>
        <time>2021-08-29T09:47:43Z</time>
      </trkpt>
      <trkpt lat="45.962539790198207" lon="9.519659774377942">
        <ele>1949.2</ele>
        <time>2021-08-29T09:47:53Z</time>
      </trkpt>
      <trkpt lat="45.962529815733433" lon="9.519613087177277">
        <ele>1951.75</ele>
        <time>2021-08-29T09:48:03Z</time>
      </trkpt>
      <trkpt lat="45.96255018375814" lon="9.519597832113504">
        <ele>1952.8699999999999</ele>
        <time>2021-08-29T09:48:12Z</time>
      </trkpt>
      <trkpt lat="45.962573485448956" lon="9.519530525431037">
        <ele>1953.1700000000001</ele>
        <time>2021-08-29T09:48:21Z</time>
      </trkpt>
      <trkpt lat="45.962596284225583" lon="9.519406808540225">
        <ele>1955.71</ele>
        <time>2021-08-29T09:48:30Z</time>
      </trkpt>
      <trkpt lat="45.962617322802544" lon="9.519311338663101">
        <ele>1954.05</ele>
        <time>2021-08-29T09:48:41Z</time>
      </trkpt>
      <trkpt lat="45.962599720805883" lon="9.519254760816693">
        <ele>1953.6600000000001</ele>
        <time>2021-08-29T09:48:51Z</time>
      </trkpt>
      <trkpt lat="45.962589662522078" lon="9.519230285659432">
        <ele>1953.74</ele>
        <time>2021-08-29T09:49:00Z</time>
      </trkpt>
      <trkpt lat="45.962596787139773" lon="9.519177563488483">
        <ele>1954.27</ele>
        <time>2021-08-29T09:49:09Z</time>
      </trkpt>
      <trkpt lat="45.962616233155131" lon="9.519140431657434">
        <ele>1954.0899999999999</ele>
        <time>2021-08-29T09:49:18Z</time>
      </trkpt>
      <trkpt lat="45.962614640593529" lon="9.519121320918202">
        <ele>1955.78</ele>
        <time>2021-08-29T09:49:41Z</time>
      </trkpt>
      <trkpt lat="45.962624363601208" lon="9.519069939851761">
        <ele>1955.8</ele>
        <time>2021-08-29T09:49:50Z</time>
      </trkpt>
      <trkpt lat="45.962642971426249" lon="9.519021492451429">
        <ele>1958.3299999999999</ele>
        <time>2021-08-29T09:49:59Z</time>
      </trkpt>
      <trkpt lat="45.962690412998199" lon="9.518965920433402">
        <ele>1956.8</ele>
        <time>2021-08-29T09:50:08Z</time>
      </trkpt>
      <trkpt lat="45.962784877046943" lon="9.518943289294839">
        <ele>1961.49</ele>
        <time>2021-08-29T09:50:17Z</time>
      </trkpt>
      <trkpt lat="45.962849836796522" lon="9.518897272646427">
        <ele>1957.6700000000001</ele>
        <time>2021-08-29T09:50:28Z</time>
      </trkpt>
      <trkpt lat="45.96282921731472" lon="9.518855111673474">
        <ele>1959.21</ele>
        <time>2021-08-29T09:50:37Z</time>
      </trkpt>
      <trkpt lat="45.962873389944434" lon="9.518785877153277">
        <ele>1958.8199999999999</ele>
        <time>2021-08-29T09:50:47Z</time>
      </trkpt>
      <trkpt lat="45.962920915335417" lon="9.518776992335916">
        <ele>1963.73</ele>
        <time>2021-08-29T09:50:56Z</time>
      </trkpt>
      <trkpt lat="45.962929632514715" lon="9.518772214651108">
        <ele>1966.6900000000001</ele>
        <time>2021-08-29T09:51:11Z</time>
      </trkpt>
      <trkpt lat="45.962939439341426" lon="9.518754696473479">
        <ele>1968.04</ele>
        <time>2021-08-29T09:51:46Z</time>
      </trkpt>
      <trkpt lat="45.962978666648269" lon="9.518630811944604">
        <ele>1967.53</ele>
        <time>2021-08-29T09:51:55Z</time>
      </trkpt>
      <trkpt lat="45.963017977774143" lon="9.518583370372653">
        <ele>1969.3</ele>
        <time>2021-08-29T09:52:04Z</time>
      </trkpt>
      <trkpt lat="45.963011020794511" lon="9.518540622666478">
        <ele>1969.71</ele>
        <time>2021-08-29T09:52:14Z</time>
      </trkpt>
      <trkpt lat="45.963003309443593" lon="9.518533330410719">
        <ele>1968.71</ele>
        <time>2021-08-29T09:52:23Z</time>
      </trkpt>
      <trkpt lat="45.962988724932075" lon="9.518477506935597">
        <ele>1968.3299999999999</ele>
        <time>2021-08-29T09:52:32Z</time>
      </trkpt>
      <trkpt lat="45.96299191005528" lon="9.518464431166649">
        <ele>1968.1500000000001</ele>
        <time>2021-08-29T09:52:44Z</time>
      </trkpt>
      <trkpt lat="45.962990317493677" lon="9.518428221344948">
        <ele>1967.45</ele>
        <time>2021-08-29T09:52:53Z</time>
      </trkpt>
      <trkpt lat="45.962990401312709" lon="9.518402991816402">
        <ele>1970.24</ele>
        <time>2021-08-29T09:53:11Z</time>
      </trkpt>
      <trkpt lat="45.96298118121922" lon="9.518301319330931">
        <ele>1973.45</ele>
        <time>2021-08-29T09:53:20Z</time>
      </trkpt>
      <trkpt lat="45.962945306673646" lon="9.518320262432098">
        <ele>1974.52</ele>
        <time>2021-08-29T09:53:30Z</time>
      </trkpt>
      <trkpt lat="45.962887639179826" lon="9.518386228010058">
        <ele>1977.6900000000001</ele>
        <time>2021-08-29T09:53:39Z</time>
      </trkpt>
      <trkpt lat="45.962866768240929" lon="9.518390586599708">
        <ele>1978.04</ele>
        <time>2021-08-29T09:53:58Z</time>
      </trkpt>
      <trkpt lat="45.962817398831248" lon="9.518466861918569">
        <ele>1981.1600000000001</ele>
        <time>2021-08-29T09:54:08Z</time>
      </trkpt>
      <trkpt lat="45.962802730500698" lon="9.51847423799336">
        <ele>1978.45</ele>
        <time>2021-08-29T09:54:18Z</time>
      </trkpt>
      <trkpt lat="45.962779261171818" lon="9.518447164446116">
        <ele>1982.3800000000001</ele>
        <time>2021-08-29T09:54:28Z</time>
      </trkpt>
      <trkpt lat="45.962818237021565" lon="9.518361333757639">
        <ele>1982.95</ele>
        <time>2021-08-29T09:54:37Z</time>
      </trkpt>
      <trkpt lat="45.962827373296022" lon="9.518275167793036">
        <ele>1984.6400000000001</ele>
        <time>2021-08-29T09:54:46Z</time>
      </trkpt>
      <trkpt lat="45.962872384116054" lon="9.518161760643125">
        <ele>1982.8699999999999</ele>
        <time>2021-08-29T09:54:55Z</time>
      </trkpt>
      <trkpt lat="45.962909096851945" lon="9.518034690991044">
        <ele>1984.22</ele>
        <time>2021-08-29T09:55:05Z</time>
      </trkpt>
      <trkpt lat="45.962907671928406" lon="9.517992781475186">
        <ele>1986.1199999999999</ele>
        <time>2021-08-29T09:55:15Z</time>
      </trkpt>
      <trkpt lat="45.962943295016885" lon="9.517900329083204">
        <ele>1989.6199999999999</ele>
        <time>2021-08-29T09:55:24Z</time>
      </trkpt>
      <trkpt lat="45.962973469868302" lon="9.517836207523942">
        <ele>1988.74</ele>
        <time>2021-08-29T09:55:34Z</time>
      </trkpt>
      <trkpt lat="45.962975565344095" lon="9.517801003530622">
        <ele>1990.6500000000001</ele>
        <time>2021-08-29T09:55:43Z</time>
      </trkpt>
      <trkpt lat="45.963015714660287" lon="9.517749538645148">
        <ele>1992.72</ele>
        <time>2021-08-29T09:55:52Z</time>
      </trkpt>
      <trkpt lat="45.963037759065628" lon="9.517688434571028">
        <ele>1993.0799999999999</ele>
        <time>2021-08-29T09:56:02Z</time>
      </trkpt>
      <trkpt lat="45.963054690510035" lon="9.517668904736638">
        <ele>1995.6600000000001</ele>
        <time>2021-08-29T09:56:12Z</time>
      </trkpt>
      <trkpt lat="45.963076734915376" lon="9.517608303576708">
        <ele>1994.72</ele>
        <time>2021-08-29T09:56:22Z</time>
      </trkpt>
      <trkpt lat="45.963088972494006" lon="9.51760109513998">
        <ele>1997.26</ele>
        <time>2021-08-29T09:56:32Z</time>
      </trkpt>
      <trkpt lat="45.96310188062489" lon="9.517584666609764">
        <ele>2002.3699999999999</ele>
        <time>2021-08-29T09:57:06Z</time>
      </trkpt>
      <trkpt lat="45.963112860918045" lon="9.517503613606095">
        <ele>1998.79</ele>
        <time>2021-08-29T09:57:16Z</time>
      </trkpt>
      <trkpt lat="45.963109591975808" lon="9.517491208389401">
        <ele>2001.97</ele>
        <time>2021-08-29T09:57:28Z</time>
      </trkpt>
      <trkpt lat="45.96312677487731" lon="9.517451981082559">
        <ele>2005.01</ele>
        <time>2021-08-29T09:58:25Z</time>
      </trkpt>
      <trkpt lat="45.963128283619881" lon="9.517436726018786">
        <ele>2005.96</ele>
        <time>2021-08-29T09:58:35Z</time>
      </trkpt>
      <trkpt lat="45.963118812069297" lon="9.517450220882893">
        <ele>2007.98</ele>
        <time>2021-08-29T09:59:11Z</time>
      </trkpt>
      <trkpt lat="45.963113280013204" lon="9.517461704090238">
        <ele>2008.4400000000001</ele>
        <time>2021-08-29T09:59:29Z</time>
      </trkpt>
      <trkpt lat="45.96311797387898" lon="9.517448712140322">
        <ele>2010.6500000000001</ele>
        <time>2021-08-29T10:00:09Z</time>
      </trkpt>
      <trkpt lat="45.963117806240916" lon="9.517435804009438">
        <ele>2010.6600000000001</ele>
        <time>2021-08-29T10:00:26Z</time>
      </trkpt>
      <trkpt lat="45.963108837604523" lon="9.517433121800423">
        <ele>2009.27</ele>
        <time>2021-08-29T10:00:41Z</time>
      </trkpt>
      <trkpt lat="45.963105820119381" lon="9.517449969425798">
        <ele>2012.02</ele>
        <time>2021-08-29T10:00:51Z</time>
      </trkpt>
      <trkpt lat="45.963112693279982" lon="9.517441336065531">
        <ele>2012.9100000000001</ele>
        <time>2021-08-29T10:01:09Z</time>
      </trkpt>
      <trkpt lat="45.963120404630899" lon="9.517477378249168">
        <ele>2015.73</ele>
        <time>2021-08-29T10:01:19Z</time>
      </trkpt>
      <trkpt lat="45.963127026334405" lon="9.517431780695915">
        <ele>2016.5599999999999</ele>
        <time>2021-08-29T10:01:29Z</time>
      </trkpt>
      <trkpt lat="45.963111687451601" lon="9.517434127628803">
        <ele>2016.05</ele>
        <time>2021-08-29T10:01:39Z</time>
      </trkpt>
      <trkpt lat="45.963093498721719" lon="9.51748282648623">
        <ele>2014.75</ele>
        <time>2021-08-29T10:01:49Z</time>
      </trkpt>
      <trkpt lat="45.963093498721719" lon="9.517466565594077">
        <ele>2010.8399999999999</ele>
        <time>2021-08-29T10:02:00Z</time>
      </trkpt>
      <trkpt lat="45.963099701330066" lon="9.517481401562691">
        <ele>2008.8199999999999</ele>
        <time>2021-08-29T10:02:12Z</time>
      </trkpt>
      <trkpt lat="45.963116800412536" lon="9.517534961923957">
        <ele>2007.49</ele>
        <time>2021-08-29T10:02:22Z</time>
      </trkpt>
      <trkpt lat="45.963133061304688" lon="9.517515264451504">
        <ele>2008.02</ele>
        <time>2021-08-29T10:02:31Z</time>
      </trkpt>
      <trkpt lat="45.963098108768463" lon="9.517454830929637">
        <ele>2009.27</ele>
        <time>2021-08-29T10:02:40Z</time>
      </trkpt>
      <trkpt lat="45.963088301941752" lon="9.517414178699255">
        <ele>2009.6800000000001</ele>
        <time>2021-08-29T10:02:50Z</time>
      </trkpt>
      <trkpt lat="45.963077740743756" lon="9.517370760440826">
        <ele>2008.24</ele>
        <time>2021-08-29T10:02:59Z</time>
      </trkpt>
      <trkpt lat="45.963080674409866" lon="9.51729859225452">
        <ele>2011.3800000000001</ele>
        <time>2021-08-29T10:03:09Z</time>
      </trkpt>
      <trkpt lat="45.963086625561118" lon="9.517284259200096">
        <ele>2007.7</ele>
        <time>2021-08-29T10:03:19Z</time>
      </trkpt>
      <trkpt lat="45.963082602247596" lon="9.517310494557023">
        <ele>1997.53</ele>
        <time>2021-08-29T10:03:28Z</time>
      </trkpt>
      <trkpt lat="45.963078998029232" lon="9.517295993864536">
        <ele>1996.52</ele>
        <time>2021-08-29T10:03:45Z</time>
      </trkpt>
      <trkpt lat="45.963063491508365" lon="9.517272105440497">
        <ele>1996.23</ele>
        <time>2021-08-29T10:03:55Z</time>
      </trkpt>
      <trkpt lat="45.963082769885659" lon="9.517273362725973">
        <ele>1996.1800000000001</ele>
        <time>2021-08-29T10:04:05Z</time>
      </trkpt>
      <trkpt lat="45.963068939745426" lon="9.517303621396422">
        <ele>1996.48</ele>
        <time>2021-08-29T10:04:15Z</time>
      </trkpt>
      <trkpt lat="45.963081931695342" lon="9.517295490950346">
        <ele>1997.3099999999999</ele>
        <time>2021-08-29T10:04:25Z</time>
      </trkpt>
      <trkpt lat="45.963047733530402" lon="9.517239583656192">
        <ele>1996.74</ele>
        <time>2021-08-29T10:04:34Z</time>
      </trkpt>
      <trkpt lat="45.963000962510705" lon="9.51718719676137">
        <ele>1997.8</ele>
        <time>2021-08-29T10:04:44Z</time>
      </trkpt>
      <trkpt lat="45.962986294180155" lon="9.517185101285577">
        <ele>1998.3399999999999</ele>
        <time>2021-08-29T10:04:53Z</time>
      </trkpt>
      <trkpt lat="45.962961819022894" lon="9.517149729654193">
        <ele>1993.7</ele>
        <time>2021-08-29T10:05:04Z</time>
      </trkpt>
      <trkpt lat="45.962926363572478" lon="9.517150819301605">
        <ele>1996.3</ele>
        <time>2021-08-29T10:05:13Z</time>
      </trkpt>
      <trkpt lat="45.962884621694684" lon="9.517111089080572">
        <ele>1985.9000000000001</ele>
        <time>2021-08-29T10:05:22Z</time>
      </trkpt>
      <trkpt lat="45.962836593389511" lon="9.517106981948018">
        <ele>1983.49</ele>
        <time>2021-08-29T10:05:32Z</time>
      </trkpt>
      <trkpt lat="45.962809519842267" lon="9.517068928107619">
        <ele>1980.52</ele>
        <time>2021-08-29T10:05:41Z</time>
      </trkpt>
      <trkpt lat="45.962798874825239" lon="9.517060462385416">
        <ele>1980.8599999999999</ele>
        <time>2021-08-29T10:05:51Z</time>
      </trkpt>
      <trkpt lat="45.962815973907709" lon="9.517105305567384">
        <ele>1976.9000000000001</ele>
        <time>2021-08-29T10:06:00Z</time>
      </trkpt>
      <trkpt lat="45.962803568691015" lon="9.517165822908282">
        <ele>1981.3800000000001</ele>
        <time>2021-08-29T10:06:09Z</time>
      </trkpt>
      <trkpt lat="45.962731065228581" lon="9.517003130167723">
        <ele>1982.52</ele>
        <time>2021-08-29T10:06:18Z</time>
      </trkpt>
      <trkpt lat="45.962730310857296" lon="9.51688963919878">
        <ele>1987.4300000000001</ele>
        <time>2021-08-29T10:06:28Z</time>
      </trkpt>
      <trkpt lat="45.962721509858966" lon="9.516883604228497">
        <ele>1984.3699999999999</ele>
        <time>2021-08-29T10:06:41Z</time>
      </trkpt>
      <trkpt lat="45.962681863456964" lon="9.516830630600452">
        <ele>1987.26</ele>
        <time>2021-08-29T10:06:51Z</time>
      </trkpt>
      <trkpt lat="45.962732825428247" lon="9.51680070720613">
        <ele>1991.27</ele>
        <time>2021-08-29T10:07:01Z</time>
      </trkpt>
      <trkpt lat="45.962701560929418" lon="9.516773466020823">
        <ele>1989.5999999999999</ele>
        <time>2021-08-29T10:07:10Z</time>
      </trkpt>
      <trkpt lat="45.962646072730422" lon="9.516747482120991">
        <ele>1987.6199999999999</ele>
        <time>2021-08-29T10:07:20Z</time>
      </trkpt>
      <trkpt lat="45.962667027488351" lon="9.516773298382759">
        <ele>1984.98</ele>
        <time>2021-08-29T10:07:30Z</time>
      </trkpt>
      <trkpt lat="45.962657136842608" lon="9.51672837138176">
        <ele>1982.26</ele>
        <time>2021-08-29T10:07:40Z</time>
      </trkpt>
      <trkpt lat="45.962620675563812" lon="9.516699705272913">
        <ele>1976.55</ele>
        <time>2021-08-29T10:07:50Z</time>
      </trkpt>
      <trkpt lat="45.962610868737102" lon="9.516697358340025">
        <ele>1975.5</ele>
        <time>2021-08-29T10:07:59Z</time>
      </trkpt>
      <trkpt lat="45.962621932849288" lon="9.516715127974749">
        <ele>1974.71</ele>
        <time>2021-08-29T10:08:09Z</time>
      </trkpt>
      <trkpt lat="45.962619334459305" lon="9.516696268692613">
        <ele>1975.7</ele>
        <time>2021-08-29T10:08:19Z</time>
      </trkpt>
      <trkpt lat="45.962611874565482" lon="9.516666177660227">
        <ele>1975.4200000000001</ele>
        <time>2021-08-29T10:08:29Z</time>
      </trkpt>
      <trkpt lat="45.962580107152462" lon="9.516669195145369">
        <ele>1973.6199999999999</ele>
        <time>2021-08-29T10:08:39Z</time>
      </trkpt>
      <trkpt lat="45.96256879158318" lon="9.516627285629511">
        <ele>1973.4200000000001</ele>
        <time>2021-08-29T10:08:49Z</time>
      </trkpt>
      <trkpt lat="45.962538868188858" lon="9.51659057289362">
        <ele>1968.6800000000001</ele>
        <time>2021-08-29T10:08:59Z</time>
      </trkpt>
      <trkpt lat="45.962522188201547" lon="9.516597865149379">
        <ele>1970.22</ele>
        <time>2021-08-29T10:09:09Z</time>
      </trkpt>
      <trkpt lat="45.962522523477674" lon="9.516572216525674">
        <ele>1963.99</ele>
        <time>2021-08-29T10:09:19Z</time>
      </trkpt>
      <trkpt lat="45.962549680843949" lon="9.516584118828178">
        <ele>1961.9400000000001</ele>
        <time>2021-08-29T10:09:29Z</time>
      </trkpt>
      <trkpt lat="45.962523864582181" lon="9.51665947213769">
        <ele>1959.73</ele>
        <time>2021-08-29T10:09:38Z</time>
      </trkpt>
      <trkpt lat="45.962519673630595" lon="9.516642959788442">
        <ele>1960.23</ele>
        <time>2021-08-29T10:09:51Z</time>
      </trkpt>
      <trkpt lat="45.962505675852299" lon="9.516541287302971">
        <ele>1962.27</ele>
        <time>2021-08-29T10:10:00Z</time>
      </trkpt>
      <trkpt lat="45.962508609518409" lon="9.51652460731566">
        <ele>1964.22</ele>
        <time>2021-08-29T10:10:11Z</time>
      </trkpt>
      <trkpt lat="45.962490839883685" lon="9.516477584838867">
        <ele>1963.3299999999999</ele>
        <time>2021-08-29T10:10:21Z</time>
      </trkpt>
      <trkpt lat="45.962481200695038" lon="9.516485715284944">
        <ele>1961.9300000000001</ele>
        <time>2021-08-29T10:10:31Z</time>
      </trkpt>
      <trkpt lat="45.962456809356809" lon="9.516509100794792">
        <ele>1963.8</ele>
        <time>2021-08-29T10:10:41Z</time>
      </trkpt>
      <trkpt lat="45.962447673082352" lon="9.516505664214492">
        <ele>1964.21</ele>
        <time>2021-08-29T10:10:56Z</time>
      </trkpt>
      <trkpt lat="45.962427472695708" lon="9.516496863216162">
        <ele>1959.1199999999999</ele>
        <time>2021-08-29T10:11:08Z</time>
      </trkpt>
      <trkpt lat="45.962375588715076" lon="9.516505412757397">
        <ele>1960.5</ele>
        <time>2021-08-29T10:11:17Z</time>
      </trkpt>
      <trkpt lat="45.962366200983524" lon="9.516500467434526">
        <ele>1958.96</ele>
        <time>2021-08-29T10:11:26Z</time>
      </trkpt>
      <trkpt lat="45.962332086637616" lon="9.516475740820169">
        <ele>1961.4100000000001</ele>
        <time>2021-08-29T10:11:36Z</time>
      </trkpt>
      <trkpt lat="45.962292859330773" lon="9.516482530161738">
        <ele>1956.03</ele>
        <time>2021-08-29T10:11:46Z</time>
      </trkpt>
      <trkpt lat="45.962247680872679" lon="9.516487391665578">
        <ele>1957.75</ele>
        <time>2021-08-29T10:11:55Z</time>
      </trkpt>
      <trkpt lat="45.962221026420593" lon="9.516496108844876">
        <ele>1953.54</ele>
        <time>2021-08-29T10:12:04Z</time>
      </trkpt>
      <trkpt lat="45.962155815213919" lon="9.516513627022505">
        <ele>1953.9300000000001</ele>
        <time>2021-08-29T10:12:14Z</time>
      </trkpt>
      <trkpt lat="45.962107786908746" lon="9.516512285917997">
        <ele>1953.9000000000001</ele>
        <time>2021-08-29T10:12:24Z</time>
      </trkpt>
      <trkpt lat="45.962105272337794" lon="9.516493929550052">
        <ele>1952.79</ele>
        <time>2021-08-29T10:12:34Z</time>
      </trkpt>
      <trkpt lat="45.96210116520524" lon="9.516512118279934">
        <ele>1949.1700000000001</ele>
        <time>2021-08-29T10:12:43Z</time>
      </trkpt>
      <trkpt lat="45.962080964818597" lon="9.516527876257896">
        <ele>1948.8900000000001</ele>
        <time>2021-08-29T10:12:54Z</time>
      </trkpt>
      <trkpt lat="45.961960097774863" lon="9.516492336988449">
        <ele>1949.55</ele>
        <time>2021-08-29T10:13:03Z</time>
      </trkpt>
      <trkpt lat="45.961889605969191" lon="9.516492169350386">
        <ele>1941.5999999999999</ele>
        <time>2021-08-29T10:13:12Z</time>
      </trkpt>
      <trkpt lat="45.961829340085387" lon="9.516428885981441">
        <ele>1938.78</ele>
        <time>2021-08-29T10:13:22Z</time>
      </trkpt>
      <trkpt lat="45.961798578500748" lon="9.516440033912659">
        <ele>1934.0899999999999</ele>
        <time>2021-08-29T10:13:31Z</time>
      </trkpt>
      <trkpt lat="45.961778881028295" lon="9.516518237069249">
        <ele>1935.6600000000001</ele>
        <time>2021-08-29T10:13:41Z</time>
      </trkpt>
      <trkpt lat="45.961602022871375" lon="9.516423018649221">
        <ele>1944.9200000000001</ele>
        <time>2021-08-29T10:13:50Z</time>
      </trkpt>
      <trkpt lat="45.961532536894083" lon="9.516377169638872">
        <ele>1947.3499999999999</ele>
        <time>2021-08-29T10:13:59Z</time>
      </trkpt>
      <trkpt lat="45.96151283942163" lon="9.516391670331359">
        <ele>1944.5699999999999</ele>
        <time>2021-08-29T10:14:09Z</time>
      </trkpt>
      <trkpt lat="45.961479898542166" lon="9.516375074163079">
        <ele>1947.8699999999999</ele>
        <time>2021-08-29T10:14:19Z</time>
      </trkpt>
      <trkpt lat="45.961488364264369" lon="9.516334338113666">
        <ele>1958.26</ele>
        <time>2021-08-29T10:14:29Z</time>
      </trkpt>
      <trkpt lat="45.96141510643065" lon="9.516364512965083">
        <ele>1949.8699999999999</ele>
        <time>2021-08-29T10:14:39Z</time>
      </trkpt>
      <trkpt lat="45.961366994306445" lon="9.516361495479941">
        <ele>1941.6700000000001</ele>
        <time>2021-08-29T10:14:49Z</time>
      </trkpt>
      <trkpt lat="45.961352409794927" lon="9.516394268721342">
        <ele>1936.8499999999999</ele>
        <time>2021-08-29T10:14:59Z</time>
      </trkpt>
      <trkpt lat="45.961298933252692" lon="9.516362166032195">
        <ele>1930.9100000000001</ele>
        <time>2021-08-29T10:15:09Z</time>
      </trkpt>
      <trkpt lat="45.961267165839672" lon="9.516368620097637">
        <ele>1930.3199999999999</ele>
        <time>2021-08-29T10:15:19Z</time>
      </trkpt>
      <trkpt lat="45.961159374564886" lon="9.516364680603147">
        <ele>1927.5599999999999</ele>
        <time>2021-08-29T10:15:29Z</time>
      </trkpt>
      <trkpt lat="45.96105451695621" lon="9.516361327841878">
        <ele>1924.6300000000001</ele>
        <time>2021-08-29T10:15:39Z</time>
      </trkpt>
      <trkpt lat="45.960983522236347" lon="9.516375996172428">
        <ele>1924.6800000000001</ele>
        <time>2021-08-29T10:15:49Z</time>
      </trkpt>
      <trkpt lat="45.960960388183594" lon="9.516349760815501">
        <ele>1930.6400000000001</ele>
        <time>2021-08-29T10:15:59Z</time>
      </trkpt>
      <trkpt lat="45.960967596620321" lon="9.516284968703985">
        <ele>1941.3199999999999</ele>
        <time>2021-08-29T10:16:09Z</time>
      </trkpt>
      <trkpt lat="45.960990563035011" lon="9.516288740560412">
        <ele>1942.54</ele>
        <time>2021-08-29T10:16:19Z</time>
      </trkpt>
      <trkpt lat="45.960926441475749" lon="9.516274072229862">
        <ele>1938.49</ele>
        <time>2021-08-29T10:16:29Z</time>
      </trkpt>
      <trkpt lat="45.960848070681095" lon="9.516280610114336">
        <ele>1933.95</ele>
        <time>2021-08-29T10:16:39Z</time>
      </trkpt>
      <trkpt lat="45.960841868072748" lon="9.516257140785456">
        <ele>1933.55</ele>
        <time>2021-08-29T10:16:49Z</time>
      </trkpt>
      <trkpt lat="45.960835330188274" lon="9.516242472454906">
        <ele>1929.8299999999999</ele>
        <time>2021-08-29T10:16:59Z</time>
      </trkpt>
      <trkpt lat="45.960838766768575" lon="9.51619477942586">
        <ele>1926.71</ele>
        <time>2021-08-29T10:17:09Z</time>
      </trkpt>
      <trkpt lat="45.960760982707143" lon="9.516165358945727">
        <ele>1924.8800000000001</ele>
        <time>2021-08-29T10:17:19Z</time>
      </trkpt>
      <trkpt lat="45.960763413459063" lon="9.516216237097979">
        <ele>1922.3399999999999</ele>
        <time>2021-08-29T10:17:29Z</time>
      </trkpt>
      <trkpt lat="45.960746314376593" lon="9.516189498826861">
        <ele>1922.4100000000001</ele>
        <time>2021-08-29T10:17:39Z</time>
      </trkpt>
      <trkpt lat="45.960736088454723" lon="9.516148008406162">
        <ele>1922.78</ele>
        <time>2021-08-29T10:17:48Z</time>
      </trkpt>
      <trkpt lat="45.960702309384942" lon="9.516112469136715">
        <ele>1922.8599999999999</ele>
        <time>2021-08-29T10:17:58Z</time>
      </trkpt>
      <trkpt lat="45.960668111220002" lon="9.516096794977784">
        <ele>1921.8299999999999</ele>
        <time>2021-08-29T10:18:07Z</time>
      </trkpt>
      <trkpt lat="45.960615640506148" lon="9.516095034778118">
        <ele>1918.1400000000001</ele>
        <time>2021-08-29T10:18:17Z</time>
      </trkpt>
      <trkpt lat="45.960557721555233" lon="9.516045833006501">
        <ele>1916.4000000000001</ele>
        <time>2021-08-29T10:18:26Z</time>
      </trkpt>
      <trkpt lat="45.96051312983036" lon="9.516007695347071">
        <ele>1915.6199999999999</ele>
        <time>2021-08-29T10:18:35Z</time>
      </trkpt>
      <trkpt lat="45.960488403216004" lon="9.515991099178791">
        <ele>1914.8499999999999</ele>
        <time>2021-08-29T10:18:45Z</time>
      </trkpt>
      <trkpt lat="45.960443392395973" lon="9.515918679535389">
        <ele>1911.75</ele>
        <time>2021-08-29T10:18:55Z</time>
      </trkpt>
      <trkpt lat="45.960376923903823" lon="9.515799572691321">
        <ele>1905.5599999999999</ele>
        <time>2021-08-29T10:19:04Z</time>
      </trkpt>
      <trkpt lat="45.960327638313174" lon="9.515762021765113">
        <ele>1908.71</ele>
        <time>2021-08-29T10:19:14Z</time>
      </trkpt>
      <trkpt lat="45.96031523309648" lon="9.51584885828197">
        <ele>1909.49</ele>
        <time>2021-08-29T10:19:24Z</time>
      </trkpt>
      <trkpt lat="45.960290506482124" lon="9.515703180804849">
        <ele>1913.0899999999999</ele>
        <time>2021-08-29T10:19:33Z</time>
      </trkpt>
      <trkpt lat="45.960271563380957" lon="9.515625480562449">
        <ele>1912.0699999999999</ele>
        <time>2021-08-29T10:19:42Z</time>
      </trkpt>
      <trkpt lat="45.960286818444729" lon="9.51559379696846">
        <ele>1905.5599999999999</ele>
        <time>2021-08-29T10:19:52Z</time>
      </trkpt>
      <trkpt lat="45.960241137072444" lon="9.515527496114373">
        <ele>1905.0899999999999</ele>
        <time>2021-08-29T10:20:01Z</time>
      </trkpt>
      <trkpt lat="45.960281873121858" lon="9.51547066681087">
        <ele>1904.6099999999999</ele>
        <time>2021-08-29T10:20:11Z</time>
      </trkpt>
      <trkpt lat="45.960244992747903" lon="9.515392715111375">
        <ele>1904.26</ele>
        <time>2021-08-29T10:20:20Z</time>
      </trkpt>
      <trkpt lat="45.960240717977285" lon="9.515340998768807">
        <ele>1902.98</ele>
        <time>2021-08-29T10:20:30Z</time>
      </trkpt>
      <trkpt lat="45.960213225334883" lon="9.515268495306373">
        <ele>1896.5899999999999</ele>
        <time>2021-08-29T10:20:41Z</time>
      </trkpt>
      <trkpt lat="45.960140218958259" lon="9.515150897204876">
        <ele>1893.8599999999999</ele>
        <time>2021-08-29T10:20:50Z</time>
      </trkpt>
      <trkpt lat="45.960163436830044" lon="9.515180820599198">
        <ele>1892.28</ele>
        <time>2021-08-29T10:21:00Z</time>
      </trkpt>
      <trkpt lat="45.960168717429042" lon="9.515137318521738">
        <ele>1889.6199999999999</ele>
        <time>2021-08-29T10:21:09Z</time>
      </trkpt>
      <trkpt lat="45.960172573104501" lon="9.515090631321073">
        <ele>1889.3499999999999</ele>
        <time>2021-08-29T10:21:19Z</time>
      </trkpt>
      <trkpt lat="45.960139213129878" lon="9.515095576643944">
        <ele>1885.9400000000001</ele>
        <time>2021-08-29T10:21:29Z</time>
      </trkpt>
      <trkpt lat="45.960148181766272" lon="9.514941265806556">
        <ele>1887.26</ele>
        <time>2021-08-29T10:21:38Z</time>
      </trkpt>
      <trkpt lat="45.960164275020361" lon="9.514843197539449">
        <ele>1888</ele>
        <time>2021-08-29T10:21:48Z</time>
      </trkpt>
      <trkpt lat="45.96018279902637" lon="9.514802964404225">
        <ele>1884.4400000000001</ele>
        <time>2021-08-29T10:21:57Z</time>
      </trkpt>
      <trkpt lat="45.960210794582963" lon="9.514783769845963">
        <ele>1883.23</ele>
        <time>2021-08-29T10:22:06Z</time>
      </trkpt>
      <trkpt lat="45.960142314434052" lon="9.514707829803228">
        <ele>1884.1400000000001</ele>
        <time>2021-08-29T10:22:15Z</time>
      </trkpt>
      <trkpt lat="45.960048101842403" lon="9.514715205878019">
        <ele>1885.02</ele>
        <time>2021-08-29T10:22:25Z</time>
      </trkpt>
      <trkpt lat="45.960052041336894" lon="9.514603978022933">
        <ele>1875.54</ele>
        <time>2021-08-29T10:22:35Z</time>
      </trkpt>
      <trkpt lat="45.960090681910515" lon="9.514553686603904">
        <ele>1878.6400000000001</ele>
        <time>2021-08-29T10:22:44Z</time>
      </trkpt>
      <trkpt lat="45.960139380767941" lon="9.514473890885711">
        <ele>1880.5999999999999</ele>
        <time>2021-08-29T10:22:54Z</time>
      </trkpt>
      <trkpt lat="45.960160084068775" lon="9.514404237270355">
        <ele>1887.26</ele>
        <time>2021-08-29T10:23:03Z</time>
      </trkpt>
      <trkpt lat="45.960150109604001" lon="9.514430807903409">
        <ele>1876.45</ele>
        <time>2021-08-29T10:23:13Z</time>
      </trkpt>
      <trkpt lat="45.96013443544507" lon="9.514453439041972">
        <ele>1873.1300000000001</ele>
        <time>2021-08-29T10:23:22Z</time>
      </trkpt>
      <trkpt lat="45.96007140353322" lon="9.514353526756167">
        <ele>1869.97</ele>
        <time>2021-08-29T10:23:32Z</time>
      </trkpt>
      <trkpt lat="45.960086323320866" lon="9.514348162338138">
        <ele>1871.3499999999999</ele>
        <time>2021-08-29T10:23:41Z</time>
      </trkpt>
      <trkpt lat="45.960114067420363" lon="9.514343300834298">
        <ele>1869.3199999999999</ele>
        <time>2021-08-29T10:23:50Z</time>
      </trkpt>
      <trkpt lat="45.960118761286139" lon="9.514287309721112">
        <ele>1864.0899999999999</ele>
        <time>2021-08-29T10:24:00Z</time>
      </trkpt>
      <trkpt lat="45.960110127925873" lon="9.514251099899411">
        <ele>1858.5899999999999</ele>
        <time>2021-08-29T10:24:09Z</time>
      </trkpt>
      <trkpt lat="45.96010216511786" lon="9.51422369107604">
        <ele>1855.1600000000001</ele>
        <time>2021-08-29T10:24:19Z</time>
      </trkpt>
      <trkpt lat="45.960080539807677" lon="9.514262499287725">
        <ele>1849.78</ele>
        <time>2021-08-29T10:24:29Z</time>
      </trkpt>
      <trkpt lat="45.960129825398326" lon="9.514198210090399">
        <ele>1855.0899999999999</ele>
        <time>2021-08-29T10:24:38Z</time>
      </trkpt>
      <trkpt lat="45.960125718265772" lon="9.514132328331471">
        <ele>1855.45</ele>
        <time>2021-08-29T10:24:48Z</time>
      </trkpt>
      <trkpt lat="45.960105685517192" lon="9.514043731614947">
        <ele>1854.27</ele>
        <time>2021-08-29T10:24:57Z</time>
      </trkpt>
      <trkpt lat="45.960051873698831" lon="9.513908196240664">
        <ele>1851.6800000000001</ele>
        <time>2021-08-29T10:25:06Z</time>
      </trkpt>
      <trkpt lat="45.960033936426044" lon="9.513826388865709">
        <ele>1853.3599999999999</ele>
        <time>2021-08-29T10:25:16Z</time>
      </trkpt>
      <trkpt lat="45.960023961961269" lon="9.513747179880738">
        <ele>1854.6800000000001</ele>
        <time>2021-08-29T10:25:25Z</time>
      </trkpt>
      <trkpt lat="45.96000493504107" lon="9.51370183378458">
        <ele>1851.6400000000001</ele>
        <time>2021-08-29T10:25:34Z</time>
      </trkpt>
      <trkpt lat="45.959998397156596" lon="9.513620277866721">
        <ele>1853.46</ele>
        <time>2021-08-29T10:25:44Z</time>
      </trkpt>
      <trkpt lat="45.960003510117531" lon="9.513584990054369">
        <ele>1853.0999999999999</ele>
        <time>2021-08-29T10:25:54Z</time>
      </trkpt>
      <trkpt lat="45.960029829293489" lon="9.513548612594605">
        <ele>1849.3</ele>
        <time>2021-08-29T10:26:03Z</time>
      </trkpt>
      <trkpt lat="45.959972832351923" lon="9.513397067785263">
        <ele>1847.5699999999999</ele>
        <time>2021-08-29T10:26:13Z</time>
      </trkpt>
      <trkpt lat="45.959967887029052" lon="9.513294724747539">
        <ele>1851.3599999999999</ele>
        <time>2021-08-29T10:26:22Z</time>
      </trkpt>
      <trkpt lat="45.95998733304441" lon="9.513246780261397">
        <ele>1846.4200000000001</ele>
        <time>2021-08-29T10:26:31Z</time>
      </trkpt>
      <trkpt lat="45.959937963634729" lon="9.513145862147212">
        <ele>1841.8599999999999</ele>
        <time>2021-08-29T10:26:41Z</time>
      </trkpt>
      <trkpt lat="45.959935700520873" lon="9.513056930154562">
        <ele>1839.1600000000001</ele>
        <time>2021-08-29T10:26:51Z</time>
      </trkpt>
      <trkpt lat="45.959942992776632" lon="9.512953078374267">
        <ele>1839.0799999999999</ele>
        <time>2021-08-29T10:27:00Z</time>
      </trkpt>
      <trkpt lat="45.959997475147247" lon="9.512803796678782">
        <ele>1839.1800000000001</ele>
        <time>2021-08-29T10:27:10Z</time>
      </trkpt>
      <trkpt lat="45.960021279752254" lon="9.512704722583294">
        <ele>1839.75</ele>
        <time>2021-08-29T10:27:19Z</time>
      </trkpt>
      <trkpt lat="45.960033684968948" lon="9.512620065361261">
        <ele>1842.0899999999999</ele>
        <time>2021-08-29T10:27:28Z</time>
      </trkpt>
      <trkpt lat="45.960044162347913" lon="9.512521158903837">
        <ele>1842.0599999999999</ele>
        <time>2021-08-29T10:27:38Z</time>
      </trkpt>
      <trkpt lat="45.960021698847413" lon="9.512409009039402">
        <ele>1837.28</ele>
        <time>2021-08-29T10:27:47Z</time>
      </trkpt>
      <trkpt lat="45.960010886192322" lon="9.512246567755938">
        <ele>1840.01</ele>
        <time>2021-08-29T10:27:56Z</time>
      </trkpt>
      <trkpt lat="45.960065536201" lon="9.512201892212033">
        <ele>1844.4300000000001</ele>
        <time>2021-08-29T10:28:06Z</time>
      </trkpt>
      <trkpt lat="45.96005137078464" lon="9.512151014059782">
        <ele>1839.4300000000001</ele>
        <time>2021-08-29T10:28:15Z</time>
      </trkpt>
      <trkpt lat="45.960099985823035" lon="9.512007599696517">
        <ele>1843.1500000000001</ele>
        <time>2021-08-29T10:28:24Z</time>
      </trkpt>
      <trkpt lat="45.960135105997324" lon="9.511957475915551">
        <ele>1846.8299999999999</ele>
        <time>2021-08-29T10:28:34Z</time>
      </trkpt>
      <trkpt lat="45.960169890895486" lon="9.511821772903204">
        <ele>1850.1500000000001</ele>
        <time>2021-08-29T10:28:43Z</time>
      </trkpt>
      <trkpt lat="45.960146924480796" lon="9.51176687143743">
        <ele>1844.0599999999999</ele>
        <time>2021-08-29T10:28:54Z</time>
      </trkpt>
      <trkpt lat="45.960184894502163" lon="9.511621193960309">
        <ele>1846.29</ele>
        <time>2021-08-29T10:29:03Z</time>
      </trkpt>
      <trkpt lat="45.960253709927201" lon="9.511550534516573">
        <ele>1854.04</ele>
        <time>2021-08-29T10:29:12Z</time>
      </trkpt>
      <trkpt lat="45.96025513485074" lon="9.511605016887188">
        <ele>1853.1600000000001</ele>
        <time>2021-08-29T10:29:22Z</time>
      </trkpt>
      <trkpt lat="45.960317915305495" lon="9.511483898386359">
        <ele>1851.47</ele>
        <time>2021-08-29T10:29:31Z</time>
      </trkpt>
      <trkpt lat="45.960372062399983" lon="9.511325564235449">
        <ele>1853.0799999999999</ele>
        <time>2021-08-29T10:29:41Z</time>
      </trkpt>
      <trkpt lat="45.960333924740553" lon="9.511258006095886">
        <ele>1855.04</ele>
        <time>2021-08-29T10:29:50Z</time>
      </trkpt>
      <trkpt lat="45.960350437089801" lon="9.511236129328609">
        <ele>1854.1900000000001</ele>
        <time>2021-08-29T10:30:00Z</time>
      </trkpt>
      <trkpt lat="45.960398465394974" lon="9.511220538988709">
        <ele>1850.51</ele>
        <time>2021-08-29T10:30:09Z</time>
      </trkpt>
      <trkpt lat="45.960387736558914" lon="9.511079723015428">
        <ele>1854.0699999999999</ele>
        <time>2021-08-29T10:30:19Z</time>
      </trkpt>
      <trkpt lat="45.96037725917995" lon="9.510941589251161">
        <ele>1851.1700000000001</ele>
        <time>2021-08-29T10:30:28Z</time>
      </trkpt>
      <trkpt lat="45.96038069576025" lon="9.510855004191399">
        <ele>1853.6700000000001</ele>
        <time>2021-08-29T10:30:38Z</time>
      </trkpt>
      <trkpt lat="45.960390083491802" lon="9.510789038613439">
        <ele>1859.5599999999999</ele>
        <time>2021-08-29T10:30:48Z</time>
      </trkpt>
      <trkpt lat="45.960385305806994" lon="9.510713517665863">
        <ele>1860.1600000000001</ele>
        <time>2021-08-29T10:30:57Z</time>
      </trkpt>
      <trkpt lat="45.960400812327862" lon="9.510727599263191">
        <ele>1858.74</ele>
        <time>2021-08-29T10:31:07Z</time>
      </trkpt>
      <trkpt lat="45.960418833419681" lon="9.510532133281231">
        <ele>1854.98</ele>
        <time>2021-08-29T10:31:16Z</time>
      </trkpt>
      <trkpt lat="45.960431238636374" lon="9.510440519079566">
        <ele>1849.8499999999999</ele>
        <time>2021-08-29T10:31:26Z</time>
      </trkpt>
      <trkpt lat="45.960474740713835" lon="9.510286208242178">
        <ele>1849.1700000000001</ele>
        <time>2021-08-29T10:31:35Z</time>
      </trkpt>
      <trkpt lat="45.96048379316926" lon="9.51009183190763">
        <ele>1854.6300000000001</ele>
        <time>2021-08-29T10:31:45Z</time>
      </trkpt>
      <trkpt lat="45.96051312983036" lon="9.510015724226832">
        <ele>1859.4200000000001</ele>
        <time>2021-08-29T10:31:54Z</time>
      </trkpt>
      <trkpt lat="45.960541209205985" lon="9.509990494698286">
        <ele>1858.6400000000001</ele>
        <time>2021-08-29T10:32:04Z</time>
      </trkpt>
      <trkpt lat="45.960545903071761" lon="9.510016394779086">
        <ele>1849.28</ele>
        <time>2021-08-29T10:32:13Z</time>
      </trkpt>
      <trkpt lat="45.960531989112496" lon="9.509875494986773">
        <ele>1850.9200000000001</ele>
        <time>2021-08-29T10:32:23Z</time>
      </trkpt>
      <trkpt lat="45.960535509511828" lon="9.509771978482604">
        <ele>1856.96</ele>
        <time>2021-08-29T10:32:32Z</time>
      </trkpt>
      <trkpt lat="45.960563672706485" lon="9.509674329310656">
        <ele>1854</ele>
        <time>2021-08-29T10:32:42Z</time>
      </trkpt>
      <trkpt lat="45.960569037124515" lon="9.509597634896636">
        <ele>1848.8</ele>
        <time>2021-08-29T10:32:51Z</time>
      </trkpt>
      <trkpt lat="45.96058202907443" lon="9.509442485868931">
        <ele>1851.9100000000001</ele>
        <time>2021-08-29T10:33:01Z</time>
      </trkpt>
      <trkpt lat="45.960610862821341" lon="9.509386159479618">
        <ele>1852.23</ele>
        <time>2021-08-29T10:33:11Z</time>
      </trkpt>
      <trkpt lat="45.960625782608986" lon="9.509348776191473">
        <ele>1840.74</ele>
        <time>2021-08-29T10:33:20Z</time>
      </trkpt>
      <trkpt lat="45.960644474253058" lon="9.509253222495318">
        <ele>1840.3699999999999</ele>
        <time>2021-08-29T10:33:29Z</time>
      </trkpt>
      <trkpt lat="45.960681103169918" lon="9.509137971326709">
        <ele>1847.6800000000001</ele>
        <time>2021-08-29T10:33:38Z</time>
      </trkpt>
      <trkpt lat="45.960640870034695" lon="9.509001178666949">
        <ele>1843.9100000000001</ele>
        <time>2021-08-29T10:33:48Z</time>
      </trkpt>
      <trkpt lat="45.960626872256398" lon="9.508854160085321">
        <ele>1841.1199999999999</ele>
        <time>2021-08-29T10:33:58Z</time>
      </trkpt>
      <trkpt lat="45.960671631619334" lon="9.508800515905023">
        <ele>1840.5</ele>
        <time>2021-08-29T10:34:07Z</time>
      </trkpt>
      <trkpt lat="45.960740027949214" lon="9.508784925565124">
        <ele>1844.5999999999999</ele>
        <time>2021-08-29T10:34:16Z</time>
      </trkpt>
      <trkpt lat="45.960753438994288" lon="9.508714098483324">
        <ele>1838.9300000000001</ele>
        <time>2021-08-29T10:34:26Z</time>
      </trkpt>
      <trkpt lat="45.960775734856725" lon="9.508611839264631">
        <ele>1842.4300000000001</ele>
        <time>2021-08-29T10:34:35Z</time>
      </trkpt>
      <trkpt lat="45.960828624665737" lon="9.508466329425573">
        <ele>1842.52</ele>
        <time>2021-08-29T10:34:45Z</time>
      </trkpt>
      <trkpt lat="45.960862319916487" lon="9.508389802649617">
        <ele>1841.46</ele>
        <time>2021-08-29T10:34:55Z</time>
      </trkpt>
      <trkpt lat="45.960858296602964" lon="9.508328195661306">
        <ele>1838.1800000000001</ele>
        <time>2021-08-29T10:35:04Z</time>
      </trkpt>
      <trkpt lat="45.960858128964901" lon="9.508196180686355">
        <ele>1838.1400000000001</ele>
        <time>2021-08-29T10:35:13Z</time>
      </trkpt>
      <trkpt lat="45.960876569151878" lon="9.508107081055641">
        <ele>1832.4200000000001</ele>
        <time>2021-08-29T10:35:22Z</time>
      </trkpt>
      <trkpt lat="45.960884615778923" lon="9.508040696382523">
        <ele>1834.1500000000001</ele>
        <time>2021-08-29T10:35:33Z</time>
      </trkpt>
      <trkpt lat="45.960889980196953" lon="9.5080107729882">
        <ele>1832.8199999999999</ele>
        <time>2021-08-29T10:35:42Z</time>
      </trkpt>
      <trkpt lat="45.960904313251376" lon="9.507995517924428">
        <ele>1827.48</ele>
        <time>2021-08-29T10:35:51Z</time>
      </trkpt>
      <trkpt lat="45.960856536403298" lon="9.507838692516089">
        <ele>1824.05</ele>
        <time>2021-08-29T10:36:01Z</time>
      </trkpt>
      <trkpt lat="45.960848992690444" lon="9.50775227509439">
        <ele>1822.79</ele>
        <time>2021-08-29T10:36:10Z</time>
      </trkpt>
      <trkpt lat="45.960849411785603" lon="9.507699385285378">
        <ele>1821.8499999999999</ele>
        <time>2021-08-29T10:36:21Z</time>
      </trkpt>
      <trkpt lat="45.96083901822567" lon="9.50758270919323">
        <ele>1823.3</ele>
        <time>2021-08-29T10:36:30Z</time>
      </trkpt>
      <trkpt lat="45.96081412397325" lon="9.507478270679712">
        <ele>1820.2</ele>
        <time>2021-08-29T10:36:40Z</time>
      </trkpt>
      <trkpt lat="45.960806161165237" lon="9.507362768054009">
        <ele>1821.6600000000001</ele>
        <time>2021-08-29T10:36:49Z</time>
      </trkpt>
      <trkpt lat="45.960790235549212" lon="9.507272662594914">
        <ele>1821.1900000000001</ele>
        <time>2021-08-29T10:36:59Z</time>
      </trkpt>
      <trkpt lat="45.960760898888111" lon="9.507196974009275">
        <ele>1816.1300000000001</ele>
        <time>2021-08-29T10:37:09Z</time>
      </trkpt>
      <trkpt lat="45.960797108709812" lon="9.507191106677055">
        <ele>1818.3699999999999</ele>
        <time>2021-08-29T10:37:18Z</time>
      </trkpt>
      <trkpt lat="45.960800293833017" lon="9.507157495245338">
        <ele>1816.6099999999999</ele>
        <time>2021-08-29T10:37:27Z</time>
      </trkpt>
      <trkpt lat="45.960824266076088" lon="9.507104605436325">
        <ele>1818.4200000000001</ele>
        <time>2021-08-29T10:37:38Z</time>
      </trkpt>
      <trkpt lat="45.960766095668077" lon="9.507084237411618">
        <ele>1813.6600000000001</ele>
        <time>2021-08-29T10:37:47Z</time>
      </trkpt>
      <trkpt lat="45.960715133696795" lon="9.507077615708113">
        <ele>1810.54</ele>
        <time>2021-08-29T10:37:56Z</time>
      </trkpt>
      <trkpt lat="45.960720665752888" lon="9.507011063396931">
        <ele>1809.75</ele>
        <time>2021-08-29T10:38:05Z</time>
      </trkpt>
      <trkpt lat="45.960721923038363" lon="9.50696756131947">
        <ele>1808.5599999999999</ele>
        <time>2021-08-29T10:38:15Z</time>
      </trkpt>
      <trkpt lat="45.960720414295793" lon="9.506894219666719">
        <ele>1807.6099999999999</ele>
        <time>2021-08-29T10:38:25Z</time>
      </trkpt>
      <trkpt lat="45.960712032392621" lon="9.506903858855367">
        <ele>1807.24</ele>
        <time>2021-08-29T10:38:40Z</time>
      </trkpt>
      <trkpt lat="45.960742374882102" lon="9.506878294050694">
        <ele>1806.5799999999999</ele>
        <time>2021-08-29T10:38:49Z</time>
      </trkpt>
      <trkpt lat="45.960779003798962" lon="9.506856920197606">
        <ele>1804.3</ele>
        <time>2021-08-29T10:38:59Z</time>
      </trkpt>
      <trkpt lat="45.960847064852715" lon="9.506852980703116">
        <ele>1796.3699999999999</ele>
        <time>2021-08-29T10:39:08Z</time>
      </trkpt>
      <trkpt lat="45.960827870294452" lon="9.5065429341048">
        <ele>1798.23</ele>
        <time>2021-08-29T10:39:18Z</time>
      </trkpt>
      <trkpt lat="45.960799371823668" lon="9.506366830319166">
        <ele>1798.5599999999999</ele>
        <time>2021-08-29T10:39:27Z</time>
      </trkpt>
      <trkpt lat="45.960787804797292" lon="9.506324585527182">
        <ele>1796.6700000000001</ele>
        <time>2021-08-29T10:39:37Z</time>
      </trkpt>
      <trkpt lat="45.960787637159228" lon="9.506300780922175">
        <ele>1796.77</ele>
        <time>2021-08-29T10:39:46Z</time>
      </trkpt>
      <trkpt lat="45.960779925808311" lon="9.506191313266754">
        <ele>1798.05</ele>
        <time>2021-08-29T10:39:56Z</time>
      </trkpt>
      <trkpt lat="45.960812196135521" lon="9.506053263321519">
        <ele>1800.0799999999999</ele>
        <time>2021-08-29T10:40:05Z</time>
      </trkpt>
      <trkpt lat="45.960822589695454" lon="9.506051586940885">
        <ele>1797.8900000000001</ele>
        <time>2021-08-29T10:40:15Z</time>
      </trkpt>
      <trkpt lat="45.960819823667407" lon="9.505953518673778">
        <ele>1799.9100000000001</ele>
        <time>2021-08-29T10:40:25Z</time>
      </trkpt>
      <trkpt lat="45.960820829495788" lon="9.505878500640392">
        <ele>1801.8</ele>
        <time>2021-08-29T10:40:35Z</time>
      </trkpt>
      <trkpt lat="45.960850417613983" lon="9.505853187292814">
        <ele>1802.98</ele>
        <time>2021-08-29T10:40:44Z</time>
      </trkpt>
      <trkpt lat="45.960872713476419" lon="9.505850421264768">
        <ele>1803.3299999999999</ele>
        <time>2021-08-29T10:40:54Z</time>
      </trkpt>
      <trkpt lat="45.960913617163897" lon="9.505808176472783">
        <ele>1799.3599999999999</ele>
        <time>2021-08-29T10:41:03Z</time>
      </trkpt>
      <trkpt lat="45.96093968488276" lon="9.505753694102168">
        <ele>1796.7</ele>
        <time>2021-08-29T10:41:13Z</time>
      </trkpt>
      <trkpt lat="45.961010931059718" lon="9.505682028830051">
        <ele>1794.78</ele>
        <time>2021-08-29T10:41:22Z</time>
      </trkpt>
      <trkpt lat="45.961025599390268" lon="9.505587564781308">
        <ele>1794.02</ele>
        <time>2021-08-29T10:41:33Z</time>
      </trkpt>
      <trkpt lat="45.961050326004624" lon="9.505577506497502">
        <ele>1792.05</ele>
        <time>2021-08-29T10:41:43Z</time>
      </trkpt>
      <trkpt lat="45.961040686815977" lon="9.505527717992663">
        <ele>1787.3900000000001</ele>
        <time>2021-08-29T10:41:52Z</time>
      </trkpt>
      <trkpt lat="45.961048230528831" lon="9.50538681820035">
        <ele>1791.4400000000001</ele>
        <time>2021-08-29T10:42:01Z</time>
      </trkpt>
      <trkpt lat="45.961076896637678" lon="9.505228400230408">
        <ele>1800.75</ele>
        <time>2021-08-29T10:42:11Z</time>
      </trkpt>
      <trkpt lat="45.961081758141518" lon="9.505174169316888">
        <ele>1798.98</ele>
        <time>2021-08-29T10:42:20Z</time>
      </trkpt>
      <trkpt lat="45.961012104526162" lon="9.505143659189344">
        <ele>1795.76</ele>
        <time>2021-08-29T10:42:29Z</time>
      </trkpt>
      <trkpt lat="45.960938427597284" lon="9.505087500438094">
        <ele>1794.4100000000001</ele>
        <time>2021-08-29T10:42:39Z</time>
      </trkpt>
      <trkpt lat="45.960917389020324" lon="9.505091020837426">
        <ele>1792.8599999999999</ele>
        <time>2021-08-29T10:42:48Z</time>
      </trkpt>
      <trkpt lat="45.96089031547308" lon="9.505057828500867">
        <ele>1792.24</ele>
        <time>2021-08-29T10:42:58Z</time>
      </trkpt>
      <trkpt lat="45.960875898599625" lon="9.505074173212051">
        <ele>1800.97</ele>
        <time>2021-08-29T10:43:08Z</time>
      </trkpt>
      <trkpt lat="45.960800126194954" lon="9.504917431622744">
        <ele>1803.8900000000001</ele>
        <time>2021-08-29T10:43:18Z</time>
      </trkpt>
      <trkpt lat="45.960818063467741" lon="9.504872336983681">
        <ele>1797.3499999999999</ele>
        <time>2021-08-29T10:43:28Z</time>
      </trkpt>
      <trkpt lat="45.960860894992948" lon="9.504890441894531">
        <ele>1794.6800000000001</ele>
        <time>2021-08-29T10:43:38Z</time>
      </trkpt>
      <trkpt lat="45.960863325744867" lon="9.504813496023417">
        <ele>1792.02</ele>
        <time>2021-08-29T10:43:47Z</time>
      </trkpt>
      <trkpt lat="45.960853938013315" lon="9.504749625921249">
        <ele>1792.3099999999999</ele>
        <time>2021-08-29T10:43:56Z</time>
      </trkpt>
      <trkpt lat="45.960836419835687" lon="9.504698496311903">
        <ele>1786.22</ele>
        <time>2021-08-29T10:44:06Z</time>
      </trkpt>
      <trkpt lat="45.96081018447876" lon="9.504604870453477">
        <ele>1780.71</ele>
        <time>2021-08-29T10:44:16Z</time>
      </trkpt>
      <trkpt lat="45.960779506713152" lon="9.504553824663162">
        <ele>1777.49</ele>
        <time>2021-08-29T10:44:26Z</time>
      </trkpt>
      <trkpt lat="45.960797695443034" lon="9.504569163545966">
        <ele>1775.8800000000001</ele>
        <time>2021-08-29T10:44:36Z</time>
      </trkpt>
      <trkpt lat="45.960776405408978" lon="9.504523482173681">
        <ele>1773.3800000000001</ele>
        <time>2021-08-29T10:44:46Z</time>
      </trkpt>
      <trkpt lat="45.960780763998628" lon="9.504475621506572">
        <ele>1768.98</ele>
        <time>2021-08-29T10:44:56Z</time>
      </trkpt>
      <trkpt lat="45.960790906101465" lon="9.504462126642466">
        <ele>1767.1800000000001</ele>
        <time>2021-08-29T10:45:05Z</time>
      </trkpt>
      <trkpt lat="45.960804065689445" lon="9.504468496888876">
        <ele>1768.21</ele>
        <time>2021-08-29T10:45:14Z</time>
      </trkpt>
      <trkpt lat="45.960828373208642" lon="9.504425162449479">
        <ele>1767.9000000000001</ele>
        <time>2021-08-29T10:45:24Z</time>
      </trkpt>
      <trkpt lat="45.960865002125502" lon="9.504395825788379">
        <ele>1767.27</ele>
        <time>2021-08-29T10:45:33Z</time>
      </trkpt>
      <trkpt lat="45.960887465626001" lon="9.504385935142636">
        <ele>1767.5699999999999</ele>
        <time>2021-08-29T10:45:42Z</time>
      </trkpt>
      <trkpt lat="45.960896518081427" lon="9.504313096404076">
        <ele>1768.48</ele>
        <time>2021-08-29T10:45:51Z</time>
      </trkpt>
      <trkpt lat="45.960865337401628" lon="9.504212010651827">
        <ele>1770.3399999999999</ele>
        <time>2021-08-29T10:46:01Z</time>
      </trkpt>
      <trkpt lat="45.960840778425336" lon="9.504202120006084">
        <ele>1763.1199999999999</ele>
        <time>2021-08-29T10:46:10Z</time>
      </trkpt>
      <trkpt lat="45.960894422605634" lon="9.504091562703252">
        <ele>1767.9100000000001</ele>
        <time>2021-08-29T10:46:19Z</time>
      </trkpt>
      <trkpt lat="45.960874641314149" lon="9.503950662910938">
        <ele>1772.8199999999999</ele>
        <time>2021-08-29T10:46:29Z</time>
      </trkpt>
      <trkpt lat="45.96090598963201" lon="9.503766009584069">
        <ele>1769.03</ele>
        <time>2021-08-29T10:46:39Z</time>
      </trkpt>
      <trkpt lat="45.960885705426335" lon="9.503717813640833">
        <ele>1770.3699999999999</ele>
        <time>2021-08-29T10:46:48Z</time>
      </trkpt>
      <trkpt lat="45.960863577201962" lon="9.503651009872556">
        <ele>1770.1099999999999</ele>
        <time>2021-08-29T10:46:58Z</time>
      </trkpt>
      <trkpt lat="45.960865672677755" lon="9.50362728908658">
        <ele>1767.22</ele>
        <time>2021-08-29T10:47:08Z</time>
      </trkpt>
      <trkpt lat="45.960832731798291" lon="9.50358328409493">
        <ele>1758.8399999999999</ele>
        <time>2021-08-29T10:47:17Z</time>
      </trkpt>
      <trkpt lat="45.96081261523068" lon="9.503455460071564">
        <ele>1758.6400000000001</ele>
        <time>2021-08-29T10:47:27Z</time>
      </trkpt>
      <trkpt lat="45.960791073739529" lon="9.50337516143918">
        <ele>1756.4000000000001</ele>
        <time>2021-08-29T10:47:37Z</time>
      </trkpt>
      <trkpt lat="45.960805993527174" lon="9.503394775092602">
        <ele>1752.5899999999999</ele>
        <time>2021-08-29T10:47:47Z</time>
      </trkpt>
      <trkpt lat="45.960815129801631" lon="9.503392428159714">
        <ele>1752.74</ele>
        <time>2021-08-29T10:48:03Z</time>
      </trkpt>
      <trkpt lat="45.960822086781263" lon="9.503383124247193">
        <ele>1750.8299999999999</ele>
        <time>2021-08-29T10:48:12Z</time>
      </trkpt>
      <trkpt lat="45.960805909708142" lon="9.503314979374409">
        <ele>1749.74</ele>
        <time>2021-08-29T10:48:21Z</time>
      </trkpt>
      <trkpt lat="45.960802892223001" lon="9.503208193928003">
        <ele>1747.9200000000001</ele>
        <time>2021-08-29T10:48:31Z</time>
      </trkpt>
      <trkpt lat="45.960756205022335" lon="9.503085566684604">
        <ele>1746.4100000000001</ele>
        <time>2021-08-29T10:48:41Z</time>
      </trkpt>
      <trkpt lat="45.960697028785944" lon="9.50302672572434">
        <ele>1737.6500000000001</ele>
        <time>2021-08-29T10:48:50Z</time>
      </trkpt>
      <trkpt lat="45.960777159780264" lon="9.502988336607814">
        <ele>1739.6300000000001</ele>
        <time>2021-08-29T10:49:00Z</time>
      </trkpt>
      <trkpt lat="45.960786128416657" lon="9.502942571416497">
        <ele>1742.77</ele>
        <time>2021-08-29T10:49:10Z</time>
      </trkpt>
      <trkpt lat="45.960828205570579" lon="9.50299303047359">
        <ele>1742.1300000000001</ele>
        <time>2021-08-29T10:49:19Z</time>
      </trkpt>
      <trkpt lat="45.960920406505466" lon="9.502845592796803">
        <ele>1741.49</ele>
        <time>2021-08-29T10:49:29Z</time>
      </trkpt>
      <trkpt lat="45.960828624665737" lon="9.502693964168429">
        <ele>1741.0699999999999</ele>
        <time>2021-08-29T10:49:39Z</time>
      </trkpt>
      <trkpt lat="45.960844969376922" lon="9.502654988318682">
        <ele>1742.5699999999999</ele>
        <time>2021-08-29T10:49:49Z</time>
      </trkpt>
      <trkpt lat="45.960840862244368" lon="9.502609893679619">
        <ele>1742.1800000000001</ele>
        <time>2021-08-29T10:49:59Z</time>
      </trkpt>
      <trkpt lat="45.960846478119493" lon="9.502628166228533">
        <ele>1744.3</ele>
        <time>2021-08-29T10:50:07Z</time>
      </trkpt>
      <trkpt lat="45.960846813395619" lon="9.502603858709335">
        <ele>1745.29</ele>
        <time>2021-08-29T10:50:17Z</time>
      </trkpt>
      <trkpt lat="45.960854440927505" lon="9.50261190533638">
        <ele>1745.01</ele>
        <time>2021-08-29T10:50:29Z</time>
      </trkpt>
      <trkpt lat="45.96083851531148" lon="9.502610564231873">
        <ele>1740.47</ele>
        <time>2021-08-29T10:50:39Z</time>
      </trkpt>
      <trkpt lat="45.960860140621662" lon="9.502601595595479">
        <ele>1741.05</ele>
        <time>2021-08-29T10:50:49Z</time>
      </trkpt>
      <trkpt lat="45.960852429270744" lon="9.502588016912341">
        <ele>1740.3399999999999</ele>
        <time>2021-08-29T10:51:02Z</time>
      </trkpt>
      <trkpt lat="45.960791995748878" lon="9.502552477642894">
        <ele>1741.01</ele>
        <time>2021-08-29T10:51:11Z</time>
      </trkpt>
      <trkpt lat="45.960711361840367" lon="9.502432784065604">
        <ele>1734.79</ele>
        <time>2021-08-29T10:51:21Z</time>
      </trkpt>
      <trkpt lat="45.960665931925178" lon="9.502366986125708">
        <ele>1739.79</ele>
        <time>2021-08-29T10:51:30Z</time>
      </trkpt>
      <trkpt lat="45.960613125935197" lon="9.502327926456928">
        <ele>1740.55</ele>
        <time>2021-08-29T10:51:40Z</time>
      </trkpt>
      <trkpt lat="45.96055906265974" lon="9.502317029982805">
        <ele>1743.28</ele>
        <time>2021-08-29T10:51:49Z</time>
      </trkpt>
      <trkpt lat="45.960483541712165" lon="9.502280820161104">
        <ele>1743.0699999999999</ele>
        <time>2021-08-29T10:51:58Z</time>
      </trkpt>
      <trkpt lat="45.960403578355908" lon="9.502191888168454">
        <ele>1739.6199999999999</ele>
        <time>2021-08-29T10:52:08Z</time>
      </trkpt>
      <trkpt lat="45.960339289158583" lon="9.502108991146088">
        <ele>1736.8</ele>
        <time>2021-08-29T10:52:18Z</time>
      </trkpt>
      <trkpt lat="45.960281202569604" lon="9.502074290066958">
        <ele>1735.9100000000001</ele>
        <time>2021-08-29T10:52:27Z</time>
      </trkpt>
      <trkpt lat="45.960224037989974" lon="9.502018634229899">
        <ele>1734.03</ele>
        <time>2021-08-29T10:52:36Z</time>
      </trkpt>
      <trkpt lat="45.960179613903165" lon="9.501942526549101">
        <ele>1730.6800000000001</ele>
        <time>2021-08-29T10:52:46Z</time>
      </trkpt>
      <trkpt lat="45.960119934752584" lon="9.501953171566129">
        <ele>1729.1600000000001</ele>
        <time>2021-08-29T10:52:56Z</time>
      </trkpt>
      <trkpt lat="45.960079366341233" lon="9.501953003928065">
        <ele>1729.02</ele>
        <time>2021-08-29T10:53:05Z</time>
      </trkpt>
      <trkpt lat="45.960035361349583" lon="9.501944370567799">
        <ele>1728.75</ele>
        <time>2021-08-29T10:53:15Z</time>
      </trkpt>
      <trkpt lat="45.959958666935563" lon="9.501956691965461">
        <ele>1726.48</ele>
        <time>2021-08-29T10:53:24Z</time>
      </trkpt>
      <trkpt lat="45.95990527421236" lon="9.501933893188834">
        <ele>1728.24</ele>
        <time>2021-08-29T10:53:33Z</time>
      </trkpt>
      <trkpt lat="45.959840398281813" lon="9.50192391872406">
        <ele>1729.4200000000001</ele>
        <time>2021-08-29T10:53:43Z</time>
      </trkpt>
      <trkpt lat="45.959830423817039" lon="9.501927271485329">
        <ele>1727.5799999999999</ele>
        <time>2021-08-29T10:53:54Z</time>
      </trkpt>
      <trkpt lat="45.959794297814369" lon="9.501916375011206">
        <ele>1725.01</ele>
        <time>2021-08-29T10:54:04Z</time>
      </trkpt>
      <trkpt lat="45.959721626713872" lon="9.501928361132741">
        <ele>1725.6500000000001</ele>
        <time>2021-08-29T10:54:13Z</time>
      </trkpt>
      <trkpt lat="45.959652559831738" lon="9.501878321170807">
        <ele>1725.8499999999999</ele>
        <time>2021-08-29T10:54:22Z</time>
      </trkpt>
      <trkpt lat="45.959582403302193" lon="9.501826940104365">
        <ele>1725.1199999999999</ele>
        <time>2021-08-29T10:54:32Z</time>
      </trkpt>
      <trkpt lat="45.959522305056453" lon="9.501798776909709">
        <ele>1725.4300000000001</ele>
        <time>2021-08-29T10:54:41Z</time>
      </trkpt>
      <trkpt lat="45.959463212639093" lon="9.501791819930077">
        <ele>1723.45</ele>
        <time>2021-08-29T10:54:51Z</time>
      </trkpt>
      <trkpt lat="45.959404036402702" lon="9.501782516017556">
        <ele>1724.6800000000001</ele>
        <time>2021-08-29T10:55:00Z</time>
      </trkpt>
      <trkpt lat="45.959353493526578" lon="9.501712527126074">
        <ele>1723.3599999999999</ele>
        <time>2021-08-29T10:55:10Z</time>
      </trkpt>
      <trkpt lat="45.959280990064144" lon="9.50159358792007">
        <ele>1725.28</ele>
        <time>2021-08-29T10:55:19Z</time>
      </trkpt>
      <trkpt lat="45.959237236529589" lon="9.501557964831591">
        <ele>1727</ele>
        <time>2021-08-29T10:55:29Z</time>
      </trkpt>
      <trkpt lat="45.959178479388356" lon="9.50155695900321">
        <ele>1729.4100000000001</ele>
        <time>2021-08-29T10:55:38Z</time>
      </trkpt>
      <trkpt lat="45.959125673398376" lon="9.501526281237602">
        <ele>1729.01</ele>
        <time>2021-08-29T10:55:47Z</time>
      </trkpt>
      <trkpt lat="45.959041770547628" lon="9.501549834385514">
        <ele>1730.53</ele>
        <time>2021-08-29T10:55:57Z</time>
      </trkpt>
      <trkpt lat="45.958983600139618" lon="9.501548912376165">
        <ele>1732.1199999999999</ele>
        <time>2021-08-29T10:56:06Z</time>
      </trkpt>
      <trkpt lat="45.95893045887351" lon="9.501538937911391">
        <ele>1731.8699999999999</ele>
        <time>2021-08-29T10:56:16Z</time>
      </trkpt>
      <trkpt lat="45.958877066150308" lon="9.501544469967485">
        <ele>1731.23</ele>
        <time>2021-08-29T10:56:25Z</time>
      </trkpt>
      <trkpt lat="45.958825685083866" lon="9.501539692282677">
        <ele>1731.27</ele>
        <time>2021-08-29T10:56:35Z</time>
      </trkpt>
      <trkpt lat="45.958757037296891" lon="9.501530220732093">
        <ele>1732.8399999999999</ele>
        <time>2021-08-29T10:56:44Z</time>
      </trkpt>
      <trkpt lat="45.958693670108914" lon="9.501513037830591">
        <ele>1731.6300000000001</ele>
        <time>2021-08-29T10:56:54Z</time>
      </trkpt>
      <trkpt lat="45.958646731451154" lon="9.501486886292696">
        <ele>1732.52</ele>
        <time>2021-08-29T10:57:04Z</time>
      </trkpt>
      <trkpt lat="45.958575485274196" lon="9.501500381156802">
        <ele>1733</ele>
        <time>2021-08-29T10:57:13Z</time>
      </trkpt>
      <trkpt lat="45.958514967933297" lon="9.501516725867987">
        <ele>1732.2</ele>
        <time>2021-08-29T10:57:22Z</time>
      </trkpt>
      <trkpt lat="45.958488900214434" lon="9.501507421955466">
        <ele>1732.8299999999999</ele>
        <time>2021-08-29T10:57:31Z</time>
      </trkpt>
      <trkpt lat="45.958401141688228" lon="9.50147339142859">
        <ele>1733.5999999999999</ele>
        <time>2021-08-29T10:57:41Z</time>
      </trkpt>
      <trkpt lat="45.958326039835811" lon="9.501453274860978">
        <ele>1738.51</ele>
        <time>2021-08-29T10:57:50Z</time>
      </trkpt>
      <trkpt lat="45.958251440897584" lon="9.501474732533097">
        <ele>1738.1099999999999</ele>
        <time>2021-08-29T10:58:00Z</time>
      </trkpt>
      <trkpt lat="45.958209866657853" lon="9.501493005082011">
        <ele>1736.47</ele>
        <time>2021-08-29T10:58:09Z</time>
      </trkpt>
      <trkpt lat="45.958199808374047" lon="9.501483114436269">
        <ele>1738.27</ele>
        <time>2021-08-29T10:58:18Z</time>
      </trkpt>
      <trkpt lat="45.958137530833483" lon="9.501462494954467">
        <ele>1740.29</ele>
        <time>2021-08-29T10:58:28Z</time>
      </trkpt>
      <trkpt lat="45.95809587277472" lon="9.501483198255301">
        <ele>1742.3299999999999</ele>
        <time>2021-08-29T10:58:38Z</time>
      </trkpt>
      <trkpt lat="45.958073241636157" lon="9.501496190205216">
        <ele>1744.24</ele>
        <time>2021-08-29T10:58:47Z</time>
      </trkpt>
      <trkpt lat="45.958015574142337" lon="9.501524269580841">
        <ele>1745.8199999999999</ele>
        <time>2021-08-29T10:58:56Z</time>
      </trkpt>
      <trkpt lat="45.95799813978374" lon="9.501527706161141">
        <ele>1745.22</ele>
        <time>2021-08-29T10:59:06Z</time>
      </trkpt>
      <trkpt lat="45.957973413169384" lon="9.501526700332761">
        <ele>1748.6900000000001</ele>
        <time>2021-08-29T10:59:15Z</time>
      </trkpt>
      <trkpt lat="45.957909375429153" lon="9.501534579321742">
        <ele>1745.97</ele>
        <time>2021-08-29T10:59:25Z</time>
      </trkpt>
      <trkpt lat="45.957867801189423" lon="9.501484120264649">
        <ele>1748.3199999999999</ele>
        <time>2021-08-29T10:59:35Z</time>
      </trkpt>
      <trkpt lat="45.957850366830826" lon="9.501491412520409">
        <ele>1750.3399999999999</ele>
        <time>2021-08-29T10:59:44Z</time>
      </trkpt>
      <trkpt lat="45.957794291898608" lon="9.501482276245952">
        <ele>1752.3800000000001</ele>
        <time>2021-08-29T10:59:53Z</time>
      </trkpt>
      <trkpt lat="45.957722291350365" lon="9.501432990655303">
        <ele>1752.5899999999999</ele>
        <time>2021-08-29T11:00:03Z</time>
      </trkpt>
      <trkpt lat="45.957662612199783" lon="9.501422010362148">
        <ele>1752.95</ele>
        <time>2021-08-29T11:00:12Z</time>
      </trkpt>
      <trkpt lat="45.957652889192104" lon="9.501412622630596">
        <ele>1752.8599999999999</ele>
        <time>2021-08-29T11:00:24Z</time>
      </trkpt>
      <trkpt lat="45.957569824531674" lon="9.501401474699378">
        <ele>1753.96</ele>
        <time>2021-08-29T11:00:34Z</time>
      </trkpt>
      <trkpt lat="45.957491705194116" lon="9.501416310667992">
        <ele>1752.5899999999999</ele>
        <time>2021-08-29T11:00:44Z</time>
      </trkpt>
      <trkpt lat="45.957424817606807" lon="9.501445479691029">
        <ele>1752.3399999999999</ele>
        <time>2021-08-29T11:00:53Z</time>
      </trkpt>
      <trkpt lat="45.957293473184109" lon="9.501471798866987">
        <ele>1752.55</ele>
        <time>2021-08-29T11:01:04Z</time>
      </trkpt>
      <trkpt lat="45.957210827618837" lon="9.501551426947117">
        <ele>1756.7</ele>
        <time>2021-08-29T11:01:14Z</time>
      </trkpt>
      <trkpt lat="45.957127427682281" lon="9.50159459374845">
        <ele>1755.1800000000001</ele>
        <time>2021-08-29T11:01:23Z</time>
      </trkpt>
      <trkpt lat="45.957061629742384" lon="9.501637760549784">
        <ele>1755.5699999999999</ele>
        <time>2021-08-29T11:01:32Z</time>
      </trkpt>
      <trkpt lat="45.957033382728696" lon="9.501677323132753">
        <ele>1758.45</ele>
        <time>2021-08-29T11:01:41Z</time>
      </trkpt>
      <trkpt lat="45.956973787397146" lon="9.50170548632741">
        <ele>1758.01</ele>
        <time>2021-08-29T11:01:51Z</time>
      </trkpt>
      <trkpt lat="45.956941433250904" lon="9.501757705584168">
        <ele>1758.0899999999999</ele>
        <time>2021-08-29T11:02:00Z</time>
      </trkpt>
      <trkpt lat="45.956891728565097" lon="9.501820988953114">
        <ele>1758.1700000000001</ele>
        <time>2021-08-29T11:02:09Z</time>
      </trkpt>
      <trkpt lat="45.956830875948071" lon="9.501888463273644">
        <ele>1759.01</ele>
        <time>2021-08-29T11:02:19Z</time>
      </trkpt>
      <trkpt lat="45.956807909533381" lon="9.501942778006196">
        <ele>1759.72</ele>
        <time>2021-08-29T11:02:28Z</time>
      </trkpt>
      <trkpt lat="45.956778405234218" lon="9.502010922878981">
        <ele>1762.01</ele>
        <time>2021-08-29T11:02:38Z</time>
      </trkpt>
      <trkpt lat="45.956722497940063" lon="9.502067919820547">
        <ele>1764.3099999999999</ele>
        <time>2021-08-29T11:02:47Z</time>
      </trkpt>
      <trkpt lat="45.95667103305459" lon="9.502110918983817">
        <ele>1763.9400000000001</ele>
        <time>2021-08-29T11:02:57Z</time>
      </trkpt>
      <trkpt lat="45.956616718322039" lon="9.502170933410525">
        <ele>1767.8299999999999</ele>
        <time>2021-08-29T11:03:06Z</time>
      </trkpt>
      <trkpt lat="45.956551171839237" lon="9.502222063019872">
        <ele>1770.71</ele>
        <time>2021-08-29T11:03:16Z</time>
      </trkpt>
      <trkpt lat="45.956501131877303" lon="9.50225031003356">
        <ele>1770.97</ele>
        <time>2021-08-29T11:03:25Z</time>
      </trkpt>
      <trkpt lat="45.956506412476301" lon="9.502318622544408">
        <ele>1771.9200000000001</ele>
        <time>2021-08-29T11:03:35Z</time>
      </trkpt>
      <trkpt lat="45.956474896520376" lon="9.502382995560765">
        <ele>1772.96</ele>
        <time>2021-08-29T11:03:44Z</time>
      </trkpt>
      <trkpt lat="45.9564477391541" lon="9.502453068271279">
        <ele>1775.1099999999999</ele>
        <time>2021-08-29T11:03:54Z</time>
      </trkpt>
      <trkpt lat="45.956425024196506" lon="9.502491960301995">
        <ele>1773.1700000000001</ele>
        <time>2021-08-29T11:04:03Z</time>
      </trkpt>
      <trkpt lat="45.956377582624555" lon="9.50255817733705">
        <ele>1775.98</ele>
        <time>2021-08-29T11:04:14Z</time>
      </trkpt>
      <trkpt lat="45.956334415823221" lon="9.502616096287966">
        <ele>1778.8599999999999</ele>
        <time>2021-08-29T11:04:23Z</time>
      </trkpt>
      <trkpt lat="45.956298960372806" lon="9.502657670527697">
        <ele>1779.73</ele>
        <time>2021-08-29T11:04:32Z</time>
      </trkpt>
      <trkpt lat="45.956205502152443" lon="9.502693628892303">
        <ele>1782.72</ele>
        <time>2021-08-29T11:04:42Z</time>
      </trkpt>
      <trkpt lat="45.956139704212546" lon="9.502699663862586">
        <ele>1784.3199999999999</ele>
        <time>2021-08-29T11:04:52Z</time>
      </trkpt>
      <trkpt lat="45.956139033660293" lon="9.502683905884624">
        <ele>1784.4200000000001</ele>
        <time>2021-08-29T11:05:09Z</time>
      </trkpt>
      <trkpt lat="45.956118665635586" lon="9.50270326808095">
        <ele>1779.24</ele>
        <time>2021-08-29T11:05:19Z</time>
      </trkpt>
      <trkpt lat="45.956136519089341" lon="9.502677787095308">
        <ele>1779.1300000000001</ele>
        <time>2021-08-29T11:05:29Z</time>
      </trkpt>
      <trkpt lat="45.955998972058296" lon="9.502674601972103">
        <ele>1779.24</ele>
        <time>2021-08-29T11:05:39Z</time>
      </trkpt>
      <trkpt lat="45.956185888499022" lon="9.502669237554073">
        <ele>1779.3299999999999</ele>
        <time>2021-08-29T11:05:49Z</time>
      </trkpt>
      <trkpt lat="45.956156719475985" lon="9.502729419618845">
        <ele>1779.3900000000001</ele>
        <time>2021-08-29T11:05:59Z</time>
      </trkpt>
      <trkpt lat="45.956133333966136" lon="9.502739980816841">
        <ele>1779.4200000000001</ele>
        <time>2021-08-29T11:06:09Z</time>
      </trkpt>
      <trkpt lat="45.956118581816554" lon="9.502719361335039">
        <ele>1781.05</ele>
        <time>2021-08-29T11:06:18Z</time>
      </trkpt>
      <trkpt lat="45.956093519926071" lon="9.502702010795474">
        <ele>1778.4000000000001</ele>
        <time>2021-08-29T11:06:28Z</time>
      </trkpt>
      <trkpt lat="45.956091927364469" lon="9.502684492617846">
        <ele>1778.48</ele>
        <time>2021-08-29T11:06:39Z</time>
      </trkpt>
      <trkpt lat="45.95609980635345" lon="9.502662029117346">
        <ele>1778.4000000000001</ele>
        <time>2021-08-29T11:06:49Z</time>
      </trkpt>
      <trkpt lat="45.956101901829243" lon="9.502678625285626">
        <ele>1778.9400000000001</ele>
        <time>2021-08-29T11:07:06Z</time>
      </trkpt>
      <trkpt lat="45.956130400300026" lon="9.502719109877944">
        <ele>1778.8900000000001</ele>
        <time>2021-08-29T11:07:15Z</time>
      </trkpt>
      <trkpt lat="45.956073990091681" lon="9.502804689109325">
        <ele>1778.96</ele>
        <time>2021-08-29T11:07:25Z</time>
      </trkpt>
      <trkpt lat="45.95607097260654" lon="9.502819525077939">
        <ele>1778.7</ele>
        <time>2021-08-29T11:07:41Z</time>
      </trkpt>
      <trkpt lat="45.956067703664303" lon="9.502840060740709">
        <ele>1778.6600000000001</ele>
        <time>2021-08-29T11:07:51Z</time>
      </trkpt>
      <trkpt lat="45.956059489399195" lon="9.502812065184116">
        <ele>1779.51</ele>
        <time>2021-08-29T11:08:24Z</time>
      </trkpt>
      <trkpt lat="45.956043312326074" lon="9.502775017172098">
        <ele>1781.97</ele>
        <time>2021-08-29T11:08:34Z</time>
      </trkpt>
      <trkpt lat="45.956061501055956" lon="9.502782309427857">
        <ele>1779.8299999999999</ele>
        <time>2021-08-29T11:08:46Z</time>
      </trkpt>
      <trkpt lat="45.956072481349111" lon="9.502806700766087">
        <ele>1779.6400000000001</ele>
        <time>2021-08-29T11:08:56Z</time>
      </trkpt>
      <trkpt lat="45.956076001748443" lon="9.502819441258907">
        <ele>1782.3699999999999</ele>
        <time>2021-08-29T11:09:09Z</time>
      </trkpt>
      <trkpt lat="45.956082623451948" lon="9.502832014113665">
        <ele>1781.53</ele>
        <time>2021-08-29T11:14:11Z</time>
      </trkpt>
      <trkpt lat="45.956074241548777" lon="9.502822374925017">
        <ele>1781.95</ele>
        <time>2021-08-29T11:14:21Z</time>
      </trkpt>
      <trkpt lat="45.956063512712717" lon="9.502824721857905">
        <ele>1779.0599999999999</ele>
        <time>2021-08-29T11:17:01Z</time>
      </trkpt>
      <trkpt lat="45.956079186871648" lon="9.502817681059241">
        <ele>1778.47</ele>
        <time>2021-08-29T11:25:47Z</time>
      </trkpt>
      <trkpt lat="45.956088323146105" lon="9.502820027992129">
        <ele>1779.47</ele>
        <time>2021-08-29T11:25:57Z</time>
      </trkpt>
      <trkpt lat="45.956083126366138" lon="9.502806784585118">
        <ele>1779.01</ele>
        <time>2021-08-29T11:26:28Z</time>
      </trkpt>
      <trkpt lat="45.956083294004202" lon="9.50279169715941">
        <ele>1779.0699999999999</ele>
        <time>2021-08-29T11:26:38Z</time>
      </trkpt>
      <trkpt lat="45.956093268468976" lon="9.502819776535034">
        <ele>1779.0999999999999</ele>
        <time>2021-08-29T11:26:48Z</time>
      </trkpt>
      <trkpt lat="45.956093268468976" lon="9.502805694937706">
        <ele>1779.0799999999999</ele>
        <time>2021-08-29T11:29:44Z</time>
      </trkpt>
      <trkpt lat="45.95609930343926" lon="9.502783985808492">
        <ele>1778.9100000000001</ele>
        <time>2021-08-29T11:29:54Z</time>
      </trkpt>
      <trkpt lat="45.956092095002532" lon="9.502766719087958">
        <ele>1779.3399999999999</ele>
        <time>2021-08-29T11:30:58Z</time>
      </trkpt>
      <trkpt lat="45.956075666472316" lon="9.502781303599477">
        <ele>1774.8599999999999</ele>
        <time>2021-08-29T11:35:15Z</time>
      </trkpt>
      <trkpt lat="45.956066697835922" lon="9.502793289721012">
        <ele>1774.28</ele>
        <time>2021-08-29T11:35:25Z</time>
      </trkpt>
      <trkpt lat="45.956069966778159" lon="9.502780130133033">
        <ele>1774.1300000000001</ele>
        <time>2021-08-29T11:35:35Z</time>
      </trkpt>
      <trkpt lat="45.956090670078993" lon="9.502797229215503">
        <ele>1779.73</ele>
        <time>2021-08-29T11:45:22Z</time>
      </trkpt>
      <trkpt lat="45.956084383651614" lon="9.502808460965753">
        <ele>1779.04</ele>
        <time>2021-08-29T11:45:42Z</time>
      </trkpt>
      <trkpt lat="45.956051778048277" lon="9.502794966101646">
        <ele>1779.1300000000001</ele>
        <time>2021-08-29T11:45:52Z</time>
      </trkpt>
      <trkpt lat="45.956072397530079" lon="9.502790104597807">
        <ele>1779.1600000000001</ele>
        <time>2021-08-29T11:46:02Z</time>
      </trkpt>
      <trkpt lat="45.956077929586172" lon="9.502811226993799">
        <ele>1779.26</ele>
        <time>2021-08-29T11:48:17Z</time>
      </trkpt>
      <trkpt lat="45.956087820231915" lon="9.502840228378773">
        <ele>1779.1400000000001</ele>
        <time>2021-08-29T11:48:44Z</time>
      </trkpt>
      <trkpt lat="45.956074493005872" lon="9.502775268629193">
        <ele>1779.22</ele>
        <time>2021-08-29T11:48:54Z</time>
      </trkpt>
      <trkpt lat="45.956083294004202" lon="9.50277166441083">
        <ele>1779.3399999999999</ele>
        <time>2021-08-29T11:49:04Z</time>
      </trkpt>
      <trkpt lat="45.956080611795187" lon="9.502798989415169">
        <ele>1778.96</ele>
        <time>2021-08-29T11:49:14Z</time>
      </trkpt>
      <trkpt lat="45.95608270727098" lon="9.502785410732031">
        <ele>1778.98</ele>
        <time>2021-08-29T11:49:44Z</time>
      </trkpt>
      <trkpt lat="45.956042977049947" lon="9.502799827605486">
        <ele>1779.21</ele>
        <time>2021-08-29T11:49:54Z</time>
      </trkpt>
      <trkpt lat="45.955993188545108" lon="9.502767138183117">
        <ele>1779.2</ele>
        <time>2021-08-29T11:50:04Z</time>
      </trkpt>
      <trkpt lat="45.95598790794611" lon="9.50275506824255">
        <ele>1779.1199999999999</ele>
        <time>2021-08-29T11:50:14Z</time>
      </trkpt>
      <trkpt lat="45.955985728651285" lon="9.502735789865255">
        <ele>1779.1300000000001</ele>
        <time>2021-08-29T11:50:28Z</time>
      </trkpt>
      <trkpt lat="45.95598598010838" lon="9.502768227830529">
        <ele>1779.1400000000001</ele>
        <time>2021-08-29T11:50:38Z</time>
      </trkpt>
      <trkpt lat="45.955991595983505" lon="9.502756241708994">
        <ele>1779.03</ele>
        <time>2021-08-29T11:50:48Z</time>
      </trkpt>
      <trkpt lat="45.955987321212888" lon="9.502771915867925">
        <ele>1779.01</ele>
        <time>2021-08-29T11:51:12Z</time>
      </trkpt>
      <trkpt lat="45.955994697287679" lon="9.502780381590128">
        <ele>1779.04</ele>
        <time>2021-08-29T11:51:23Z</time>
      </trkpt>
      <trkpt lat="45.955987824127078" lon="9.502765713259578">
        <ele>1779.1199999999999</ele>
        <time>2021-08-29T11:51:48Z</time>
      </trkpt>
      <trkpt lat="45.955975586548448" lon="9.502732437103987">
        <ele>1779.21</ele>
        <time>2021-08-29T11:51:58Z</time>
      </trkpt>
      <trkpt lat="45.955961924046278" lon="9.502745177596808">
        <ele>1779.27</ele>
        <time>2021-08-29T11:52:08Z</time>
      </trkpt>
      <trkpt lat="45.955982711166143" lon="9.502750039100647">
        <ele>1778.99</ele>
        <time>2021-08-29T11:52:18Z</time>
      </trkpt>
      <trkpt lat="45.955974664539099" lon="9.5027662999928">
        <ele>1778.99</ele>
        <time>2021-08-29T11:52:30Z</time>
      </trkpt>
      <trkpt lat="45.955962678417563" lon="9.502762360498309">
        <ele>1779.0899999999999</ele>
        <time>2021-08-29T11:52:59Z</time>
      </trkpt>
      <trkpt lat="45.955958738923073" lon="9.502766635268927">
        <ele>1779.0899999999999</ele>
        <time>2021-08-29T11:53:02Z</time>
      </trkpt>
      <trkpt lat="45.955949435010552" lon="9.502759929746389">
        <ele>1779.2</ele>
        <time>2021-08-29T11:53:16Z</time>
      </trkpt>
      <trkpt lat="45.955952620133758" lon="9.502795888110995">
        <ele>1779.21</ele>
        <time>2021-08-29T11:53:26Z</time>
      </trkpt>
      <trkpt lat="45.955955469980836" lon="9.502781806513667">
        <ele>1779.1300000000001</ele>
        <time>2021-08-29T11:53:37Z</time>
      </trkpt>
      <trkpt lat="45.955956727266312" lon="9.502801671624184">
        <ele>1779.0799999999999</ele>
        <time>2021-08-29T11:53:47Z</time>
      </trkpt>
      <trkpt lat="45.955956727266312" lon="9.50278046540916">
        <ele>1779.24</ele>
        <time>2021-08-29T11:54:03Z</time>
      </trkpt>
      <trkpt lat="45.955917835235596" lon="9.502771832048893">
        <ele>1779.27</ele>
        <time>2021-08-29T11:54:13Z</time>
      </trkpt>
      <trkpt lat="45.955875841900706" lon="9.502756576985121">
        <ele>1779.0899999999999</ele>
        <time>2021-08-29T11:54:23Z</time>
      </trkpt>
      <trkpt lat="45.955857485532761" lon="9.50274333357811">
        <ele>1779.1400000000001</ele>
        <time>2021-08-29T11:54:33Z</time>
      </trkpt>
      <trkpt lat="45.955832339823246" lon="9.502743920311332">
        <ele>1779.1600000000001</ele>
        <time>2021-08-29T11:54:42Z</time>
      </trkpt>
      <trkpt lat="45.955718262121081" lon="9.502749117091298">
        <ele>1779.0699999999999</ele>
        <time>2021-08-29T11:54:53Z</time>
      </trkpt>
      <trkpt lat="45.95569571480155" lon="9.502752888947725">
        <ele>1776.52</ele>
        <time>2021-08-29T11:55:03Z</time>
      </trkpt>
      <trkpt lat="45.955685488879681" lon="9.502741992473602">
        <ele>1775.5799999999999</ele>
        <time>2021-08-29T11:55:13Z</time>
      </trkpt>
      <trkpt lat="45.955694792792201" lon="9.502736376598477">
        <ele>1773.9100000000001</ele>
        <time>2021-08-29T11:55:30Z</time>
      </trkpt>
      <trkpt lat="45.95569278113544" lon="9.50272036716342">
        <ele>1772.3900000000001</ele>
        <time>2021-08-29T11:55:41Z</time>
      </trkpt>
      <trkpt lat="45.955621702596545" lon="9.502731179818511">
        <ele>1773.5899999999999</ele>
        <time>2021-08-29T11:55:50Z</time>
      </trkpt>
      <trkpt lat="45.955545594915748" lon="9.502790691331029">
        <ele>1772.27</ele>
        <time>2021-08-29T11:56:00Z</time>
      </trkpt>
      <trkpt lat="45.955512570217252" lon="9.50283913873136">
        <ele>1770.49</ele>
        <time>2021-08-29T11:56:10Z</time>
      </trkpt>
      <trkpt lat="45.955507289618254" lon="9.502850202843547">
        <ele>1769.8900000000001</ele>
        <time>2021-08-29T11:56:22Z</time>
      </trkpt>
      <trkpt lat="45.955463871359825" lon="9.502922371029854">
        <ele>1769.8</ele>
        <time>2021-08-29T11:56:31Z</time>
      </trkpt>
      <trkpt lat="45.955406706780195" lon="9.502992192283273">
        <ele>1768.8599999999999</ele>
        <time>2021-08-29T11:56:40Z</time>
      </trkpt>
      <trkpt lat="45.955352140590549" lon="9.50304483063519">
        <ele>1768.21</ele>
        <time>2021-08-29T11:56:50Z</time>
      </trkpt>
      <trkpt lat="45.955292629078031" lon="9.503082633018494">
        <ele>1766.6300000000001</ele>
        <time>2021-08-29T11:57:00Z</time>
      </trkpt>
      <trkpt lat="45.955268321558833" lon="9.503086740151048">
        <ele>1765.22</ele>
        <time>2021-08-29T11:57:09Z</time>
      </trkpt>
      <trkpt lat="45.955211240798235" lon="9.503138540312648">
        <ele>1765.0599999999999</ele>
        <time>2021-08-29T11:57:18Z</time>
      </trkpt>
      <trkpt lat="45.955171762034297" lon="9.503113562241197">
        <ele>1762.0699999999999</ele>
        <time>2021-08-29T11:57:28Z</time>
      </trkpt>
      <trkpt lat="45.95512742176652" lon="9.503163686022162">
        <ele>1758.6500000000001</ele>
        <time>2021-08-29T11:57:37Z</time>
      </trkpt>
      <trkpt lat="45.955037316307425" lon="9.503129739314318">
        <ele>1760.3399999999999</ele>
        <time>2021-08-29T11:57:46Z</time>
      </trkpt>
      <trkpt lat="45.955000268295407" lon="9.503071317449212">
        <ele>1758.4200000000001</ele>
        <time>2021-08-29T11:57:56Z</time>
      </trkpt>
      <trkpt lat="45.954910833388567" lon="9.503014907240868">
        <ele>1755.5899999999999</ele>
        <time>2021-08-29T11:58:05Z</time>
      </trkpt>
      <trkpt lat="45.954848388209939" lon="9.502921365201473">
        <ele>1759.75</ele>
        <time>2021-08-29T11:58:14Z</time>
      </trkpt>
      <trkpt lat="45.954812010750175" lon="9.502879120409489">
        <ele>1761.1600000000001</ele>
        <time>2021-08-29T11:58:24Z</time>
      </trkpt>
      <trkpt lat="45.95475803129375" lon="9.502868391573429">
        <ele>1761.03</ele>
        <time>2021-08-29T11:58:33Z</time>
      </trkpt>
      <trkpt lat="45.954733304679394" lon="9.502818519249558">
        <ele>1758.3099999999999</ele>
        <time>2021-08-29T11:58:43Z</time>
      </trkpt>
      <trkpt lat="45.954707991331816" lon="9.502803012728691">
        <ele>1759.4000000000001</ele>
        <time>2021-08-29T11:58:52Z</time>
      </trkpt>
      <trkpt lat="45.954649318009615" lon="9.502693628892303">
        <ele>1762.02</ele>
        <time>2021-08-29T11:59:02Z</time>
      </trkpt>
      <trkpt lat="45.954637499526143" lon="9.502612827345729">
        <ele>1761.74</ele>
        <time>2021-08-29T11:59:12Z</time>
      </trkpt>
      <trkpt lat="45.954598607495427" lon="9.502516938373447">
        <ele>1761.4000000000001</ele>
        <time>2021-08-29T11:59:22Z</time>
      </trkpt>
      <trkpt lat="45.954558625817299" lon="9.502426078543067">
        <ele>1762.1900000000001</ele>
        <time>2021-08-29T11:59:31Z</time>
      </trkpt>
      <trkpt lat="45.954545130953193" lon="9.502388359978795">
        <ele>1761.3099999999999</ele>
        <time>2021-08-29T11:59:40Z</time>
      </trkpt>
      <trkpt lat="45.954524679109454" lon="9.502306217327714">
        <ele>1765.9300000000001</ele>
        <time>2021-08-29T11:59:50Z</time>
      </trkpt>
      <trkpt lat="45.95448536798358" lon="9.502220889553428">
        <ele>1763.5999999999999</ele>
        <time>2021-08-29T12:00:00Z</time>
      </trkpt>
      <trkpt lat="45.954460306093097" lon="9.502075212076306">
        <ele>1764.25</ele>
        <time>2021-08-29T12:00:09Z</time>
      </trkpt>
      <trkpt lat="45.954425102099776" lon="9.501932887360454">
        <ele>1766.29</ele>
        <time>2021-08-29T12:00:18Z</time>
      </trkpt>
      <trkpt lat="45.954390484839678" lon="9.501856528222561">
        <ele>1768.4000000000001</ele>
        <time>2021-08-29T12:00:29Z</time>
      </trkpt>
      <trkpt lat="45.954369697719812" lon="9.501765165477991">
        <ele>1768.54</ele>
        <time>2021-08-29T12:00:38Z</time>
      </trkpt>
      <trkpt lat="45.954338768497109" lon="9.501645807176828">
        <ele>1765.8099999999999</ele>
        <time>2021-08-29T12:00:47Z</time>
      </trkpt>
      <trkpt lat="45.95430021174252" lon="9.501563915982842">
        <ele>1767.9200000000001</ele>
        <time>2021-08-29T12:00:56Z</time>
      </trkpt>
      <trkpt lat="45.954258805140853" lon="9.501452939584851">
        <ele>1769.71</ele>
        <time>2021-08-29T12:01:06Z</time>
      </trkpt>
      <trkpt lat="45.954248998314142" lon="9.501366605982184">
        <ele>1774.05</ele>
        <time>2021-08-29T12:01:16Z</time>
      </trkpt>
      <trkpt lat="45.954210609197617" lon="9.501309189945459">
        <ele>1773.97</ele>
        <time>2021-08-29T12:01:25Z</time>
      </trkpt>
      <trkpt lat="45.954181188717484" lon="9.501234171912074">
        <ele>1772.8199999999999</ele>
        <time>2021-08-29T12:01:35Z</time>
      </trkpt>
      <trkpt lat="45.954150594770908" lon="9.501193016767502">
        <ele>1778.51</ele>
        <time>2021-08-29T12:01:44Z</time>
      </trkpt>
      <trkpt lat="45.954143721610308" lon="9.501180108636618">
        <ele>1778.8299999999999</ele>
        <time>2021-08-29T12:01:54Z</time>
      </trkpt>
      <trkpt lat="45.95410231500864" lon="9.501170217990875">
        <ele>1780.1300000000001</ele>
        <time>2021-08-29T12:02:03Z</time>
      </trkpt>
      <trkpt lat="45.954056214541197" lon="9.501235680654645">
        <ele>1780.73</ele>
        <time>2021-08-29T12:02:12Z</time>
      </trkpt>
      <trkpt lat="45.95403291285038" lon="9.501285636797547">
        <ele>1781.52</ele>
        <time>2021-08-29T12:02:22Z</time>
      </trkpt>
      <trkpt lat="45.954041797667742" lon="9.501289073377848">
        <ele>1778.8</ele>
        <time>2021-08-29T12:02:37Z</time>
      </trkpt>
      <trkpt lat="45.954011706635356" lon="9.501275913789868">
        <ele>1780.98</ele>
        <time>2021-08-29T12:02:47Z</time>
      </trkpt>
      <trkpt lat="45.953978598117828" lon="9.501367695629597">
        <ele>1783.98</ele>
        <time>2021-08-29T12:02:56Z</time>
      </trkpt>
      <trkpt lat="45.953964097425342" lon="9.501454615965486">
        <ele>1782.5999999999999</ele>
        <time>2021-08-29T12:03:06Z</time>
      </trkpt>
      <trkpt lat="45.953937359154224" lon="9.501525359228253">
        <ele>1782.1900000000001</ele>
        <time>2021-08-29T12:03:15Z</time>
      </trkpt>
      <trkpt lat="45.953924702480435" lon="9.50163122266531">
        <ele>1781.74</ele>
        <time>2021-08-29T12:03:25Z</time>
      </trkpt>
      <trkpt lat="45.953921601176262" lon="9.501712862402201">
        <ele>1777.5899999999999</ele>
        <time>2021-08-29T12:03:34Z</time>
      </trkpt>
      <trkpt lat="45.953895701095462" lon="9.501776397228241">
        <ele>1778.76</ele>
        <time>2021-08-29T12:03:44Z</time>
      </trkpt>
      <trkpt lat="45.95389461144805" lon="9.501880584284663">
        <ele>1777.1500000000001</ele>
        <time>2021-08-29T12:03:53Z</time>
      </trkpt>
      <trkpt lat="45.953891174867749" lon="9.501983094960451">
        <ele>1776.3900000000001</ele>
        <time>2021-08-29T12:04:02Z</time>
      </trkpt>
      <trkpt lat="45.953884469345212" lon="9.502043193206191">
        <ele>1774.0899999999999</ele>
        <time>2021-08-29T12:04:12Z</time>
      </trkpt>
      <trkpt lat="45.953868040814996" lon="9.502099268138409">
        <ele>1775.3699999999999</ele>
        <time>2021-08-29T12:04:21Z</time>
      </trkpt>
      <trkpt lat="45.953863598406315" lon="9.502212172374129">
        <ele>1772.3800000000001</ele>
        <time>2021-08-29T12:04:30Z</time>
      </trkpt>
      <trkpt lat="45.953845325857401" lon="9.502333709970117">
        <ele>1770.98</ele>
        <time>2021-08-29T12:04:40Z</time>
      </trkpt>
      <trkpt lat="45.953847421333194" lon="9.502450386062264">
        <ele>1768.8499999999999</ele>
        <time>2021-08-29T12:04:49Z</time>
      </trkpt>
      <trkpt lat="45.953841218724847" lon="9.502521296963096">
        <ele>1764.1700000000001</ele>
        <time>2021-08-29T12:04:58Z</time>
      </trkpt>
      <trkpt lat="45.953820766881108" lon="9.502612994983792">
        <ele>1766.4400000000001</ele>
        <time>2021-08-29T12:05:07Z</time>
      </trkpt>
      <trkpt lat="45.953771062195301" lon="9.502728832885623">
        <ele>1766.0599999999999</ele>
        <time>2021-08-29T12:05:17Z</time>
      </trkpt>
      <trkpt lat="45.953753795474768" lon="9.502842994406819">
        <ele>1767.0699999999999</ele>
        <time>2021-08-29T12:05:26Z</time>
      </trkpt>
      <trkpt lat="45.953692775219679" lon="9.503024714067578">
        <ele>1768.78</ele>
        <time>2021-08-29T12:05:36Z</time>
      </trkpt>
      <trkpt lat="45.953639298677444" lon="9.503103587776423">
        <ele>1767.6700000000001</ele>
        <time>2021-08-29T12:05:45Z</time>
      </trkpt>
      <trkpt lat="45.95358531922102" lon="9.503184640780091">
        <ele>1766.5999999999999</ele>
        <time>2021-08-29T12:05:55Z</time>
      </trkpt>
      <trkpt lat="45.953594036400318" lon="9.503277596086264">
        <ele>1766.3399999999999</ele>
        <time>2021-08-29T12:06:04Z</time>
      </trkpt>
      <trkpt lat="45.953556736931205" lon="9.50333459302783">
        <ele>1765.7</ele>
        <time>2021-08-29T12:06:14Z</time>
      </trkpt>
      <trkpt lat="45.953501500189304" lon="9.503450095653534">
        <ele>1766.78</ele>
        <time>2021-08-29T12:06:23Z</time>
      </trkpt>
      <trkpt lat="45.953491274267435" lon="9.503503236919642">
        <ele>1768.72</ele>
        <time>2021-08-29T12:06:33Z</time>
      </trkpt>
      <trkpt lat="45.953474929556251" lon="9.503515725955367">
        <ele>1765.9000000000001</ele>
        <time>2021-08-29T12:06:43Z</time>
      </trkpt>
      <trkpt lat="45.953434864059091" lon="9.503543470054865">
        <ele>1764.6099999999999</ele>
        <time>2021-08-29T12:06:52Z</time>
      </trkpt>
      <trkpt lat="45.953433522954583" lon="9.503645226359367">
        <ele>1765.0899999999999</ele>
        <time>2021-08-29T12:07:01Z</time>
      </trkpt>
      <trkpt lat="45.953384237363935" lon="9.503779504448175">
        <ele>1767.9300000000001</ele>
        <time>2021-08-29T12:07:11Z</time>
      </trkpt>
      <trkpt lat="45.95335029065609" lon="9.503811271861196">
        <ele>1765.8900000000001</ele>
        <time>2021-08-29T12:07:20Z</time>
      </trkpt>
      <trkpt lat="45.953296478837729" lon="9.503843626007438">
        <ele>1767.8199999999999</ele>
        <time>2021-08-29T12:07:29Z</time>
      </trkpt>
      <trkpt lat="45.953231938183308" lon="9.503950998187065">
        <ele>1771.0699999999999</ele>
        <time>2021-08-29T12:07:39Z</time>
      </trkpt>
      <trkpt lat="45.953184915706515" lon="9.504081923514605">
        <ele>1772.3499999999999</ele>
        <time>2021-08-29T12:07:49Z</time>
      </trkpt>
      <trkpt lat="45.953188519924879" lon="9.504175633192062">
        <ele>1773.21</ele>
        <time>2021-08-29T12:07:58Z</time>
      </trkpt>
      <trkpt lat="45.953161278739572" lon="9.504261463880539">
        <ele>1773.8399999999999</ele>
        <time>2021-08-29T12:08:09Z</time>
      </trkpt>
      <trkpt lat="45.953159099444747" lon="9.50437780469656">
        <ele>1775.6199999999999</ele>
        <time>2021-08-29T12:08:18Z</time>
      </trkpt>
      <trkpt lat="45.953154573217034" lon="9.504479477182031">
        <ele>1774.76</ele>
        <time>2021-08-29T12:08:27Z</time>
      </trkpt>
      <trkpt lat="45.953168906271458" lon="9.504591124132276">
        <ele>1772.73</ele>
        <time>2021-08-29T12:08:37Z</time>
      </trkpt>
      <trkpt lat="45.953180473297834" lon="9.504696736112237">
        <ele>1775.25</ele>
        <time>2021-08-29T12:08:46Z</time>
      </trkpt>
      <trkpt lat="45.953193632885814" lon="9.504818441346288">
        <ele>1774.8900000000001</ele>
        <time>2021-08-29T12:08:56Z</time>
      </trkpt>
      <trkpt lat="45.953186759725213" lon="9.504972584545612">
        <ele>1773.5999999999999</ele>
        <time>2021-08-29T12:09:06Z</time>
      </trkpt>
      <trkpt lat="45.95316362567246" lon="9.505106192082167">
        <ele>1776.9200000000001</ele>
        <time>2021-08-29T12:09:15Z</time>
      </trkpt>
      <trkpt lat="45.953150130808353" lon="9.505234938114882">
        <ele>1776.71</ele>
        <time>2021-08-29T12:09:25Z</time>
      </trkpt>
      <trkpt lat="45.953140240162611" lon="9.505360331386328">
        <ele>1774.96</ele>
        <time>2021-08-29T12:09:34Z</time>
      </trkpt>
      <trkpt lat="45.9531563334167" lon="9.505440713837743">
        <ele>1771.6700000000001</ele>
        <time>2021-08-29T12:09:43Z</time>
      </trkpt>
      <trkpt lat="45.953156920149922" lon="9.505541296675801">
        <ele>1770.29</ele>
        <time>2021-08-29T12:09:53Z</time>
      </trkpt>
      <trkpt lat="45.953139737248421" lon="9.505696864798665">
        <ele>1769.9100000000001</ele>
        <time>2021-08-29T12:10:02Z</time>
      </trkpt>
      <trkpt lat="45.953124314546585" lon="9.505804320797324">
        <ele>1771.26</ele>
        <time>2021-08-29T12:10:12Z</time>
      </trkpt>
      <trkpt lat="45.953098917379975" lon="9.505863916128874">
        <ele>1771.9100000000001</ele>
        <time>2021-08-29T12:10:21Z</time>
      </trkpt>
      <trkpt lat="45.953069664537907" lon="9.505977826192975">
        <ele>1772.9300000000001</ele>
        <time>2021-08-29T12:10:30Z</time>
      </trkpt>
      <trkpt lat="45.952996825799346" lon="9.506111433729529">
        <ele>1773.1300000000001</ele>
        <time>2021-08-29T12:10:40Z</time>
      </trkpt>
      <trkpt lat="45.952984169125557" lon="9.506142111495137">
        <ele>1770.9300000000001</ele>
        <time>2021-08-29T12:10:50Z</time>
      </trkpt>
      <trkpt lat="45.952971260994673" lon="9.506258619949222">
        <ele>1770.0799999999999</ele>
        <time>2021-08-29T12:10:59Z</time>
      </trkpt>
      <trkpt lat="45.952942594885826" lon="9.506336487829685">
        <ele>1767.71</ele>
        <time>2021-08-29T12:11:09Z</time>
      </trkpt>
      <trkpt lat="45.952917616814375" lon="9.506442602723837">
        <ele>1767.4000000000001</ele>
        <time>2021-08-29T12:11:18Z</time>
      </trkpt>
      <trkpt lat="45.952867325395346" lon="9.506520470604301">
        <ele>1768.6900000000001</ele>
        <time>2021-08-29T12:11:27Z</time>
      </trkpt>
      <trkpt lat="45.952810999006033" lon="9.506631027907133">
        <ele>1769.6400000000001</ele>
        <time>2021-08-29T12:11:37Z</time>
      </trkpt>
      <trkpt lat="45.952771604061127" lon="9.506770167499781">
        <ele>1766.54</ele>
        <time>2021-08-29T12:11:46Z</time>
      </trkpt>
      <trkpt lat="45.952729862183332" lon="9.506844766438007">
        <ele>1766.8199999999999</ele>
        <time>2021-08-29T12:11:55Z</time>
      </trkpt>
      <trkpt lat="45.952703626826406" lon="9.506946271285415">
        <ele>1768.79</ele>
        <time>2021-08-29T12:12:04Z</time>
      </trkpt>
      <trkpt lat="45.952672194689512" lon="9.507016511633992">
        <ele>1763.76</ele>
        <time>2021-08-29T12:12:14Z</time>
      </trkpt>
      <trkpt lat="45.952619472518563" lon="9.507058085873723">
        <ele>1765.53</ele>
        <time>2021-08-29T12:12:23Z</time>
      </trkpt>
      <trkpt lat="45.952606899663806" lon="9.507166966795921">
        <ele>1764.76</ele>
        <time>2021-08-29T12:12:32Z</time>
      </trkpt>
      <trkpt lat="45.952557865530252" lon="9.507244918495417">
        <ele>1760.4200000000001</ele>
        <time>2021-08-29T12:12:41Z</time>
      </trkpt>
      <trkpt lat="45.952544119209051" lon="9.507361175492406">
        <ele>1759.79</ele>
        <time>2021-08-29T12:12:51Z</time>
      </trkpt>
      <trkpt lat="45.952486200258136" lon="9.507400402799249">
        <ele>1759.4200000000001</ele>
        <time>2021-08-29T12:13:00Z</time>
      </trkpt>
      <trkpt lat="45.952450074255466" lon="9.507521772757173">
        <ele>1758.3099999999999</ele>
        <time>2021-08-29T12:13:09Z</time>
      </trkpt>
      <trkpt lat="45.952451582998037" lon="9.507616572082043">
        <ele>1760.9200000000001</ele>
        <time>2021-08-29T12:13:19Z</time>
      </trkpt>
      <trkpt lat="45.952425431460142" lon="9.507716568186879">
        <ele>1756.5999999999999</ele>
        <time>2021-08-29T12:13:29Z</time>
      </trkpt>
      <trkpt lat="45.952355610206723" lon="9.507802985608578">
        <ele>1756.7</ele>
        <time>2021-08-29T12:13:38Z</time>
      </trkpt>
      <trkpt lat="45.952280592173338" lon="9.507884960621595">
        <ele>1759.4000000000001</ele>
        <time>2021-08-29T12:13:48Z</time>
      </trkpt>
      <trkpt lat="45.952234994620085" lon="9.507977413013578">
        <ele>1758.9300000000001</ele>
        <time>2021-08-29T12:13:58Z</time>
      </trkpt>
      <trkpt lat="45.952221164479852" lon="9.508055783808231">
        <ele>1757.9400000000001</ele>
        <time>2021-08-29T12:14:07Z</time>
      </trkpt>
      <trkpt lat="45.95218881033361" lon="9.508126527070999">
        <ele>1758.4400000000001</ele>
        <time>2021-08-29T12:14:16Z</time>
      </trkpt>
      <trkpt lat="45.952170621603727" lon="9.508248399943113">
        <ele>1757.2</ele>
        <time>2021-08-29T12:14:25Z</time>
      </trkpt>
      <trkpt lat="45.952137429267168" lon="9.508344540372491">
        <ele>1757.3599999999999</ele>
        <time>2021-08-29T12:14:35Z</time>
      </trkpt>
      <trkpt lat="45.952139608561993" lon="9.50844663195312">
        <ele>1759.29</ele>
        <time>2021-08-29T12:14:46Z</time>
      </trkpt>
      <trkpt lat="45.952141284942627" lon="9.508543275296688">
        <ele>1759.98</ele>
        <time>2021-08-29T12:14:56Z</time>
      </trkpt>
      <trkpt lat="45.952145140618086" lon="9.50858736410737">
        <ele>1758.21</ele>
        <time>2021-08-29T12:15:05Z</time>
      </trkpt>
      <trkpt lat="45.952096525579691" lon="9.508675541728735">
        <ele>1757.8299999999999</ele>
        <time>2021-08-29T12:15:14Z</time>
      </trkpt>
      <trkpt lat="45.952109014615417" lon="9.50876472517848">
        <ele>1757.7</ele>
        <time>2021-08-29T12:15:25Z</time>
      </trkpt>
      <trkpt lat="45.952096609398723" lon="9.508858602494001">
        <ele>1759.23</ele>
        <time>2021-08-29T12:15:35Z</time>
      </trkpt>
      <trkpt lat="45.952078001573682" lon="9.508908474817872">
        <ele>1759.6400000000001</ele>
        <time>2021-08-29T12:15:44Z</time>
      </trkpt>
      <trkpt lat="45.952065177261829" lon="9.508945187553763">
        <ele>1760.27</ele>
        <time>2021-08-29T12:15:53Z</time>
      </trkpt>
      <trkpt lat="45.952097279950976" lon="9.509054068475962">
        <ele>1761.49</ele>
        <time>2021-08-29T12:16:03Z</time>
      </trkpt>
      <trkpt lat="45.95211748033762" lon="9.509091535583139">
        <ele>1760.6600000000001</ele>
        <time>2021-08-29T12:16:13Z</time>
      </trkpt>
      <trkpt lat="45.952108511701226" lon="9.509100504219532">
        <ele>1760.1199999999999</ele>
        <time>2021-08-29T12:16:24Z</time>
      </trkpt>
      <trkpt lat="45.95208328217268" lon="9.509138725697994">
        <ele>1761.02</ele>
        <time>2021-08-29T12:16:34Z</time>
      </trkpt>
      <trkpt lat="45.952058471739292" lon="9.509180886670947">
        <ele>1761.6900000000001</ele>
        <time>2021-08-29T12:16:43Z</time>
      </trkpt>
      <trkpt lat="45.951991081237793" lon="9.509240482002497">
        <ele>1763.1800000000001</ele>
        <time>2021-08-29T12:16:52Z</time>
      </trkpt>
      <trkpt lat="45.951943388208747" lon="9.509328408166766">
        <ele>1761.54</ele>
        <time>2021-08-29T12:17:01Z</time>
      </trkpt>
      <trkpt lat="45.951893096789718" lon="9.509422117844224">
        <ele>1761.9000000000001</ele>
        <time>2021-08-29T12:17:10Z</time>
      </trkpt>
      <trkpt lat="45.951862838119268" lon="9.509502584114671">
        <ele>1762.78</ele>
        <time>2021-08-29T12:17:21Z</time>
      </trkpt>
      <trkpt lat="45.951815899461508" lon="9.509577015414834">
        <ele>1762.8</ele>
        <time>2021-08-29T12:17:31Z</time>
      </trkpt>
      <trkpt lat="45.951761500909925" lon="9.509662510827184">
        <ele>1764.48</ele>
        <time>2021-08-29T12:17:41Z</time>
      </trkpt>
      <trkpt lat="45.951746916398406" lon="9.509774073958397">
        <ele>1765.4400000000001</ele>
        <time>2021-08-29T12:17:50Z</time>
      </trkpt>
      <trkpt lat="45.951718920841813" lon="9.50984456576407">
        <ele>1767.6300000000001</ele>
        <time>2021-08-29T12:17:59Z</time>
      </trkpt>
      <trkpt lat="45.951694864779711" lon="9.509950010105968">
        <ele>1766.23</ele>
        <time>2021-08-29T12:18:09Z</time>
      </trkpt>
      <trkpt lat="45.951699977740645" lon="9.510037181898952">
        <ele>1766.77</ele>
        <time>2021-08-29T12:18:19Z</time>
      </trkpt>
      <trkpt lat="45.951695535331964" lon="9.51007179915905">
        <ele>1768.71</ele>
        <time>2021-08-29T12:18:29Z</time>
      </trkpt>
      <trkpt lat="45.951682040467858" lon="9.510134579613805">
        <ele>1767.51</ele>
        <time>2021-08-29T12:18:38Z</time>
      </trkpt>
      <trkpt lat="45.95166795887053" lon="9.510204987600446">
        <ele>1769.26</ele>
        <time>2021-08-29T12:18:48Z</time>
      </trkpt>
      <trkpt lat="45.951676089316607" lon="9.510221416130662">
        <ele>1769.04</ele>
        <time>2021-08-29T12:18:57Z</time>
      </trkpt>
      <trkpt lat="45.95167868770659" lon="9.51029903255403">
        <ele>1769.23</ele>
        <time>2021-08-29T12:19:07Z</time>
      </trkpt>
      <trkpt lat="45.951698385179043" lon="9.510398274287581">
        <ele>1765.9200000000001</ele>
        <time>2021-08-29T12:19:16Z</time>
      </trkpt>
      <trkpt lat="45.951694780960679" lon="9.510445883497596">
        <ele>1765.5</ele>
        <time>2021-08-29T12:19:25Z</time>
      </trkpt>
      <trkpt lat="45.951664270833135" lon="9.510455103591085">
        <ele>1765.52</ele>
        <time>2021-08-29T12:19:35Z</time>
      </trkpt>
      <trkpt lat="45.951650440692902" lon="9.510459965094924">
        <ele>1765.5599999999999</ele>
        <time>2021-08-29T12:19:44Z</time>
      </trkpt>
      <trkpt lat="45.951627139002085" lon="9.510488882660866">
        <ele>1765.53</ele>
        <time>2021-08-29T12:19:53Z</time>
      </trkpt>
      <trkpt lat="45.951569220051169" lon="9.510573372244835">
        <ele>1765.78</ele>
        <time>2021-08-29T12:20:03Z</time>
      </trkpt>
      <trkpt lat="45.951497638598084" lon="9.510665824636817">
        <ele>1766</ele>
        <time>2021-08-29T12:20:13Z</time>
      </trkpt>
      <trkpt lat="45.951442318037152" lon="9.510786859318614">
        <ele>1768.5999999999999</ele>
        <time>2021-08-29T12:20:22Z</time>
      </trkpt>
      <trkpt lat="45.951392110437155" lon="9.510853160172701">
        <ele>1765.8099999999999</ele>
        <time>2021-08-29T12:20:31Z</time>
      </trkpt>
      <trkpt lat="45.951359504833817" lon="9.510964974761009">
        <ele>1761.8499999999999</ele>
        <time>2021-08-29T12:20:40Z</time>
      </trkpt>
      <trkpt lat="45.951321367174387" lon="9.511099504306912">
        <ele>1763.8299999999999</ele>
        <time>2021-08-29T12:20:50Z</time>
      </trkpt>
      <trkpt lat="45.951319271698594" lon="9.511208720505238">
        <ele>1759.6199999999999</ele>
        <time>2021-08-29T12:20:59Z</time>
      </trkpt>
      <trkpt lat="45.951268896460533" lon="9.511286839842796">
        <ele>1756.0999999999999</ele>
        <time>2021-08-29T12:21:09Z</time>
      </trkpt>
      <trkpt lat="45.951214581727982" lon="9.511412400752306">
        <ele>1756.8900000000001</ele>
        <time>2021-08-29T12:21:18Z</time>
      </trkpt>
      <trkpt lat="45.951183820143342" lon="9.51145707629621">
        <ele>1753.7</ele>
        <time>2021-08-29T12:21:28Z</time>
      </trkpt>
      <trkpt lat="45.951178958639503" lon="9.511468140408397">
        <ele>1753.53</ele>
        <time>2021-08-29T12:21:37Z</time>
      </trkpt>
      <trkpt lat="45.95113386400044" lon="9.511481299996376">
        <ele>1758.8800000000001</ele>
        <time>2021-08-29T12:21:47Z</time>
      </trkpt>
      <trkpt lat="45.951105197891593" lon="9.51148490421474">
        <ele>1760.03</ele>
        <time>2021-08-29T12:21:57Z</time>
      </trkpt>
      <trkpt lat="45.951003776863217" lon="9.511423213407397">
        <ele>1760.6099999999999</ele>
        <time>2021-08-29T12:22:06Z</time>
      </trkpt>
      <trkpt lat="45.950935212895274" lon="9.51141013763845">
        <ele>1764.5</ele>
        <time>2021-08-29T12:22:15Z</time>
      </trkpt>
      <trkpt lat="45.950928591191769" lon="9.511437295004726">
        <ele>1761.9000000000001</ele>
        <time>2021-08-29T12:22:25Z</time>
      </trkpt>
      <trkpt lat="45.950894309207797" lon="9.511428913101554">
        <ele>1763.75</ele>
        <time>2021-08-29T12:22:35Z</time>
      </trkpt>
      <trkpt lat="45.950786434113979" lon="9.511452130973339">
        <ele>1767.1600000000001</ele>
        <time>2021-08-29T12:22:45Z</time>
      </trkpt>
      <trkpt lat="45.950720217078924" lon="9.511447185650468">
        <ele>1764.79</ele>
        <time>2021-08-29T12:22:55Z</time>
      </trkpt>
      <trkpt lat="45.950700603425503" lon="9.51142723672092">
        <ele>1766.54</ele>
        <time>2021-08-29T12:23:04Z</time>
      </trkpt>
      <trkpt lat="45.95067847520113" lon="9.511414412409067">
        <ele>1763.55</ele>
        <time>2021-08-29T12:23:14Z</time>
      </trkpt>
      <trkpt lat="45.950671015307307" lon="9.511427571997047">
        <ele>1765.28</ele>
        <time>2021-08-29T12:23:23Z</time>
      </trkpt>
      <trkpt lat="45.950569091364741" lon="9.511523377150297">
        <ele>1768.3099999999999</ele>
        <time>2021-08-29T12:23:32Z</time>
      </trkpt>
      <trkpt lat="45.950532797724009" lon="9.511581463739276">
        <ele>1770.0799999999999</ele>
        <time>2021-08-29T12:23:42Z</time>
      </trkpt>
      <trkpt lat="45.950489295646548" lon="9.511620188131928">
        <ele>1771.28</ele>
        <time>2021-08-29T12:23:51Z</time>
      </trkpt>
      <trkpt lat="45.950429029762745" lon="9.511667294427753">
        <ele>1771.28</ele>
        <time>2021-08-29T12:24:01Z</time>
      </trkpt>
      <trkpt lat="45.950383096933365" lon="9.511708365753293">
        <ele>1769.3099999999999</ele>
        <time>2021-08-29T12:24:10Z</time>
      </trkpt>
      <trkpt lat="45.950337667018175" lon="9.511716915294528">
        <ele>1769.95</ele>
        <time>2021-08-29T12:24:20Z</time>
      </trkpt>
      <trkpt lat="45.95032668672502" lon="9.511783886700869">
        <ele>1769.5799999999999</ele>
        <time>2021-08-29T12:24:30Z</time>
      </trkpt>
      <trkpt lat="45.95032618381083" lon="9.511797381564975">
        <ele>1767.02</ele>
        <time>2021-08-29T12:24:43Z</time>
      </trkpt>
      <trkpt lat="45.950321406126022" lon="9.511809032410383">
        <ele>1763.1700000000001</ele>
        <time>2021-08-29T12:25:02Z</time>
      </trkpt>
      <trkpt lat="45.950273377820849" lon="9.511910788714886">
        <ele>1760.3</ele>
        <time>2021-08-29T12:25:13Z</time>
      </trkpt>
      <trkpt lat="45.950239431113005" lon="9.512029308825731">
        <ele>1761.53</ele>
        <time>2021-08-29T12:25:22Z</time>
      </trkpt>
      <trkpt lat="45.950188217684627" lon="9.512041881680489">
        <ele>1762.05</ele>
        <time>2021-08-29T12:25:32Z</time>
      </trkpt>
      <trkpt lat="45.950150415301323" lon="9.512033499777317">
        <ele>1764.6199999999999</ele>
        <time>2021-08-29T12:25:41Z</time>
      </trkpt>
      <trkpt lat="45.950080174952745" lon="9.512033332139254">
        <ele>1766.4300000000001</ele>
        <time>2021-08-29T12:25:50Z</time>
      </trkpt>
      <trkpt lat="45.950020579621196" lon="9.512027129530907">
        <ele>1769</ele>
        <time>2021-08-29T12:26:00Z</time>
      </trkpt>
      <trkpt lat="45.949955703690648" lon="9.511980609968305">
        <ele>1770.55</ele>
        <time>2021-08-29T12:26:10Z</time>
      </trkpt>
      <trkpt lat="45.949941705912352" lon="9.511988740414381">
        <ele>1771.3</ele>
        <time>2021-08-29T12:26:20Z</time>
      </trkpt>
      <trkpt lat="45.94992988742888" lon="9.511991087347269">
        <ele>1770.6800000000001</ele>
        <time>2021-08-29T12:26:51Z</time>
      </trkpt>
      <trkpt lat="45.949913039803505" lon="9.5119842980057">
        <ele>1767.6900000000001</ele>
        <time>2021-08-29T12:27:00Z</time>
      </trkpt>
      <trkpt lat="45.949893007054925" lon="9.512015227228403">
        <ele>1766.04</ele>
        <time>2021-08-29T12:27:10Z</time>
      </trkpt>
      <trkpt lat="45.949862413108349" lon="9.512032996863127">
        <ele>1766.24</ele>
        <time>2021-08-29T12:27:20Z</time>
      </trkpt>
      <trkpt lat="45.949841625988483" lon="9.512031571939588">
        <ele>1769.3800000000001</ele>
        <time>2021-08-29T12:27:29Z</time>
      </trkpt>
      <trkpt lat="45.949763087555766" lon="9.512042719870806">
        <ele>1767.9100000000001</ele>
        <time>2021-08-29T12:27:38Z</time>
      </trkpt>
      <trkpt lat="45.949750933796167" lon="9.512057974934578">
        <ele>1768.8199999999999</ele>
        <time>2021-08-29T12:27:48Z</time>
      </trkpt>
      <trkpt lat="45.949709778651595" lon="9.512090077623725">
        <ele>1769.1600000000001</ele>
        <time>2021-08-29T12:27:58Z</time>
      </trkpt>
      <trkpt lat="45.949695277959108" lon="9.512115893885493">
        <ele>1769.3199999999999</ele>
        <time>2021-08-29T12:28:09Z</time>
      </trkpt>
      <trkpt lat="45.949702486395836" lon="9.512124359607697">
        <ele>1769.28</ele>
        <time>2021-08-29T12:28:29Z</time>
      </trkpt>
      <trkpt lat="45.94968999736011" lon="9.512128382921219">
        <ele>1768.4000000000001</ele>
        <time>2021-08-29T12:28:39Z</time>
      </trkpt>
      <trkpt lat="45.94968069344759" lon="9.512135172262788">
        <ele>1768.3699999999999</ele>
        <time>2021-08-29T12:28:52Z</time>
      </trkpt>
      <trkpt lat="45.949661834165454" lon="9.512174818664789">
        <ele>1766.23</ele>
        <time>2021-08-29T12:29:02Z</time>
      </trkpt>
      <trkpt lat="45.949596539139748" lon="9.51226182281971">
        <ele>1767.26</ele>
        <time>2021-08-29T12:29:12Z</time>
      </trkpt>
      <trkpt lat="45.949586313217878" lon="9.512267941609025">
        <ele>1766.4300000000001</ele>
        <time>2021-08-29T12:29:23Z</time>
      </trkpt>
      <trkpt lat="45.94952923245728" lon="9.51235368847847">
        <ele>1762.9100000000001</ele>
        <time>2021-08-29T12:29:32Z</time>
      </trkpt>
      <trkpt lat="45.949458237737417" lon="9.512416888028383">
        <ele>1763.45</ele>
        <time>2021-08-29T12:29:41Z</time>
      </trkpt>
      <trkpt lat="45.949396463111043" lon="9.512456702068448">
        <ele>1764.4100000000001</ele>
        <time>2021-08-29T12:29:50Z</time>
      </trkpt>
      <trkpt lat="45.949360420927405" lon="9.512518979609013">
        <ele>1767.3599999999999</ele>
        <time>2021-08-29T12:30:01Z</time>
      </trkpt>
      <trkpt lat="45.9493313357234" lon="9.512554435059428">
        <ele>1767.26</ele>
        <time>2021-08-29T12:30:10Z</time>
      </trkpt>
      <trkpt lat="45.949320774525404" lon="9.512578072026372">
        <ele>1766.49</ele>
        <time>2021-08-29T12:30:20Z</time>
      </trkpt>
      <trkpt lat="45.949278781190515" lon="9.512683600187302">
        <ele>1765.24</ele>
        <time>2021-08-29T12:30:31Z</time>
      </trkpt>
      <trkpt lat="45.949290934950113" lon="9.512702208012343">
        <ele>1765.78</ele>
        <time>2021-08-29T12:30:41Z</time>
      </trkpt>
      <trkpt lat="45.949274841696024" lon="9.512724839150906">
        <ele>1762.4300000000001</ele>
        <time>2021-08-29T12:30:50Z</time>
      </trkpt>
      <trkpt lat="45.949244415387511" lon="9.512771610170603">
        <ele>1761.8199999999999</ele>
        <time>2021-08-29T12:31:00Z</time>
      </trkpt>
      <trkpt lat="45.94918817281723" lon="9.512862218543887">
        <ele>1760.8800000000001</ele>
        <time>2021-08-29T12:31:09Z</time>
      </trkpt>
      <trkpt lat="45.949154561385512" lon="9.51293321326375">
        <ele>1762.28</ele>
        <time>2021-08-29T12:31:19Z</time>
      </trkpt>
      <trkpt lat="45.949141401797533" lon="9.512986270710826">
        <ele>1763.5799999999999</ele>
        <time>2021-08-29T12:31:29Z</time>
      </trkpt>
      <trkpt lat="45.949135618284345" lon="9.512998592108488">
        <ele>1765.3699999999999</ele>
        <time>2021-08-29T12:31:40Z</time>
      </trkpt>
      <trkpt lat="45.949126398190856" lon="9.513015272095799">
        <ele>1765.4000000000001</ele>
        <time>2021-08-29T12:31:49Z</time>
      </trkpt>
      <trkpt lat="45.949121536687016" lon="9.513030694797635">
        <ele>1767.0799999999999</ele>
        <time>2021-08-29T12:31:59Z</time>
      </trkpt>
      <trkpt lat="45.949120027944446" lon="9.51310713775456">
        <ele>1767.99</ele>
        <time>2021-08-29T12:32:08Z</time>
      </trkpt>
      <trkpt lat="45.949081387370825" lon="9.51316530816257">
        <ele>1767.3699999999999</ele>
        <time>2021-08-29T12:32:18Z</time>
      </trkpt>
      <trkpt lat="45.949064372107387" lon="9.513231441378593">
        <ele>1768.96</ele>
        <time>2021-08-29T12:32:28Z</time>
      </trkpt>
      <trkpt lat="45.949067138135433" lon="9.513291539624333">
        <ele>1770.0999999999999</ele>
        <time>2021-08-29T12:32:37Z</time>
      </trkpt>
      <trkpt lat="45.949057834222913" lon="9.513304783031344">
        <ele>1770.76</ele>
        <time>2021-08-29T12:32:47Z</time>
      </trkpt>
      <trkpt lat="45.949067641049623" lon="9.51332020573318">
        <ele>1772.3399999999999</ele>
        <time>2021-08-29T12:33:03Z</time>
      </trkpt>
      <trkpt lat="45.949035873636603" lon="9.513330683112145">
        <ele>1774.4200000000001</ele>
        <time>2021-08-29T12:33:21Z</time>
      </trkpt>
      <trkpt lat="45.949024641886353" lon="9.513333616778255">
        <ele>1774.9400000000001</ele>
        <time>2021-08-29T12:33:31Z</time>
      </trkpt>
      <trkpt lat="45.949013493955135" lon="9.513424560427666">
        <ele>1778.3499999999999</ele>
        <time>2021-08-29T12:33:40Z</time>
      </trkpt>
      <trkpt lat="45.949030760675669" lon="9.513470409438014">
        <ele>1775.8499999999999</ele>
        <time>2021-08-29T12:33:49Z</time>
      </trkpt>
      <trkpt lat="45.949055906385183" lon="9.513481222093105">
        <ele>1776.97</ele>
        <time>2021-08-29T12:33:58Z</time>
      </trkpt>
      <trkpt lat="45.949094882234931" lon="9.51351810246706">
        <ele>1778.3299999999999</ele>
        <time>2021-08-29T12:34:08Z</time>
      </trkpt>
      <trkpt lat="45.94911633990705" lon="9.513593204319477">
        <ele>1775.97</ele>
        <time>2021-08-29T12:34:17Z</time>
      </trkpt>
      <trkpt lat="45.9491310082376" lon="9.513625474646688">
        <ele>1780.3</ele>
        <time>2021-08-29T12:34:28Z</time>
      </trkpt>
      <trkpt lat="45.949147269129753" lon="9.51365003362298">
        <ele>1780.72</ele>
        <time>2021-08-29T12:34:38Z</time>
      </trkpt>
      <trkpt lat="45.949156573042274" lon="9.51364609412849">
        <ele>1779.9200000000001</ele>
        <time>2021-08-29T12:34:52Z</time>
      </trkpt>
      <trkpt lat="45.949170906096697" lon="9.513690434396267">
        <ele>1780.98</ele>
        <time>2021-08-29T12:35:02Z</time>
      </trkpt>
      <trkpt lat="45.949221616610885" lon="9.513754388317466">
        <ele>1778.74</ele>
        <time>2021-08-29T12:35:12Z</time>
      </trkpt>
      <trkpt lat="45.949276769533753" lon="9.513777941465378">
        <ele>1780.54</ele>
        <time>2021-08-29T12:35:22Z</time>
      </trkpt>
      <trkpt lat="45.949340304359794" lon="9.513734020292759">
        <ele>1782.1900000000001</ele>
        <time>2021-08-29T12:35:31Z</time>
      </trkpt>
      <trkpt lat="45.949310967698693" lon="9.513724464923143">
        <ele>1781.6900000000001</ele>
        <time>2021-08-29T12:35:41Z</time>
      </trkpt>
      <trkpt lat="45.949325300753117" lon="9.513752376660705">
        <ele>1780.8099999999999</ele>
        <time>2021-08-29T12:35:51Z</time>
      </trkpt>
      <trkpt lat="45.949354385957122" lon="9.513834100216627">
        <ele>1781.28</ele>
        <time>2021-08-29T12:36:00Z</time>
      </trkpt>
      <trkpt lat="45.949421525001526" lon="9.513858575373888">
        <ele>1780.55</ele>
        <time>2021-08-29T12:36:09Z</time>
      </trkpt>
      <trkpt lat="45.949517078697681" lon="9.513838291168213">
        <ele>1779.1300000000001</ele>
        <time>2021-08-29T12:36:19Z</time>
      </trkpt>
      <trkpt lat="45.949533926323056" lon="9.513815408572555">
        <ele>1781.29</ele>
        <time>2021-08-29T12:36:29Z</time>
      </trkpt>
      <trkpt lat="45.949517330154777" lon="9.513838374987245">
        <ele>1782.3299999999999</ele>
        <time>2021-08-29T12:36:38Z</time>
      </trkpt>
      <trkpt lat="45.949507439509034" lon="9.513848517090082">
        <ele>1785.1600000000001</ele>
        <time>2021-08-29T12:36:47Z</time>
      </trkpt>
      <trkpt lat="45.949510959908366" lon="9.513865867629647">
        <ele>1780.9400000000001</ele>
        <time>2021-08-29T12:36:56Z</time>
      </trkpt>
      <trkpt lat="45.9495316632092" lon="9.514034762978554">
        <ele>1777.4300000000001</ele>
        <time>2021-08-29T12:37:06Z</time>
      </trkpt>
      <trkpt lat="45.949473828077316" lon="9.514103913679719">
        <ele>1773.6400000000001</ele>
        <time>2021-08-29T12:37:16Z</time>
      </trkpt>
      <trkpt lat="45.94946519471705" lon="9.514108607545495">
        <ele>1772.6800000000001</ele>
        <time>2021-08-29T12:37:25Z</time>
      </trkpt>
      <trkpt lat="45.94946569763124" lon="9.514122689142823">
        <ele>1775.9100000000001</ele>
        <time>2021-08-29T12:37:37Z</time>
      </trkpt>
      <trkpt lat="45.949458824470639" lon="9.514155378565192">
        <ele>1770.72</ele>
        <time>2021-08-29T12:37:46Z</time>
      </trkpt>
      <trkpt lat="45.949497716501355" lon="9.514164682477713">
        <ele>1769.9200000000001</ele>
        <time>2021-08-29T12:37:56Z</time>
      </trkpt>
      <trkpt lat="45.949462680146098" lon="9.514261661097407">
        <ele>1773.7</ele>
        <time>2021-08-29T12:38:05Z</time>
      </trkpt>
      <trkpt lat="45.949392691254616" lon="9.514223104342818">
        <ele>1787.99</ele>
        <time>2021-08-29T12:38:15Z</time>
      </trkpt>
      <trkpt lat="45.949329324066639" lon="9.514224864542484">
        <ele>1795.1099999999999</ele>
        <time>2021-08-29T12:38:25Z</time>
      </trkpt>
      <trkpt lat="45.949299735948443" lon="9.514264427125454">
        <ele>1793.54</ele>
        <time>2021-08-29T12:38:34Z</time>
      </trkpt>
      <trkpt lat="45.949324294924736" lon="9.514285381883383">
        <ele>1795.28</ele>
        <time>2021-08-29T12:38:44Z</time>
      </trkpt>
      <trkpt lat="45.949326306581497" lon="9.514321926981211">
        <ele>1791.6900000000001</ele>
        <time>2021-08-29T12:38:54Z</time>
      </trkpt>
      <trkpt lat="45.949344495311379" lon="9.514379510655999">
        <ele>1788.1900000000001</ele>
        <time>2021-08-29T12:39:03Z</time>
      </trkpt>
      <trkpt lat="45.949323289096355" lon="9.514426281675696">
        <ele>1794.9400000000001</ele>
        <time>2021-08-29T12:39:14Z</time>
      </trkpt>
      <trkpt lat="45.949287498369813" lon="9.514431729912758">
        <ele>1797.9100000000001</ele>
        <time>2021-08-29T12:39:24Z</time>
      </trkpt>
      <trkpt lat="45.949230333790183" lon="9.514452517032623">
        <ele>1796.8599999999999</ele>
        <time>2021-08-29T12:39:34Z</time>
      </trkpt>
      <trkpt lat="45.949266292154789" lon="9.514497108757496">
        <ele>1798.75</ele>
        <time>2021-08-29T12:39:44Z</time>
      </trkpt>
      <trkpt lat="45.949215078726411" lon="9.514538682997227">
        <ele>1791.27</ele>
        <time>2021-08-29T12:39:54Z</time>
      </trkpt>
      <trkpt lat="45.949212480336428" lon="9.514586124569178">
        <ele>1794.01</ele>
        <time>2021-08-29T12:40:04Z</time>
      </trkpt>
      <trkpt lat="45.9492052718997" lon="9.514576233923435">
        <ele>1794.5899999999999</ele>
        <time>2021-08-29T12:40:15Z</time>
      </trkpt>
      <trkpt lat="45.949249025434256" lon="9.514473471790552">
        <ele>1797.6300000000001</ele>
        <time>2021-08-29T12:40:25Z</time>
      </trkpt>
      <trkpt lat="45.949195800349116" lon="9.514359729364514">
        <ele>1808.9200000000001</ele>
        <time>2021-08-29T12:40:35Z</time>
      </trkpt>
      <trkpt lat="45.949250534176826" lon="9.514378001913428">
        <ele>1807.9000000000001</ele>
        <time>2021-08-29T12:40:45Z</time>
      </trkpt>
      <trkpt lat="45.949199991300702" lon="9.514463916420937">
        <ele>1804.8800000000001</ele>
        <time>2021-08-29T12:40:55Z</time>
      </trkpt>
      <trkpt lat="45.949179623275995" lon="9.514499790966511">
        <ele>1805.22</ele>
        <time>2021-08-29T12:41:04Z</time>
      </trkpt>
      <trkpt lat="45.949171409010887" lon="9.514507669955492">
        <ele>1805.49</ele>
        <time>2021-08-29T12:41:17Z</time>
      </trkpt>
      <trkpt lat="45.949175180867314" lon="9.514590399339795">
        <ele>1797.6199999999999</ele>
        <time>2021-08-29T12:41:27Z</time>
      </trkpt>
      <trkpt lat="45.949191190302372" lon="9.51463557779789">
        <ele>1795.96</ele>
        <time>2021-08-29T12:41:37Z</time>
      </trkpt>
      <trkpt lat="45.949197141453624" lon="9.514653012156487">
        <ele>1798.1600000000001</ele>
        <time>2021-08-29T12:41:47Z</time>
      </trkpt>
      <trkpt lat="45.949198817834258" lon="9.51466977596283">
        <ele>1791.6400000000001</ele>
        <time>2021-08-29T12:42:05Z</time>
      </trkpt>
      <trkpt lat="45.949208792299032" lon="9.514754014089704">
        <ele>1791.6800000000001</ele>
        <time>2021-08-29T12:42:15Z</time>
      </trkpt>
      <trkpt lat="45.949248103424907" lon="9.514710260555148">
        <ele>1786.97</ele>
        <time>2021-08-29T12:42:25Z</time>
      </trkpt>
      <trkpt lat="45.94924190081656" lon="9.514720737934113">
        <ele>1788.25</ele>
        <time>2021-08-29T12:42:36Z</time>
      </trkpt>
      <trkpt lat="45.949213402345777" lon="9.514654939994216">
        <ele>1789.5599999999999</ele>
        <time>2021-08-29T12:42:46Z</time>
      </trkpt>
      <trkpt lat="45.949189681559801" lon="9.514645636081696">
        <ele>1787.97</ele>
        <time>2021-08-29T12:42:56Z</time>
      </trkpt>
      <trkpt lat="45.949108125641942" lon="9.514603391289711">
        <ele>1786.6800000000001</ele>
        <time>2021-08-29T12:43:06Z</time>
      </trkpt>
      <trkpt lat="45.949142407625914" lon="9.514665920287371">
        <ele>1792.4400000000001</ele>
        <time>2021-08-29T12:43:15Z</time>
      </trkpt>
      <trkpt lat="45.949132516980171" lon="9.514678325504065">
        <ele>1783.5899999999999</ele>
        <time>2021-08-29T12:43:25Z</time>
      </trkpt>
      <trkpt lat="45.94911877065897" lon="9.514722330495715">
        <ele>1786.71</ele>
        <time>2021-08-29T12:43:35Z</time>
      </trkpt>
      <trkpt lat="45.949117764830589" lon="9.514707494527102">
        <ele>1787.0599999999999</ele>
        <time>2021-08-29T12:43:45Z</time>
      </trkpt>
      <trkpt lat="45.94912463799119" lon="9.514694921672344">
        <ele>1786.6300000000001</ele>
        <time>2021-08-29T12:44:08Z</time>
      </trkpt>
      <trkpt lat="45.949126062914729" lon="9.514664579182863">
        <ele>1788.76</ele>
        <time>2021-08-29T12:44:18Z</time>
      </trkpt>
      <trkpt lat="45.949083315208554" lon="9.514626692980528">
        <ele>1791.76</ele>
        <time>2021-08-29T12:44:27Z</time>
      </trkpt>
      <trkpt lat="45.949074681848288" lon="9.514608168974519">
        <ele>1791.21</ele>
        <time>2021-08-29T12:44:37Z</time>
      </trkpt>
      <trkpt lat="45.949025228619576" lon="9.514610096812248">
        <ele>1790.3599999999999</ele>
        <time>2021-08-29T12:44:47Z</time>
      </trkpt>
      <trkpt lat="45.949024306610227" lon="9.514650665223599">
        <ele>1793.0799999999999</ele>
        <time>2021-08-29T12:44:57Z</time>
      </trkpt>
      <trkpt lat="45.949014583602548" lon="9.514650413766503">
        <ele>1789.4100000000001</ele>
        <time>2021-08-29T12:45:15Z</time>
      </trkpt>
      <trkpt lat="45.948996311053634" lon="9.514650581404567">
        <ele>1791.1600000000001</ele>
        <time>2021-08-29T12:45:25Z</time>
      </trkpt>
      <trkpt lat="45.94898097217083" lon="9.514647228643298">
        <ele>1787.8800000000001</ele>
        <time>2021-08-29T12:45:36Z</time>
      </trkpt>
      <trkpt lat="45.948936212807894" lon="9.514648234471679">
        <ele>1791.77</ele>
        <time>2021-08-29T12:45:45Z</time>
      </trkpt>
      <trkpt lat="45.948893800377846" lon="9.514634236693382">
        <ele>1788.8800000000001</ele>
        <time>2021-08-29T12:45:56Z</time>
      </trkpt>
      <trkpt lat="45.948884496465325" lon="9.514629794284701">
        <ele>1795.05</ele>
        <time>2021-08-29T12:46:10Z</time>
      </trkpt>
      <trkpt lat="45.948873264715075" lon="9.514610012993217">
        <ele>1799.55</ele>
        <time>2021-08-29T12:46:20Z</time>
      </trkpt>
      <trkpt lat="45.948865385726094" lon="9.514621663838625">
        <ele>1796.2</ele>
        <time>2021-08-29T12:47:07Z</time>
      </trkpt>
      <trkpt lat="45.948842084035277" lon="9.514644462615252">
        <ele>1797.7</ele>
        <time>2021-08-29T12:47:16Z</time>
      </trkpt>
      <trkpt lat="45.948845772072673" lon="9.514662735164166">
        <ele>1796.77</ele>
        <time>2021-08-29T12:47:42Z</time>
      </trkpt>
      <trkpt lat="45.94884711317718" lon="9.514711014926434">
        <ele>1797.3499999999999</ele>
        <time>2021-08-29T12:47:52Z</time>
      </trkpt>
      <trkpt lat="45.948817441239953" lon="9.51477287337184">
        <ele>1793.98</ele>
        <time>2021-08-29T12:48:02Z</time>
      </trkpt>
      <trkpt lat="45.948805874213576" lon="9.514786619693041">
        <ele>1795.77</ele>
        <time>2021-08-29T12:48:11Z</time>
      </trkpt>
      <trkpt lat="45.948789026588202" lon="9.514848478138447">
        <ele>1795.96</ele>
        <time>2021-08-29T12:48:21Z</time>
      </trkpt>
      <trkpt lat="45.948774861171842" lon="9.514908073469997">
        <ele>1798.6900000000001</ele>
        <time>2021-08-29T12:48:31Z</time>
      </trkpt>
      <trkpt lat="45.948755918070674" lon="9.51490773819387">
        <ele>1803.8499999999999</ele>
        <time>2021-08-29T12:48:40Z</time>
      </trkpt>
      <trkpt lat="45.948713840916753" lon="9.51497127301991">
        <ele>1802.01</ele>
        <time>2021-08-29T12:48:50Z</time>
      </trkpt>
      <trkpt lat="45.948696741834283" lon="9.515009159222245">
        <ele>1804.54</ele>
        <time>2021-08-29T12:48:59Z</time>
      </trkpt>
      <trkpt lat="45.948677128180861" lon="9.515065234154463">
        <ele>1803.6400000000001</ele>
        <time>2021-08-29T12:49:08Z</time>
      </trkpt>
      <trkpt lat="45.948671931400895" lon="9.515086440369487">
        <ele>1802.49</ele>
        <time>2021-08-29T12:49:18Z</time>
      </trkpt>
      <trkpt lat="45.94865701161325" lon="9.51513254083693">
        <ele>1803.6600000000001</ele>
        <time>2021-08-29T12:49:28Z</time>
      </trkpt>
      <trkpt lat="45.948654161766171" lon="9.515149220824242">
        <ele>1805.6600000000001</ele>
        <time>2021-08-29T12:49:38Z</time>
      </trkpt>
      <trkpt lat="45.94866237603128" lon="9.515175204724073">
        <ele>1809.46</ele>
        <time>2021-08-29T12:49:47Z</time>
      </trkpt>
      <trkpt lat="45.948652904480696" lon="9.515190878883004">
        <ele>1806.49</ele>
        <time>2021-08-29T12:49:57Z</time>
      </trkpt>
      <trkpt lat="45.948653491213918" lon="9.515207726508379">
        <ele>1808.3699999999999</ele>
        <time>2021-08-29T12:50:09Z</time>
      </trkpt>
      <trkpt lat="45.948653575032949" lon="9.515307303518057">
        <ele>1807.1600000000001</ele>
        <time>2021-08-29T12:50:18Z</time>
      </trkpt>
      <trkpt lat="45.948631195351481" lon="9.515367485582829">
        <ele>1812.6800000000001</ele>
        <time>2021-08-29T12:50:28Z</time>
      </trkpt>
      <trkpt lat="45.948602110147476" lon="9.515441581606865">
        <ele>1810.6199999999999</ele>
        <time>2021-08-29T12:50:38Z</time>
      </trkpt>
      <trkpt lat="45.94860278069973" lon="9.515466224402189">
        <ele>1812.98</ele>
        <time>2021-08-29T12:50:49Z</time>
      </trkpt>
      <trkpt lat="45.94860571436584" lon="9.515479635447264">
        <ele>1814.6300000000001</ele>
        <time>2021-08-29T12:51:02Z</time>
      </trkpt>
      <trkpt lat="45.948610659688711" lon="9.5155727583915">
        <ele>1808.8900000000001</ele>
        <time>2021-08-29T12:51:12Z</time>
      </trkpt>
      <trkpt lat="45.948616694658995" lon="9.515707790851593">
        <ele>1814</ele>
        <time>2021-08-29T12:51:22Z</time>
      </trkpt>
      <trkpt lat="45.948572605848312" lon="9.515781970694661">
        <ele>1819.72</ele>
        <time>2021-08-29T12:51:32Z</time>
      </trkpt>
      <trkpt lat="45.948550561442971" lon="9.515831004828215">
        <ele>1818.1500000000001</ele>
        <time>2021-08-29T12:51:42Z</time>
      </trkpt>
      <trkpt lat="45.948561541736126" lon="9.515825640410185">
        <ele>1821.3</ele>
        <time>2021-08-29T12:51:56Z</time>
      </trkpt>
      <trkpt lat="45.9485939797014" lon="9.51579068787396">
        <ele>1818.74</ele>
        <time>2021-08-29T12:52:06Z</time>
      </trkpt>
      <trkpt lat="45.948585597798228" lon="9.515839470550418">
        <ele>1817.1300000000001</ele>
        <time>2021-08-29T12:52:16Z</time>
      </trkpt>
      <trkpt lat="45.948613341897726" lon="9.515951117500663">
        <ele>1815.78</ele>
        <time>2021-08-29T12:52:25Z</time>
      </trkpt>
      <trkpt lat="45.948629938066006" lon="9.516015322878957">
        <ele>1813.6700000000001</ele>
        <time>2021-08-29T12:52:34Z</time>
      </trkpt>
      <trkpt lat="45.948625411838293" lon="9.516088329255581">
        <ele>1807.48</ele>
        <time>2021-08-29T12:52:43Z</time>
      </trkpt>
      <trkpt lat="45.948602529242635" lon="9.516183715313673">
        <ele>1804.9300000000001</ele>
        <time>2021-08-29T12:52:53Z</time>
      </trkpt>
      <trkpt lat="45.948564810678363" lon="9.51622461900115">
        <ele>1803.6700000000001</ele>
        <time>2021-08-29T12:53:03Z</time>
      </trkpt>
      <trkpt lat="45.948513681069016" lon="9.516259236261249">
        <ele>1804.52</ele>
        <time>2021-08-29T12:53:12Z</time>
      </trkpt>
      <trkpt lat="45.948455678299069" lon="9.516309360042214">
        <ele>1807.1600000000001</ele>
        <time>2021-08-29T12:53:22Z</time>
      </trkpt>
      <trkpt lat="45.94844151288271" lon="9.516312712803483">
        <ele>1808.5899999999999</ele>
        <time>2021-08-29T12:53:32Z</time>
      </trkpt>
      <trkpt lat="45.948449727147818" lon="9.516328135505319">
        <ele>1804.21</ele>
        <time>2021-08-29T12:53:42Z</time>
      </trkpt>
      <trkpt lat="45.948400776833296" lon="9.516378259286284">
        <ele>1807.1600000000001</ele>
        <time>2021-08-29T12:53:51Z</time>
      </trkpt>
      <trkpt lat="45.948347300291061" lon="9.516473477706313">
        <ele>1806.8699999999999</ele>
        <time>2021-08-29T12:54:01Z</time>
      </trkpt>
      <trkpt lat="45.948373284190893" lon="9.516477920114994">
        <ele>1805.1300000000001</ele>
        <time>2021-08-29T12:54:11Z</time>
      </trkpt>
      <trkpt lat="45.948398681357503" lon="9.516480434685946">
        <ele>1804.53</ele>
        <time>2021-08-29T12:54:24Z</time>
      </trkpt>
      <trkpt lat="45.94841318204999" lon="9.516482530161738">
        <ele>1803.4000000000001</ele>
        <time>2021-08-29T12:54:34Z</time>
      </trkpt>
      <trkpt lat="45.948416534811258" lon="9.516504490748048">
        <ele>1804.0899999999999</ele>
        <time>2021-08-29T12:54:47Z</time>
      </trkpt>
      <trkpt lat="45.948393400758505" lon="9.516609683632851">
        <ele>1803.4000000000001</ele>
        <time>2021-08-29T12:54:56Z</time>
      </trkpt>
      <trkpt lat="45.94835408963263" lon="9.516627285629511">
        <ele>1807.3499999999999</ele>
        <time>2021-08-29T12:55:05Z</time>
      </trkpt>
      <trkpt lat="45.948349731042981" lon="9.516647569835186">
        <ele>1808.01</ele>
        <time>2021-08-29T12:55:14Z</time>
      </trkpt>
      <trkpt lat="45.948332380503416" lon="9.51668243855238">
        <ele>1814.4300000000001</ele>
        <time>2021-08-29T12:55:24Z</time>
      </trkpt>
      <trkpt lat="45.948309497907758" lon="9.516682690009475">
        <ele>1815.9100000000001</ele>
        <time>2021-08-29T12:55:34Z</time>
      </trkpt>
      <trkpt lat="45.94833891838789" lon="9.516744716092944">
        <ele>1812.0999999999999</ele>
        <time>2021-08-29T12:55:44Z</time>
      </trkpt>
      <trkpt lat="45.948318131268024" lon="9.516784781590104">
        <ele>1811.47</ele>
        <time>2021-08-29T12:55:54Z</time>
      </trkpt>
      <trkpt lat="45.94829399138689" lon="9.516827780753374">
        <ele>1810.75</ele>
        <time>2021-08-29T12:56:04Z</time>
      </trkpt>
      <trkpt lat="45.948276473209262" lon="9.516829876229167">
        <ele>1809.73</ele>
        <time>2021-08-29T12:56:13Z</time>
      </trkpt>
      <trkpt lat="45.948264906182885" lon="9.516834486275911">
        <ele>1809.72</ele>
        <time>2021-08-29T12:56:22Z</time>
      </trkpt>
      <trkpt lat="45.948188295587897" lon="9.516829708591104">
        <ele>1808.51</ele>
        <time>2021-08-29T12:56:32Z</time>
      </trkpt>
      <trkpt lat="45.948150912299752" lon="9.516875222325325">
        <ele>1808.3399999999999</ele>
        <time>2021-08-29T12:56:42Z</time>
      </trkpt>
      <trkpt lat="45.948123000562191" lon="9.51687203720212">
        <ele>1809.5999999999999</ele>
        <time>2021-08-29T12:56:51Z</time>
      </trkpt>
      <trkpt lat="45.948089808225632" lon="9.516902379691601">
        <ele>1810.1600000000001</ele>
        <time>2021-08-29T12:57:01Z</time>
      </trkpt>
      <trkpt lat="45.948053514584899" lon="9.516859212890267">
        <ele>1810.8800000000001</ele>
        <time>2021-08-29T12:57:11Z</time>
      </trkpt>
      <trkpt lat="45.948047814890742" lon="9.516846723854542">
        <ele>1815.3900000000001</ele>
        <time>2021-08-29T12:57:20Z</time>
      </trkpt>
      <trkpt lat="45.948034403845668" lon="9.516836162656546">
        <ele>1814.7</ele>
        <time>2021-08-29T12:57:29Z</time>
      </trkpt>
      <trkpt lat="45.94800079241395" lon="9.516834737733007">
        <ele>1816.95</ele>
        <time>2021-08-29T12:57:40Z</time>
      </trkpt>
      <trkpt lat="45.948003977537155" lon="9.516852339729667">
        <ele>1818.04</ele>
        <time>2021-08-29T12:57:50Z</time>
      </trkpt>
      <trkpt lat="45.948009509593248" lon="9.516875976696611">
        <ele>1819.3699999999999</ele>
        <time>2021-08-29T12:58:07Z</time>
      </trkpt>
      <trkpt lat="45.948003977537155" lon="9.516931381076574">
        <ele>1818.96</ele>
        <time>2021-08-29T12:58:17Z</time>
      </trkpt>
      <trkpt lat="45.947994505986571" lon="9.516942612826824">
        <ele>1825.3199999999999</ele>
        <time>2021-08-29T12:58:44Z</time>
      </trkpt>
      <trkpt lat="45.947936084121466" lon="9.516939762979746">
        <ele>1826.3800000000001</ele>
        <time>2021-08-29T12:58:54Z</time>
      </trkpt>
      <trkpt lat="45.947922421619296" lon="9.516942696645856">
        <ele>1827.6600000000001</ele>
        <time>2021-08-29T12:59:04Z</time>
      </trkpt>
      <trkpt lat="45.947895767167211" lon="9.516929034143686">
        <ele>1830.25</ele>
        <time>2021-08-29T12:59:13Z</time>
      </trkpt>
      <trkpt lat="45.9478825237602" lon="9.516916796565056">
        <ele>1828.4000000000001</ele>
        <time>2021-08-29T12:59:23Z</time>
      </trkpt>
      <trkpt lat="45.947874309495091" lon="9.516909001395106">
        <ele>1830.3099999999999</ele>
        <time>2021-08-29T12:59:37Z</time>
      </trkpt>
      <trkpt lat="45.947848493233323" lon="9.516910091042519">
        <ele>1828.8099999999999</ele>
        <time>2021-08-29T12:59:47Z</time>
      </trkpt>
      <trkpt lat="45.947832819074392" lon="9.516912270337343">
        <ele>1829.8499999999999</ele>
        <time>2021-08-29T12:59:57Z</time>
      </trkpt>
      <trkpt lat="45.947817731648684" lon="9.516904475167394">
        <ele>1835.6500000000001</ele>
        <time>2021-08-29T13:00:36Z</time>
      </trkpt>
      <trkpt lat="45.947747323662043" lon="9.516884693875909">
        <ele>1835.48</ele>
        <time>2021-08-29T13:00:46Z</time>
      </trkpt>
      <trkpt lat="45.947738271206617" lon="9.51687446795404">
        <ele>1838.46</ele>
        <time>2021-08-29T13:00:58Z</time>
      </trkpt>
      <trkpt lat="45.947693008929491" lon="9.516827361658216">
        <ele>1839.1400000000001</ele>
        <time>2021-08-29T13:01:09Z</time>
      </trkpt>
      <trkpt lat="45.947657469660044" lon="9.516766173765063">
        <ele>1840.52</ele>
        <time>2021-08-29T13:01:18Z</time>
      </trkpt>
      <trkpt lat="45.94757616519928" lon="9.516831804066896">
        <ele>1841.4000000000001</ele>
        <time>2021-08-29T13:01:27Z</time>
      </trkpt>
      <trkpt lat="45.947538865730166" lon="9.516858290880919">
        <ele>1839.03</ele>
        <time>2021-08-29T13:01:37Z</time>
      </trkpt>
      <trkpt lat="45.947510618716478" lon="9.516897015273571">
        <ele>1839.29</ele>
        <time>2021-08-29T13:01:46Z</time>
      </trkpt>
      <trkpt lat="45.947440126910806" lon="9.516999861225486">
        <ele>1841.2</ele>
        <time>2021-08-29T13:01:55Z</time>
      </trkpt>
      <trkpt lat="45.947373658418655" lon="9.517039926722646">
        <ele>1843.0799999999999</ele>
        <time>2021-08-29T13:02:05Z</time>
      </trkpt>
      <trkpt lat="45.947316661477089" lon="9.517086362466216">
        <ele>1840.27</ele>
        <time>2021-08-29T13:02:14Z</time>
      </trkpt>
      <trkpt lat="45.947300232946873" lon="9.517104383558035">
        <ele>1842.27</ele>
        <time>2021-08-29T13:02:23Z</time>
      </trkpt>
      <trkpt lat="45.947255808860064" lon="9.517189878970385">
        <ele>1843.6099999999999</ele>
        <time>2021-08-29T13:02:33Z</time>
      </trkpt>
      <trkpt lat="45.947210881859064" lon="9.517300436273217">
        <ele>1844.9000000000001</ele>
        <time>2021-08-29T13:02:43Z</time>
      </trkpt>
      <trkpt lat="45.947169810533524" lon="9.517365312203765">
        <ele>1845.79</ele>
        <time>2021-08-29T13:02:52Z</time>
      </trkpt>
      <trkpt lat="45.947154304012656" lon="9.517413759604096">
        <ele>1844.5</ele>
        <time>2021-08-29T13:03:02Z</time>
      </trkpt>
      <trkpt lat="45.947135696187615" lon="9.51749213039875">
        <ele>1845.51</ele>
        <time>2021-08-29T13:03:12Z</time>
      </trkpt>
      <trkpt lat="45.947152459993958" lon="9.517505960538983">
        <ele>1842.8199999999999</ele>
        <time>2021-08-29T13:03:22Z</time>
      </trkpt>
      <trkpt lat="45.947151035070419" lon="9.517522808164358">
        <ele>1841.97</ele>
        <time>2021-08-29T13:03:54Z</time>
      </trkpt>
      <trkpt lat="45.947137288749218" lon="9.517683070152998">
        <ele>1841.45</ele>
        <time>2021-08-29T13:04:03Z</time>
      </trkpt>
      <trkpt lat="45.947094792500138" lon="9.517750795930624">
        <ele>1839.7</ele>
        <time>2021-08-29T13:04:13Z</time>
      </trkpt>
      <trkpt lat="45.947103258222342" lon="9.517740737646818">
        <ele>1839.54</ele>
        <time>2021-08-29T13:04:22Z</time>
      </trkpt>
      <trkpt lat="45.947058415040374" lon="9.517788598313928">
        <ele>1839.0599999999999</ele>
        <time>2021-08-29T13:04:32Z</time>
      </trkpt>
      <trkpt lat="45.946997059509158" lon="9.51786202378571">
        <ele>1839.8199999999999</ele>
        <time>2021-08-29T13:04:41Z</time>
      </trkpt>
      <trkpt lat="45.946963196620345" lon="9.517913991585374">
        <ele>1838.98</ele>
        <time>2021-08-29T13:04:51Z</time>
      </trkpt>
      <trkpt lat="45.946887759491801" lon="9.517944166436791">
        <ele>1840.3199999999999</ele>
        <time>2021-08-29T13:05:01Z</time>
      </trkpt>
      <trkpt lat="45.946808466687799" lon="9.518029326573014">
        <ele>1842.9200000000001</ele>
        <time>2021-08-29T13:05:10Z</time>
      </trkpt>
      <trkpt lat="45.946773262694478" lon="9.518104763701558">
        <ele>1836.9400000000001</ele>
        <time>2021-08-29T13:05:19Z</time>
      </trkpt>
      <trkpt lat="45.946715930476785" lon="9.518161593005061">
        <ele>1833.46</ele>
        <time>2021-08-29T13:05:29Z</time>
      </trkpt>
      <trkpt lat="45.946682402864099" lon="9.51820601709187">
        <ele>1834.71</ele>
        <time>2021-08-29T13:05:38Z</time>
      </trkpt>
      <trkpt lat="45.94664141535759" lon="9.518247004598379">
        <ele>1832.9200000000001</ele>
        <time>2021-08-29T13:05:47Z</time>
      </trkpt>
      <trkpt lat="45.946603193879128" lon="9.518309198319912">
        <ele>1833.2</ele>
        <time>2021-08-29T13:05:57Z</time>
      </trkpt>
      <trkpt lat="45.946613838896155" lon="9.518312718719244">
        <ele>1832.8800000000001</ele>
        <time>2021-08-29T13:06:07Z</time>
      </trkpt>
      <trkpt lat="45.946582909673452" lon="9.518353203311563">
        <ele>1833.22</ele>
        <time>2021-08-29T13:06:16Z</time>
      </trkpt>
      <trkpt lat="45.946566984057426" lon="9.518394526094198">
        <ele>1834.1400000000001</ele>
        <time>2021-08-29T13:06:26Z</time>
      </trkpt>
      <trkpt lat="45.946560865268111" lon="9.518454372882843">
        <ele>1835.8499999999999</ele>
        <time>2021-08-29T13:06:36Z</time>
      </trkpt>
      <trkpt lat="45.946566062048078" lon="9.518465269356966">
        <ele>1833.1099999999999</ele>
        <time>2021-08-29T13:06:46Z</time>
      </trkpt>
      <trkpt lat="45.946571510285139" lon="9.518480440601707">
        <ele>1834.3900000000001</ele>
        <time>2021-08-29T13:06:56Z</time>
      </trkpt>
      <trkpt lat="45.9465735219419" lon="9.518512459471822">
        <ele>1834.0599999999999</ele>
        <time>2021-08-29T13:08:06Z</time>
      </trkpt>
      <trkpt lat="45.946573773398995" lon="9.518666435033083">
        <ele>1835.3</ele>
        <time>2021-08-29T13:08:15Z</time>
      </trkpt>
      <trkpt lat="45.946613838896155" lon="9.518729215487838">
        <ele>1835.27</ele>
        <time>2021-08-29T13:08:24Z</time>
      </trkpt>
      <trkpt lat="45.946583664044738" lon="9.51880406588316">
        <ele>1833.4300000000001</ele>
        <time>2021-08-29T13:08:34Z</time>
      </trkpt>
      <trkpt lat="45.946590537205338" lon="9.518855698406696">
        <ele>1832.02</ele>
        <time>2021-08-29T13:08:44Z</time>
      </trkpt>
      <trkpt lat="45.946569498628378" lon="9.518932560458779">
        <ele>1830.75</ele>
        <time>2021-08-29T13:08:53Z</time>
      </trkpt>
      <trkpt lat="45.94658668152988" lon="9.51895309612155">
        <ele>1828.95</ele>
        <time>2021-08-29T13:09:02Z</time>
      </trkpt>
      <trkpt lat="45.946646025404334" lon="9.518996933475137">
        <ele>1826.78</ele>
        <time>2021-08-29T13:09:11Z</time>
      </trkpt>
      <trkpt lat="45.946691120043397" lon="9.51906206086278">
        <ele>1822.29</ele>
        <time>2021-08-29T13:09:20Z</time>
      </trkpt>
      <trkpt lat="45.946674104779959" lon="9.519181000068784">
        <ele>1823.3</ele>
        <time>2021-08-29T13:09:30Z</time>
      </trkpt>
      <trkpt lat="45.946661029011011" lon="9.519261466339231">
        <ele>1823.9000000000001</ele>
        <time>2021-08-29T13:09:40Z</time>
      </trkpt>
      <trkpt lat="45.946679636836052" lon="9.519345369189978">
        <ele>1821.8099999999999</ele>
        <time>2021-08-29T13:09:50Z</time>
      </trkpt>
      <trkpt lat="45.946717439219356" lon="9.519405467435718">
        <ele>1818.73</ele>
        <time>2021-08-29T13:09:59Z</time>
      </trkpt>
      <trkpt lat="45.946757504716516" lon="9.51943782158196">
        <ele>1818.5599999999999</ele>
        <time>2021-08-29T13:10:09Z</time>
      </trkpt>
      <trkpt lat="45.946803102269769" lon="9.519526502117515">
        <ele>1814.1300000000001</ele>
        <time>2021-08-29T13:10:19Z</time>
      </trkpt>
      <trkpt lat="45.946879461407661" lon="9.519561706110835">
        <ele>1813.04</ele>
        <time>2021-08-29T13:10:28Z</time>
      </trkpt>
      <trkpt lat="45.94691751524806" lon="9.519588779658079">
        <ele>1814.5799999999999</ele>
        <time>2021-08-29T13:10:37Z</time>
      </trkpt>
      <trkpt lat="45.946952467784286" lon="9.519622726365924">
        <ele>1812.02</ele>
        <time>2021-08-29T13:10:47Z</time>
      </trkpt>
      <trkpt lat="45.946997562423348" lon="9.519691541790962">
        <ele>1813.72</ele>
        <time>2021-08-29T13:10:56Z</time>
      </trkpt>
      <trkpt lat="45.947041735053062" lon="9.51976228505373">
        <ele>1810.8599999999999</ele>
        <time>2021-08-29T13:11:06Z</time>
      </trkpt>
      <trkpt lat="45.947064533829689" lon="9.519783575087786">
        <ele>1807.54</ele>
        <time>2021-08-29T13:11:16Z</time>
      </trkpt>
      <trkpt lat="45.947100911289454" lon="9.519860688596964">
        <ele>1809.5899999999999</ele>
        <time>2021-08-29T13:11:25Z</time>
      </trkpt>
      <trkpt lat="45.947162518277764" lon="9.519936880096793">
        <ele>1804.8299999999999</ele>
        <time>2021-08-29T13:11:35Z</time>
      </trkpt>
      <trkpt lat="45.947257904335856" lon="9.520010473206639">
        <ele>1806.51</ele>
        <time>2021-08-29T13:11:44Z</time>
      </trkpt>
      <trkpt lat="45.947328228503466" lon="9.520118180662394">
        <ele>1806.3299999999999</ele>
        <time>2021-08-29T13:11:54Z</time>
      </trkpt>
      <trkpt lat="45.947358319535851" lon="9.520204430446029">
        <ele>1805.9100000000001</ele>
        <time>2021-08-29T13:12:04Z</time>
      </trkpt>
      <trkpt lat="45.94739050604403" lon="9.520249273627996">
        <ele>1801.55</ele>
        <time>2021-08-29T13:12:13Z</time>
      </trkpt>
      <trkpt lat="45.947409616783261" lon="9.520332170650363">
        <ele>1800.6500000000001</ele>
        <time>2021-08-29T13:12:23Z</time>
      </trkpt>
      <trkpt lat="45.947400229051709" lon="9.520341223105788">
        <ele>1803.4200000000001</ele>
        <time>2021-08-29T13:12:33Z</time>
      </trkpt>
      <trkpt lat="45.947408527135849" lon="9.520348599180579">
        <ele>1801.02</ele>
        <time>2021-08-29T13:12:43Z</time>
      </trkpt>
      <trkpt lat="45.947425290942192" lon="9.520375085994601">
        <ele>1802.96</ele>
        <time>2021-08-29T13:12:53Z</time>
      </trkpt>
      <trkpt lat="45.947420261800289" lon="9.52039017342031">
        <ele>1804.3299999999999</ele>
        <time>2021-08-29T13:13:08Z</time>
      </trkpt>
      <trkpt lat="45.947421938180923" lon="9.520456893369556">
        <ele>1802.0999999999999</ele>
        <time>2021-08-29T13:13:17Z</time>
      </trkpt>
      <trkpt lat="45.947439875453711" lon="9.520516321063042">
        <ele>1801.8399999999999</ele>
        <time>2021-08-29T13:13:26Z</time>
      </trkpt>
      <trkpt lat="45.947447335347533" lon="9.520551692694426">
        <ele>1799.52</ele>
        <time>2021-08-29T13:13:36Z</time>
      </trkpt>
      <trkpt lat="45.947460997849703" lon="9.520591758191586">
        <ele>1798.03</ele>
        <time>2021-08-29T13:13:45Z</time>
      </trkpt>
      <trkpt lat="45.947502320632339" lon="9.520722683519125">
        <ele>1797.1600000000001</ele>
        <time>2021-08-29T13:13:55Z</time>
      </trkpt>
      <trkpt lat="45.947516988962889" lon="9.520857129245997">
        <ele>1794.48</ele>
        <time>2021-08-29T13:14:05Z</time>
      </trkpt>
      <trkpt lat="45.947517994791269" lon="9.521026778966188">
        <ele>1793.03</ele>
        <time>2021-08-29T13:14:15Z</time>
      </trkpt>
      <trkpt lat="45.947526711970568" lon="9.521158458665013">
        <ele>1794.8699999999999</ele>
        <time>2021-08-29T13:14:24Z</time>
      </trkpt>
      <trkpt lat="45.947533920407295" lon="9.521291228011251">
        <ele>1789.4400000000001</ele>
        <time>2021-08-29T13:14:34Z</time>
      </trkpt>
      <trkpt lat="45.947563089430332" lon="9.521437995135784">
        <ele>1791.52</ele>
        <time>2021-08-29T13:14:43Z</time>
      </trkpt>
      <trkpt lat="45.947592761367559" lon="9.521555425599217">
        <ele>1786.26</ele>
        <time>2021-08-29T13:14:53Z</time>
      </trkpt>
      <trkpt lat="45.947593431919813" lon="9.521682830527425">
        <ele>1788.6600000000001</ele>
        <time>2021-08-29T13:15:02Z</time>
      </trkpt>
      <trkpt lat="45.947578176856041" lon="9.521810989826918">
        <ele>1792.3800000000001</ele>
        <time>2021-08-29T13:15:12Z</time>
      </trkpt>
      <trkpt lat="45.947615560144186" lon="9.521920876577497">
        <ele>1791.3800000000001</ele>
        <time>2021-08-29T13:15:21Z</time>
      </trkpt>
      <trkpt lat="45.947595778852701" lon="9.522040402516723">
        <ele>1791.6800000000001</ele>
        <time>2021-08-29T13:15:31Z</time>
      </trkpt>
      <trkpt lat="45.947518581524491" lon="9.522183984518051">
        <ele>1794.9100000000001</ele>
        <time>2021-08-29T13:15:40Z</time>
      </trkpt>
      <trkpt lat="45.947509864345193" lon="9.522288758307695">
        <ele>1794</ele>
        <time>2021-08-29T13:15:50Z</time>
      </trkpt>
      <trkpt lat="45.947521599009633" lon="9.522252716124058">
        <ele>1794.73</ele>
        <time>2021-08-29T13:16:00Z</time>
      </trkpt>
      <trkpt lat="45.947494022548199" lon="9.522322872653604">
        <ele>1793.8399999999999</ele>
        <time>2021-08-29T13:16:09Z</time>
      </trkpt>
      <trkpt lat="45.947484467178583" lon="9.522453797981143">
        <ele>1795.3</ele>
        <time>2021-08-29T13:16:19Z</time>
      </trkpt>
      <trkpt lat="45.947445994243026" lon="9.522534012794495">
        <ele>1795.1199999999999</ele>
        <time>2021-08-29T13:16:28Z</time>
      </trkpt>
      <trkpt lat="45.947417411953211" lon="9.522635266184807">
        <ele>1796.47</ele>
        <time>2021-08-29T13:16:37Z</time>
      </trkpt>
      <trkpt lat="45.947362929582596" lon="9.522702740505338">
        <ele>1796.9200000000001</ele>
        <time>2021-08-29T13:16:47Z</time>
      </trkpt>
      <trkpt lat="45.947322696447372" lon="9.522825116291642">
        <ele>1801.1099999999999</ele>
        <time>2021-08-29T13:16:57Z</time>
      </trkpt>
      <trkpt lat="45.947338873520494" lon="9.522960064932704">
        <ele>1798.6099999999999</ele>
        <time>2021-08-29T13:17:07Z</time>
      </trkpt>
      <trkpt lat="45.947361588478088" lon="9.523048158735037">
        <ele>1800.1400000000001</ele>
        <time>2021-08-29T13:17:17Z</time>
      </trkpt>
      <trkpt lat="45.947397798299789" lon="9.523101216182113">
        <ele>1801.3299999999999</ele>
        <time>2021-08-29T13:17:26Z</time>
      </trkpt>
      <trkpt lat="45.947424536570907" lon="9.523200038820505">
        <ele>1796.8699999999999</ele>
        <time>2021-08-29T13:17:36Z</time>
      </trkpt>
      <trkpt lat="45.947420094162226" lon="9.523288970813155">
        <ele>1793.8800000000001</ele>
        <time>2021-08-29T13:17:45Z</time>
      </trkpt>
      <trkpt lat="45.947407688945532" lon="9.523397265002132">
        <ele>1793.1300000000001</ele>
        <time>2021-08-29T13:17:54Z</time>
      </trkpt>
      <trkpt lat="45.94742177054286" lon="9.523484017699957">
        <ele>1788.3499999999999</ele>
        <time>2021-08-29T13:18:04Z</time>
      </trkpt>
      <trkpt lat="45.947419423609972" lon="9.523630030453205">
        <ele>1785.1700000000001</ele>
        <time>2021-08-29T13:18:13Z</time>
      </trkpt>
      <trkpt lat="45.947450771927834" lon="9.523716783151031">
        <ele>1782.96</ele>
        <time>2021-08-29T13:18:23Z</time>
      </trkpt>
      <trkpt lat="45.947451777756214" lon="9.523731702938676">
        <ele>1785.5799999999999</ele>
        <time>2021-08-29T13:18:33Z</time>
      </trkpt>
      <trkpt lat="45.947453286498785" lon="9.523795573040843">
        <ele>1787.0699999999999</ele>
        <time>2021-08-29T13:18:42Z</time>
      </trkpt>
      <trkpt lat="45.947480695322156" lon="9.523906297981739">
        <ele>1787.1800000000001</ele>
        <time>2021-08-29T13:18:52Z</time>
      </trkpt>
      <trkpt lat="45.947489161044359" lon="9.523917529731989">
        <ele>1792.9200000000001</ele>
        <time>2021-08-29T13:19:02Z</time>
      </trkpt>
      <trkpt lat="45.947555964812636" lon="9.523945273831487">
        <ele>1789.8599999999999</ele>
        <time>2021-08-29T13:19:11Z</time>
      </trkpt>
      <trkpt lat="45.947606759145856" lon="9.524010233581066">
        <ele>1787.4400000000001</ele>
        <time>2021-08-29T13:19:21Z</time>
      </trkpt>
      <trkpt lat="45.947655206546187" lon="9.524015430361033">
        <ele>1793.28</ele>
        <time>2021-08-29T13:19:31Z</time>
      </trkpt>
      <trkpt lat="45.94769443385303" lon="9.524108385667205">
        <ele>1781.0699999999999</ele>
        <time>2021-08-29T13:19:40Z</time>
      </trkpt>
      <trkpt lat="45.947692086920142" lon="9.524230090901256">
        <ele>1783.27</ele>
        <time>2021-08-29T13:19:50Z</time>
      </trkpt>
      <trkpt lat="45.947714298963547" lon="9.524301839992404">
        <ele>1784.97</ele>
        <time>2021-08-29T13:19:59Z</time>
      </trkpt>
      <trkpt lat="45.947734164074063" lon="9.524467382580042">
        <ele>1787.3099999999999</ele>
        <time>2021-08-29T13:20:08Z</time>
      </trkpt>
      <trkpt lat="45.947801470756531" lon="9.524525217711926">
        <ele>1789.5</ele>
        <time>2021-08-29T13:20:18Z</time>
      </trkpt>
      <trkpt lat="45.947816139087081" lon="9.524625716730952">
        <ele>1790.73</ele>
        <time>2021-08-29T13:20:27Z</time>
      </trkpt>
      <trkpt lat="45.947868525981903" lon="9.524704171344638">
        <ele>1786.1400000000001</ele>
        <time>2021-08-29T13:20:36Z</time>
      </trkpt>
      <trkpt lat="45.947873303666711" lon="9.524857141077519">
        <ele>1784.9100000000001</ele>
        <time>2021-08-29T13:20:46Z</time>
      </trkpt>
      <trkpt lat="45.947921499609947" lon="9.525003572925925">
        <ele>1787.49</ele>
        <time>2021-08-29T13:20:55Z</time>
      </trkpt>
      <trkpt lat="45.947908759117126" lon="9.525102227926254">
        <ele>1787.54</ele>
        <time>2021-08-29T13:21:05Z</time>
      </trkpt>
      <trkpt lat="45.947931474074721" lon="9.525209767743945">
        <ele>1791.6900000000001</ele>
        <time>2021-08-29T13:21:14Z</time>
      </trkpt>
      <trkpt lat="45.947943292558193" lon="9.525308506563306">
        <ele>1784.4300000000001</ele>
        <time>2021-08-29T13:21:24Z</time>
      </trkpt>
      <trkpt lat="45.947981514036655" lon="9.52536634169519">
        <ele>1777.5</ele>
        <time>2021-08-29T13:21:34Z</time>
      </trkpt>
      <trkpt lat="45.947975227609277" lon="9.525481425225735">
        <ele>1779.25</ele>
        <time>2021-08-29T13:21:43Z</time>
      </trkpt>
      <trkpt lat="45.947971120476723" lon="9.525556694716215">
        <ele>1780.21</ele>
        <time>2021-08-29T13:21:52Z</time>
      </trkpt>
      <trkpt lat="45.947956284508109" lon="9.525720728561282">
        <ele>1776.73</ele>
        <time>2021-08-29T13:22:02Z</time>
      </trkpt>
      <trkpt lat="45.947927702218294" lon="9.525829693302512">
        <ele>1772.96</ele>
        <time>2021-08-29T13:22:12Z</time>
      </trkpt>
      <trkpt lat="45.947932060807943" lon="9.5258804038167">
        <ele>1779.25</ele>
        <time>2021-08-29T13:22:21Z</time>
      </trkpt>
      <trkpt lat="45.947869028896093" lon="9.52600697055459">
        <ele>1782.53</ele>
        <time>2021-08-29T13:22:30Z</time>
      </trkpt>
      <trkpt lat="45.947763165459037" lon="9.526065476238728">
        <ele>1775</ele>
        <time>2021-08-29T13:22:39Z</time>
      </trkpt>
      <trkpt lat="45.947730895131826" lon="9.526034211739898">
        <ele>1772.76</ele>
        <time>2021-08-29T13:22:48Z</time>
      </trkpt>
      <trkpt lat="45.947693511843681" lon="9.52600697055459">
        <ele>1774.4000000000001</ele>
        <time>2021-08-29T13:22:58Z</time>
      </trkpt>
      <trkpt lat="45.947690410539508" lon="9.526059105992317">
        <ele>1773.5</ele>
        <time>2021-08-29T13:23:07Z</time>
      </trkpt>
      <trkpt lat="45.947706587612629" lon="9.526122473180294">
        <ele>1776.6700000000001</ele>
        <time>2021-08-29T13:23:16Z</time>
      </trkpt>
      <trkpt lat="45.94769736751914" lon="9.526180727407336">
        <ele>1772.23</ele>
        <time>2021-08-29T13:23:26Z</time>
      </trkpt>
      <trkpt lat="45.947707258164883" lon="9.526207465678453">
        <ele>1772.29</ele>
        <time>2021-08-29T13:23:36Z</time>
      </trkpt>
      <trkpt lat="45.947713796049356" lon="9.526195228099823">
        <ele>1772.5</ele>
        <time>2021-08-29T13:23:46Z</time>
      </trkpt>
      <trkpt lat="45.947693260386586" lon="9.526226911693811">
        <ele>1772.6800000000001</ele>
        <time>2021-08-29T13:23:56Z</time>
      </trkpt>
      <trkpt lat="45.947714382782578" lon="9.526364207267761">
        <ele>1773.52</ele>
        <time>2021-08-29T13:24:05Z</time>
      </trkpt>
      <trkpt lat="45.947739109396935" lon="9.526484319940209">
        <ele>1770.9300000000001</ele>
        <time>2021-08-29T13:24:14Z</time>
      </trkpt>
      <trkpt lat="45.947754699736834" lon="9.526634020730853">
        <ele>1772.8199999999999</ele>
        <time>2021-08-29T13:24:23Z</time>
      </trkpt>
      <trkpt lat="45.947712287306786" lon="9.52670032158494">
        <ele>1775.21</ele>
        <time>2021-08-29T13:24:33Z</time>
      </trkpt>
      <trkpt lat="45.947693008929491" lon="9.526800820603967">
        <ele>1773</ele>
        <time>2021-08-29T13:24:43Z</time>
      </trkpt>
      <trkpt lat="45.947655793279409" lon="9.526919927448034">
        <ele>1770.9000000000001</ele>
        <time>2021-08-29T13:24:53Z</time>
      </trkpt>
      <trkpt lat="45.947619918733835" lon="9.52705068513751">
        <ele>1771.55</ele>
        <time>2021-08-29T13:25:02Z</time>
      </trkpt>
      <trkpt lat="45.947606507688761" lon="9.527187393978238">
        <ele>1769.9300000000001</ele>
        <time>2021-08-29T13:25:11Z</time>
      </trkpt>
      <trkpt lat="45.94760206528008" lon="9.527322510257363">
        <ele>1769.46</ele>
        <time>2021-08-29T13:25:21Z</time>
      </trkpt>
      <trkpt lat="45.947596281766891" lon="9.527455279603601">
        <ele>1767.24</ele>
        <time>2021-08-29T13:25:31Z</time>
      </trkpt>
      <trkpt lat="45.947584379464388" lon="9.527593329548836">
        <ele>1766.46</ele>
        <time>2021-08-29T13:25:40Z</time>
      </trkpt>
      <trkpt lat="45.947571638971567" lon="9.52770296484232">
        <ele>1767.54</ele>
        <time>2021-08-29T13:25:49Z</time>
      </trkpt>
      <trkpt lat="45.9475561324507" lon="9.527836823835969">
        <ele>1765.75</ele>
        <time>2021-08-29T13:25:58Z</time>
      </trkpt>
      <trkpt lat="45.947529394179583" lon="9.527973365038633">
        <ele>1764.5899999999999</ele>
        <time>2021-08-29T13:26:07Z</time>
      </trkpt>
      <trkpt lat="45.94750139862299" lon="9.528092388063669">
        <ele>1764.8</ele>
        <time>2021-08-29T13:26:17Z</time>
      </trkpt>
      <trkpt lat="45.947473319247365" lon="9.528259607031941">
        <ele>1763.3299999999999</ele>
        <time>2021-08-29T13:26:27Z</time>
      </trkpt>
      <trkpt lat="45.94743543304503" lon="9.528413582593203">
        <ele>1762.8299999999999</ele>
        <time>2021-08-29T13:26:36Z</time>
      </trkpt>
      <trkpt lat="45.947396038100123" lon="9.528537634760141">
        <ele>1764.97</ele>
        <time>2021-08-29T13:26:46Z</time>
      </trkpt>
      <trkpt lat="45.947346920147538" lon="9.528656825423241">
        <ele>1765.6099999999999</ele>
        <time>2021-08-29T13:26:55Z</time>
      </trkpt>
      <trkpt lat="45.947284894064069" lon="9.528801161795855">
        <ele>1767.99</ele>
        <time>2021-08-29T13:27:04Z</time>
      </trkpt>
      <trkpt lat="45.947248181328177" lon="9.528904762119055">
        <ele>1766.5799999999999</ele>
        <time>2021-08-29T13:27:14Z</time>
      </trkpt>
      <trkpt lat="45.947152711451054" lon="9.529018839821219">
        <ele>1769.03</ele>
        <time>2021-08-29T13:27:23Z</time>
      </trkpt>
      <trkpt lat="45.947107784450054" lon="9.529070472344756">
        <ele>1768.04</ele>
        <time>2021-08-29T13:27:33Z</time>
      </trkpt>
      <trkpt lat="45.947097977623343" lon="9.529067119583488">
        <ele>1766.95</ele>
        <time>2021-08-29T13:27:42Z</time>
      </trkpt>
      <trkpt lat="45.947024384513497" lon="9.529096037149429">
        <ele>1768.8299999999999</ele>
        <time>2021-08-29T13:27:52Z</time>
      </trkpt>
      <trkpt lat="45.946955820545554" lon="9.529116740450263">
        <ele>1768.4000000000001</ele>
        <time>2021-08-29T13:28:02Z</time>
      </trkpt>
      <trkpt lat="45.946866469457746" lon="9.529092265293002">
        <ele>1767.4400000000001</ele>
        <time>2021-08-29T13:28:11Z</time>
      </trkpt>
      <trkpt lat="45.946789439767599" lon="9.529107268899679">
        <ele>1770.98</ele>
        <time>2021-08-29T13:28:20Z</time>
      </trkpt>
      <trkpt lat="45.946716265752912" lon="9.529122021049261">
        <ele>1772.6600000000001</ele>
        <time>2021-08-29T13:28:30Z</time>
      </trkpt>
      <trkpt lat="45.946639990434051" lon="9.529100731015205">
        <ele>1771.6500000000001</ele>
        <time>2021-08-29T13:28:40Z</time>
      </trkpt>
      <trkpt lat="45.946646863594651" lon="9.529113806784153">
        <ele>1771.6800000000001</ele>
        <time>2021-08-29T13:28:50Z</time>
      </trkpt>
      <trkpt lat="45.946631021797657" lon="9.529121685773134">
        <ele>1768.72</ele>
        <time>2021-08-29T13:29:15Z</time>
      </trkpt>
      <trkpt lat="45.946544101461768" lon="9.529144316911697">
        <ele>1768.48</ele>
        <time>2021-08-29T13:29:24Z</time>
      </trkpt>
      <trkpt lat="45.946460785344243" lon="9.529131408780813">
        <ele>1768.8099999999999</ele>
        <time>2021-08-29T13:29:33Z</time>
      </trkpt>
      <trkpt lat="45.946376211941242" lon="9.529115734621882">
        <ele>1768.1800000000001</ele>
        <time>2021-08-29T13:29:43Z</time>
      </trkpt>
      <trkpt lat="45.946298679336905" lon="9.529137527570128">
        <ele>1766.8800000000001</ele>
        <time>2021-08-29T13:29:52Z</time>
      </trkpt>
      <trkpt lat="45.946210166439414" lon="9.529116908088327">
        <ele>1766.9400000000001</ele>
        <time>2021-08-29T13:30:01Z</time>
      </trkpt>
      <trkpt lat="45.946122575551271" lon="9.529123865067959">
        <ele>1767.4300000000001</ele>
        <time>2021-08-29T13:30:10Z</time>
      </trkpt>
      <trkpt lat="45.946040097624063" lon="9.52911171130836">
        <ele>1768.5</ele>
        <time>2021-08-29T13:30:19Z</time>
      </trkpt>
      <trkpt lat="45.945955440402031" lon="9.529077932238579">
        <ele>1769.8599999999999</ele>
        <time>2021-08-29T13:30:29Z</time>
      </trkpt>
      <trkpt lat="45.945878075435758" lon="9.529038369655609">
        <ele>1767.23</ele>
        <time>2021-08-29T13:30:38Z</time>
      </trkpt>
      <trkpt lat="45.945849325507879" lon="9.529011296108365">
        <ele>1768.1400000000001</ele>
        <time>2021-08-29T13:30:47Z</time>
      </trkpt>
      <trkpt lat="45.945852594450116" lon="9.529024371877313">
        <ele>1768.6800000000001</ele>
        <time>2021-08-29T13:30:57Z</time>
      </trkpt>
      <trkpt lat="45.945839770138264" lon="9.529022108763456">
        <ele>1766.74</ele>
        <time>2021-08-29T13:31:07Z</time>
      </trkpt>
      <trkpt lat="45.945793502032757" lon="9.528977517038584">
        <ele>1767.6400000000001</ele>
        <time>2021-08-29T13:31:16Z</time>
      </trkpt>
      <trkpt lat="45.945760309696198" lon="9.528883723542094">
        <ele>1769.0599999999999</ele>
        <time>2021-08-29T13:31:26Z</time>
      </trkpt>
      <trkpt lat="45.945693086832762" lon="9.528793869540095">
        <ele>1767.5999999999999</ele>
        <time>2021-08-29T13:31:36Z</time>
      </trkpt>
      <trkpt lat="45.945638520643115" lon="9.528718935325742">
        <ele>1768.5999999999999</ele>
        <time>2021-08-29T13:31:45Z</time>
      </trkpt>
      <trkpt lat="45.945627959445119" lon="9.528579963371158">
        <ele>1766.4100000000001</ele>
        <time>2021-08-29T13:31:54Z</time>
      </trkpt>
      <trkpt lat="45.945619326084852" lon="9.528491031378508">
        <ele>1767.26</ele>
        <time>2021-08-29T13:32:03Z</time>
      </trkpt>
      <trkpt lat="45.945563083514571" lon="9.528427412733436">
        <ele>1768.6600000000001</ele>
        <time>2021-08-29T13:32:12Z</time>
      </trkpt>
      <trkpt lat="45.945507176220417" lon="9.528476195409894">
        <ele>1767.74</ele>
        <time>2021-08-29T13:32:22Z</time>
      </trkpt>
      <trkpt lat="45.945416064932942" lon="9.528526486828923">
        <ele>1767.0899999999999</ele>
        <time>2021-08-29T13:32:32Z</time>
      </trkpt>
      <trkpt lat="45.945309195667505" lon="9.528561104089022">
        <ele>1767.6600000000001</ele>
        <time>2021-08-29T13:32:42Z</time>
      </trkpt>
      <trkpt lat="45.945229483768344" lon="9.528551632538438">
        <ele>1766.28</ele>
        <time>2021-08-29T13:32:51Z</time>
      </trkpt>
      <trkpt lat="45.945130828768015" lon="9.528571497648954">
        <ele>1763.21</ele>
        <time>2021-08-29T13:33:00Z</time>
      </trkpt>
      <trkpt lat="45.945027396082878" lon="9.528584992513061">
        <ele>1761.6300000000001</ele>
        <time>2021-08-29T13:33:10Z</time>
      </trkpt>
      <trkpt lat="45.944938296452165" lon="9.528621789067984">
        <ele>1761.8399999999999</ele>
        <time>2021-08-29T13:33:20Z</time>
      </trkpt>
      <trkpt lat="45.944851124659181" lon="9.528625980019569">
        <ele>1760.6900000000001</ele>
        <time>2021-08-29T13:33:29Z</time>
      </trkpt>
      <trkpt lat="45.944764707237482" lon="9.528624638915062">
        <ele>1761.1300000000001</ele>
        <time>2021-08-29T13:33:38Z</time>
      </trkpt>
      <trkpt lat="45.944672841578722" lon="9.528599828481674">
        <ele>1761.73</ele>
        <time>2021-08-29T13:33:47Z</time>
      </trkpt>
      <trkpt lat="45.944583490490913" lon="9.528566803783178">
        <ele>1758.04</ele>
        <time>2021-08-29T13:33:57Z</time>
      </trkpt>
      <trkpt lat="45.944488858804107" lon="9.528544172644615">
        <ele>1757.0899999999999</ele>
        <time>2021-08-29T13:34:06Z</time>
      </trkpt>
      <trkpt lat="45.944399926811457" lon="9.528488516807556">
        <ele>1755.03</ele>
        <time>2021-08-29T13:34:15Z</time>
      </trkpt>
      <trkpt lat="45.944299679249525" lon="9.528468735516071">
        <ele>1753.74</ele>
        <time>2021-08-29T13:34:25Z</time>
      </trkpt>
      <trkpt lat="45.944182500243187" lon="9.528465382754803">
        <ele>1754.75</ele>
        <time>2021-08-29T13:34:34Z</time>
      </trkpt>
      <trkpt lat="45.944103458896279" lon="9.528420874848962">
        <ele>1754.6400000000001</ele>
        <time>2021-08-29T13:34:43Z</time>
      </trkpt>
      <trkpt lat="45.944032380357385" lon="9.528413498774171">
        <ele>1752.73</ele>
        <time>2021-08-29T13:34:53Z</time>
      </trkpt>
      <trkpt lat="45.943917129188776" lon="9.528460437431932">
        <ele>1751.5999999999999</ele>
        <time>2021-08-29T13:35:02Z</time>
      </trkpt>
      <trkpt lat="45.9438416082412" lon="9.528521373867989">
        <ele>1750.1700000000001</ele>
        <time>2021-08-29T13:35:11Z</time>
      </trkpt>
      <trkpt lat="45.94388117082417" lon="9.528650036081672">
        <ele>1747.6600000000001</ele>
        <time>2021-08-29T13:35:21Z</time>
      </trkpt>
      <trkpt lat="45.943892821669579" lon="9.528752462938428">
        <ele>1747.1400000000001</ele>
        <time>2021-08-29T13:35:30Z</time>
      </trkpt>
      <trkpt lat="45.94394420273602" lon="9.528876012191176">
        <ele>1746.7</ele>
        <time>2021-08-29T13:35:40Z</time>
      </trkpt>
      <trkpt lat="45.943953171372414" lon="9.528982797637582">
        <ele>1745.4300000000001</ele>
        <time>2021-08-29T13:35:49Z</time>
      </trkpt>
      <trkpt lat="45.943928277119994" lon="9.529068041592836">
        <ele>1742.5799999999999</ele>
        <time>2021-08-29T13:35:58Z</time>
      </trkpt>
      <trkpt lat="45.943887792527676" lon="9.529183460399509">
        <ele>1742.0699999999999</ele>
        <time>2021-08-29T13:36:09Z</time>
      </trkpt>
      <trkpt lat="45.943840015679598" lon="9.529297538101673">
        <ele>1737.8399999999999</ele>
        <time>2021-08-29T13:36:18Z</time>
      </trkpt>
      <trkpt lat="45.943808499723673" lon="9.529431229457259">
        <ele>1739.0999999999999</ele>
        <time>2021-08-29T13:36:28Z</time>
      </trkpt>
      <trkpt lat="45.943750999867916" lon="9.529535500332713">
        <ele>1739.53</ele>
        <time>2021-08-29T13:36:37Z</time>
      </trkpt>
      <trkpt lat="45.943670282140374" lon="9.529631389304996">
        <ele>1740.51</ele>
        <time>2021-08-29T13:36:46Z</time>
      </trkpt>
      <trkpt lat="45.943561820313334" lon="9.529740018770099">
        <ele>1742.76</ele>
        <time>2021-08-29T13:36:55Z</time>
      </trkpt>
      <trkpt lat="45.943510187789798" lon="9.529815288260579">
        <ele>1743.3</ele>
        <time>2021-08-29T13:37:05Z</time>
      </trkpt>
      <trkpt lat="45.943468110635877" lon="9.529933808371425">
        <ele>1741.72</ele>
        <time>2021-08-29T13:37:15Z</time>
      </trkpt>
      <trkpt lat="45.943457297980785" lon="9.530084766447544">
        <ele>1740.8399999999999</ele>
        <time>2021-08-29T13:37:24Z</time>
      </trkpt>
      <trkpt lat="45.943456878885627" lon="9.530221559107304">
        <ele>1739.51</ele>
        <time>2021-08-29T13:37:34Z</time>
      </trkpt>
      <trkpt lat="45.943395020440221" lon="9.530329518020153">
        <ele>1738.3</ele>
        <time>2021-08-29T13:37:44Z</time>
      </trkpt>
      <trkpt lat="45.943310782313347" lon="9.530401267111301">
        <ele>1737.5699999999999</ele>
        <time>2021-08-29T13:37:53Z</time>
      </trkpt>
      <trkpt lat="45.943200141191483" lon="9.530427921563387">
        <ele>1737.8299999999999</ele>
        <time>2021-08-29T13:38:03Z</time>
      </trkpt>
      <trkpt lat="45.943106934428215" lon="9.530458599328995">
        <ele>1739.5699999999999</ele>
        <time>2021-08-29T13:38:12Z</time>
      </trkpt>
      <trkpt lat="45.943016996607184" lon="9.53043638728559">
        <ele>1736.71</ele>
        <time>2021-08-29T13:38:22Z</time>
      </trkpt>
      <trkpt lat="45.942939128726721" lon="9.53037922270596">
        <ele>1735.53</ele>
        <time>2021-08-29T13:38:31Z</time>
      </trkpt>
      <trkpt lat="45.942855225875974" lon="9.530314179137349">
        <ele>1735.8900000000001</ele>
        <time>2021-08-29T13:38:40Z</time>
      </trkpt>
      <trkpt lat="45.942764198407531" lon="9.530288111418486">
        <ele>1737.3800000000001</ele>
        <time>2021-08-29T13:38:49Z</time>
      </trkpt>
      <trkpt lat="45.942685408517718" lon="9.530289871618152">
        <ele>1735.6800000000001</ele>
        <time>2021-08-29T13:38:59Z</time>
      </trkpt>
      <trkpt lat="45.942582311108708" lon="9.530250979587436">
        <ele>1735.8</ele>
        <time>2021-08-29T13:39:09Z</time>
      </trkpt>
      <trkpt lat="45.942507041618228" lon="9.530218876898289">
        <ele>1735.8199999999999</ele>
        <time>2021-08-29T13:39:19Z</time>
      </trkpt>
      <trkpt lat="45.942437974736094" lon="9.530228096991777">
        <ele>1735.6300000000001</ele>
        <time>2021-08-29T13:39:28Z</time>
      </trkpt>
      <trkpt lat="45.942340409383178" lon="9.530222732573748">
        <ele>1732.6900000000001</ele>
        <time>2021-08-29T13:39:38Z</time>
      </trkpt>
      <trkpt lat="45.942279640585184" lon="9.53022382222116">
        <ele>1731.1800000000001</ele>
        <time>2021-08-29T13:39:47Z</time>
      </trkpt>
      <trkpt lat="45.942212166264653" lon="9.530210914090276">
        <ele>1730.8399999999999</ele>
        <time>2021-08-29T13:39:57Z</time>
      </trkpt>
      <trkpt lat="45.942132035270333" lon="9.530189372599125">
        <ele>1729.6800000000001</ele>
        <time>2021-08-29T13:40:06Z</time>
      </trkpt>
      <trkpt lat="45.942070428282022" lon="9.530192976817489">
        <ele>1730</ele>
        <time>2021-08-29T13:40:15Z</time>
      </trkpt>
      <trkpt lat="45.941997841000557" lon="9.53019306063652">
        <ele>1729.27</ele>
        <time>2021-08-29T13:40:24Z</time>
      </trkpt>
      <trkpt lat="45.941897006705403" lon="9.530197503045201">
        <ele>1728.6199999999999</ele>
        <time>2021-08-29T13:40:34Z</time>
      </trkpt>
      <trkpt lat="45.941831208765507" lon="9.530189540237188">
        <ele>1727.3499999999999</ele>
        <time>2021-08-29T13:40:43Z</time>
      </trkpt>
      <trkpt lat="45.941746216267347" lon="9.530176380649209">
        <ele>1726.5899999999999</ele>
        <time>2021-08-29T13:40:53Z</time>
      </trkpt>
      <trkpt lat="45.9416623134166" lon="9.530195407569408">
        <ele>1728.27</ele>
        <time>2021-08-29T13:41:03Z</time>
      </trkpt>
      <trkpt lat="45.941581092774868" lon="9.530206136405468">
        <ele>1726.6400000000001</ele>
        <time>2021-08-29T13:41:12Z</time>
      </trkpt>
      <trkpt lat="45.941510936245322" lon="9.53019792214036">
        <ele>1725</ele>
        <time>2021-08-29T13:41:21Z</time>
      </trkpt>
      <trkpt lat="45.941381268203259" lon="9.530239496380091">
        <ele>1723.3599999999999</ele>
        <time>2021-08-29T13:41:30Z</time>
      </trkpt>
      <trkpt lat="45.941286887973547" lon="9.530248213559389">
        <ele>1721.4200000000001</ele>
        <time>2021-08-29T13:41:40Z</time>
      </trkpt>
      <trkpt lat="45.941229723393917" lon="9.530220218002796">
        <ele>1719.3699999999999</ele>
        <time>2021-08-29T13:41:49Z</time>
      </trkpt>
      <trkpt lat="45.941132828593254" lon="9.530216529965401">
        <ele>1717.1300000000001</ele>
        <time>2021-08-29T13:41:58Z</time>
      </trkpt>
      <trkpt lat="45.941072562709451" lon="9.530167998746038">
        <ele>1717.6199999999999</ele>
        <time>2021-08-29T13:42:08Z</time>
      </trkpt>
      <trkpt lat="45.941011374816298" lon="9.530134722590447">
        <ele>1711.6099999999999</ele>
        <time>2021-08-29T13:42:17Z</time>
      </trkpt>
      <trkpt lat="45.940907020121813" lon="9.530116701498628">
        <ele>1709.1900000000001</ele>
        <time>2021-08-29T13:42:26Z</time>
      </trkpt>
      <trkpt lat="45.940811466425657" lon="9.530197167769074">
        <ele>1711.3399999999999</ele>
        <time>2021-08-29T13:42:36Z</time>
      </trkpt>
      <trkpt lat="45.94074516557157" lon="9.530286518856883">
        <ele>1709.54</ele>
        <time>2021-08-29T13:42:45Z</time>
      </trkpt>
      <trkpt lat="45.940683223307133" lon="9.530387604609132">
        <ele>1709.97</ele>
        <time>2021-08-29T13:42:55Z</time>
      </trkpt>
      <trkpt lat="45.940635027363896" lon="9.530506376177073">
        <ele>1710.4100000000001</ele>
        <time>2021-08-29T13:43:05Z</time>
      </trkpt>
      <trkpt lat="45.940633183345199" lon="9.530490199103952">
        <ele>1707.9000000000001</ele>
        <time>2021-08-29T13:43:23Z</time>
      </trkpt>
      <trkpt lat="45.94057903625071" lon="9.530434459447861">
        <ele>1708.22</ele>
        <time>2021-08-29T13:43:32Z</time>
      </trkpt>
      <trkpt lat="45.940528912469745" lon="9.530369332060218">
        <ele>1708.1800000000001</ele>
        <time>2021-08-29T13:43:42Z</time>
      </trkpt>
      <trkpt lat="45.940496893599629" lon="9.530344940721989">
        <ele>1705</ele>
        <time>2021-08-29T13:43:51Z</time>
      </trkpt>
      <trkpt lat="45.940481470897794" lon="9.530342258512974">
        <ele>1703.74</ele>
        <time>2021-08-29T13:44:01Z</time>
      </trkpt>
      <trkpt lat="45.940452804788947" lon="9.530302276834846">
        <ele>1702.51</ele>
        <time>2021-08-29T13:44:10Z</time>
      </trkpt>
      <trkpt lat="45.94045733101666" lon="9.5302580203861">
        <ele>1700.9200000000001</ele>
        <time>2021-08-29T13:44:19Z</time>
      </trkpt>
      <trkpt lat="45.940451128408313" lon="9.530156683176756">
        <ele>1698.4300000000001</ele>
        <time>2021-08-29T13:44:30Z</time>
      </trkpt>
      <trkpt lat="45.940438723191619" lon="9.530081329867244">
        <ele>1698.98</ele>
        <time>2021-08-29T13:44:39Z</time>
      </trkpt>
      <trkpt lat="45.940446183085442" lon="9.530055513605475">
        <ele>1699.4300000000001</ele>
        <time>2021-08-29T13:44:48Z</time>
      </trkpt>
      <trkpt lat="45.940418522804976" lon="9.529995415359736">
        <ele>1694.5999999999999</ele>
        <time>2021-08-29T13:44:58Z</time>
      </trkpt>
      <trkpt lat="45.94038306735456" lon="9.529911428689957">
        <ele>1691.4400000000001</ele>
        <time>2021-08-29T13:45:07Z</time>
      </trkpt>
      <trkpt lat="45.940371667966247" lon="9.529853174462915">
        <ele>1689.02</ele>
        <time>2021-08-29T13:45:17Z</time>
      </trkpt>
      <trkpt lat="45.940328920260072" lon="9.529848396778107">
        <ele>1685.55</ele>
        <time>2021-08-29T13:45:26Z</time>
      </trkpt>
      <trkpt lat="45.940283322706819" lon="9.529862813651562">
        <ele>1686.4300000000001</ele>
        <time>2021-08-29T13:45:36Z</time>
      </trkpt>
      <trkpt lat="45.940268319100142" lon="9.529802966862917">
        <ele>1685.9100000000001</ele>
        <time>2021-08-29T13:45:46Z</time>
      </trkpt>
      <trkpt lat="45.940189277753234" lon="9.529752004891634">
        <ele>1686.3800000000001</ele>
        <time>2021-08-29T13:45:55Z</time>
      </trkpt>
      <trkpt lat="45.940181817859411" lon="9.529687212780118">
        <ele>1686.23</ele>
        <time>2021-08-29T13:46:04Z</time>
      </trkpt>
      <trkpt lat="45.940180141478777" lon="9.529724009335041">
        <ele>1683.1800000000001</ele>
        <time>2021-08-29T13:46:14Z</time>
      </trkpt>
      <trkpt lat="45.940141333267093" lon="9.529769103974104">
        <ele>1679.6900000000001</ele>
        <time>2021-08-29T13:46:24Z</time>
      </trkpt>
      <trkpt lat="45.940086012706161" lon="9.529824089258909">
        <ele>1681.0699999999999</ele>
        <time>2021-08-29T13:46:33Z</time>
      </trkpt>
      <trkpt lat="45.940072266384959" lon="9.529864406213164">
        <ele>1681.0899999999999</ele>
        <time>2021-08-29T13:46:43Z</time>
      </trkpt>
      <trkpt lat="45.940041001886129" lon="9.529823837801814">
        <ele>1679.21</ele>
        <time>2021-08-29T13:46:52Z</time>
      </trkpt>
      <trkpt lat="45.940003115683794" lon="9.529737588018179">
        <ele>1676.8099999999999</ele>
        <time>2021-08-29T13:47:02Z</time>
      </trkpt>
      <trkpt lat="45.939980568364263" lon="9.529781006276608">
        <ele>1674.9300000000001</ele>
        <time>2021-08-29T13:47:11Z</time>
      </trkpt>
      <trkpt lat="45.939981574192643" lon="9.529765080660582">
        <ele>1674.0699999999999</ele>
        <time>2021-08-29T13:47:20Z</time>
      </trkpt>
      <trkpt lat="45.939959865063429" lon="9.529716465622187">
        <ele>1672.04</ele>
        <time>2021-08-29T13:47:30Z</time>
      </trkpt>
      <trkpt lat="45.939945699647069" lon="9.529685871675611">
        <ele>1667.73</ele>
        <time>2021-08-29T13:47:40Z</time>
      </trkpt>
      <trkpt lat="45.939940670505166" lon="9.529668688774109">
        <ele>1664.8800000000001</ele>
        <time>2021-08-29T13:47:55Z</time>
      </trkpt>
      <trkpt lat="45.939961289986968" lon="9.529579086229205">
        <ele>1663.1300000000001</ele>
        <time>2021-08-29T13:48:04Z</time>
      </trkpt>
      <trkpt lat="45.939949806779623" lon="9.529509264975786">
        <ele>1664.0999999999999</ele>
        <time>2021-08-29T13:48:13Z</time>
      </trkpt>
      <trkpt lat="45.939941592514515" lon="9.529519826173782">
        <ele>1662.54</ele>
        <time>2021-08-29T13:48:23Z</time>
      </trkpt>
      <trkpt lat="45.939917284995317" lon="9.529553772881627">
        <ele>1659.22</ele>
        <time>2021-08-29T13:48:33Z</time>
      </trkpt>
      <trkpt lat="45.939870262518525" lon="9.52953876927495">
        <ele>1657.0699999999999</ele>
        <time>2021-08-29T13:48:42Z</time>
      </trkpt>
      <trkpt lat="45.939821228384972" lon="9.52955829910934">
        <ele>1654.1700000000001</ele>
        <time>2021-08-29T13:48:52Z</time>
      </trkpt>
      <trkpt lat="45.939809326082468" lon="9.529599035158753">
        <ele>1653.73</ele>
        <time>2021-08-29T13:49:01Z</time>
      </trkpt>
      <trkpt lat="45.939779235050082" lon="9.529639771208167">
        <ele>1656.3099999999999</ele>
        <time>2021-08-29T13:49:11Z</time>
      </trkpt>
      <trkpt lat="45.939753167331219" lon="9.529655613005161">
        <ele>1656.99</ele>
        <time>2021-08-29T13:49:20Z</time>
      </trkpt>
      <trkpt lat="45.939750485122204" lon="9.529637675732374">
        <ele>1657.6600000000001</ele>
        <time>2021-08-29T13:49:30Z</time>
      </trkpt>
      <trkpt lat="45.939735565334558" lon="9.529629210010171">
        <ele>1654.3699999999999</ele>
        <time>2021-08-29T13:49:39Z</time>
      </trkpt>
      <trkpt lat="45.939731877297163" lon="9.529584366828203">
        <ele>1657.2</ele>
        <time>2021-08-29T13:49:48Z</time>
      </trkpt>
      <trkpt lat="45.939711006358266" lon="9.529641112312675">
        <ele>1656.45</ele>
        <time>2021-08-29T13:49:58Z</time>
      </trkpt>
      <trkpt lat="45.939675215631723" lon="9.529663827270269">
        <ele>1655.4300000000001</ele>
        <time>2021-08-29T13:50:07Z</time>
      </trkpt>
      <trkpt lat="45.939587960019708" lon="9.529628371819854">
        <ele>1650.6900000000001</ele>
        <time>2021-08-29T13:50:17Z</time>
      </trkpt>
      <trkpt lat="45.939573710784316" lon="9.529503397643566">
        <ele>1647.0599999999999</ele>
        <time>2021-08-29T13:50:27Z</time>
      </trkpt>
      <trkpt lat="45.939568430185318" lon="9.529427206143737">
        <ele>1643</ele>
        <time>2021-08-29T13:50:36Z</time>
      </trkpt>
      <trkpt lat="45.939596509560943" lon="9.529353193938732">
        <ele>1641.77</ele>
        <time>2021-08-29T13:50:46Z</time>
      </trkpt>
      <trkpt lat="45.939615201205015" lon="9.529275158420205">
        <ele>1639.73</ele>
        <time>2021-08-29T13:50:56Z</time>
      </trkpt>
      <trkpt lat="45.939630540087819" lon="9.529162589460611">
        <ele>1638.3800000000001</ele>
        <time>2021-08-29T13:51:06Z</time>
      </trkpt>
      <trkpt lat="45.939612183719873" lon="9.529086733236909">
        <ele>1639.0899999999999</ele>
        <time>2021-08-29T13:51:15Z</time>
      </trkpt>
      <trkpt lat="45.939606316387653" lon="9.52902277931571">
        <ele>1637.4000000000001</ele>
        <time>2021-08-29T13:51:24Z</time>
      </trkpt>
      <trkpt lat="45.939594665542245" lon="9.528931584209204">
        <ele>1637.3599999999999</ele>
        <time>2021-08-29T13:51:34Z</time>
      </trkpt>
      <trkpt lat="45.939572118222713" lon="9.528908533975482">
        <ele>1636.51</ele>
        <time>2021-08-29T13:51:43Z</time>
      </trkpt>
      <trkpt lat="45.939530627802014" lon="9.529010877013207">
        <ele>1635.3699999999999</ele>
        <time>2021-08-29T13:51:53Z</time>
      </trkpt>
      <trkpt lat="45.939498692750931" lon="9.52908631414175">
        <ele>1633.0899999999999</ele>
        <time>2021-08-29T13:52:04Z</time>
      </trkpt>
      <trkpt lat="45.939474469050765" lon="9.529083883389831">
        <ele>1627.54</ele>
        <time>2021-08-29T13:52:13Z</time>
      </trkpt>
      <trkpt lat="45.939493076875806" lon="9.529015487059951">
        <ele>1624.26</ele>
        <time>2021-08-29T13:52:23Z</time>
      </trkpt>
      <trkpt lat="45.939503805711865" lon="9.528994364663959">
        <ele>1625.3900000000001</ele>
        <time>2021-08-29T13:52:33Z</time>
      </trkpt>
      <trkpt lat="45.939487209543586" lon="9.528968464583159">
        <ele>1625.8699999999999</ele>
        <time>2021-08-29T13:52:45Z</time>
      </trkpt>
      <trkpt lat="45.939481677487493" lon="9.528998304158449">
        <ele>1627.5</ele>
        <time>2021-08-29T13:52:55Z</time>
      </trkpt>
      <trkpt lat="45.93947128392756" lon="9.528987994417548">
        <ele>1626.26</ele>
        <time>2021-08-29T13:53:12Z</time>
      </trkpt>
      <trkpt lat="45.939471116289496" lon="9.528867630288005">
        <ele>1625.21</ele>
        <time>2021-08-29T13:53:21Z</time>
      </trkpt>
      <trkpt lat="45.93944001942873" lon="9.528855225071311">
        <ele>1622.52</ele>
        <time>2021-08-29T13:53:30Z</time>
      </trkpt>
      <trkpt lat="45.939390566200018" lon="9.528832007199526">
        <ele>1620.45</ele>
        <time>2021-08-29T13:53:40Z</time>
      </trkpt>
      <trkpt lat="45.939372964203358" lon="9.528729915618897">
        <ele>1620.4100000000001</ele>
        <time>2021-08-29T13:53:49Z</time>
      </trkpt>
      <trkpt lat="45.939351338893175" lon="9.528740392997861">
        <ele>1617.54</ele>
        <time>2021-08-29T13:53:58Z</time>
      </trkpt>
      <trkpt lat="45.939321415498853" lon="9.528700411319733">
        <ele>1615.8</ele>
        <time>2021-08-29T13:54:08Z</time>
      </trkpt>
      <trkpt lat="45.939295431599021" lon="9.528604103252292">
        <ele>1618.3199999999999</ele>
        <time>2021-08-29T13:54:17Z</time>
      </trkpt>
      <trkpt lat="45.939304232597351" lon="9.528527492657304">
        <ele>1617.1800000000001</ele>
        <time>2021-08-29T13:54:27Z</time>
      </trkpt>
      <trkpt lat="45.93929735943675" lon="9.528486169874668">
        <ele>1615.3900000000001</ele>
        <time>2021-08-29T13:54:37Z</time>
      </trkpt>
      <trkpt lat="45.939246229827404" lon="9.528436129912734">
        <ele>1616.3599999999999</ele>
        <time>2021-08-29T13:54:47Z</time>
      </trkpt>
      <trkpt lat="45.939238099381328" lon="9.52842665836215">
        <ele>1615</ele>
        <time>2021-08-29T13:54:56Z</time>
      </trkpt>
      <trkpt lat="45.939232064411044" lon="9.528392627835274">
        <ele>1615.97</ele>
        <time>2021-08-29T13:55:05Z</time>
      </trkpt>
      <trkpt lat="45.939219407737255" lon="9.528369661420584">
        <ele>1615.8099999999999</ele>
        <time>2021-08-29T13:55:14Z</time>
      </trkpt>
      <trkpt lat="45.939161404967308" lon="9.528459599241614">
        <ele>1612.8499999999999</ele>
        <time>2021-08-29T13:55:24Z</time>
      </trkpt>
      <trkpt lat="45.939150424674153" lon="9.528559427708387">
        <ele>1612.1800000000001</ele>
        <time>2021-08-29T13:55:34Z</time>
      </trkpt>
      <trkpt lat="45.939075658097863" lon="9.528617765754461">
        <ele>1609.9300000000001</ele>
        <time>2021-08-29T13:55:43Z</time>
      </trkpt>
      <trkpt lat="45.938983540982008" lon="9.528683563694358">
        <ele>1608.5799999999999</ele>
        <time>2021-08-29T13:55:53Z</time>
      </trkpt>
      <trkpt lat="45.938914306461811" lon="9.528821110725403">
        <ele>1608.54</ele>
        <time>2021-08-29T13:56:03Z</time>
      </trkpt>
      <trkpt lat="45.938827637583017" lon="9.528863439336419">
        <ele>1606.6400000000001</ele>
        <time>2021-08-29T13:56:12Z</time>
      </trkpt>
      <trkpt lat="45.93873099423945" lon="9.52893041074276">
        <ele>1607.71</ele>
        <time>2021-08-29T13:56:23Z</time>
      </trkpt>
      <trkpt lat="45.938632590696216" lon="9.529040632769465">
        <ele>1611.02</ele>
        <time>2021-08-29T13:56:32Z</time>
      </trkpt>
      <trkpt lat="45.938584730029106" lon="9.529147166758776">
        <ele>1612.4000000000001</ele>
        <time>2021-08-29T13:56:42Z</time>
      </trkpt>
      <trkpt lat="45.938538126647472" lon="9.529200308024883">
        <ele>1608.49</ele>
        <time>2021-08-29T13:56:51Z</time>
      </trkpt>
      <trkpt lat="45.93845103867352" lon="9.5292978733778">
        <ele>1606.5599999999999</ele>
        <time>2021-08-29T13:57:01Z</time>
      </trkpt>
      <trkpt lat="45.93839873559773" lon="9.529371382668614">
        <ele>1607.53</ele>
        <time>2021-08-29T13:57:10Z</time>
      </trkpt>
      <trkpt lat="45.938348779454827" lon="9.529464421793819">
        <ele>1605.0799999999999</ele>
        <time>2021-08-29T13:57:19Z</time>
      </trkpt>
      <trkpt lat="45.938322460278869" lon="9.529511360451579">
        <ele>1605.0899999999999</ele>
        <time>2021-08-29T13:57:29Z</time>
      </trkpt>
      <trkpt lat="45.938335619866848" lon="9.529593586921692">
        <ele>1608.29</ele>
        <time>2021-08-29T13:57:38Z</time>
      </trkpt>
      <trkpt lat="45.938302092254162" lon="9.529700288549066">
        <ele>1603.3399999999999</ele>
        <time>2021-08-29T13:57:47Z</time>
      </trkpt>
      <trkpt lat="45.938236713409424" lon="9.529715375974774">
        <ele>1601.8299999999999</ele>
        <time>2021-08-29T13:57:57Z</time>
      </trkpt>
      <trkpt lat="45.938172927126288" lon="9.529737001284957">
        <ele>1599.49</ele>
        <time>2021-08-29T13:58:06Z</time>
      </trkpt>
      <trkpt lat="45.93808650970459" lon="9.52983976341784">
        <ele>1598.8599999999999</ele>
        <time>2021-08-29T13:58:16Z</time>
      </trkpt>
      <trkpt lat="45.937994476407766" lon="9.529829621315002">
        <ele>1600.6099999999999</ele>
        <time>2021-08-29T13:58:25Z</time>
      </trkpt>
      <trkpt lat="45.937940161675215" lon="9.529836075380445">
        <ele>1598.05</ele>
        <time>2021-08-29T13:58:34Z</time>
      </trkpt>
      <trkpt lat="45.937870424240828" lon="9.529860466718674">
        <ele>1595.05</ele>
        <time>2021-08-29T13:58:43Z</time>
      </trkpt>
      <trkpt lat="45.937812170013785" lon="9.529871614649892">
        <ele>1599.6400000000001</ele>
        <time>2021-08-29T13:58:52Z</time>
      </trkpt>
      <trkpt lat="45.937697421759367" lon="9.529826771467924">
        <ele>1602.8499999999999</ele>
        <time>2021-08-29T13:59:02Z</time>
      </trkpt>
      <trkpt lat="45.937557024881244" lon="9.529808834195137">
        <ele>1602.1700000000001</ele>
        <time>2021-08-29T13:59:11Z</time>
      </trkpt>
      <trkpt lat="45.937480665743351" lon="9.529848312959075">
        <ele>1601.28</ele>
        <time>2021-08-29T13:59:20Z</time>
      </trkpt>
      <trkpt lat="45.937389973551035" lon="9.529860382899642">
        <ele>1601.04</ele>
        <time>2021-08-29T13:59:30Z</time>
      </trkpt>
      <trkpt lat="45.937325432896614" lon="9.529902376234531">
        <ele>1603.79</ele>
        <time>2021-08-29T13:59:40Z</time>
      </trkpt>
      <trkpt lat="45.937271118164063" lon="9.529964402318001">
        <ele>1600.3800000000001</ele>
        <time>2021-08-29T13:59:49Z</time>
      </trkpt>
      <trkpt lat="45.937265167012811" lon="9.529982004314661">
        <ele>1598.96</ele>
        <time>2021-08-29T13:59:59Z</time>
      </trkpt>
      <trkpt lat="45.937146563082933" lon="9.530115276575089">
        <ele>1593.3499999999999</ele>
        <time>2021-08-29T14:00:08Z</time>
      </trkpt>
      <trkpt lat="45.937017565593123" lon="9.530196161940694">
        <ele>1592.54</ele>
        <time>2021-08-29T14:00:18Z</time>
      </trkpt>
      <trkpt lat="45.936969369649887" lon="9.530146876350045">
        <ele>1595.6900000000001</ele>
        <time>2021-08-29T14:00:27Z</time>
      </trkpt>
      <trkpt lat="45.936890328302979" lon="9.530089879408479">
        <ele>1596.8800000000001</ele>
        <time>2021-08-29T14:00:37Z</time>
      </trkpt>
      <trkpt lat="45.936820423230529" lon="9.530076384544373">
        <ele>1592.8800000000001</ele>
        <time>2021-08-29T14:00:47Z</time>
      </trkpt>
      <trkpt lat="45.936721935868263" lon="9.530017040669918">
        <ele>1594.6900000000001</ele>
        <time>2021-08-29T14:00:57Z</time>
      </trkpt>
      <trkpt lat="45.936657395213842" lon="9.529975969344378">
        <ele>1591.74</ele>
        <time>2021-08-29T14:01:06Z</time>
      </trkpt>
      <trkpt lat="45.93655513599515" lon="9.529853509739041">
        <ele>1592.21</ele>
        <time>2021-08-29T14:01:15Z</time>
      </trkpt>
      <trkpt lat="45.936460085213184" lon="9.529761224985123">
        <ele>1595.79</ele>
        <time>2021-08-29T14:01:26Z</time>
      </trkpt>
      <trkpt lat="45.936385486274958" lon="9.529692996293306">
        <ele>1596.6900000000001</ele>
        <time>2021-08-29T14:01:35Z</time>
      </trkpt>
      <trkpt lat="45.93631717376411" lon="9.529646309092641">
        <ele>1599.52</ele>
        <time>2021-08-29T14:01:44Z</time>
      </trkpt>
      <trkpt lat="45.936243832111359" lon="9.529589228332043">
        <ele>1598.76</ele>
        <time>2021-08-29T14:01:54Z</time>
      </trkpt>
      <trkpt lat="45.936181806027889" lon="9.529486801475287">
        <ele>1599.4400000000001</ele>
        <time>2021-08-29T14:02:03Z</time>
      </trkpt>
      <trkpt lat="45.936107458546758" lon="9.529497781768441">
        <ele>1597.0899999999999</ele>
        <time>2021-08-29T14:02:12Z</time>
      </trkpt>
      <trkpt lat="45.936019029468298" lon="9.529479006305337">
        <ele>1598.74</ele>
        <time>2021-08-29T14:02:21Z</time>
      </trkpt>
      <trkpt lat="45.935931019484997" lon="9.529419662430883">
        <ele>1600.6800000000001</ele>
        <time>2021-08-29T14:02:31Z</time>
      </trkpt>
      <trkpt lat="45.935864299535751" lon="9.529363000765443">
        <ele>1603.9200000000001</ele>
        <time>2021-08-29T14:02:40Z</time>
      </trkpt>
      <trkpt lat="45.935814091935754" lon="9.529361492022872">
        <ele>1602.9200000000001</ele>
        <time>2021-08-29T14:02:49Z</time>
      </trkpt>
      <trkpt lat="45.935716358944774" lon="9.529336597770453">
        <ele>1599.9400000000001</ele>
        <time>2021-08-29T14:02:59Z</time>
      </trkpt>
      <trkpt lat="45.935613429173827" lon="9.529265686869621">
        <ele>1600.1199999999999</ele>
        <time>2021-08-29T14:03:09Z</time>
      </trkpt>
      <trkpt lat="45.935530783608556" lon="9.529320085421205">
        <ele>1600.6500000000001</ele>
        <time>2021-08-29T14:03:18Z</time>
      </trkpt>
      <trkpt lat="45.935447802767158" lon="9.529257472604513">
        <ele>1601.6400000000001</ele>
        <time>2021-08-29T14:03:28Z</time>
      </trkpt>
      <trkpt lat="45.935346214100718" lon="9.529201900586486">
        <ele>1603.3</ele>
        <time>2021-08-29T14:03:37Z</time>
      </trkpt>
      <trkpt lat="45.935242613777518" lon="9.529168708249927">
        <ele>1603.1800000000001</ele>
        <time>2021-08-29T14:03:47Z</time>
      </trkpt>
      <trkpt lat="45.935154184699059" lon="9.529126128181815">
        <ele>1604.76</ele>
        <time>2021-08-29T14:03:56Z</time>
      </trkpt>
      <trkpt lat="45.935054020956159" lon="9.529115064069629">
        <ele>1604.4100000000001</ele>
        <time>2021-08-29T14:04:06Z</time>
      </trkpt>
      <trkpt lat="45.934989480301738" lon="9.529089163988829">
        <ele>1605.6199999999999</ele>
        <time>2021-08-29T14:04:15Z</time>
      </trkpt>
      <trkpt lat="45.934910522773862" lon="9.529022527858615">
        <ele>1603.3499999999999</ele>
        <time>2021-08-29T14:04:24Z</time>
      </trkpt>
      <trkpt lat="45.934794601052999" lon="9.529024371877313">
        <ele>1601.3399999999999</ele>
        <time>2021-08-29T14:04:34Z</time>
      </trkpt>
      <trkpt lat="45.934723438695073" lon="9.52909360639751">
        <ele>1602.3900000000001</ele>
        <time>2021-08-29T14:04:43Z</time>
      </trkpt>
      <trkpt lat="45.934638697654009" lon="9.529138198122382">
        <ele>1605.4300000000001</ele>
        <time>2021-08-29T14:04:53Z</time>
      </trkpt>
      <trkpt lat="45.934565691277385" lon="9.529167283326387">
        <ele>1608.05</ele>
        <time>2021-08-29T14:05:03Z</time>
      </trkpt>
      <trkpt lat="45.934495534747839" lon="9.529231321066618">
        <ele>1609.1099999999999</ele>
        <time>2021-08-29T14:05:12Z</time>
      </trkpt>
      <trkpt lat="45.934397298842669" lon="9.529273230582476">
        <ele>1605.8800000000001</ele>
        <time>2021-08-29T14:05:22Z</time>
      </trkpt>
      <trkpt lat="45.934324460104108" lon="9.529309691861272">
        <ele>1608.6500000000001</ele>
        <time>2021-08-29T14:05:32Z</time>
      </trkpt>
      <trkpt lat="45.934245586395264" lon="9.52934380620718">
        <ele>1608.3099999999999</ele>
        <time>2021-08-29T14:05:42Z</time>
      </trkpt>
      <trkpt lat="45.93415061943233" lon="9.529427541419864">
        <ele>1604.8099999999999</ele>
        <time>2021-08-29T14:05:51Z</time>
      </trkpt>
      <trkpt lat="45.934107368811965" lon="9.529492417350411">
        <ele>1606.03</ele>
        <time>2021-08-29T14:06:00Z</time>
      </trkpt>
      <trkpt lat="45.934048863127828" lon="9.529557460919023">
        <ele>1607.8499999999999</ele>
        <time>2021-08-29T14:06:10Z</time>
      </trkpt>
      <trkpt lat="45.933954818174243" lon="9.5295534376055">
        <ele>1608.1600000000001</ele>
        <time>2021-08-29T14:06:20Z</time>
      </trkpt>
      <trkpt lat="45.933899413794279" lon="9.529546061530709">
        <ele>1641.01</ele>
        <time>2021-08-29T14:06:29Z</time>
      </trkpt>
      <trkpt lat="45.933879129588604" lon="9.529528124257922">
        <ele>1641.1900000000001</ele>
        <time>2021-08-29T14:06:38Z</time>
      </trkpt>
      <trkpt lat="45.933807883411646" lon="9.529505996033549">
        <ele>1641.04</ele>
        <time>2021-08-29T14:06:47Z</time>
      </trkpt>
      <trkpt lat="45.933743678033352" lon="9.52950457111001">
        <ele>1640.99</ele>
        <time>2021-08-29T14:06:56Z</time>
      </trkpt>
      <trkpt lat="45.93369715847075" lon="9.529443634673953">
        <ele>1641.0699999999999</ele>
        <time>2021-08-29T14:07:06Z</time>
      </trkpt>
      <trkpt lat="45.93367419205606" lon="9.529390912503004">
        <ele>1641.0799999999999</ele>
        <time>2021-08-29T14:07:15Z</time>
      </trkpt>
      <trkpt lat="45.933649884536862" lon="9.529317989945412">
        <ele>1641.02</ele>
        <time>2021-08-29T14:07:25Z</time>
      </trkpt>
      <trkpt lat="45.933650974184275" lon="9.529248671606183">
        <ele>1640.9300000000001</ele>
        <time>2021-08-29T14:07:34Z</time>
      </trkpt>
      <trkpt lat="45.933656841516495" lon="9.529181700199843">
        <ele>1641.1500000000001</ele>
        <time>2021-08-29T14:07:44Z</time>
      </trkpt>
      <trkpt lat="45.933670923113823" lon="9.529098216444254">
        <ele>1618.05</ele>
        <time>2021-08-29T14:07:53Z</time>
      </trkpt>
      <trkpt lat="45.933723896741867" lon="9.529029317200184">
        <ele>1621.26</ele>
        <time>2021-08-29T14:08:03Z</time>
      </trkpt>
      <trkpt lat="45.933752981945872" lon="9.528955137357116">
        <ele>1623.1600000000001</ele>
        <time>2021-08-29T14:08:12Z</time>
      </trkpt>
      <trkpt lat="45.933773769065738" lon="9.528847932815552">
        <ele>1626.4200000000001</ele>
        <time>2021-08-29T14:08:22Z</time>
      </trkpt>
      <trkpt lat="45.933823976665735" lon="9.528756989166141">
        <ele>1627.9400000000001</ele>
        <time>2021-08-29T14:08:31Z</time>
      </trkpt>
      <trkpt lat="45.933864461258054" lon="9.528667218983173">
        <ele>1630.5</ele>
        <time>2021-08-29T14:08:42Z</time>
      </trkpt>
      <trkpt lat="45.933858091011643" lon="9.528676858171821">
        <ele>1630</ele>
        <time>2021-08-29T14:08:52Z</time>
      </trkpt>
      <trkpt lat="45.933871082961559" lon="9.528693538159132">
        <ele>1628.6500000000001</ele>
        <time>2021-08-29T14:09:59Z</time>
      </trkpt>
      <trkpt lat="45.933888182044029" lon="9.528672499582171">
        <ele>1627.21</ele>
        <time>2021-08-29T14:10:09Z</time>
      </trkpt>
      <trkpt lat="45.933883404359221" lon="9.528633439913392">
        <ele>1628.5999999999999</ele>
        <time>2021-08-29T14:10:19Z</time>
      </trkpt>
      <trkpt lat="45.933883991092443" lon="9.528651377186179">
        <ele>1627.8900000000001</ele>
        <time>2021-08-29T14:10:29Z</time>
      </trkpt>
      <trkpt lat="45.933905364945531" lon="9.528625477105379">
        <ele>1628.46</ele>
        <time>2021-08-29T14:10:39Z</time>
      </trkpt>
      <trkpt lat="45.933895390480757" lon="9.52859572134912">
        <ele>1629.45</ele>
        <time>2021-08-29T14:10:48Z</time>
      </trkpt>
      <trkpt lat="45.933907041326165" lon="9.528550375252962">
        <ele>1631.0799999999999</ele>
        <time>2021-08-29T14:10:57Z</time>
      </trkpt>
      <trkpt lat="45.933941323310137" lon="9.528505196794868">
        <ele>1630.48</ele>
        <time>2021-08-29T14:11:07Z</time>
      </trkpt>
      <trkpt lat="45.933989016339183" lon="9.52843252569437">
        <ele>1631.4200000000001</ele>
        <time>2021-08-29T14:11:17Z</time>
      </trkpt>
      <trkpt lat="45.933965714648366" lon="9.528309479355812">
        <ele>1635.5899999999999</ele>
        <time>2021-08-29T14:11:26Z</time>
      </trkpt>
      <trkpt lat="45.93396982178092" lon="9.52821359038353">
        <ele>1637.8199999999999</ele>
        <time>2021-08-29T14:11:36Z</time>
      </trkpt>
      <trkpt lat="45.933972839266062" lon="9.528133794665337">
        <ele>1646.01</ele>
        <time>2021-08-29T14:11:45Z</time>
      </trkpt>
      <trkpt lat="45.934003600850701" lon="9.52803916297853">
        <ele>1645.96</ele>
        <time>2021-08-29T14:11:55Z</time>
      </trkpt>
      <trkpt lat="45.93398348428309" lon="9.527925672009587">
        <ele>1646.1300000000001</ele>
        <time>2021-08-29T14:12:04Z</time>
      </trkpt>
      <trkpt lat="45.933991698548198" lon="9.527856102213264">
        <ele>1646.3399999999999</ele>
        <time>2021-08-29T14:12:15Z</time>
      </trkpt>
      <trkpt lat="45.934004606679082" lon="9.527755435556173">
        <ele>1646.3499999999999</ele>
        <time>2021-08-29T14:12:25Z</time>
      </trkpt>
      <trkpt lat="45.934030758216977" lon="9.527653595432639">
        <ele>1646.29</ele>
        <time>2021-08-29T14:12:34Z</time>
      </trkpt>
      <trkpt lat="45.934069063514471" lon="9.527595089748502">
        <ele>1646.3299999999999</ele>
        <time>2021-08-29T14:12:44Z</time>
      </trkpt>
      <trkpt lat="45.934069314971566" lon="9.52757690101862">
        <ele>1646.3900000000001</ele>
        <time>2021-08-29T14:12:54Z</time>
      </trkpt>
      <trkpt lat="45.934029584750533" lon="9.527528705075383">
        <ele>1646.22</ele>
        <time>2021-08-29T14:13:04Z</time>
      </trkpt>
      <trkpt lat="45.933991614729166" lon="9.527517976239324">
        <ele>1646.0999999999999</ele>
        <time>2021-08-29T14:13:13Z</time>
      </trkpt>
      <trkpt lat="45.933978036046028" lon="9.52750850468874">
        <ele>1646.3</ele>
        <time>2021-08-29T14:13:24Z</time>
      </trkpt>
      <trkpt lat="45.933976862579584" lon="9.527508420869708">
        <ele>1646.3299999999999</ele>
        <time>2021-08-29T14:13:30Z</time>
      </trkpt>
    </trkseg>
  </trk>

</gpx>